<?xml version="1.0" encoding="UTF-8" standalone="no" ?>
<gpx xmlns="http://www.topografix.com/GPX/1/1" xmlns:xsi="http://www.w3.org/2001/XMLSchema-instance" xsi:schemaLocation="http://www.topografix.com/GPX/1/1 http://www.topografix.com/GPX/1/1/gpx.xsd" version="1.1" creator="VisuGPX - https://www.visugpx.com">
  <metadata>
    <name>skating </name>
    <desc><![CDATA[Autrans 1ere 2015 16]]></desc>
  </metadata>
  <trk>
    <name><![CDATA[skating _1]]></name>
    <trkseg>
      <trkpt lat="45.19402" lon="5.55574">
        <ele>1225</ele>
        <time>2015-11-29T08:44:32.000Z</time>
      </trkpt>
      <trkpt lat="45.19409" lon="5.5559">
        <ele>1230</ele>
        <time>2015-11-29T08:47:39.000Z</time>
      </trkpt>
      <trkpt lat="45.19415" lon="5.55601">
        <ele>1230</ele>
        <time>2015-11-29T08:47:40.000Z</time>
      </trkpt>
      <trkpt lat="45.19421" lon="5.55609">
        <ele>1226</ele>
        <time>2015-11-29T08:47:42.000Z</time>
      </trkpt>
      <trkpt lat="45.19427" lon="5.55615">
        <ele>1229</ele>
        <time>2015-11-29T08:47:44.000Z</time>
      </trkpt>
      <trkpt lat="45.19432" lon="5.55621">
        <ele>1229</ele>
        <time>2015-11-29T08:47:46.000Z</time>
      </trkpt>
      <trkpt lat="45.19441" lon="5.55631">
        <ele>1229</ele>
        <time>2015-11-29T08:47:48.000Z</time>
      </trkpt>
      <trkpt lat="45.19441" lon="5.55631">
        <ele>1229</ele>
        <time>2015-11-29T08:47:50.000Z</time>
      </trkpt>
      <trkpt lat="45.19441" lon="5.55631">
        <ele>1229</ele>
        <time>2015-11-29T08:47:52.000Z</time>
      </trkpt>
      <trkpt lat="45.19441" lon="5.55631">
        <ele>1229</ele>
        <time>2015-11-29T08:47:55.000Z</time>
      </trkpt>
      <trkpt lat="45.19441" lon="5.55631">
        <ele>1229</ele>
        <time>2015-11-29T08:47:56.000Z</time>
      </trkpt>
      <trkpt lat="45.19441" lon="5.55631">
        <ele>1229</ele>
        <time>2015-11-29T08:47:58.000Z</time>
      </trkpt>
      <trkpt lat="45.19441" lon="5.55631">
        <ele>1229</ele>
        <time>2015-11-29T08:48:00.000Z</time>
      </trkpt>
      <trkpt lat="45.19472" lon="5.55667">
        <ele>1232</ele>
        <time>2015-11-29T08:48:06.000Z</time>
      </trkpt>
      <trkpt lat="45.19483" lon="5.55676">
        <ele>1233</ele>
        <time>2015-11-29T08:48:10.000Z</time>
      </trkpt>
      <trkpt lat="45.19495" lon="5.55688">
        <ele>1238</ele>
        <time>2015-11-29T08:48:14.000Z</time>
      </trkpt>
      <trkpt lat="45.19511" lon="5.55699">
        <ele>1236</ele>
        <time>2015-11-29T08:48:18.000Z</time>
      </trkpt>
      <trkpt lat="45.19519" lon="5.55707">
        <ele>1239</ele>
        <time>2015-11-29T08:48:20.000Z</time>
      </trkpt>
      <trkpt lat="45.19531" lon="5.55715">
        <ele>1234</ele>
        <time>2015-11-29T08:48:24.000Z</time>
      </trkpt>
      <trkpt lat="45.19547" lon="5.55727">
        <ele>1236</ele>
        <time>2015-11-29T08:48:26.000Z</time>
      </trkpt>
      <trkpt lat="45.19563" lon="5.55736">
        <ele>1238</ele>
        <time>2015-11-29T08:48:30.000Z</time>
      </trkpt>
      <trkpt lat="45.19563" lon="5.55736">
        <ele>1238</ele>
        <time>2015-11-29T08:48:32.000Z</time>
      </trkpt>
      <trkpt lat="45.19563" lon="5.55736">
        <ele>1238</ele>
        <time>2015-11-29T08:48:34.000Z</time>
      </trkpt>
      <trkpt lat="45.19563" lon="5.55736">
        <ele>1238</ele>
        <time>2015-11-29T08:48:37.000Z</time>
      </trkpt>
      <trkpt lat="45.19563" lon="5.55736">
        <ele>1238</ele>
        <time>2015-11-29T08:48:38.000Z</time>
      </trkpt>
      <trkpt lat="45.19563" lon="5.55736">
        <ele>1238</ele>
        <time>2015-11-29T08:48:40.000Z</time>
      </trkpt>
      <trkpt lat="45.19563" lon="5.55736">
        <ele>1238</ele>
        <time>2015-11-29T08:48:42.000Z</time>
      </trkpt>
      <trkpt lat="45.19563" lon="5.55736">
        <ele>1238</ele>
        <time>2015-11-29T08:48:48.000Z</time>
      </trkpt>
      <trkpt lat="45.19563" lon="5.55736">
        <ele>1238</ele>
        <time>2015-11-29T08:48:51.000Z</time>
      </trkpt>
      <trkpt lat="45.19608" lon="5.55775">
        <ele>1244</ele>
        <time>2015-11-29T08:49:01.000Z</time>
      </trkpt>
      <trkpt lat="45.19618" lon="5.55774">
        <ele>1249</ele>
        <time>2015-11-29T08:49:04.000Z</time>
      </trkpt>
      <trkpt lat="45.1963" lon="5.55775">
        <ele>1252</ele>
        <time>2015-11-29T08:49:10.000Z</time>
      </trkpt>
      <trkpt lat="45.1963" lon="5.55775">
        <ele>1252</ele>
        <time>2015-11-29T08:49:11.000Z</time>
      </trkpt>
      <trkpt lat="45.1963" lon="5.55775">
        <ele>1252</ele>
        <time>2015-11-29T08:49:13.000Z</time>
      </trkpt>
      <trkpt lat="45.19641" lon="5.55775">
        <ele>1260</ele>
        <time>2015-11-29T08:49:21.000Z</time>
      </trkpt>
      <trkpt lat="45.19649" lon="5.55774">
        <ele>1260</ele>
        <time>2015-11-29T08:49:24.000Z</time>
      </trkpt>
      <trkpt lat="45.19656" lon="5.55774">
        <ele>1262</ele>
        <time>2015-11-29T08:49:25.000Z</time>
      </trkpt>
      <trkpt lat="45.19661" lon="5.55775">
        <ele>1262</ele>
        <time>2015-11-29T08:49:27.000Z</time>
      </trkpt>
      <trkpt lat="45.19661" lon="5.55775">
        <ele>1262</ele>
        <time>2015-11-29T08:49:29.000Z</time>
      </trkpt>
      <trkpt lat="45.19661" lon="5.55775">
        <ele>1262</ele>
        <time>2015-11-29T08:49:31.000Z</time>
      </trkpt>
      <trkpt lat="45.19669" lon="5.55774">
        <ele>1261</ele>
        <time>2015-11-29T08:49:35.000Z</time>
      </trkpt>
      <trkpt lat="45.19676" lon="5.55773">
        <ele>1263</ele>
        <time>2015-11-29T08:49:38.000Z</time>
      </trkpt>
      <trkpt lat="45.19682" lon="5.55773">
        <ele>1265</ele>
        <time>2015-11-29T08:49:40.000Z</time>
      </trkpt>
      <trkpt lat="45.19682" lon="5.55773">
        <ele>1265</ele>
        <time>2015-11-29T08:49:41.000Z</time>
      </trkpt>
      <trkpt lat="45.19682" lon="5.55773">
        <ele>1265</ele>
        <time>2015-11-29T08:49:44.000Z</time>
      </trkpt>
      <trkpt lat="45.19682" lon="5.55773">
        <ele>1265</ele>
        <time>2015-11-29T08:49:46.000Z</time>
      </trkpt>
      <trkpt lat="45.19682" lon="5.55773">
        <ele>1265</ele>
        <time>2015-11-29T08:49:47.000Z</time>
      </trkpt>
      <trkpt lat="45.19697" lon="5.55775">
        <ele>1262</ele>
        <time>2015-11-29T08:49:57.000Z</time>
      </trkpt>
      <trkpt lat="45.19706" lon="5.55776">
        <ele>1263</ele>
        <time>2015-11-29T08:50:00.000Z</time>
      </trkpt>
      <trkpt lat="45.19713" lon="5.55777">
        <ele>1262</ele>
        <time>2015-11-29T08:50:01.000Z</time>
      </trkpt>
      <trkpt lat="45.19718" lon="5.55777">
        <ele>1260</ele>
        <time>2015-11-29T08:50:03.000Z</time>
      </trkpt>
      <trkpt lat="45.19722" lon="5.55777">
        <ele>1262</ele>
        <time>2015-11-29T08:50:05.000Z</time>
      </trkpt>
      <trkpt lat="45.19733" lon="5.55777">
        <ele>1264</ele>
        <time>2015-11-29T08:50:08.000Z</time>
      </trkpt>
      <trkpt lat="45.19745" lon="5.55777">
        <ele>1263</ele>
        <time>2015-11-29T08:50:13.000Z</time>
      </trkpt>
      <trkpt lat="45.19745" lon="5.55777">
        <ele>1263</ele>
        <time>2015-11-29T08:50:15.000Z</time>
      </trkpt>
      <trkpt lat="45.19745" lon="5.55777">
        <ele>1263</ele>
        <time>2015-11-29T08:50:24.000Z</time>
      </trkpt>
      <trkpt lat="45.19745" lon="5.55777">
        <ele>1263</ele>
        <time>2015-11-29T08:50:25.000Z</time>
      </trkpt>
      <trkpt lat="45.19745" lon="5.55777">
        <ele>1263</ele>
        <time>2015-11-29T08:50:27.000Z</time>
      </trkpt>
      <trkpt lat="45.19769" lon="5.55795">
        <ele>1256</ele>
        <time>2015-11-29T08:50:55.000Z</time>
      </trkpt>
      <trkpt lat="45.19781" lon="5.55804">
        <ele>1258</ele>
        <time>2015-11-29T08:51:03.000Z</time>
      </trkpt>
      <trkpt lat="45.19788" lon="5.55813">
        <ele>1256</ele>
        <time>2015-11-29T08:51:08.000Z</time>
      </trkpt>
      <trkpt lat="45.19799" lon="5.55824">
        <ele>1261</ele>
        <time>2015-11-29T08:51:14.000Z</time>
      </trkpt>
      <trkpt lat="45.1981" lon="5.55823">
        <ele>1259</ele>
        <time>2015-11-29T08:51:17.000Z</time>
      </trkpt>
      <trkpt lat="45.19815" lon="5.55822">
        <ele>1261</ele>
        <time>2015-11-29T08:51:21.000Z</time>
      </trkpt>
      <trkpt lat="45.19815" lon="5.55822">
        <ele>1261</ele>
        <time>2015-11-29T08:51:24.000Z</time>
      </trkpt>
      <trkpt lat="45.19815" lon="5.55822">
        <ele>1261</ele>
        <time>2015-11-29T08:51:25.000Z</time>
      </trkpt>
      <trkpt lat="45.19815" lon="5.55822">
        <ele>1261</ele>
        <time>2015-11-29T08:51:28.000Z</time>
      </trkpt>
      <trkpt lat="45.19815" lon="5.55822">
        <ele>1261</ele>
        <time>2015-11-29T08:51:29.000Z</time>
      </trkpt>
      <trkpt lat="45.19815" lon="5.55822">
        <ele>1261</ele>
        <time>2015-11-29T08:51:31.000Z</time>
      </trkpt>
      <trkpt lat="45.19815" lon="5.55822">
        <ele>1261</ele>
        <time>2015-11-29T08:51:33.000Z</time>
      </trkpt>
      <trkpt lat="45.19836" lon="5.5582">
        <ele>1275</ele>
        <time>2015-11-29T08:51:38.000Z</time>
      </trkpt>
      <trkpt lat="45.19849" lon="5.55818">
        <ele>1277</ele>
        <time>2015-11-29T08:51:39.000Z</time>
      </trkpt>
      <trkpt lat="45.19859" lon="5.55816">
        <ele>1280</ele>
        <time>2015-11-29T08:51:41.000Z</time>
      </trkpt>
      <trkpt lat="45.19867" lon="5.55812">
        <ele>1276</ele>
        <time>2015-11-29T08:51:43.000Z</time>
      </trkpt>
      <trkpt lat="45.19874" lon="5.55807">
        <ele>1275</ele>
        <time>2015-11-29T08:51:45.000Z</time>
      </trkpt>
      <trkpt lat="45.19884" lon="5.55796">
        <ele>1275</ele>
        <time>2015-11-29T08:51:47.000Z</time>
      </trkpt>
      <trkpt lat="45.19884" lon="5.55796">
        <ele>1275</ele>
        <time>2015-11-29T08:51:49.000Z</time>
      </trkpt>
      <trkpt lat="45.19884" lon="5.55796">
        <ele>1275</ele>
        <time>2015-11-29T08:51:51.000Z</time>
      </trkpt>
      <trkpt lat="45.19884" lon="5.55796">
        <ele>1275</ele>
        <time>2015-11-29T08:51:54.000Z</time>
      </trkpt>
      <trkpt lat="45.19884" lon="5.55796">
        <ele>1275</ele>
        <time>2015-11-29T08:51:55.000Z</time>
      </trkpt>
      <trkpt lat="45.19884" lon="5.55796">
        <ele>1275</ele>
        <time>2015-11-29T08:51:58.000Z</time>
      </trkpt>
      <trkpt lat="45.19884" lon="5.55796">
        <ele>1275</ele>
        <time>2015-11-29T08:51:59.000Z</time>
      </trkpt>
      <trkpt lat="45.19884" lon="5.55796">
        <ele>1275</ele>
        <time>2015-11-29T08:52:01.000Z</time>
      </trkpt>
      <trkpt lat="45.19904" lon="5.55792">
        <ele>1276</ele>
        <time>2015-11-29T08:54:57.000Z</time>
      </trkpt>
      <trkpt lat="45.19915" lon="5.55789">
        <ele>1276</ele>
        <time>2015-11-29T08:54:59.000Z</time>
      </trkpt>
      <trkpt lat="45.19922" lon="5.55787">
        <ele>1274</ele>
        <time>2015-11-29T08:55:02.000Z</time>
      </trkpt>
      <trkpt lat="45.19927" lon="5.55785">
        <ele>1275</ele>
        <time>2015-11-29T08:55:04.000Z</time>
      </trkpt>
      <trkpt lat="45.19927" lon="5.55785">
        <ele>1275</ele>
        <time>2015-11-29T08:55:05.000Z</time>
      </trkpt>
      <trkpt lat="45.19927" lon="5.55785">
        <ele>1275</ele>
        <time>2015-11-29T08:55:07.000Z</time>
      </trkpt>
      <trkpt lat="45.19936" lon="5.55783">
        <ele>1276</ele>
        <time>2015-11-29T08:55:13.000Z</time>
      </trkpt>
      <trkpt lat="45.19941" lon="5.55781">
        <ele>1278</ele>
        <time>2015-11-29T08:55:16.000Z</time>
      </trkpt>
      <trkpt lat="45.19947" lon="5.55778">
        <ele>1278</ele>
        <time>2015-11-29T08:55:19.000Z</time>
      </trkpt>
      <trkpt lat="45.19951" lon="5.55776">
        <ele>1279</ele>
        <time>2015-11-29T08:55:21.000Z</time>
      </trkpt>
      <trkpt lat="45.19955" lon="5.55774">
        <ele>1278</ele>
        <time>2015-11-29T08:55:24.000Z</time>
      </trkpt>
      <trkpt lat="45.1996" lon="5.55772">
        <ele>1279</ele>
        <time>2015-11-29T08:55:25.000Z</time>
      </trkpt>
      <trkpt lat="45.19965" lon="5.5577">
        <ele>1279</ele>
        <time>2015-11-29T08:55:27.000Z</time>
      </trkpt>
      <trkpt lat="45.19975" lon="5.55765">
        <ele>1281</ele>
        <time>2015-11-29T08:55:29.000Z</time>
      </trkpt>
      <trkpt lat="45.19984" lon="5.55759">
        <ele>1284</ele>
        <time>2015-11-29T08:55:33.000Z</time>
      </trkpt>
      <trkpt lat="45.19984" lon="5.55759">
        <ele>1284</ele>
        <time>2015-11-29T08:55:35.000Z</time>
      </trkpt>
      <trkpt lat="45.19984" lon="5.55759">
        <ele>1284</ele>
        <time>2015-11-29T08:55:38.000Z</time>
      </trkpt>
      <trkpt lat="45.19984" lon="5.55759">
        <ele>1284</ele>
        <time>2015-11-29T08:55:39.000Z</time>
      </trkpt>
      <trkpt lat="45.19984" lon="5.55759">
        <ele>1284</ele>
        <time>2015-11-29T08:55:41.000Z</time>
      </trkpt>
      <trkpt lat="45.19984" lon="5.55759">
        <ele>1284</ele>
        <time>2015-11-29T08:55:47.000Z</time>
      </trkpt>
      <trkpt lat="45.19984" lon="5.55759">
        <ele>1284</ele>
        <time>2015-11-29T08:55:49.000Z</time>
      </trkpt>
      <trkpt lat="45.19984" lon="5.55759">
        <ele>1284</ele>
        <time>2015-11-29T08:55:51.000Z</time>
      </trkpt>
      <trkpt lat="45.19984" lon="5.55759">
        <ele>1284</ele>
        <time>2015-11-29T08:55:54.000Z</time>
      </trkpt>
      <trkpt lat="45.19984" lon="5.55759">
        <ele>1284</ele>
        <time>2015-11-29T08:55:55.000Z</time>
      </trkpt>
      <trkpt lat="45.19984" lon="5.55759">
        <ele>1284</ele>
        <time>2015-11-29T08:55:58.000Z</time>
      </trkpt>
      <trkpt lat="45.20036" lon="5.55736">
        <ele>1293</ele>
        <time>2015-11-29T08:56:03.000Z</time>
      </trkpt>
      <trkpt lat="45.20046" lon="5.55739">
        <ele>1299</ele>
        <time>2015-11-29T08:56:10.000Z</time>
      </trkpt>
      <trkpt lat="45.20046" lon="5.55739">
        <ele>1299</ele>
        <time>2015-11-29T08:56:11.000Z</time>
      </trkpt>
      <trkpt lat="45.20046" lon="5.55739">
        <ele>1299</ele>
        <time>2015-11-29T08:56:13.000Z</time>
      </trkpt>
      <trkpt lat="45.20046" lon="5.55739">
        <ele>1299</ele>
        <time>2015-11-29T08:56:16.000Z</time>
      </trkpt>
      <trkpt lat="45.20057" lon="5.55744">
        <ele>1304</ele>
        <time>2015-11-29T08:56:19.000Z</time>
      </trkpt>
      <trkpt lat="45.20069" lon="5.55754">
        <ele>1305</ele>
        <time>2015-11-29T08:56:25.000Z</time>
      </trkpt>
      <trkpt lat="45.20069" lon="5.55754">
        <ele>1305</ele>
        <time>2015-11-29T08:56:31.000Z</time>
      </trkpt>
      <trkpt lat="45.20069" lon="5.55754">
        <ele>1305</ele>
        <time>2015-11-29T08:56:33.000Z</time>
      </trkpt>
      <trkpt lat="45.20069" lon="5.55754">
        <ele>1305</ele>
        <time>2015-11-29T08:56:35.000Z</time>
      </trkpt>
      <trkpt lat="45.20069" lon="5.55754">
        <ele>1305</ele>
        <time>2015-11-29T08:56:38.000Z</time>
      </trkpt>
      <trkpt lat="45.20066" lon="5.55771">
        <ele>1299</ele>
        <time>2015-11-29T08:56:47.000Z</time>
      </trkpt>
      <trkpt lat="45.20064" lon="5.55782">
        <ele>1298</ele>
        <time>2015-11-29T08:56:49.000Z</time>
      </trkpt>
      <trkpt lat="45.20062" lon="5.55789">
        <ele>1297</ele>
        <time>2015-11-29T08:56:52.000Z</time>
      </trkpt>
      <trkpt lat="45.2006" lon="5.55797">
        <ele>1299</ele>
        <time>2015-11-29T08:56:55.000Z</time>
      </trkpt>
      <trkpt lat="45.2006" lon="5.55804">
        <ele>1299</ele>
        <time>2015-11-29T08:57:00.000Z</time>
      </trkpt>
      <trkpt lat="45.20061" lon="5.55811">
        <ele>1301</ele>
        <time>2015-11-29T08:57:03.000Z</time>
      </trkpt>
      <trkpt lat="45.20065" lon="5.55817">
        <ele>1302</ele>
        <time>2015-11-29T08:57:09.000Z</time>
      </trkpt>
      <trkpt lat="45.20069" lon="5.55823">
        <ele>1303</ele>
        <time>2015-11-29T08:57:13.000Z</time>
      </trkpt>
      <trkpt lat="45.20074" lon="5.55829">
        <ele>1305</ele>
        <time>2015-11-29T08:57:17.000Z</time>
      </trkpt>
      <trkpt lat="45.20074" lon="5.55829">
        <ele>1305</ele>
        <time>2015-11-29T08:57:22.000Z</time>
      </trkpt>
      <trkpt lat="45.20074" lon="5.55829">
        <ele>1305</ele>
        <time>2015-11-29T08:57:24.000Z</time>
      </trkpt>
      <trkpt lat="45.20082" lon="5.55833">
        <ele>1301</ele>
        <time>2015-11-29T08:57:28.000Z</time>
      </trkpt>
      <trkpt lat="45.20088" lon="5.55834">
        <ele>1302</ele>
        <time>2015-11-29T08:57:29.000Z</time>
      </trkpt>
      <trkpt lat="45.20094" lon="5.55834">
        <ele>1304</ele>
        <time>2015-11-29T08:57:31.000Z</time>
      </trkpt>
      <trkpt lat="45.20099" lon="5.55833">
        <ele>1305</ele>
        <time>2015-11-29T08:57:33.000Z</time>
      </trkpt>
      <trkpt lat="45.20104" lon="5.55833">
        <ele>1308</ele>
        <time>2015-11-29T08:57:36.000Z</time>
      </trkpt>
      <trkpt lat="45.20114" lon="5.55833">
        <ele>1308</ele>
        <time>2015-11-29T08:57:37.000Z</time>
      </trkpt>
      <trkpt lat="45.20128" lon="5.55831">
        <ele>1310</ele>
        <time>2015-11-29T08:57:41.000Z</time>
      </trkpt>
      <trkpt lat="45.20142" lon="5.55829">
        <ele>1313</ele>
        <time>2015-11-29T08:57:45.000Z</time>
      </trkpt>
      <trkpt lat="45.20155" lon="5.55826">
        <ele>1315</ele>
        <time>2015-11-29T08:57:50.000Z</time>
      </trkpt>
      <trkpt lat="45.20168" lon="5.55825">
        <ele>1313</ele>
        <time>2015-11-29T08:57:53.000Z</time>
      </trkpt>
      <trkpt lat="45.20168" lon="5.55825">
        <ele>1313</ele>
        <time>2015-11-29T08:57:55.000Z</time>
      </trkpt>
      <trkpt lat="45.20168" lon="5.55825">
        <ele>1313</ele>
        <time>2015-11-29T08:57:57.000Z</time>
      </trkpt>
      <trkpt lat="45.20178" lon="5.55847">
        <ele>1304</ele>
        <time>2015-11-29T08:57:59.000Z</time>
      </trkpt>
      <trkpt lat="45.2018" lon="5.55861">
        <ele>1303</ele>
        <time>2015-11-29T08:58:01.000Z</time>
      </trkpt>
      <trkpt lat="45.20179" lon="5.55895">
        <ele>1301</ele>
        <time>2015-11-29T08:58:04.000Z</time>
      </trkpt>
      <trkpt lat="45.20179" lon="5.55916">
        <ele>1302</ele>
        <time>2015-11-29T08:58:06.000Z</time>
      </trkpt>
      <trkpt lat="45.2018" lon="5.55931">
        <ele>1302</ele>
        <time>2015-11-29T08:58:08.000Z</time>
      </trkpt>
      <trkpt lat="45.2018" lon="5.55931">
        <ele>1302</ele>
        <time>2015-11-29T08:58:10.000Z</time>
      </trkpt>
      <trkpt lat="45.2018" lon="5.55931">
        <ele>1302</ele>
        <time>2015-11-29T08:58:12.000Z</time>
      </trkpt>
      <trkpt lat="45.2018" lon="5.55931">
        <ele>1302</ele>
        <time>2015-11-29T08:58:14.000Z</time>
      </trkpt>
      <trkpt lat="45.2018" lon="5.55931">
        <ele>1302</ele>
        <time>2015-11-29T08:58:17.000Z</time>
      </trkpt>
      <trkpt lat="45.2018" lon="5.55931">
        <ele>1302</ele>
        <time>2015-11-29T08:58:18.000Z</time>
      </trkpt>
      <trkpt lat="45.2018" lon="5.55931">
        <ele>1302</ele>
        <time>2015-11-29T08:58:20.000Z</time>
      </trkpt>
      <trkpt lat="45.20192" lon="5.55913">
        <ele>1289</ele>
        <time>2015-11-29T08:58:34.000Z</time>
      </trkpt>
      <trkpt lat="45.20194" lon="5.55898">
        <ele>1289</ele>
        <time>2015-11-29T08:58:40.000Z</time>
      </trkpt>
      <trkpt lat="45.20192" lon="5.55878">
        <ele>1290</ele>
        <time>2015-11-29T08:58:47.000Z</time>
      </trkpt>
      <trkpt lat="45.20192" lon="5.55865">
        <ele>1291</ele>
        <time>2015-11-29T08:58:50.000Z</time>
      </trkpt>
      <trkpt lat="45.20193" lon="5.55851">
        <ele>1290</ele>
        <time>2015-11-29T08:58:54.000Z</time>
      </trkpt>
      <trkpt lat="45.20193" lon="5.55851">
        <ele>1290</ele>
        <time>2015-11-29T08:58:58.000Z</time>
      </trkpt>
      <trkpt lat="45.20193" lon="5.55851">
        <ele>1290</ele>
        <time>2015-11-29T08:59:01.000Z</time>
      </trkpt>
      <trkpt lat="45.20193" lon="5.55851">
        <ele>1290</ele>
        <time>2015-11-29T08:59:02.000Z</time>
      </trkpt>
      <trkpt lat="45.20193" lon="5.55851">
        <ele>1290</ele>
        <time>2015-11-29T08:59:04.000Z</time>
      </trkpt>
      <trkpt lat="45.20192" lon="5.55859">
        <ele>1290</ele>
        <time>2015-11-29T08:59:08.000Z</time>
      </trkpt>
      <trkpt lat="45.20191" lon="5.55869">
        <ele>1289</ele>
        <time>2015-11-29T08:59:10.000Z</time>
      </trkpt>
      <trkpt lat="45.2019" lon="5.55889">
        <ele>1291</ele>
        <time>2015-11-29T08:59:13.000Z</time>
      </trkpt>
      <trkpt lat="45.20189" lon="5.55908">
        <ele>1290</ele>
        <time>2015-11-29T08:59:17.000Z</time>
      </trkpt>
      <trkpt lat="45.20189" lon="5.55908">
        <ele>1290</ele>
        <time>2015-11-29T08:59:19.000Z</time>
      </trkpt>
      <trkpt lat="45.20189" lon="5.55908">
        <ele>1290</ele>
        <time>2015-11-29T08:59:22.000Z</time>
      </trkpt>
      <trkpt lat="45.20202" lon="5.55922">
        <ele>1304</ele>
        <time>2015-11-29T08:59:32.000Z</time>
      </trkpt>
      <trkpt lat="45.20202" lon="5.55922">
        <ele>1304</ele>
        <time>2015-11-29T08:59:34.000Z</time>
      </trkpt>
      <trkpt lat="45.20202" lon="5.55922">
        <ele>1304</ele>
        <time>2015-11-29T08:59:35.000Z</time>
      </trkpt>
      <trkpt lat="45.20217" lon="5.5593">
        <ele>1309</ele>
        <time>2015-11-29T08:59:41.000Z</time>
      </trkpt>
      <trkpt lat="45.20226" lon="5.55935">
        <ele>1309</ele>
        <time>2015-11-29T08:59:43.000Z</time>
      </trkpt>
      <trkpt lat="45.20233" lon="5.55937">
        <ele>1313</ele>
        <time>2015-11-29T08:59:45.000Z</time>
      </trkpt>
      <trkpt lat="45.20239" lon="5.55938">
        <ele>1315</ele>
        <time>2015-11-29T08:59:47.000Z</time>
      </trkpt>
      <trkpt lat="45.20245" lon="5.55939">
        <ele>1317</ele>
        <time>2015-11-29T08:59:50.000Z</time>
      </trkpt>
      <trkpt lat="45.20255" lon="5.55942">
        <ele>1317</ele>
        <time>2015-11-29T08:59:51.000Z</time>
      </trkpt>
      <trkpt lat="45.20265" lon="5.55944">
        <ele>1314</ele>
        <time>2015-11-29T08:59:55.000Z</time>
      </trkpt>
      <trkpt lat="45.20265" lon="5.55944">
        <ele>1314</ele>
        <time>2015-11-29T08:59:58.000Z</time>
      </trkpt>
      <trkpt lat="45.20265" lon="5.55944">
        <ele>1314</ele>
        <time>2015-11-29T08:59:59.000Z</time>
      </trkpt>
      <trkpt lat="45.20265" lon="5.55944">
        <ele>1314</ele>
        <time>2015-11-29T09:00:02.000Z</time>
      </trkpt>
      <trkpt lat="45.20278" lon="5.55971">
        <ele>1315</ele>
        <time>2015-11-29T09:00:09.000Z</time>
      </trkpt>
      <trkpt lat="45.2029" lon="5.55972">
        <ele>1317</ele>
        <time>2015-11-29T09:00:18.000Z</time>
      </trkpt>
      <trkpt lat="45.20301" lon="5.55973">
        <ele>1315</ele>
        <time>2015-11-29T09:00:25.000Z</time>
      </trkpt>
      <trkpt lat="45.20318" lon="5.55967">
        <ele>1313</ele>
        <time>2015-11-29T09:00:31.000Z</time>
      </trkpt>
      <trkpt lat="45.20328" lon="5.55963">
        <ele>1317</ele>
        <time>2015-11-29T09:00:35.000Z</time>
      </trkpt>
      <trkpt lat="45.20328" lon="5.55963">
        <ele>1317</ele>
        <time>2015-11-29T09:00:37.000Z</time>
      </trkpt>
      <trkpt lat="45.20338" lon="5.55961">
        <ele>1319</ele>
        <time>2015-11-29T09:00:39.000Z</time>
      </trkpt>
      <trkpt lat="45.20338" lon="5.55961">
        <ele>1319</ele>
        <time>2015-11-29T09:00:46.000Z</time>
      </trkpt>
      <trkpt lat="45.20338" lon="5.55961">
        <ele>1319</ele>
        <time>2015-11-29T09:00:48.000Z</time>
      </trkpt>
      <trkpt lat="45.20365" lon="5.55945">
        <ele>1318</ele>
        <time>2015-11-29T09:00:54.000Z</time>
      </trkpt>
      <trkpt lat="45.20365" lon="5.55945">
        <ele>1318</ele>
        <time>2015-11-29T09:00:57.000Z</time>
      </trkpt>
      <trkpt lat="45.20365" lon="5.55945">
        <ele>1318</ele>
        <time>2015-11-29T09:00:59.000Z</time>
      </trkpt>
      <trkpt lat="45.20393" lon="5.55936">
        <ele>1326</ele>
        <time>2015-11-29T09:01:05.000Z</time>
      </trkpt>
      <trkpt lat="45.20401" lon="5.55933">
        <ele>1327</ele>
        <time>2015-11-29T09:01:10.000Z</time>
      </trkpt>
      <trkpt lat="45.20401" lon="5.55933">
        <ele>1327</ele>
        <time>2015-11-29T09:01:11.000Z</time>
      </trkpt>
      <trkpt lat="45.20401" lon="5.55933">
        <ele>1327</ele>
        <time>2015-11-29T09:01:13.000Z</time>
      </trkpt>
      <trkpt lat="45.20401" lon="5.55933">
        <ele>1327</ele>
        <time>2015-11-29T09:01:15.000Z</time>
      </trkpt>
      <trkpt lat="45.20401" lon="5.55933">
        <ele>1327</ele>
        <time>2015-11-29T09:01:18.000Z</time>
      </trkpt>
      <trkpt lat="45.20401" lon="5.55933">
        <ele>1327</ele>
        <time>2015-11-29T09:01:19.000Z</time>
      </trkpt>
      <trkpt lat="45.20417" lon="5.55928">
        <ele>1338</ele>
        <time>2015-11-29T09:01:28.000Z</time>
      </trkpt>
      <trkpt lat="45.20427" lon="5.55926">
        <ele>1338</ele>
        <time>2015-11-29T09:01:30.000Z</time>
      </trkpt>
      <trkpt lat="45.20435" lon="5.55926">
        <ele>1338</ele>
        <time>2015-11-29T09:01:31.000Z</time>
      </trkpt>
      <trkpt lat="45.20441" lon="5.55927">
        <ele>1340</ele>
        <time>2015-11-29T09:01:33.000Z</time>
      </trkpt>
      <trkpt lat="45.20446" lon="5.55928">
        <ele>1343</ele>
        <time>2015-11-29T09:01:35.000Z</time>
      </trkpt>
      <trkpt lat="45.20456" lon="5.5593">
        <ele>1341</ele>
        <time>2015-11-29T09:01:37.000Z</time>
      </trkpt>
      <trkpt lat="45.20467" lon="5.55935">
        <ele>1342</ele>
        <time>2015-11-29T09:01:43.000Z</time>
      </trkpt>
      <trkpt lat="45.20467" lon="5.55935">
        <ele>1342</ele>
        <time>2015-11-29T09:01:46.000Z</time>
      </trkpt>
      <trkpt lat="45.20467" lon="5.55935">
        <ele>1342</ele>
        <time>2015-11-29T09:01:47.000Z</time>
      </trkpt>
      <trkpt lat="45.20482" lon="5.55943">
        <ele>1344</ele>
        <time>2015-11-29T09:01:52.000Z</time>
      </trkpt>
      <trkpt lat="45.20493" lon="5.55946">
        <ele>1343</ele>
        <time>2015-11-29T09:01:55.000Z</time>
      </trkpt>
      <trkpt lat="45.20493" lon="5.55946">
        <ele>1343</ele>
        <time>2015-11-29T09:02:00.000Z</time>
      </trkpt>
      <trkpt lat="45.20493" lon="5.55946">
        <ele>1343</ele>
        <time>2015-11-29T09:02:01.000Z</time>
      </trkpt>
      <trkpt lat="45.20518" lon="5.5595">
        <ele>1339</ele>
        <time>2015-11-29T09:02:05.000Z</time>
      </trkpt>
      <trkpt lat="45.2053" lon="5.55958">
        <ele>1339</ele>
        <time>2015-11-29T09:02:09.000Z</time>
      </trkpt>
      <trkpt lat="45.2053" lon="5.55958">
        <ele>1339</ele>
        <time>2015-11-29T09:02:11.000Z</time>
      </trkpt>
      <trkpt lat="45.2053" lon="5.55958">
        <ele>1339</ele>
        <time>2015-11-29T09:02:13.000Z</time>
      </trkpt>
      <trkpt lat="45.2053" lon="5.55958">
        <ele>1339</ele>
        <time>2015-11-29T09:02:15.000Z</time>
      </trkpt>
      <trkpt lat="45.2053" lon="5.55958">
        <ele>1339</ele>
        <time>2015-11-29T09:02:17.000Z</time>
      </trkpt>
      <trkpt lat="45.2053" lon="5.55958">
        <ele>1339</ele>
        <time>2015-11-29T09:02:19.000Z</time>
      </trkpt>
      <trkpt lat="45.2053" lon="5.55958">
        <ele>1339</ele>
        <time>2015-11-29T09:02:22.000Z</time>
      </trkpt>
      <trkpt lat="45.2053" lon="5.55958">
        <ele>1339</ele>
        <time>2015-11-29T09:02:24.000Z</time>
      </trkpt>
      <trkpt lat="45.2053" lon="5.55958">
        <ele>1339</ele>
        <time>2015-11-29T09:02:25.000Z</time>
      </trkpt>
      <trkpt lat="45.2053" lon="5.55958">
        <ele>1339</ele>
        <time>2015-11-29T09:02:34.000Z</time>
      </trkpt>
      <trkpt lat="45.2053" lon="5.55958">
        <ele>1339</ele>
        <time>2015-11-29T09:02:36.000Z</time>
      </trkpt>
      <trkpt lat="45.2053" lon="5.55958">
        <ele>1339</ele>
        <time>2015-11-29T09:02:37.000Z</time>
      </trkpt>
      <trkpt lat="45.2053" lon="5.55958">
        <ele>1339</ele>
        <time>2015-11-29T09:02:39.000Z</time>
      </trkpt>
      <trkpt lat="45.2062" lon="5.55942">
        <ele>1320</ele>
        <time>2015-11-29T09:02:43.000Z</time>
      </trkpt>
      <trkpt lat="45.20632" lon="5.55934">
        <ele>1322</ele>
        <time>2015-11-29T09:02:47.000Z</time>
      </trkpt>
      <trkpt lat="45.20641" lon="5.55925">
        <ele>1322</ele>
        <time>2015-11-29T09:02:52.000Z</time>
      </trkpt>
      <trkpt lat="45.20641" lon="5.55925">
        <ele>1322</ele>
        <time>2015-11-29T09:02:53.000Z</time>
      </trkpt>
      <trkpt lat="45.20645" lon="5.55919">
        <ele>1321</ele>
        <time>2015-11-29T09:02:55.000Z</time>
      </trkpt>
      <trkpt lat="45.20649" lon="5.55914">
        <ele>1319</ele>
        <time>2015-11-29T09:02:58.000Z</time>
      </trkpt>
      <trkpt lat="45.20652" lon="5.55909">
        <ele>1317</ele>
        <time>2015-11-29T09:02:59.000Z</time>
      </trkpt>
      <trkpt lat="45.20652" lon="5.55909">
        <ele>1317</ele>
        <time>2015-11-29T09:03:02.000Z</time>
      </trkpt>
      <trkpt lat="45.20652" lon="5.55909">
        <ele>1317</ele>
        <time>2015-11-29T09:03:03.000Z</time>
      </trkpt>
      <trkpt lat="45.20659" lon="5.55896">
        <ele>1322</ele>
        <time>2015-11-29T09:03:09.000Z</time>
      </trkpt>
      <trkpt lat="45.20665" lon="5.55887">
        <ele>1323</ele>
        <time>2015-11-29T09:03:11.000Z</time>
      </trkpt>
      <trkpt lat="45.20668" lon="5.5588">
        <ele>1324</ele>
        <time>2015-11-29T09:03:14.000Z</time>
      </trkpt>
      <trkpt lat="45.20668" lon="5.5588">
        <ele>1324</ele>
        <time>2015-11-29T09:03:15.000Z</time>
      </trkpt>
      <trkpt lat="45.20668" lon="5.5588">
        <ele>1324</ele>
        <time>2015-11-29T09:03:17.000Z</time>
      </trkpt>
      <trkpt lat="45.20668" lon="5.5588">
        <ele>1324</ele>
        <time>2015-11-29T09:03:20.000Z</time>
      </trkpt>
      <trkpt lat="45.20675" lon="5.55861">
        <ele>1322</ele>
        <time>2015-11-29T09:03:25.000Z</time>
      </trkpt>
      <trkpt lat="45.2068" lon="5.5585">
        <ele>1321</ele>
        <time>2015-11-29T09:03:27.000Z</time>
      </trkpt>
      <trkpt lat="45.2068" lon="5.5585">
        <ele>1321</ele>
        <time>2015-11-29T09:03:29.000Z</time>
      </trkpt>
      <trkpt lat="45.2068" lon="5.5585">
        <ele>1321</ele>
        <time>2015-11-29T09:03:31.000Z</time>
      </trkpt>
      <trkpt lat="45.2068" lon="5.5585">
        <ele>1321</ele>
        <time>2015-11-29T09:03:33.000Z</time>
      </trkpt>
      <trkpt lat="45.2068" lon="5.5585">
        <ele>1321</ele>
        <time>2015-11-29T09:03:36.000Z</time>
      </trkpt>
      <trkpt lat="45.20689" lon="5.5583">
        <ele>1323</ele>
        <time>2015-11-29T09:03:42.000Z</time>
      </trkpt>
      <trkpt lat="45.20695" lon="5.55817">
        <ele>1325</ele>
        <time>2015-11-29T09:03:43.000Z</time>
      </trkpt>
      <trkpt lat="45.207" lon="5.55809">
        <ele>1325</ele>
        <time>2015-11-29T09:03:45.000Z</time>
      </trkpt>
      <trkpt lat="45.207" lon="5.55809">
        <ele>1325</ele>
        <time>2015-11-29T09:03:47.000Z</time>
      </trkpt>
      <trkpt lat="45.207" lon="5.55809">
        <ele>1325</ele>
        <time>2015-11-29T09:03:49.000Z</time>
      </trkpt>
      <trkpt lat="45.20694" lon="5.55809">
        <ele>1326</ele>
        <time>2015-11-29T09:03:58.000Z</time>
      </trkpt>
      <trkpt lat="45.20688" lon="5.55811">
        <ele>1326</ele>
        <time>2015-11-29T09:03:59.000Z</time>
      </trkpt>
      <trkpt lat="45.20684" lon="5.55813">
        <ele>1324</ele>
        <time>2015-11-29T09:04:01.000Z</time>
      </trkpt>
      <trkpt lat="45.20684" lon="5.55813">
        <ele>1324</ele>
        <time>2015-11-29T09:04:04.000Z</time>
      </trkpt>
      <trkpt lat="45.20684" lon="5.55813">
        <ele>1324</ele>
        <time>2015-11-29T09:04:05.000Z</time>
      </trkpt>
      <trkpt lat="45.20684" lon="5.55813">
        <ele>1324</ele>
        <time>2015-11-29T09:04:07.000Z</time>
      </trkpt>
      <trkpt lat="45.20684" lon="5.55813">
        <ele>1324</ele>
        <time>2015-11-29T09:04:09.000Z</time>
      </trkpt>
      <trkpt lat="45.20684" lon="5.55813">
        <ele>1324</ele>
        <time>2015-11-29T09:04:13.000Z</time>
      </trkpt>
      <trkpt lat="45.20684" lon="5.55813">
        <ele>1324</ele>
        <time>2015-11-29T09:04:15.000Z</time>
      </trkpt>
      <trkpt lat="45.20691" lon="5.55807">
        <ele>1323</ele>
        <time>2015-11-29T09:06:05.000Z</time>
      </trkpt>
      <trkpt lat="45.20697" lon="5.55803">
        <ele>1325</ele>
        <time>2015-11-29T09:06:08.000Z</time>
      </trkpt>
      <trkpt lat="45.20703" lon="5.55798">
        <ele>1327</ele>
        <time>2015-11-29T09:06:10.000Z</time>
      </trkpt>
      <trkpt lat="45.20708" lon="5.55794">
        <ele>1328</ele>
        <time>2015-11-29T09:06:12.000Z</time>
      </trkpt>
      <trkpt lat="45.20712" lon="5.55788">
        <ele>1328</ele>
        <time>2015-11-29T09:06:14.000Z</time>
      </trkpt>
      <trkpt lat="45.20718" lon="5.55775">
        <ele>1327</ele>
        <time>2015-11-29T09:06:16.000Z</time>
      </trkpt>
      <trkpt lat="45.20721" lon="5.55762">
        <ele>1325</ele>
        <time>2015-11-29T09:06:19.000Z</time>
      </trkpt>
      <trkpt lat="45.20721" lon="5.55762">
        <ele>1325</ele>
        <time>2015-11-29T09:06:21.000Z</time>
      </trkpt>
      <trkpt lat="45.20721" lon="5.55762">
        <ele>1325</ele>
        <time>2015-11-29T09:06:24.000Z</time>
      </trkpt>
      <trkpt lat="45.20721" lon="5.55762">
        <ele>1325</ele>
        <time>2015-11-29T09:06:25.000Z</time>
      </trkpt>
      <trkpt lat="45.20721" lon="5.55762">
        <ele>1325</ele>
        <time>2015-11-29T09:06:27.000Z</time>
      </trkpt>
      <trkpt lat="45.20721" lon="5.55762">
        <ele>1325</ele>
        <time>2015-11-29T09:06:30.000Z</time>
      </trkpt>
      <trkpt lat="45.20721" lon="5.55762">
        <ele>1325</ele>
        <time>2015-11-29T09:06:32.000Z</time>
      </trkpt>
      <trkpt lat="45.20721" lon="5.55762">
        <ele>1325</ele>
        <time>2015-11-29T09:06:34.000Z</time>
      </trkpt>
      <trkpt lat="45.20721" lon="5.55762">
        <ele>1325</ele>
        <time>2015-11-29T09:06:36.000Z</time>
      </trkpt>
      <trkpt lat="45.2076" lon="5.55736">
        <ele>1327</ele>
        <time>2015-11-29T09:06:42.000Z</time>
      </trkpt>
      <trkpt lat="45.20765" lon="5.55747">
        <ele>1328</ele>
        <time>2015-11-29T09:06:43.000Z</time>
      </trkpt>
      <trkpt lat="45.20776" lon="5.55772">
        <ele>1329</ele>
        <time>2015-11-29T09:06:46.000Z</time>
      </trkpt>
      <trkpt lat="45.2078" lon="5.55787">
        <ele>1330</ele>
        <time>2015-11-29T09:06:49.000Z</time>
      </trkpt>
      <trkpt lat="45.20787" lon="5.55804">
        <ele>1334</ele>
        <time>2015-11-29T09:06:50.000Z</time>
      </trkpt>
      <trkpt lat="45.20794" lon="5.55812">
        <ele>1338</ele>
        <time>2015-11-29T09:06:52.000Z</time>
      </trkpt>
      <trkpt lat="45.20802" lon="5.55823">
        <ele>1339</ele>
        <time>2015-11-29T09:06:54.000Z</time>
      </trkpt>
      <trkpt lat="45.20802" lon="5.55823">
        <ele>1339</ele>
        <time>2015-11-29T09:06:56.000Z</time>
      </trkpt>
      <trkpt lat="45.20802" lon="5.55823">
        <ele>1339</ele>
        <time>2015-11-29T09:06:59.000Z</time>
      </trkpt>
      <trkpt lat="45.20802" lon="5.55823">
        <ele>1339</ele>
        <time>2015-11-29T09:07:02.000Z</time>
      </trkpt>
      <trkpt lat="45.20802" lon="5.55823">
        <ele>1339</ele>
        <time>2015-11-29T09:07:05.000Z</time>
      </trkpt>
      <trkpt lat="45.20802" lon="5.55823">
        <ele>1339</ele>
        <time>2015-11-29T09:07:06.000Z</time>
      </trkpt>
      <trkpt lat="45.20802" lon="5.55823">
        <ele>1339</ele>
        <time>2015-11-29T09:07:08.000Z</time>
      </trkpt>
      <trkpt lat="45.20802" lon="5.55823">
        <ele>1339</ele>
        <time>2015-11-29T09:07:11.000Z</time>
      </trkpt>
      <trkpt lat="45.20802" lon="5.55823">
        <ele>1339</ele>
        <time>2015-11-29T09:07:13.000Z</time>
      </trkpt>
      <trkpt lat="45.20878" lon="5.5586">
        <ele>1328</ele>
        <time>2015-11-29T09:07:19.000Z</time>
      </trkpt>
      <trkpt lat="45.20891" lon="5.55858">
        <ele>1327</ele>
        <time>2015-11-29T09:07:22.000Z</time>
      </trkpt>
      <trkpt lat="45.20905" lon="5.55853">
        <ele>1330</ele>
        <time>2015-11-29T09:07:27.000Z</time>
      </trkpt>
      <trkpt lat="45.2092" lon="5.55846">
        <ele>1336</ele>
        <time>2015-11-29T09:07:30.000Z</time>
      </trkpt>
      <trkpt lat="45.2092" lon="5.55846">
        <ele>1336</ele>
        <time>2015-11-29T09:07:34.000Z</time>
      </trkpt>
      <trkpt lat="45.2092" lon="5.55846">
        <ele>1336</ele>
        <time>2015-11-29T09:07:36.000Z</time>
      </trkpt>
      <trkpt lat="45.2092" lon="5.55846">
        <ele>1336</ele>
        <time>2015-11-29T09:07:38.000Z</time>
      </trkpt>
      <trkpt lat="45.2092" lon="5.55846">
        <ele>1336</ele>
        <time>2015-11-29T09:07:40.000Z</time>
      </trkpt>
      <trkpt lat="45.2092" lon="5.55846">
        <ele>1336</ele>
        <time>2015-11-29T09:07:43.000Z</time>
      </trkpt>
      <trkpt lat="45.2092" lon="5.55846">
        <ele>1336</ele>
        <time>2015-11-29T09:07:45.000Z</time>
      </trkpt>
      <trkpt lat="45.2092" lon="5.55846">
        <ele>1336</ele>
        <time>2015-11-29T09:07:47.000Z</time>
      </trkpt>
      <trkpt lat="45.2092" lon="5.55846">
        <ele>1336</ele>
        <time>2015-11-29T09:07:49.000Z</time>
      </trkpt>
      <trkpt lat="45.2092" lon="5.55846">
        <ele>1336</ele>
        <time>2015-11-29T09:07:51.000Z</time>
      </trkpt>
      <trkpt lat="45.2092" lon="5.55846">
        <ele>1336</ele>
        <time>2015-11-29T09:07:53.000Z</time>
      </trkpt>
      <trkpt lat="45.2094" lon="5.55823">
        <ele>1334</ele>
        <time>2015-11-29T09:07:57.000Z</time>
      </trkpt>
      <trkpt lat="45.20953" lon="5.5581">
        <ele>1335</ele>
        <time>2015-11-29T09:07:59.000Z</time>
      </trkpt>
      <trkpt lat="45.20961" lon="5.55803">
        <ele>1338</ele>
        <time>2015-11-29T09:08:00.000Z</time>
      </trkpt>
      <trkpt lat="45.20967" lon="5.55798">
        <ele>1340</ele>
        <time>2015-11-29T09:08:03.000Z</time>
      </trkpt>
      <trkpt lat="45.20967" lon="5.55798">
        <ele>1340</ele>
        <time>2015-11-29T09:08:04.000Z</time>
      </trkpt>
      <trkpt lat="45.20967" lon="5.55798">
        <ele>1340</ele>
        <time>2015-11-29T09:08:06.000Z</time>
      </trkpt>
      <trkpt lat="45.20967" lon="5.55798">
        <ele>1340</ele>
        <time>2015-11-29T09:08:09.000Z</time>
      </trkpt>
      <trkpt lat="45.20967" lon="5.55798">
        <ele>1340</ele>
        <time>2015-11-29T09:08:11.000Z</time>
      </trkpt>
      <trkpt lat="45.20967" lon="5.55798">
        <ele>1340</ele>
        <time>2015-11-29T09:08:12.000Z</time>
      </trkpt>
      <trkpt lat="45.20967" lon="5.55798">
        <ele>1340</ele>
        <time>2015-11-29T09:08:15.000Z</time>
      </trkpt>
      <trkpt lat="45.20967" lon="5.55798">
        <ele>1340</ele>
        <time>2015-11-29T09:08:17.000Z</time>
      </trkpt>
      <trkpt lat="45.20986" lon="5.55793">
        <ele>1350</ele>
        <time>2015-11-29T09:08:22.000Z</time>
      </trkpt>
      <trkpt lat="45.20998" lon="5.55791">
        <ele>1354</ele>
        <time>2015-11-29T09:08:25.000Z</time>
      </trkpt>
      <trkpt lat="45.21006" lon="5.5579">
        <ele>1350</ele>
        <time>2015-11-29T09:08:27.000Z</time>
      </trkpt>
      <trkpt lat="45.21012" lon="5.55792">
        <ele>1345</ele>
        <time>2015-11-29T09:08:28.000Z</time>
      </trkpt>
      <trkpt lat="45.21016" lon="5.55795">
        <ele>1343</ele>
        <time>2015-11-29T09:08:31.000Z</time>
      </trkpt>
      <trkpt lat="45.21016" lon="5.55795">
        <ele>1343</ele>
        <time>2015-11-29T09:08:33.000Z</time>
      </trkpt>
      <trkpt lat="45.21036" lon="5.55804">
        <ele>1345</ele>
        <time>2015-11-29T09:08:36.000Z</time>
      </trkpt>
      <trkpt lat="45.21046" lon="5.55815">
        <ele>1342</ele>
        <time>2015-11-29T09:08:40.000Z</time>
      </trkpt>
      <trkpt lat="45.21052" lon="5.55835">
        <ele>1340</ele>
        <time>2015-11-29T09:08:44.000Z</time>
      </trkpt>
      <trkpt lat="45.21057" lon="5.55848">
        <ele>1339</ele>
        <time>2015-11-29T09:08:46.000Z</time>
      </trkpt>
      <trkpt lat="45.21072" lon="5.55873">
        <ele>1339</ele>
        <time>2015-11-29T09:08:50.000Z</time>
      </trkpt>
      <trkpt lat="45.2108" lon="5.55888">
        <ele>1338</ele>
        <time>2015-11-29T09:08:52.000Z</time>
      </trkpt>
      <trkpt lat="45.2108" lon="5.55888">
        <ele>1338</ele>
        <time>2015-11-29T09:08:55.000Z</time>
      </trkpt>
      <trkpt lat="45.2108" lon="5.55888">
        <ele>1338</ele>
        <time>2015-11-29T09:08:56.000Z</time>
      </trkpt>
      <trkpt lat="45.2108" lon="5.55888">
        <ele>1338</ele>
        <time>2015-11-29T09:08:58.000Z</time>
      </trkpt>
      <trkpt lat="45.2108" lon="5.55888">
        <ele>1338</ele>
        <time>2015-11-29T09:09:01.000Z</time>
      </trkpt>
      <trkpt lat="45.2108" lon="5.55888">
        <ele>1338</ele>
        <time>2015-11-29T09:09:02.000Z</time>
      </trkpt>
      <trkpt lat="45.2108" lon="5.55888">
        <ele>1338</ele>
        <time>2015-11-29T09:09:04.000Z</time>
      </trkpt>
      <trkpt lat="45.2108" lon="5.55888">
        <ele>1338</ele>
        <time>2015-11-29T09:09:12.000Z</time>
      </trkpt>
      <trkpt lat="45.2108" lon="5.55888">
        <ele>1338</ele>
        <time>2015-11-29T09:09:14.000Z</time>
      </trkpt>
      <trkpt lat="45.2108" lon="5.55888">
        <ele>1338</ele>
        <time>2015-11-29T09:09:17.000Z</time>
      </trkpt>
      <trkpt lat="45.2108" lon="5.55888">
        <ele>1338</ele>
        <time>2015-11-29T09:09:19.000Z</time>
      </trkpt>
      <trkpt lat="45.21172" lon="5.55887">
        <ele>1350</ele>
        <time>2015-11-29T09:09:24.000Z</time>
      </trkpt>
      <trkpt lat="45.21172" lon="5.55887">
        <ele>1350</ele>
        <time>2015-11-29T09:09:28.000Z</time>
      </trkpt>
      <trkpt lat="45.21172" lon="5.55887">
        <ele>1350</ele>
        <time>2015-11-29T09:09:31.000Z</time>
      </trkpt>
      <trkpt lat="45.2118" lon="5.55895">
        <ele>1345</ele>
        <time>2015-11-29T09:10:43.000Z</time>
      </trkpt>
      <trkpt lat="45.21185" lon="5.55902">
        <ele>1345</ele>
        <time>2015-11-29T09:10:45.000Z</time>
      </trkpt>
      <trkpt lat="45.21191" lon="5.55909">
        <ele>1344</ele>
        <time>2015-11-29T09:10:47.000Z</time>
      </trkpt>
      <trkpt lat="45.21196" lon="5.55916">
        <ele>1345</ele>
        <time>2015-11-29T09:10:49.000Z</time>
      </trkpt>
      <trkpt lat="45.21201" lon="5.55923">
        <ele>1345</ele>
        <time>2015-11-29T09:10:51.000Z</time>
      </trkpt>
      <trkpt lat="45.21211" lon="5.55936">
        <ele>1343</ele>
        <time>2015-11-29T09:10:53.000Z</time>
      </trkpt>
      <trkpt lat="45.2122" lon="5.55947">
        <ele>1342</ele>
        <time>2015-11-29T09:10:56.000Z</time>
      </trkpt>
      <trkpt lat="45.2122" lon="5.55947">
        <ele>1342</ele>
        <time>2015-11-29T09:10:59.000Z</time>
      </trkpt>
      <trkpt lat="45.2122" lon="5.55947">
        <ele>1342</ele>
        <time>2015-11-29T09:11:01.000Z</time>
      </trkpt>
      <trkpt lat="45.2122" lon="5.55947">
        <ele>1342</ele>
        <time>2015-11-29T09:11:02.000Z</time>
      </trkpt>
      <trkpt lat="45.2122" lon="5.55947">
        <ele>1342</ele>
        <time>2015-11-29T09:11:05.000Z</time>
      </trkpt>
      <trkpt lat="45.21254" lon="5.55962">
        <ele>1347</ele>
        <time>2015-11-29T09:11:11.000Z</time>
      </trkpt>
      <trkpt lat="45.21262" lon="5.55967">
        <ele>1348</ele>
        <time>2015-11-29T09:11:15.000Z</time>
      </trkpt>
      <trkpt lat="45.21262" lon="5.55967">
        <ele>1348</ele>
        <time>2015-11-29T09:11:17.000Z</time>
      </trkpt>
      <trkpt lat="45.21262" lon="5.55967">
        <ele>1348</ele>
        <time>2015-11-29T09:11:18.000Z</time>
      </trkpt>
      <trkpt lat="45.21262" lon="5.55967">
        <ele>1348</ele>
        <time>2015-11-29T09:11:21.000Z</time>
      </trkpt>
      <trkpt lat="45.21285" lon="5.55978">
        <ele>1345</ele>
        <time>2015-11-29T09:11:24.000Z</time>
      </trkpt>
      <trkpt lat="45.21285" lon="5.55978">
        <ele>1345</ele>
        <time>2015-11-29T09:11:26.000Z</time>
      </trkpt>
      <trkpt lat="45.21296" lon="5.55986">
        <ele>1345</ele>
        <time>2015-11-29T09:11:29.000Z</time>
      </trkpt>
      <trkpt lat="45.21296" lon="5.55986">
        <ele>1345</ele>
        <time>2015-11-29T09:11:31.000Z</time>
      </trkpt>
      <trkpt lat="45.21307" lon="5.55995">
        <ele>1343</ele>
        <time>2015-11-29T09:11:33.000Z</time>
      </trkpt>
      <trkpt lat="45.21307" lon="5.55995">
        <ele>1343</ele>
        <time>2015-11-29T09:11:35.000Z</time>
      </trkpt>
      <trkpt lat="45.21307" lon="5.55995">
        <ele>1343</ele>
        <time>2015-11-29T09:11:36.000Z</time>
      </trkpt>
      <trkpt lat="45.21307" lon="5.55995">
        <ele>1343</ele>
        <time>2015-11-29T09:11:38.000Z</time>
      </trkpt>
      <trkpt lat="45.21307" lon="5.55995">
        <ele>1343</ele>
        <time>2015-11-29T09:11:40.000Z</time>
      </trkpt>
      <trkpt lat="45.21307" lon="5.55995">
        <ele>1343</ele>
        <time>2015-11-29T09:11:43.000Z</time>
      </trkpt>
      <trkpt lat="45.21307" lon="5.55995">
        <ele>1343</ele>
        <time>2015-11-29T09:11:45.000Z</time>
      </trkpt>
      <trkpt lat="45.2135" lon="5.55996">
        <ele>1341</ele>
        <time>2015-11-29T09:11:51.000Z</time>
      </trkpt>
      <trkpt lat="45.21362" lon="5.56">
        <ele>1341</ele>
        <time>2015-11-29T09:11:54.000Z</time>
      </trkpt>
      <trkpt lat="45.21373" lon="5.56004">
        <ele>1340</ele>
        <time>2015-11-29T09:11:59.000Z</time>
      </trkpt>
      <trkpt lat="45.21373" lon="5.56004">
        <ele>1340</ele>
        <time>2015-11-29T09:12:01.000Z</time>
      </trkpt>
      <trkpt lat="45.21373" lon="5.56004">
        <ele>1340</ele>
        <time>2015-11-29T09:12:02.000Z</time>
      </trkpt>
      <trkpt lat="45.21373" lon="5.56004">
        <ele>1340</ele>
        <time>2015-11-29T09:12:05.000Z</time>
      </trkpt>
      <trkpt lat="45.21373" lon="5.56004">
        <ele>1340</ele>
        <time>2015-11-29T09:12:07.000Z</time>
      </trkpt>
      <trkpt lat="45.21373" lon="5.56004">
        <ele>1340</ele>
        <time>2015-11-29T09:12:09.000Z</time>
      </trkpt>
      <trkpt lat="45.21373" lon="5.56004">
        <ele>1340</ele>
        <time>2015-11-29T09:12:10.000Z</time>
      </trkpt>
      <trkpt lat="45.21387" lon="5.56004">
        <ele>1337</ele>
        <time>2015-11-29T09:12:28.000Z</time>
      </trkpt>
      <trkpt lat="45.21396" lon="5.56004">
        <ele>1337</ele>
        <time>2015-11-29T09:12:30.000Z</time>
      </trkpt>
      <trkpt lat="45.21396" lon="5.56004">
        <ele>1337</ele>
        <time>2015-11-29T09:12:32.000Z</time>
      </trkpt>
      <trkpt lat="45.21396" lon="5.56004">
        <ele>1337</ele>
        <time>2015-11-29T09:12:35.000Z</time>
      </trkpt>
      <trkpt lat="45.21407" lon="5.56001">
        <ele>1335</ele>
        <time>2015-11-29T09:14:03.000Z</time>
      </trkpt>
      <trkpt lat="45.21415" lon="5.55999">
        <ele>1335</ele>
        <time>2015-11-29T09:14:04.000Z</time>
      </trkpt>
      <trkpt lat="45.21421" lon="5.55998">
        <ele>1335</ele>
        <time>2015-11-29T09:14:07.000Z</time>
      </trkpt>
      <trkpt lat="45.21427" lon="5.55997">
        <ele>1334</ele>
        <time>2015-11-29T09:14:09.000Z</time>
      </trkpt>
      <trkpt lat="45.21433" lon="5.55997">
        <ele>1334</ele>
        <time>2015-11-29T09:14:11.000Z</time>
      </trkpt>
      <trkpt lat="45.21445" lon="5.55996">
        <ele>1333</ele>
        <time>2015-11-29T09:14:13.000Z</time>
      </trkpt>
      <trkpt lat="45.21461" lon="5.55995">
        <ele>1333</ele>
        <time>2015-11-29T09:14:18.000Z</time>
      </trkpt>
      <trkpt lat="45.21476" lon="5.55994">
        <ele>1334</ele>
        <time>2015-11-29T09:14:22.000Z</time>
      </trkpt>
      <trkpt lat="45.21491" lon="5.55993">
        <ele>1334</ele>
        <time>2015-11-29T09:14:25.000Z</time>
      </trkpt>
      <trkpt lat="45.21491" lon="5.55993">
        <ele>1334</ele>
        <time>2015-11-29T09:14:28.000Z</time>
      </trkpt>
      <trkpt lat="45.21491" lon="5.55993">
        <ele>1334</ele>
        <time>2015-11-29T09:14:30.000Z</time>
      </trkpt>
      <trkpt lat="45.21491" lon="5.55993">
        <ele>1334</ele>
        <time>2015-11-29T09:14:31.000Z</time>
      </trkpt>
      <trkpt lat="45.21491" lon="5.55993">
        <ele>1334</ele>
        <time>2015-11-29T09:14:39.000Z</time>
      </trkpt>
      <trkpt lat="45.21491" lon="5.55993">
        <ele>1334</ele>
        <time>2015-11-29T09:14:42.000Z</time>
      </trkpt>
      <trkpt lat="45.21491" lon="5.55993">
        <ele>1334</ele>
        <time>2015-11-29T09:14:43.000Z</time>
      </trkpt>
      <trkpt lat="45.21491" lon="5.55993">
        <ele>1334</ele>
        <time>2015-11-29T09:14:46.000Z</time>
      </trkpt>
      <trkpt lat="45.21491" lon="5.55993">
        <ele>1334</ele>
        <time>2015-11-29T09:14:47.000Z</time>
      </trkpt>
      <trkpt lat="45.21491" lon="5.55993">
        <ele>1334</ele>
        <time>2015-11-29T09:14:50.000Z</time>
      </trkpt>
      <trkpt lat="45.21491" lon="5.55993">
        <ele>1334</ele>
        <time>2015-11-29T09:14:52.000Z</time>
      </trkpt>
      <trkpt lat="45.21491" lon="5.55993">
        <ele>1334</ele>
        <time>2015-11-29T09:14:53.000Z</time>
      </trkpt>
      <trkpt lat="45.21491" lon="5.55993">
        <ele>1334</ele>
        <time>2015-11-29T09:14:56.000Z</time>
      </trkpt>
      <trkpt lat="45.21491" lon="5.55993">
        <ele>1334</ele>
        <time>2015-11-29T09:15:00.000Z</time>
      </trkpt>
      <trkpt lat="45.21491" lon="5.55993">
        <ele>1334</ele>
        <time>2015-11-29T09:15:02.000Z</time>
      </trkpt>
      <trkpt lat="45.21591" lon="5.55966">
        <ele>1339</ele>
        <time>2015-11-29T09:15:06.000Z</time>
      </trkpt>
      <trkpt lat="45.21603" lon="5.55961">
        <ele>1338</ele>
        <time>2015-11-29T09:15:09.000Z</time>
      </trkpt>
      <trkpt lat="45.21603" lon="5.55961">
        <ele>1338</ele>
        <time>2015-11-29T09:15:11.000Z</time>
      </trkpt>
      <trkpt lat="45.21603" lon="5.55961">
        <ele>1338</ele>
        <time>2015-11-29T09:15:13.000Z</time>
      </trkpt>
      <trkpt lat="45.21603" lon="5.55961">
        <ele>1338</ele>
        <time>2015-11-29T09:15:16.000Z</time>
      </trkpt>
      <trkpt lat="45.21603" lon="5.55961">
        <ele>1338</ele>
        <time>2015-11-29T09:15:18.000Z</time>
      </trkpt>
      <trkpt lat="45.21633" lon="5.55941">
        <ele>1349</ele>
        <time>2015-11-29T09:15:24.000Z</time>
      </trkpt>
      <trkpt lat="45.21638" lon="5.55936">
        <ele>1347</ele>
        <time>2015-11-29T09:15:28.000Z</time>
      </trkpt>
      <trkpt lat="45.21644" lon="5.55932">
        <ele>1346</ele>
        <time>2015-11-29T09:15:30.000Z</time>
      </trkpt>
      <trkpt lat="45.21648" lon="5.55928">
        <ele>1345</ele>
        <time>2015-11-29T09:15:31.000Z</time>
      </trkpt>
      <trkpt lat="45.21648" lon="5.55928">
        <ele>1345</ele>
        <time>2015-11-29T09:15:34.000Z</time>
      </trkpt>
      <trkpt lat="45.21648" lon="5.55928">
        <ele>1345</ele>
        <time>2015-11-29T09:15:36.000Z</time>
      </trkpt>
      <trkpt lat="45.21648" lon="5.55928">
        <ele>1345</ele>
        <time>2015-11-29T09:15:37.000Z</time>
      </trkpt>
      <trkpt lat="45.21661" lon="5.55911">
        <ele>1341</ele>
        <time>2015-11-29T09:15:42.000Z</time>
      </trkpt>
      <trkpt lat="45.21669" lon="5.55899">
        <ele>1341</ele>
        <time>2015-11-29T09:15:43.000Z</time>
      </trkpt>
      <trkpt lat="45.21675" lon="5.55889">
        <ele>1341</ele>
        <time>2015-11-29T09:15:46.000Z</time>
      </trkpt>
      <trkpt lat="45.2168" lon="5.55879">
        <ele>1343</ele>
        <time>2015-11-29T09:15:48.000Z</time>
      </trkpt>
      <trkpt lat="45.21684" lon="5.55869">
        <ele>1342</ele>
        <time>2015-11-29T09:15:49.000Z</time>
      </trkpt>
      <trkpt lat="45.2169" lon="5.55849">
        <ele>1344</ele>
        <time>2015-11-29T09:15:51.000Z</time>
      </trkpt>
      <trkpt lat="45.21696" lon="5.5583">
        <ele>1344</ele>
        <time>2015-11-29T09:15:55.000Z</time>
      </trkpt>
      <trkpt lat="45.21703" lon="5.55809">
        <ele>1347</ele>
        <time>2015-11-29T09:15:59.000Z</time>
      </trkpt>
      <trkpt lat="45.21703" lon="5.55809">
        <ele>1347</ele>
        <time>2015-11-29T09:16:02.000Z</time>
      </trkpt>
      <trkpt lat="45.21703" lon="5.55809">
        <ele>1347</ele>
        <time>2015-11-29T09:16:04.000Z</time>
      </trkpt>
      <trkpt lat="45.21703" lon="5.55809">
        <ele>1347</ele>
        <time>2015-11-29T09:16:06.000Z</time>
      </trkpt>
      <trkpt lat="45.21737" lon="5.55825">
        <ele>1347</ele>
        <time>2015-11-29T09:16:10.000Z</time>
      </trkpt>
      <trkpt lat="45.21748" lon="5.55839">
        <ele>1347</ele>
        <time>2015-11-29T09:16:14.000Z</time>
      </trkpt>
      <trkpt lat="45.21748" lon="5.55839">
        <ele>1347</ele>
        <time>2015-11-29T09:16:15.000Z</time>
      </trkpt>
      <trkpt lat="45.21748" lon="5.55839">
        <ele>1347</ele>
        <time>2015-11-29T09:16:18.000Z</time>
      </trkpt>
      <trkpt lat="45.21748" lon="5.55839">
        <ele>1347</ele>
        <time>2015-11-29T09:16:19.000Z</time>
      </trkpt>
      <trkpt lat="45.21748" lon="5.55839">
        <ele>1347</ele>
        <time>2015-11-29T09:16:22.000Z</time>
      </trkpt>
      <trkpt lat="45.21748" lon="5.55839">
        <ele>1347</ele>
        <time>2015-11-29T09:16:24.000Z</time>
      </trkpt>
      <trkpt lat="45.21748" lon="5.55839">
        <ele>1347</ele>
        <time>2015-11-29T09:16:26.000Z</time>
      </trkpt>
      <trkpt lat="45.21748" lon="5.55839">
        <ele>1347</ele>
        <time>2015-11-29T09:16:28.000Z</time>
      </trkpt>
      <trkpt lat="45.21748" lon="5.55839">
        <ele>1347</ele>
        <time>2015-11-29T09:16:30.000Z</time>
      </trkpt>
      <trkpt lat="45.21748" lon="5.55839">
        <ele>1347</ele>
        <time>2015-11-29T09:16:32.000Z</time>
      </trkpt>
      <trkpt lat="45.21748" lon="5.55839">
        <ele>1347</ele>
        <time>2015-11-29T09:16:34.000Z</time>
      </trkpt>
      <trkpt lat="45.21748" lon="5.55839">
        <ele>1347</ele>
        <time>2015-11-29T09:16:40.000Z</time>
      </trkpt>
      <trkpt lat="45.21748" lon="5.55839">
        <ele>1347</ele>
        <time>2015-11-29T09:16:42.000Z</time>
      </trkpt>
      <trkpt lat="45.21816" lon="5.55878">
        <ele>1348</ele>
        <time>2015-11-29T09:16:45.000Z</time>
      </trkpt>
      <trkpt lat="45.21828" lon="5.55896">
        <ele>1347</ele>
        <time>2015-11-29T09:16:49.000Z</time>
      </trkpt>
      <trkpt lat="45.21836" lon="5.55919">
        <ele>1346</ele>
        <time>2015-11-29T09:16:54.000Z</time>
      </trkpt>
      <trkpt lat="45.21846" lon="5.55942">
        <ele>1346</ele>
        <time>2015-11-29T09:16:57.000Z</time>
      </trkpt>
      <trkpt lat="45.21851" lon="5.55957">
        <ele>1345</ele>
        <time>2015-11-29T09:16:59.000Z</time>
      </trkpt>
      <trkpt lat="45.21856" lon="5.55971">
        <ele>1345</ele>
        <time>2015-11-29T09:17:00.000Z</time>
      </trkpt>
      <trkpt lat="45.21863" lon="5.55989">
        <ele>1344</ele>
        <time>2015-11-29T09:17:03.000Z</time>
      </trkpt>
      <trkpt lat="45.21871" lon="5.56">
        <ele>1344</ele>
        <time>2015-11-29T09:17:05.000Z</time>
      </trkpt>
      <trkpt lat="45.21879" lon="5.56011">
        <ele>1345</ele>
        <time>2015-11-29T09:17:06.000Z</time>
      </trkpt>
      <trkpt lat="45.21879" lon="5.56011">
        <ele>1345</ele>
        <time>2015-11-29T09:17:08.000Z</time>
      </trkpt>
      <trkpt lat="45.21879" lon="5.56011">
        <ele>1345</ele>
        <time>2015-11-29T09:17:10.000Z</time>
      </trkpt>
      <trkpt lat="45.21879" lon="5.56011">
        <ele>1345</ele>
        <time>2015-11-29T09:17:13.000Z</time>
      </trkpt>
      <trkpt lat="45.21879" lon="5.56011">
        <ele>1345</ele>
        <time>2015-11-29T09:17:15.000Z</time>
      </trkpt>
      <trkpt lat="45.21879" lon="5.56011">
        <ele>1345</ele>
        <time>2015-11-29T09:17:17.000Z</time>
      </trkpt>
      <trkpt lat="45.21879" lon="5.56011">
        <ele>1345</ele>
        <time>2015-11-29T09:17:19.000Z</time>
      </trkpt>
      <trkpt lat="45.21879" lon="5.56011">
        <ele>1345</ele>
        <time>2015-11-29T09:17:21.000Z</time>
      </trkpt>
      <trkpt lat="45.21879" lon="5.56011">
        <ele>1345</ele>
        <time>2015-11-29T09:17:22.000Z</time>
      </trkpt>
      <trkpt lat="45.21879" lon="5.56011">
        <ele>1345</ele>
        <time>2015-11-29T09:17:25.000Z</time>
      </trkpt>
      <trkpt lat="45.21879" lon="5.56011">
        <ele>1345</ele>
        <time>2015-11-29T09:17:32.000Z</time>
      </trkpt>
      <trkpt lat="45.21879" lon="5.56011">
        <ele>1345</ele>
        <time>2015-11-29T09:17:35.000Z</time>
      </trkpt>
      <trkpt lat="45.21879" lon="5.56011">
        <ele>1345</ele>
        <time>2015-11-29T09:17:37.000Z</time>
      </trkpt>
      <trkpt lat="45.21879" lon="5.56011">
        <ele>1345</ele>
        <time>2015-11-29T09:17:38.000Z</time>
      </trkpt>
      <trkpt lat="45.21879" lon="5.56011">
        <ele>1345</ele>
        <time>2015-11-29T09:17:41.000Z</time>
      </trkpt>
      <trkpt lat="45.21923" lon="5.56045">
        <ele>1354</ele>
        <time>2015-11-29T09:17:47.000Z</time>
      </trkpt>
      <trkpt lat="45.21948" lon="5.56062">
        <ele>1342</ele>
        <time>2015-11-29T09:17:49.000Z</time>
      </trkpt>
      <trkpt lat="45.21963" lon="5.56068">
        <ele>1341</ele>
        <time>2015-11-29T09:17:51.000Z</time>
      </trkpt>
      <trkpt lat="45.21971" lon="5.56068">
        <ele>1341</ele>
        <time>2015-11-29T09:17:53.000Z</time>
      </trkpt>
      <trkpt lat="45.21975" lon="5.56064">
        <ele>1340</ele>
        <time>2015-11-29T09:17:54.000Z</time>
      </trkpt>
      <trkpt lat="45.21975" lon="5.56064">
        <ele>1340</ele>
        <time>2015-11-29T09:18:01.000Z</time>
      </trkpt>
      <trkpt lat="45.21975" lon="5.56064">
        <ele>1340</ele>
        <time>2015-11-29T09:18:03.000Z</time>
      </trkpt>
      <trkpt lat="45.21975" lon="5.56064">
        <ele>1340</ele>
        <time>2015-11-29T09:18:05.000Z</time>
      </trkpt>
      <trkpt lat="45.21975" lon="5.56064">
        <ele>1340</ele>
        <time>2015-11-29T09:18:07.000Z</time>
      </trkpt>
      <trkpt lat="45.21975" lon="5.56064">
        <ele>1340</ele>
        <time>2015-11-29T09:18:11.000Z</time>
      </trkpt>
      <trkpt lat="45.21975" lon="5.56064">
        <ele>1340</ele>
        <time>2015-11-29T09:18:13.000Z</time>
      </trkpt>
      <trkpt lat="45.21975" lon="5.56064">
        <ele>1340</ele>
        <time>2015-11-29T09:18:14.000Z</time>
      </trkpt>
      <trkpt lat="45.21975" lon="5.56064">
        <ele>1340</ele>
        <time>2015-11-29T09:18:16.000Z</time>
      </trkpt>
      <trkpt lat="45.2199" lon="5.56055">
        <ele>1341</ele>
        <time>2015-11-29T09:18:23.000Z</time>
      </trkpt>
      <trkpt lat="45.21994" lon="5.56043">
        <ele>1340</ele>
        <time>2015-11-29T09:18:26.000Z</time>
      </trkpt>
      <trkpt lat="45.21994" lon="5.56043">
        <ele>1340</ele>
        <time>2015-11-29T09:18:33.000Z</time>
      </trkpt>
      <trkpt lat="45.21994" lon="5.56043">
        <ele>1340</ele>
        <time>2015-11-29T09:18:35.000Z</time>
      </trkpt>
      <trkpt lat="45.21994" lon="5.56043">
        <ele>1340</ele>
        <time>2015-11-29T09:18:40.000Z</time>
      </trkpt>
      <trkpt lat="45.21994" lon="5.56043">
        <ele>1340</ele>
        <time>2015-11-29T09:18:43.000Z</time>
      </trkpt>
      <trkpt lat="45.22002" lon="5.56034">
        <ele>1335</ele>
        <time>2015-11-29T09:18:49.000Z</time>
      </trkpt>
      <trkpt lat="45.21997" lon="5.56044">
        <ele>1336</ele>
        <time>2015-11-29T09:18:53.000Z</time>
      </trkpt>
      <trkpt lat="45.21992" lon="5.56056">
        <ele>1334</ele>
        <time>2015-11-29T09:18:57.000Z</time>
      </trkpt>
      <trkpt lat="45.21992" lon="5.56056">
        <ele>1334</ele>
        <time>2015-11-29T09:18:58.000Z</time>
      </trkpt>
      <trkpt lat="45.21992" lon="5.56056">
        <ele>1334</ele>
        <time>2015-11-29T09:19:00.000Z</time>
      </trkpt>
      <trkpt lat="45.21995" lon="5.56063">
        <ele>1333</ele>
        <time>2015-11-29T09:19:06.000Z</time>
      </trkpt>
      <trkpt lat="45.21998" lon="5.5607">
        <ele>1335</ele>
        <time>2015-11-29T09:19:09.000Z</time>
      </trkpt>
      <trkpt lat="45.22002" lon="5.56076">
        <ele>1335</ele>
        <time>2015-11-29T09:19:11.000Z</time>
      </trkpt>
      <trkpt lat="45.22006" lon="5.56082">
        <ele>1337</ele>
        <time>2015-11-29T09:19:12.000Z</time>
      </trkpt>
      <trkpt lat="45.22011" lon="5.5609">
        <ele>1343</ele>
        <time>2015-11-29T09:19:15.000Z</time>
      </trkpt>
      <trkpt lat="45.22021" lon="5.56104">
        <ele>1344</ele>
        <time>2015-11-29T09:19:17.000Z</time>
      </trkpt>
      <trkpt lat="45.22034" lon="5.56116">
        <ele>1350</ele>
        <time>2015-11-29T09:19:20.000Z</time>
      </trkpt>
      <trkpt lat="45.22065" lon="5.56131">
        <ele>1352</ele>
        <time>2015-11-29T09:19:25.000Z</time>
      </trkpt>
      <trkpt lat="45.22065" lon="5.56131">
        <ele>1352</ele>
        <time>2015-11-29T09:19:28.000Z</time>
      </trkpt>
      <trkpt lat="45.22065" lon="5.56131">
        <ele>1352</ele>
        <time>2015-11-29T09:19:31.000Z</time>
      </trkpt>
      <trkpt lat="45.22065" lon="5.56131">
        <ele>1352</ele>
        <time>2015-11-29T09:19:33.000Z</time>
      </trkpt>
      <trkpt lat="45.2209" lon="5.56169">
        <ele>1353</ele>
        <time>2015-11-29T09:19:37.000Z</time>
      </trkpt>
      <trkpt lat="45.22093" lon="5.56183">
        <ele>1353</ele>
        <time>2015-11-29T09:19:41.000Z</time>
      </trkpt>
      <trkpt lat="45.22094" lon="5.56198">
        <ele>1355</ele>
        <time>2015-11-29T09:19:44.000Z</time>
      </trkpt>
      <trkpt lat="45.22091" lon="5.56214">
        <ele>1352</ele>
        <time>2015-11-29T09:19:49.000Z</time>
      </trkpt>
      <trkpt lat="45.22079" lon="5.56252">
        <ele>1352</ele>
        <time>2015-11-29T09:19:53.000Z</time>
      </trkpt>
      <trkpt lat="45.22083" lon="5.56268">
        <ele>1351</ele>
        <time>2015-11-29T09:19:55.000Z</time>
      </trkpt>
      <trkpt lat="45.22083" lon="5.56268">
        <ele>1351</ele>
        <time>2015-11-29T09:19:58.000Z</time>
      </trkpt>
      <trkpt lat="45.22083" lon="5.56268">
        <ele>1351</ele>
        <time>2015-11-29T09:20:00.000Z</time>
      </trkpt>
      <trkpt lat="45.22083" lon="5.56268">
        <ele>1351</ele>
        <time>2015-11-29T09:20:01.000Z</time>
      </trkpt>
      <trkpt lat="45.22096" lon="5.56331">
        <ele>1349</ele>
        <time>2015-11-29T09:20:06.000Z</time>
      </trkpt>
      <trkpt lat="45.22105" lon="5.56353">
        <ele>1349</ele>
        <time>2015-11-29T09:20:10.000Z</time>
      </trkpt>
      <trkpt lat="45.22105" lon="5.56353">
        <ele>1349</ele>
        <time>2015-11-29T09:20:12.000Z</time>
      </trkpt>
      <trkpt lat="45.22105" lon="5.56353">
        <ele>1349</ele>
        <time>2015-11-29T09:20:14.000Z</time>
      </trkpt>
      <trkpt lat="45.22105" lon="5.56353">
        <ele>1349</ele>
        <time>2015-11-29T09:20:16.000Z</time>
      </trkpt>
      <trkpt lat="45.22105" lon="5.56353">
        <ele>1349</ele>
        <time>2015-11-29T09:20:17.000Z</time>
      </trkpt>
      <trkpt lat="45.22129" lon="5.56389">
        <ele>1343</ele>
        <time>2015-11-29T09:20:24.000Z</time>
      </trkpt>
      <trkpt lat="45.22135" lon="5.56413">
        <ele>1349</ele>
        <time>2015-11-29T09:20:27.000Z</time>
      </trkpt>
      <trkpt lat="45.22135" lon="5.56413">
        <ele>1349</ele>
        <time>2015-11-29T09:20:29.000Z</time>
      </trkpt>
      <trkpt lat="45.22135" lon="5.56413">
        <ele>1349</ele>
        <time>2015-11-29T09:20:32.000Z</time>
      </trkpt>
      <trkpt lat="45.22135" lon="5.56413">
        <ele>1349</ele>
        <time>2015-11-29T09:20:35.000Z</time>
      </trkpt>
      <trkpt lat="45.22135" lon="5.56413">
        <ele>1349</ele>
        <time>2015-11-29T09:20:37.000Z</time>
      </trkpt>
      <trkpt lat="45.22135" lon="5.56413">
        <ele>1349</ele>
        <time>2015-11-29T09:20:39.000Z</time>
      </trkpt>
      <trkpt lat="45.22135" lon="5.56413">
        <ele>1349</ele>
        <time>2015-11-29T09:20:42.000Z</time>
      </trkpt>
      <trkpt lat="45.22135" lon="5.56413">
        <ele>1349</ele>
        <time>2015-11-29T09:20:44.000Z</time>
      </trkpt>
      <trkpt lat="45.22135" lon="5.56413">
        <ele>1349</ele>
        <time>2015-11-29T09:20:45.000Z</time>
      </trkpt>
      <trkpt lat="45.22128" lon="5.56444">
        <ele>1356</ele>
        <time>2015-11-29T09:20:51.000Z</time>
      </trkpt>
      <trkpt lat="45.22124" lon="5.56461">
        <ele>1351</ele>
        <time>2015-11-29T09:20:54.000Z</time>
      </trkpt>
      <trkpt lat="45.22123" lon="5.56471">
        <ele>1350</ele>
        <time>2015-11-29T09:20:56.000Z</time>
      </trkpt>
      <trkpt lat="45.22123" lon="5.56478">
        <ele>1352</ele>
        <time>2015-11-29T09:20:57.000Z</time>
      </trkpt>
      <trkpt lat="45.22123" lon="5.56487">
        <ele>1355</ele>
        <time>2015-11-29T09:21:01.000Z</time>
      </trkpt>
      <trkpt lat="45.22123" lon="5.56494">
        <ele>1354</ele>
        <time>2015-11-29T09:21:04.000Z</time>
      </trkpt>
      <trkpt lat="45.22124" lon="5.56502">
        <ele>1359</ele>
        <time>2015-11-29T09:21:08.000Z</time>
      </trkpt>
      <trkpt lat="45.22124" lon="5.56502">
        <ele>1359</ele>
        <time>2015-11-29T09:21:12.000Z</time>
      </trkpt>
      <trkpt lat="45.22124" lon="5.56502">
        <ele>1359</ele>
        <time>2015-11-29T09:21:14.000Z</time>
      </trkpt>
      <trkpt lat="45.22124" lon="5.56502">
        <ele>1359</ele>
        <time>2015-11-29T09:21:15.000Z</time>
      </trkpt>
      <trkpt lat="45.22125" lon="5.56517">
        <ele>1361</ele>
        <time>2015-11-29T09:21:20.000Z</time>
      </trkpt>
      <trkpt lat="45.22126" lon="5.56527">
        <ele>1361</ele>
        <time>2015-11-29T09:21:21.000Z</time>
      </trkpt>
      <trkpt lat="45.22127" lon="5.56533">
        <ele>1361</ele>
        <time>2015-11-29T09:21:23.000Z</time>
      </trkpt>
      <trkpt lat="45.22128" lon="5.56541">
        <ele>1362</ele>
        <time>2015-11-29T09:21:28.000Z</time>
      </trkpt>
      <trkpt lat="45.22128" lon="5.56549">
        <ele>1359</ele>
        <time>2015-11-29T09:21:31.000Z</time>
      </trkpt>
      <trkpt lat="45.22128" lon="5.56557">
        <ele>1360</ele>
        <time>2015-11-29T09:21:36.000Z</time>
      </trkpt>
      <trkpt lat="45.22127" lon="5.56565">
        <ele>1358</ele>
        <time>2015-11-29T09:21:40.000Z</time>
      </trkpt>
      <trkpt lat="45.22125" lon="5.56571">
        <ele>1358</ele>
        <time>2015-11-29T09:21:42.000Z</time>
      </trkpt>
      <trkpt lat="45.22122" lon="5.5658">
        <ele>1361</ele>
        <time>2015-11-29T09:21:45.000Z</time>
      </trkpt>
      <trkpt lat="45.2212" lon="5.56588">
        <ele>1362</ele>
        <time>2015-11-29T09:21:48.000Z</time>
      </trkpt>
      <trkpt lat="45.22116" lon="5.56594">
        <ele>1362</ele>
        <time>2015-11-29T09:21:50.000Z</time>
      </trkpt>
      <trkpt lat="45.22113" lon="5.56598">
        <ele>1363</ele>
        <time>2015-11-29T09:21:51.000Z</time>
      </trkpt>
      <trkpt lat="45.22108" lon="5.56602">
        <ele>1362</ele>
        <time>2015-11-29T09:21:54.000Z</time>
      </trkpt>
      <trkpt lat="45.22094" lon="5.56612">
        <ele>1362</ele>
        <time>2015-11-29T09:21:56.000Z</time>
      </trkpt>
      <trkpt lat="45.22077" lon="5.56635">
        <ele>1364</ele>
        <time>2015-11-29T09:21:59.000Z</time>
      </trkpt>
      <trkpt lat="45.22077" lon="5.56635">
        <ele>1364</ele>
        <time>2015-11-29T09:22:05.000Z</time>
      </trkpt>
      <trkpt lat="45.22084" lon="5.56621">
        <ele>1357</ele>
        <time>2015-11-29T09:22:11.000Z</time>
      </trkpt>
      <trkpt lat="45.22084" lon="5.56621">
        <ele>1357</ele>
        <time>2015-11-29T09:22:13.000Z</time>
      </trkpt>
      <trkpt lat="45.22084" lon="5.56621">
        <ele>1357</ele>
        <time>2015-11-29T09:22:15.000Z</time>
      </trkpt>
      <trkpt lat="45.22084" lon="5.56621">
        <ele>1357</ele>
        <time>2015-11-29T09:22:17.000Z</time>
      </trkpt>
      <trkpt lat="45.22084" lon="5.56621">
        <ele>1357</ele>
        <time>2015-11-29T09:22:19.000Z</time>
      </trkpt>
      <trkpt lat="45.22102" lon="5.56611">
        <ele>1362</ele>
        <time>2015-11-29T09:22:24.000Z</time>
      </trkpt>
      <trkpt lat="45.22102" lon="5.56611">
        <ele>1362</ele>
        <time>2015-11-29T09:22:29.000Z</time>
      </trkpt>
      <trkpt lat="45.22102" lon="5.56611">
        <ele>1362</ele>
        <time>2015-11-29T09:22:31.000Z</time>
      </trkpt>
      <trkpt lat="45.22102" lon="5.56611">
        <ele>1362</ele>
        <time>2015-11-29T09:22:33.000Z</time>
      </trkpt>
      <trkpt lat="45.22102" lon="5.56611">
        <ele>1362</ele>
        <time>2015-11-29T09:22:35.000Z</time>
      </trkpt>
      <trkpt lat="45.22102" lon="5.56611">
        <ele>1362</ele>
        <time>2015-11-29T09:22:37.000Z</time>
      </trkpt>
      <trkpt lat="45.22102" lon="5.56611">
        <ele>1362</ele>
        <time>2015-11-29T09:22:39.000Z</time>
      </trkpt>
      <trkpt lat="45.22102" lon="5.56611">
        <ele>1362</ele>
        <time>2015-11-29T09:22:42.000Z</time>
      </trkpt>
      <trkpt lat="45.22102" lon="5.56611">
        <ele>1362</ele>
        <time>2015-11-29T09:22:45.000Z</time>
      </trkpt>
      <trkpt lat="45.22102" lon="5.56611">
        <ele>1362</ele>
        <time>2015-11-29T09:22:46.000Z</time>
      </trkpt>
      <trkpt lat="45.22078" lon="5.56643">
        <ele>1355</ele>
        <time>2015-11-29T09:23:02.000Z</time>
      </trkpt>
      <trkpt lat="45.22078" lon="5.56643">
        <ele>1355</ele>
        <time>2015-11-29T09:23:07.000Z</time>
      </trkpt>
      <trkpt lat="45.22078" lon="5.56643">
        <ele>1355</ele>
        <time>2015-11-29T09:23:10.000Z</time>
      </trkpt>
      <trkpt lat="45.22078" lon="5.56643">
        <ele>1355</ele>
        <time>2015-11-29T09:23:12.000Z</time>
      </trkpt>
      <trkpt lat="45.22078" lon="5.56643">
        <ele>1355</ele>
        <time>2015-11-29T09:23:13.000Z</time>
      </trkpt>
      <trkpt lat="45.22073" lon="5.56658">
        <ele>1355</ele>
        <time>2015-11-29T09:23:18.000Z</time>
      </trkpt>
      <trkpt lat="45.22069" lon="5.56667">
        <ele>1357</ele>
        <time>2015-11-29T09:23:19.000Z</time>
      </trkpt>
      <trkpt lat="45.22066" lon="5.56673">
        <ele>1357</ele>
        <time>2015-11-29T09:23:22.000Z</time>
      </trkpt>
      <trkpt lat="45.22063" lon="5.56679">
        <ele>1359</ele>
        <time>2015-11-29T09:23:24.000Z</time>
      </trkpt>
      <trkpt lat="45.2206" lon="5.56684">
        <ele>1358</ele>
        <time>2015-11-29T09:23:25.000Z</time>
      </trkpt>
      <trkpt lat="45.22054" lon="5.56693">
        <ele>1361</ele>
        <time>2015-11-29T09:23:27.000Z</time>
      </trkpt>
      <trkpt lat="45.22054" lon="5.56693">
        <ele>1361</ele>
        <time>2015-11-29T09:23:30.000Z</time>
      </trkpt>
      <trkpt lat="45.22047" lon="5.56702">
        <ele>1363</ele>
        <time>2015-11-29T09:23:32.000Z</time>
      </trkpt>
      <trkpt lat="45.2204" lon="5.56715">
        <ele>1366</ele>
        <time>2015-11-29T09:23:38.000Z</time>
      </trkpt>
      <trkpt lat="45.2204" lon="5.56715">
        <ele>1366</ele>
        <time>2015-11-29T09:23:40.000Z</time>
      </trkpt>
      <trkpt lat="45.2204" lon="5.56715">
        <ele>1366</ele>
        <time>2015-11-29T09:23:41.000Z</time>
      </trkpt>
      <trkpt lat="45.22028" lon="5.56746">
        <ele>1373</ele>
        <time>2015-11-29T09:23:52.000Z</time>
      </trkpt>
      <trkpt lat="45.22022" lon="5.5676">
        <ele>1375</ele>
        <time>2015-11-29T09:23:57.000Z</time>
      </trkpt>
      <trkpt lat="45.22022" lon="5.5676">
        <ele>1375</ele>
        <time>2015-11-29T09:24:02.000Z</time>
      </trkpt>
      <trkpt lat="45.22022" lon="5.5676">
        <ele>1375</ele>
        <time>2015-11-29T09:24:04.000Z</time>
      </trkpt>
      <trkpt lat="45.22022" lon="5.5676">
        <ele>1375</ele>
        <time>2015-11-29T09:24:05.000Z</time>
      </trkpt>
      <trkpt lat="45.22014" lon="5.56792">
        <ele>1376</ele>
        <time>2015-11-29T09:24:12.000Z</time>
      </trkpt>
      <trkpt lat="45.2201" lon="5.56808">
        <ele>1378</ele>
        <time>2015-11-29T09:24:18.000Z</time>
      </trkpt>
      <trkpt lat="45.22003" lon="5.56822">
        <ele>1379</ele>
        <time>2015-11-29T09:24:24.000Z</time>
      </trkpt>
      <trkpt lat="45.21998" lon="5.56839">
        <ele>1377</ele>
        <time>2015-11-29T09:24:30.000Z</time>
      </trkpt>
      <trkpt lat="45.21991" lon="5.56849">
        <ele>1379</ele>
        <time>2015-11-29T09:24:34.000Z</time>
      </trkpt>
      <trkpt lat="45.21983" lon="5.56861">
        <ele>1381</ele>
        <time>2015-11-29T09:24:40.000Z</time>
      </trkpt>
      <trkpt lat="45.21983" lon="5.56861">
        <ele>1381</ele>
        <time>2015-11-29T09:24:43.000Z</time>
      </trkpt>
      <trkpt lat="45.21983" lon="5.56861">
        <ele>1381</ele>
        <time>2015-11-29T09:24:46.000Z</time>
      </trkpt>
      <trkpt lat="45.21983" lon="5.56861">
        <ele>1381</ele>
        <time>2015-11-29T09:24:47.000Z</time>
      </trkpt>
      <trkpt lat="45.21983" lon="5.56861">
        <ele>1381</ele>
        <time>2015-11-29T09:24:50.000Z</time>
      </trkpt>
      <trkpt lat="45.21975" lon="5.5686">
        <ele>1376</ele>
        <time>2015-11-29T09:25:13.000Z</time>
      </trkpt>
      <trkpt lat="45.2197" lon="5.56859">
        <ele>1375</ele>
        <time>2015-11-29T09:25:16.000Z</time>
      </trkpt>
      <trkpt lat="45.2197" lon="5.56859">
        <ele>1375</ele>
        <time>2015-11-29T09:25:18.000Z</time>
      </trkpt>
      <trkpt lat="45.2197" lon="5.56859">
        <ele>1375</ele>
        <time>2015-11-29T09:25:20.000Z</time>
      </trkpt>
      <trkpt lat="45.2197" lon="5.56859">
        <ele>1375</ele>
        <time>2015-11-29T09:25:22.000Z</time>
      </trkpt>
      <trkpt lat="45.2197" lon="5.56859">
        <ele>1375</ele>
        <time>2015-11-29T09:25:24.000Z</time>
      </trkpt>
      <trkpt lat="45.2197" lon="5.56859">
        <ele>1375</ele>
        <time>2015-11-29T09:25:34.000Z</time>
      </trkpt>
      <trkpt lat="45.2197" lon="5.56859">
        <ele>1375</ele>
        <time>2015-11-29T09:25:36.000Z</time>
      </trkpt>
      <trkpt lat="45.21964" lon="5.56856">
        <ele>1374</ele>
        <time>2015-11-29T09:26:18.000Z</time>
      </trkpt>
      <trkpt lat="45.21958" lon="5.56854">
        <ele>1373</ele>
        <time>2015-11-29T09:26:20.000Z</time>
      </trkpt>
      <trkpt lat="45.21952" lon="5.56851">
        <ele>1375</ele>
        <time>2015-11-29T09:26:21.000Z</time>
      </trkpt>
      <trkpt lat="45.21947" lon="5.56849">
        <ele>1375</ele>
        <time>2015-11-29T09:26:24.000Z</time>
      </trkpt>
      <trkpt lat="45.21942" lon="5.56846">
        <ele>1375</ele>
        <time>2015-11-29T09:26:26.000Z</time>
      </trkpt>
      <trkpt lat="45.21931" lon="5.56838">
        <ele>1375</ele>
        <time>2015-11-29T09:26:28.000Z</time>
      </trkpt>
      <trkpt lat="45.21919" lon="5.56831">
        <ele>1374</ele>
        <time>2015-11-29T09:26:31.000Z</time>
      </trkpt>
      <trkpt lat="45.21919" lon="5.56831">
        <ele>1374</ele>
        <time>2015-11-29T09:26:36.000Z</time>
      </trkpt>
      <trkpt lat="45.21919" lon="5.56831">
        <ele>1374</ele>
        <time>2015-11-29T09:26:38.000Z</time>
      </trkpt>
      <trkpt lat="45.21919" lon="5.56831">
        <ele>1374</ele>
        <time>2015-11-29T09:26:40.000Z</time>
      </trkpt>
      <trkpt lat="45.21919" lon="5.56831">
        <ele>1374</ele>
        <time>2015-11-29T09:26:42.000Z</time>
      </trkpt>
      <trkpt lat="45.21885" lon="5.56814">
        <ele>1378</ele>
        <time>2015-11-29T09:26:46.000Z</time>
      </trkpt>
      <trkpt lat="45.21875" lon="5.56804">
        <ele>1378</ele>
        <time>2015-11-29T09:26:50.000Z</time>
      </trkpt>
      <trkpt lat="45.21866" lon="5.56789">
        <ele>1386</ele>
        <time>2015-11-29T09:26:53.000Z</time>
      </trkpt>
      <trkpt lat="45.21858" lon="5.56772">
        <ele>1387</ele>
        <time>2015-11-29T09:26:58.000Z</time>
      </trkpt>
      <trkpt lat="45.21858" lon="5.56772">
        <ele>1387</ele>
        <time>2015-11-29T09:27:02.000Z</time>
      </trkpt>
      <trkpt lat="45.21858" lon="5.56772">
        <ele>1387</ele>
        <time>2015-11-29T09:27:04.000Z</time>
      </trkpt>
      <trkpt lat="45.21858" lon="5.56772">
        <ele>1387</ele>
        <time>2015-11-29T09:27:06.000Z</time>
      </trkpt>
      <trkpt lat="45.21858" lon="5.56772">
        <ele>1387</ele>
        <time>2015-11-29T09:27:08.000Z</time>
      </trkpt>
      <trkpt lat="45.21847" lon="5.56715">
        <ele>1382</ele>
        <time>2015-11-29T09:27:14.000Z</time>
      </trkpt>
      <trkpt lat="45.21856" lon="5.56642">
        <ele>1384</ele>
        <time>2015-11-29T09:27:21.000Z</time>
      </trkpt>
      <trkpt lat="45.21849" lon="5.56623">
        <ele>1385</ele>
        <time>2015-11-29T09:27:23.000Z</time>
      </trkpt>
      <trkpt lat="45.21838" lon="5.56608">
        <ele>1383</ele>
        <time>2015-11-29T09:27:25.000Z</time>
      </trkpt>
      <trkpt lat="45.21838" lon="5.56608">
        <ele>1383</ele>
        <time>2015-11-29T09:27:29.000Z</time>
      </trkpt>
      <trkpt lat="45.21838" lon="5.56608">
        <ele>1383</ele>
        <time>2015-11-29T09:27:33.000Z</time>
      </trkpt>
      <trkpt lat="45.21838" lon="5.56608">
        <ele>1383</ele>
        <time>2015-11-29T09:27:35.000Z</time>
      </trkpt>
      <trkpt lat="45.21838" lon="5.56608">
        <ele>1383</ele>
        <time>2015-11-29T09:27:37.000Z</time>
      </trkpt>
      <trkpt lat="45.21838" lon="5.56608">
        <ele>1383</ele>
        <time>2015-11-29T09:27:39.000Z</time>
      </trkpt>
      <trkpt lat="45.21838" lon="5.56608">
        <ele>1383</ele>
        <time>2015-11-29T09:27:41.000Z</time>
      </trkpt>
      <trkpt lat="45.21801" lon="5.5658">
        <ele>1384</ele>
        <time>2015-11-29T09:27:45.000Z</time>
      </trkpt>
      <trkpt lat="45.21761" lon="5.56535">
        <ele>1383</ele>
        <time>2015-11-29T09:27:51.000Z</time>
      </trkpt>
      <trkpt lat="45.21736" lon="5.56501">
        <ele>1381</ele>
        <time>2015-11-29T09:27:54.000Z</time>
      </trkpt>
      <trkpt lat="45.21721" lon="5.56483">
        <ele>1380</ele>
        <time>2015-11-29T09:27:56.000Z</time>
      </trkpt>
      <trkpt lat="45.21702" lon="5.5648">
        <ele>1382</ele>
        <time>2015-11-29T09:27:58.000Z</time>
      </trkpt>
      <trkpt lat="45.21686" lon="5.56477">
        <ele>1383</ele>
        <time>2015-11-29T09:27:59.000Z</time>
      </trkpt>
      <trkpt lat="45.21671" lon="5.5647">
        <ele>1381</ele>
        <time>2015-11-29T09:28:02.000Z</time>
      </trkpt>
      <trkpt lat="45.21658" lon="5.56461">
        <ele>1379</ele>
        <time>2015-11-29T09:28:04.000Z</time>
      </trkpt>
      <trkpt lat="45.21648" lon="5.56453">
        <ele>1381</ele>
        <time>2015-11-29T09:28:05.000Z</time>
      </trkpt>
      <trkpt lat="45.21648" lon="5.56453">
        <ele>1381</ele>
        <time>2015-11-29T09:28:09.000Z</time>
      </trkpt>
      <trkpt lat="45.21648" lon="5.56453">
        <ele>1381</ele>
        <time>2015-11-29T09:28:10.000Z</time>
      </trkpt>
      <trkpt lat="45.21648" lon="5.56453">
        <ele>1381</ele>
        <time>2015-11-29T09:28:13.000Z</time>
      </trkpt>
      <trkpt lat="45.21648" lon="5.56453">
        <ele>1381</ele>
        <time>2015-11-29T09:28:15.000Z</time>
      </trkpt>
      <trkpt lat="45.21648" lon="5.56453">
        <ele>1381</ele>
        <time>2015-11-29T09:28:16.000Z</time>
      </trkpt>
      <trkpt lat="45.21648" lon="5.56453">
        <ele>1381</ele>
        <time>2015-11-29T09:28:19.000Z</time>
      </trkpt>
      <trkpt lat="45.21648" lon="5.56453">
        <ele>1381</ele>
        <time>2015-11-29T09:28:21.000Z</time>
      </trkpt>
      <trkpt lat="45.21648" lon="5.56453">
        <ele>1381</ele>
        <time>2015-11-29T09:28:23.000Z</time>
      </trkpt>
      <trkpt lat="45.21648" lon="5.56453">
        <ele>1381</ele>
        <time>2015-11-29T09:28:25.000Z</time>
      </trkpt>
      <trkpt lat="45.21648" lon="5.56453">
        <ele>1381</ele>
        <time>2015-11-29T09:28:27.000Z</time>
      </trkpt>
      <trkpt lat="45.21648" lon="5.56453">
        <ele>1381</ele>
        <time>2015-11-29T09:28:29.000Z</time>
      </trkpt>
      <trkpt lat="45.2163" lon="5.56452">
        <ele>1373</ele>
        <time>2015-11-29T09:28:32.000Z</time>
      </trkpt>
      <trkpt lat="45.21619" lon="5.56451">
        <ele>1371</ele>
        <time>2015-11-29T09:28:35.000Z</time>
      </trkpt>
      <trkpt lat="45.21611" lon="5.56452">
        <ele>1370</ele>
        <time>2015-11-29T09:28:37.000Z</time>
      </trkpt>
      <trkpt lat="45.21605" lon="5.56454">
        <ele>1372</ele>
        <time>2015-11-29T09:28:39.000Z</time>
      </trkpt>
      <trkpt lat="45.216" lon="5.56458">
        <ele>1371</ele>
        <time>2015-11-29T09:28:41.000Z</time>
      </trkpt>
      <trkpt lat="45.21593" lon="5.56469">
        <ele>1373</ele>
        <time>2015-11-29T09:28:43.000Z</time>
      </trkpt>
      <trkpt lat="45.21593" lon="5.56469">
        <ele>1373</ele>
        <time>2015-11-29T09:28:49.000Z</time>
      </trkpt>
      <trkpt lat="45.21593" lon="5.56469">
        <ele>1373</ele>
        <time>2015-11-29T09:28:51.000Z</time>
      </trkpt>
      <trkpt lat="45.21593" lon="5.56469">
        <ele>1373</ele>
        <time>2015-11-29T09:28:53.000Z</time>
      </trkpt>
      <trkpt lat="45.21584" lon="5.56519">
        <ele>1370</ele>
        <time>2015-11-29T09:29:00.000Z</time>
      </trkpt>
      <trkpt lat="45.21578" lon="5.56529">
        <ele>1367</ele>
        <time>2015-11-29T09:29:05.000Z</time>
      </trkpt>
      <trkpt lat="45.21578" lon="5.56529">
        <ele>1367</ele>
        <time>2015-11-29T09:29:09.000Z</time>
      </trkpt>
      <trkpt lat="45.21578" lon="5.56529">
        <ele>1367</ele>
        <time>2015-11-29T09:29:11.000Z</time>
      </trkpt>
      <trkpt lat="45.21578" lon="5.56529">
        <ele>1367</ele>
        <time>2015-11-29T09:29:13.000Z</time>
      </trkpt>
      <trkpt lat="45.21561" lon="5.56543">
        <ele>1372</ele>
        <time>2015-11-29T09:29:41.000Z</time>
      </trkpt>
      <trkpt lat="45.21529" lon="5.56583">
        <ele>1373</ele>
        <time>2015-11-29T09:29:46.000Z</time>
      </trkpt>
      <trkpt lat="45.21529" lon="5.56583">
        <ele>1373</ele>
        <time>2015-11-29T09:29:52.000Z</time>
      </trkpt>
      <trkpt lat="45.21526" lon="5.56606">
        <ele>1376</ele>
        <time>2015-11-29T09:29:58.000Z</time>
      </trkpt>
      <trkpt lat="45.21526" lon="5.56613">
        <ele>1378</ele>
        <time>2015-11-29T09:30:08.000Z</time>
      </trkpt>
      <trkpt lat="45.21526" lon="5.5662">
        <ele>1375</ele>
        <time>2015-11-29T09:30:12.000Z</time>
      </trkpt>
      <trkpt lat="45.21523" lon="5.56628">
        <ele>1372</ele>
        <time>2015-11-29T09:30:14.000Z</time>
      </trkpt>
      <trkpt lat="45.21497" lon="5.56644">
        <ele>1371</ele>
        <time>2015-11-29T09:30:20.000Z</time>
      </trkpt>
      <trkpt lat="45.21473" lon="5.56652">
        <ele>1371</ele>
        <time>2015-11-29T09:30:22.000Z</time>
      </trkpt>
      <trkpt lat="45.21452" lon="5.56656">
        <ele>1369</ele>
        <time>2015-11-29T09:30:24.000Z</time>
      </trkpt>
      <trkpt lat="45.21409" lon="5.56664">
        <ele>1368</ele>
        <time>2015-11-29T09:30:26.000Z</time>
      </trkpt>
      <trkpt lat="45.21389" lon="5.56673">
        <ele>1371</ele>
        <time>2015-11-29T09:30:29.000Z</time>
      </trkpt>
      <trkpt lat="45.21375" lon="5.56673">
        <ele>1372</ele>
        <time>2015-11-29T09:30:31.000Z</time>
      </trkpt>
      <trkpt lat="45.21363" lon="5.56678">
        <ele>1372</ele>
        <time>2015-11-29T09:30:33.000Z</time>
      </trkpt>
      <trkpt lat="45.21363" lon="5.56678">
        <ele>1372</ele>
        <time>2015-11-29T09:30:37.000Z</time>
      </trkpt>
      <trkpt lat="45.21344" lon="5.5671">
        <ele>1371</ele>
        <time>2015-11-29T09:30:44.000Z</time>
      </trkpt>
      <trkpt lat="45.21344" lon="5.5671">
        <ele>1371</ele>
        <time>2015-11-29T09:30:47.000Z</time>
      </trkpt>
      <trkpt lat="45.21344" lon="5.5671">
        <ele>1371</ele>
        <time>2015-11-29T09:30:49.000Z</time>
      </trkpt>
      <trkpt lat="45.21344" lon="5.5671">
        <ele>1371</ele>
        <time>2015-11-29T09:30:51.000Z</time>
      </trkpt>
      <trkpt lat="45.21344" lon="5.5671">
        <ele>1371</ele>
        <time>2015-11-29T09:30:53.000Z</time>
      </trkpt>
      <trkpt lat="45.21344" lon="5.5671">
        <ele>1371</ele>
        <time>2015-11-29T09:30:55.000Z</time>
      </trkpt>
      <trkpt lat="45.21344" lon="5.5671">
        <ele>1371</ele>
        <time>2015-11-29T09:30:56.000Z</time>
      </trkpt>
      <trkpt lat="45.21344" lon="5.5671">
        <ele>1371</ele>
        <time>2015-11-29T09:30:59.000Z</time>
      </trkpt>
      <trkpt lat="45.21333" lon="5.56691">
        <ele>1366</ele>
        <time>2015-11-29T09:31:39.000Z</time>
      </trkpt>
      <trkpt lat="45.21326" lon="5.56676">
        <ele>1367</ele>
        <time>2015-11-29T09:31:41.000Z</time>
      </trkpt>
      <trkpt lat="45.21315" lon="5.56648">
        <ele>1369</ele>
        <time>2015-11-29T09:31:45.000Z</time>
      </trkpt>
      <trkpt lat="45.21306" lon="5.56624">
        <ele>1369</ele>
        <time>2015-11-29T09:31:47.000Z</time>
      </trkpt>
      <trkpt lat="45.21294" lon="5.56605">
        <ele>1368</ele>
        <time>2015-11-29T09:31:49.000Z</time>
      </trkpt>
      <trkpt lat="45.2127" lon="5.56571">
        <ele>1368</ele>
        <time>2015-11-29T09:31:50.000Z</time>
      </trkpt>
      <trkpt lat="45.21258" lon="5.56557">
        <ele>1366</ele>
        <time>2015-11-29T09:31:53.000Z</time>
      </trkpt>
      <trkpt lat="45.21246" lon="5.56544">
        <ele>1365</ele>
        <time>2015-11-29T09:31:55.000Z</time>
      </trkpt>
      <trkpt lat="45.21232" lon="5.56527">
        <ele>1364</ele>
        <time>2015-11-29T09:31:56.000Z</time>
      </trkpt>
      <trkpt lat="45.21216" lon="5.56508">
        <ele>1363</ele>
        <time>2015-11-29T09:31:59.000Z</time>
      </trkpt>
      <trkpt lat="45.212" lon="5.56487">
        <ele>1361</ele>
        <time>2015-11-29T09:32:01.000Z</time>
      </trkpt>
      <trkpt lat="45.21186" lon="5.56471">
        <ele>1360</ele>
        <time>2015-11-29T09:32:03.000Z</time>
      </trkpt>
      <trkpt lat="45.21186" lon="5.56471">
        <ele>1360</ele>
        <time>2015-11-29T09:32:09.000Z</time>
      </trkpt>
      <trkpt lat="45.21186" lon="5.56471">
        <ele>1360</ele>
        <time>2015-11-29T09:32:11.000Z</time>
      </trkpt>
      <trkpt lat="45.21186" lon="5.56471">
        <ele>1360</ele>
        <time>2015-11-29T09:32:13.000Z</time>
      </trkpt>
      <trkpt lat="45.21186" lon="5.56471">
        <ele>1360</ele>
        <time>2015-11-29T09:32:15.000Z</time>
      </trkpt>
      <trkpt lat="45.21186" lon="5.56471">
        <ele>1360</ele>
        <time>2015-11-29T09:32:25.000Z</time>
      </trkpt>
      <trkpt lat="45.21209" lon="5.56421">
        <ele>1347</ele>
        <time>2015-11-29T09:32:37.000Z</time>
      </trkpt>
      <trkpt lat="45.21215" lon="5.56409">
        <ele>1346</ele>
        <time>2015-11-29T09:32:45.000Z</time>
      </trkpt>
      <trkpt lat="45.21215" lon="5.56409">
        <ele>1346</ele>
        <time>2015-11-29T09:32:51.000Z</time>
      </trkpt>
      <trkpt lat="45.21215" lon="5.56409">
        <ele>1346</ele>
        <time>2015-11-29T09:32:53.000Z</time>
      </trkpt>
      <trkpt lat="45.21232" lon="5.56374">
        <ele>1347</ele>
        <time>2015-11-29T09:33:07.000Z</time>
      </trkpt>
      <trkpt lat="45.21239" lon="5.56364">
        <ele>1352</ele>
        <time>2015-11-29T09:33:13.000Z</time>
      </trkpt>
      <trkpt lat="45.21239" lon="5.56364">
        <ele>1352</ele>
        <time>2015-11-29T09:33:17.000Z</time>
      </trkpt>
      <trkpt lat="45.21239" lon="5.56364">
        <ele>1352</ele>
        <time>2015-11-29T09:33:19.000Z</time>
      </trkpt>
      <trkpt lat="45.21252" lon="5.5635">
        <ele>1351</ele>
        <time>2015-11-29T09:34:07.000Z</time>
      </trkpt>
      <trkpt lat="45.2126" lon="5.56339">
        <ele>1350</ele>
        <time>2015-11-29T09:34:09.000Z</time>
      </trkpt>
      <trkpt lat="45.21267" lon="5.56332">
        <ele>1350</ele>
        <time>2015-11-29T09:34:11.000Z</time>
      </trkpt>
      <trkpt lat="45.21273" lon="5.56326">
        <ele>1352</ele>
        <time>2015-11-29T09:34:13.000Z</time>
      </trkpt>
      <trkpt lat="45.21279" lon="5.56323">
        <ele>1352</ele>
        <time>2015-11-29T09:34:15.000Z</time>
      </trkpt>
      <trkpt lat="45.21279" lon="5.56323">
        <ele>1352</ele>
        <time>2015-11-29T09:34:17.000Z</time>
      </trkpt>
      <trkpt lat="45.21279" lon="5.56323">
        <ele>1352</ele>
        <time>2015-11-29T09:34:19.000Z</time>
      </trkpt>
      <trkpt lat="45.21279" lon="5.56323">
        <ele>1352</ele>
        <time>2015-11-29T09:34:21.000Z</time>
      </trkpt>
      <trkpt lat="45.21312" lon="5.56297">
        <ele>1349</ele>
        <time>2015-11-29T09:34:27.000Z</time>
      </trkpt>
      <trkpt lat="45.21325" lon="5.56285">
        <ele>1344</ele>
        <time>2015-11-29T09:34:31.000Z</time>
      </trkpt>
      <trkpt lat="45.21334" lon="5.56269">
        <ele>1346</ele>
        <time>2015-11-29T09:34:33.000Z</time>
      </trkpt>
      <trkpt lat="45.21334" lon="5.56269">
        <ele>1346</ele>
        <time>2015-11-29T09:34:37.000Z</time>
      </trkpt>
      <trkpt lat="45.21334" lon="5.56269">
        <ele>1346</ele>
        <time>2015-11-29T09:34:40.000Z</time>
      </trkpt>
      <trkpt lat="45.21334" lon="5.56269">
        <ele>1346</ele>
        <time>2015-11-29T09:34:42.000Z</time>
      </trkpt>
      <trkpt lat="45.21357" lon="5.56262">
        <ele>1335</ele>
        <time>2015-11-29T09:34:50.000Z</time>
      </trkpt>
      <trkpt lat="45.21417" lon="5.56171">
        <ele>1332</ele>
        <time>2015-11-29T09:34:58.000Z</time>
      </trkpt>
      <trkpt lat="45.21417" lon="5.56171">
        <ele>1332</ele>
        <time>2015-11-29T09:35:03.000Z</time>
      </trkpt>
      <trkpt lat="45.21417" lon="5.56171">
        <ele>1332</ele>
        <time>2015-11-29T09:35:05.000Z</time>
      </trkpt>
      <trkpt lat="45.21417" lon="5.56171">
        <ele>1332</ele>
        <time>2015-11-29T09:35:07.000Z</time>
      </trkpt>
      <trkpt lat="45.21417" lon="5.56171">
        <ele>1332</ele>
        <time>2015-11-29T09:35:09.000Z</time>
      </trkpt>
      <trkpt lat="45.21416" lon="5.56075">
        <ele>1346</ele>
        <time>2015-11-29T09:35:13.000Z</time>
      </trkpt>
      <trkpt lat="45.21404" lon="5.56056">
        <ele>1345</ele>
        <time>2015-11-29T09:35:17.000Z</time>
      </trkpt>
      <trkpt lat="45.21386" lon="5.56048">
        <ele>1346</ele>
        <time>2015-11-29T09:35:21.000Z</time>
      </trkpt>
      <trkpt lat="45.21386" lon="5.56048">
        <ele>1346</ele>
        <time>2015-11-29T09:35:24.000Z</time>
      </trkpt>
      <trkpt lat="45.21386" lon="5.56048">
        <ele>1346</ele>
        <time>2015-11-29T09:35:27.000Z</time>
      </trkpt>
      <trkpt lat="45.21386" lon="5.56048">
        <ele>1346</ele>
        <time>2015-11-29T09:35:29.000Z</time>
      </trkpt>
      <trkpt lat="45.21386" lon="5.56048">
        <ele>1346</ele>
        <time>2015-11-29T09:35:30.000Z</time>
      </trkpt>
      <trkpt lat="45.21386" lon="5.56048">
        <ele>1346</ele>
        <time>2015-11-29T09:35:33.000Z</time>
      </trkpt>
      <trkpt lat="45.21386" lon="5.56048">
        <ele>1346</ele>
        <time>2015-11-29T09:35:35.000Z</time>
      </trkpt>
      <trkpt lat="45.21386" lon="5.56048">
        <ele>1346</ele>
        <time>2015-11-29T09:35:36.000Z</time>
      </trkpt>
      <trkpt lat="45.21386" lon="5.56048">
        <ele>1346</ele>
        <time>2015-11-29T09:35:39.000Z</time>
      </trkpt>
      <trkpt lat="45.21386" lon="5.56048">
        <ele>1346</ele>
        <time>2015-11-29T09:35:41.000Z</time>
      </trkpt>
      <trkpt lat="45.21386" lon="5.56048">
        <ele>1346</ele>
        <time>2015-11-29T09:35:43.000Z</time>
      </trkpt>
      <trkpt lat="45.21386" lon="5.56048">
        <ele>1346</ele>
        <time>2015-11-29T09:35:45.000Z</time>
      </trkpt>
      <trkpt lat="45.21386" lon="5.56048">
        <ele>1346</ele>
        <time>2015-11-29T09:35:46.000Z</time>
      </trkpt>
      <trkpt lat="45.21386" lon="5.56048">
        <ele>1346</ele>
        <time>2015-11-29T09:35:48.000Z</time>
      </trkpt>
      <trkpt lat="45.21386" lon="5.56048">
        <ele>1346</ele>
        <time>2015-11-29T09:35:50.000Z</time>
      </trkpt>
      <trkpt lat="45.21386" lon="5.56048">
        <ele>1346</ele>
        <time>2015-11-29T09:35:53.000Z</time>
      </trkpt>
      <trkpt lat="45.21386" lon="5.56048">
        <ele>1346</ele>
        <time>2015-11-29T09:35:55.000Z</time>
      </trkpt>
      <trkpt lat="45.21386" lon="5.56027">
        <ele>1341</ele>
        <time>2015-11-29T09:36:23.000Z</time>
      </trkpt>
      <trkpt lat="45.21384" lon="5.56016">
        <ele>1341</ele>
        <time>2015-11-29T09:36:25.000Z</time>
      </trkpt>
      <trkpt lat="45.21381" lon="5.56011">
        <ele>1341</ele>
        <time>2015-11-29T09:36:29.000Z</time>
      </trkpt>
      <trkpt lat="45.21381" lon="5.56011">
        <ele>1341</ele>
        <time>2015-11-29T09:36:30.000Z</time>
      </trkpt>
      <trkpt lat="45.21381" lon="5.56011">
        <ele>1341</ele>
        <time>2015-11-29T09:36:32.000Z</time>
      </trkpt>
      <trkpt lat="45.21381" lon="5.56011">
        <ele>1341</ele>
        <time>2015-11-29T09:36:34.000Z</time>
      </trkpt>
      <trkpt lat="45.21381" lon="5.56011">
        <ele>1341</ele>
        <time>2015-11-29T09:36:36.000Z</time>
      </trkpt>
      <trkpt lat="45.21386" lon="5.56008">
        <ele>1340</ele>
        <time>2015-11-29T09:41:35.000Z</time>
      </trkpt>
      <trkpt lat="45.2139" lon="5.56005">
        <ele>1340</ele>
        <time>2015-11-29T09:41:37.000Z</time>
      </trkpt>
      <trkpt lat="45.21395" lon="5.56002">
        <ele>1341</ele>
        <time>2015-11-29T09:41:39.000Z</time>
      </trkpt>
      <trkpt lat="45.214" lon="5.56">
        <ele>1340</ele>
        <time>2015-11-29T09:41:41.000Z</time>
      </trkpt>
      <trkpt lat="45.21405" lon="5.55999">
        <ele>1341</ele>
        <time>2015-11-29T09:41:43.000Z</time>
      </trkpt>
      <trkpt lat="45.21415" lon="5.55996">
        <ele>1340</ele>
        <time>2015-11-29T09:41:45.000Z</time>
      </trkpt>
      <trkpt lat="45.21427" lon="5.55996">
        <ele>1340</ele>
        <time>2015-11-29T09:41:49.000Z</time>
      </trkpt>
      <trkpt lat="45.21439" lon="5.55995">
        <ele>1340</ele>
        <time>2015-11-29T09:41:53.000Z</time>
      </trkpt>
      <trkpt lat="45.21451" lon="5.55994">
        <ele>1340</ele>
        <time>2015-11-29T09:41:57.000Z</time>
      </trkpt>
      <trkpt lat="45.21463" lon="5.55992">
        <ele>1341</ele>
        <time>2015-11-29T09:42:01.000Z</time>
      </trkpt>
      <trkpt lat="45.21474" lon="5.55992">
        <ele>1340</ele>
        <time>2015-11-29T09:42:05.000Z</time>
      </trkpt>
      <trkpt lat="45.21486" lon="5.5599">
        <ele>1341</ele>
        <time>2015-11-29T09:42:09.000Z</time>
      </trkpt>
      <trkpt lat="45.21498" lon="5.5599">
        <ele>1340</ele>
        <time>2015-11-29T09:42:13.000Z</time>
      </trkpt>
      <trkpt lat="45.21509" lon="5.55989">
        <ele>1340</ele>
        <time>2015-11-29T09:42:17.000Z</time>
      </trkpt>
      <trkpt lat="45.21521" lon="5.55987">
        <ele>1340</ele>
        <time>2015-11-29T09:42:21.000Z</time>
      </trkpt>
      <trkpt lat="45.21534" lon="5.55984">
        <ele>1342</ele>
        <time>2015-11-29T09:42:25.000Z</time>
      </trkpt>
      <trkpt lat="45.21547" lon="5.5598">
        <ele>1343</ele>
        <time>2015-11-29T09:42:29.000Z</time>
      </trkpt>
      <trkpt lat="45.21558" lon="5.55978">
        <ele>1344</ele>
        <time>2015-11-29T09:42:33.000Z</time>
      </trkpt>
      <trkpt lat="45.21558" lon="5.55978">
        <ele>1344</ele>
        <time>2015-11-29T09:42:34.000Z</time>
      </trkpt>
      <trkpt lat="45.21558" lon="5.55978">
        <ele>1344</ele>
        <time>2015-11-29T09:42:37.000Z</time>
      </trkpt>
      <trkpt lat="45.21558" lon="5.55978">
        <ele>1344</ele>
        <time>2015-11-29T09:42:39.000Z</time>
      </trkpt>
      <trkpt lat="45.21558" lon="5.55978">
        <ele>1344</ele>
        <time>2015-11-29T09:42:41.000Z</time>
      </trkpt>
      <trkpt lat="45.21558" lon="5.55978">
        <ele>1344</ele>
        <time>2015-11-29T09:42:43.000Z</time>
      </trkpt>
      <trkpt lat="45.21558" lon="5.55978">
        <ele>1344</ele>
        <time>2015-11-29T09:42:45.000Z</time>
      </trkpt>
      <trkpt lat="45.21558" lon="5.55978">
        <ele>1344</ele>
        <time>2015-11-29T09:42:47.000Z</time>
      </trkpt>
      <trkpt lat="45.21558" lon="5.55978">
        <ele>1344</ele>
        <time>2015-11-29T09:42:49.000Z</time>
      </trkpt>
      <trkpt lat="45.21558" lon="5.55978">
        <ele>1344</ele>
        <time>2015-11-29T09:42:51.000Z</time>
      </trkpt>
      <trkpt lat="45.21589" lon="5.55969">
        <ele>1345</ele>
        <time>2015-11-29T09:42:53.000Z</time>
      </trkpt>
      <trkpt lat="45.21603" lon="5.55964">
        <ele>1346</ele>
        <time>2015-11-29T09:42:57.000Z</time>
      </trkpt>
      <trkpt lat="45.21612" lon="5.5596">
        <ele>1347</ele>
        <time>2015-11-29T09:43:01.000Z</time>
      </trkpt>
      <trkpt lat="45.21612" lon="5.5596">
        <ele>1347</ele>
        <time>2015-11-29T09:43:03.000Z</time>
      </trkpt>
      <trkpt lat="45.21612" lon="5.5596">
        <ele>1347</ele>
        <time>2015-11-29T09:43:05.000Z</time>
      </trkpt>
      <trkpt lat="45.21612" lon="5.5596">
        <ele>1347</ele>
        <time>2015-11-29T09:43:07.000Z</time>
      </trkpt>
      <trkpt lat="45.21612" lon="5.5596">
        <ele>1347</ele>
        <time>2015-11-29T09:43:08.000Z</time>
      </trkpt>
      <trkpt lat="45.21626" lon="5.5595">
        <ele>1348</ele>
        <time>2015-11-29T09:43:17.000Z</time>
      </trkpt>
      <trkpt lat="45.21635" lon="5.55944">
        <ele>1348</ele>
        <time>2015-11-29T09:43:19.000Z</time>
      </trkpt>
      <trkpt lat="45.21641" lon="5.55939">
        <ele>1349</ele>
        <time>2015-11-29T09:43:21.000Z</time>
      </trkpt>
      <trkpt lat="45.21646" lon="5.55934">
        <ele>1350</ele>
        <time>2015-11-29T09:43:23.000Z</time>
      </trkpt>
      <trkpt lat="45.21651" lon="5.5593">
        <ele>1351</ele>
        <time>2015-11-29T09:43:25.000Z</time>
      </trkpt>
      <trkpt lat="45.21661" lon="5.5592">
        <ele>1350</ele>
        <time>2015-11-29T09:43:27.000Z</time>
      </trkpt>
      <trkpt lat="45.2167" lon="5.5591">
        <ele>1349</ele>
        <time>2015-11-29T09:43:31.000Z</time>
      </trkpt>
      <trkpt lat="45.21678" lon="5.55896">
        <ele>1349</ele>
        <time>2015-11-29T09:43:35.000Z</time>
      </trkpt>
      <trkpt lat="45.21685" lon="5.55885">
        <ele>1348</ele>
        <time>2015-11-29T09:43:39.000Z</time>
      </trkpt>
      <trkpt lat="45.21685" lon="5.55885">
        <ele>1348</ele>
        <time>2015-11-29T09:43:41.000Z</time>
      </trkpt>
      <trkpt lat="45.21685" lon="5.55885">
        <ele>1348</ele>
        <time>2015-11-29T09:43:43.000Z</time>
      </trkpt>
      <trkpt lat="45.21693" lon="5.5585">
        <ele>1348</ele>
        <time>2015-11-29T09:43:47.000Z</time>
      </trkpt>
      <trkpt lat="45.21698" lon="5.55828">
        <ele>1350</ele>
        <time>2015-11-29T09:43:51.000Z</time>
      </trkpt>
      <trkpt lat="45.21701" lon="5.55816">
        <ele>1349</ele>
        <time>2015-11-29T09:43:53.000Z</time>
      </trkpt>
      <trkpt lat="45.21708" lon="5.55806">
        <ele>1348</ele>
        <time>2015-11-29T09:43:55.000Z</time>
      </trkpt>
      <trkpt lat="45.2172" lon="5.55804">
        <ele>1349</ele>
        <time>2015-11-29T09:43:56.000Z</time>
      </trkpt>
      <trkpt lat="45.2173" lon="5.55807">
        <ele>1348</ele>
        <time>2015-11-29T09:43:59.000Z</time>
      </trkpt>
      <trkpt lat="45.21741" lon="5.55821">
        <ele>1347</ele>
        <time>2015-11-29T09:44:03.000Z</time>
      </trkpt>
      <trkpt lat="45.21741" lon="5.55821">
        <ele>1347</ele>
        <time>2015-11-29T09:44:05.000Z</time>
      </trkpt>
      <trkpt lat="45.21741" lon="5.55821">
        <ele>1347</ele>
        <time>2015-11-29T09:44:07.000Z</time>
      </trkpt>
      <trkpt lat="45.21741" lon="5.55821">
        <ele>1347</ele>
        <time>2015-11-29T09:44:09.000Z</time>
      </trkpt>
      <trkpt lat="45.21741" lon="5.55821">
        <ele>1347</ele>
        <time>2015-11-29T09:44:11.000Z</time>
      </trkpt>
      <trkpt lat="45.21741" lon="5.55821">
        <ele>1347</ele>
        <time>2015-11-29T09:44:13.000Z</time>
      </trkpt>
      <trkpt lat="45.21741" lon="5.55821">
        <ele>1347</ele>
        <time>2015-11-29T09:44:15.000Z</time>
      </trkpt>
      <trkpt lat="45.21741" lon="5.55821">
        <ele>1347</ele>
        <time>2015-11-29T09:44:18.000Z</time>
      </trkpt>
      <trkpt lat="45.21741" lon="5.55821">
        <ele>1347</ele>
        <time>2015-11-29T09:44:21.000Z</time>
      </trkpt>
      <trkpt lat="45.21741" lon="5.55821">
        <ele>1347</ele>
        <time>2015-11-29T09:44:23.000Z</time>
      </trkpt>
      <trkpt lat="45.21741" lon="5.55821">
        <ele>1347</ele>
        <time>2015-11-29T09:44:24.000Z</time>
      </trkpt>
      <trkpt lat="45.21741" lon="5.55821">
        <ele>1347</ele>
        <time>2015-11-29T09:44:27.000Z</time>
      </trkpt>
      <trkpt lat="45.21794" lon="5.55876">
        <ele>1348</ele>
        <time>2015-11-29T09:44:33.000Z</time>
      </trkpt>
      <trkpt lat="45.21808" lon="5.55874">
        <ele>1347</ele>
        <time>2015-11-29T09:44:37.000Z</time>
      </trkpt>
      <trkpt lat="45.2182" lon="5.55872">
        <ele>1337</ele>
        <time>2015-11-29T09:44:41.000Z</time>
      </trkpt>
      <trkpt lat="45.2182" lon="5.55872">
        <ele>1337</ele>
        <time>2015-11-29T09:44:43.000Z</time>
      </trkpt>
      <trkpt lat="45.21831" lon="5.5588">
        <ele>1335</ele>
        <time>2015-11-29T09:44:45.000Z</time>
      </trkpt>
      <trkpt lat="45.21839" lon="5.55896">
        <ele>1337</ele>
        <time>2015-11-29T09:44:49.000Z</time>
      </trkpt>
      <trkpt lat="45.21848" lon="5.55923">
        <ele>1341</ele>
        <time>2015-11-29T09:44:53.000Z</time>
      </trkpt>
      <trkpt lat="45.21853" lon="5.55941">
        <ele>1340</ele>
        <time>2015-11-29T09:44:56.000Z</time>
      </trkpt>
      <trkpt lat="45.21858" lon="5.55953">
        <ele>1344</ele>
        <time>2015-11-29T09:44:57.000Z</time>
      </trkpt>
      <trkpt lat="45.21858" lon="5.55953">
        <ele>1344</ele>
        <time>2015-11-29T09:44:59.000Z</time>
      </trkpt>
      <trkpt lat="45.21866" lon="5.55979">
        <ele>1347</ele>
        <time>2015-11-29T09:45:02.000Z</time>
      </trkpt>
      <trkpt lat="45.21873" lon="5.55991">
        <ele>1348</ele>
        <time>2015-11-29T09:45:04.000Z</time>
      </trkpt>
      <trkpt lat="45.21873" lon="5.55991">
        <ele>1348</ele>
        <time>2015-11-29T09:45:08.000Z</time>
      </trkpt>
      <trkpt lat="45.21873" lon="5.55991">
        <ele>1348</ele>
        <time>2015-11-29T09:45:10.000Z</time>
      </trkpt>
      <trkpt lat="45.21873" lon="5.55991">
        <ele>1348</ele>
        <time>2015-11-29T09:45:12.000Z</time>
      </trkpt>
      <trkpt lat="45.21873" lon="5.55991">
        <ele>1348</ele>
        <time>2015-11-29T09:45:14.000Z</time>
      </trkpt>
      <trkpt lat="45.21873" lon="5.55991">
        <ele>1348</ele>
        <time>2015-11-29T09:45:16.000Z</time>
      </trkpt>
      <trkpt lat="45.21873" lon="5.55991">
        <ele>1348</ele>
        <time>2015-11-29T09:45:18.000Z</time>
      </trkpt>
      <trkpt lat="45.21873" lon="5.55991">
        <ele>1348</ele>
        <time>2015-11-29T09:45:20.000Z</time>
      </trkpt>
      <trkpt lat="45.21873" lon="5.55991">
        <ele>1348</ele>
        <time>2015-11-29T09:45:22.000Z</time>
      </trkpt>
      <trkpt lat="45.21873" lon="5.55991">
        <ele>1348</ele>
        <time>2015-11-29T09:45:30.000Z</time>
      </trkpt>
      <trkpt lat="45.21873" lon="5.55991">
        <ele>1348</ele>
        <time>2015-11-29T09:45:32.000Z</time>
      </trkpt>
      <trkpt lat="45.21873" lon="5.55991">
        <ele>1348</ele>
        <time>2015-11-29T09:45:34.000Z</time>
      </trkpt>
      <trkpt lat="45.21873" lon="5.55991">
        <ele>1348</ele>
        <time>2015-11-29T09:45:35.000Z</time>
      </trkpt>
      <trkpt lat="45.21917" lon="5.56027">
        <ele>1345</ele>
        <time>2015-11-29T09:45:46.000Z</time>
      </trkpt>
      <trkpt lat="45.21941" lon="5.56046">
        <ele>1343</ele>
        <time>2015-11-29T09:45:48.000Z</time>
      </trkpt>
      <trkpt lat="45.21955" lon="5.56056">
        <ele>1342</ele>
        <time>2015-11-29T09:45:50.000Z</time>
      </trkpt>
      <trkpt lat="45.21965" lon="5.56061">
        <ele>1343</ele>
        <time>2015-11-29T09:45:52.000Z</time>
      </trkpt>
      <trkpt lat="45.21972" lon="5.56063">
        <ele>1342</ele>
        <time>2015-11-29T09:45:54.000Z</time>
      </trkpt>
      <trkpt lat="45.21984" lon="5.56064">
        <ele>1340</ele>
        <time>2015-11-29T09:45:56.000Z</time>
      </trkpt>
      <trkpt lat="45.21984" lon="5.56064">
        <ele>1340</ele>
        <time>2015-11-29T09:45:57.000Z</time>
      </trkpt>
      <trkpt lat="45.21984" lon="5.56064">
        <ele>1340</ele>
        <time>2015-11-29T09:46:00.000Z</time>
      </trkpt>
      <trkpt lat="45.21984" lon="5.56064">
        <ele>1340</ele>
        <time>2015-11-29T09:46:02.000Z</time>
      </trkpt>
      <trkpt lat="45.21984" lon="5.56064">
        <ele>1340</ele>
        <time>2015-11-29T09:46:04.000Z</time>
      </trkpt>
      <trkpt lat="45.21984" lon="5.56064">
        <ele>1340</ele>
        <time>2015-11-29T09:46:06.000Z</time>
      </trkpt>
      <trkpt lat="45.21984" lon="5.56064">
        <ele>1340</ele>
        <time>2015-11-29T09:46:08.000Z</time>
      </trkpt>
      <trkpt lat="45.21984" lon="5.56064">
        <ele>1340</ele>
        <time>2015-11-29T09:46:10.000Z</time>
      </trkpt>
      <trkpt lat="45.21984" lon="5.56064">
        <ele>1340</ele>
        <time>2015-11-29T09:46:12.000Z</time>
      </trkpt>
      <trkpt lat="45.21984" lon="5.56064">
        <ele>1340</ele>
        <time>2015-11-29T09:46:14.000Z</time>
      </trkpt>
      <trkpt lat="45.21994" lon="5.56073">
        <ele>1339</ele>
        <time>2015-11-29T09:47:22.000Z</time>
      </trkpt>
      <trkpt lat="45.22" lon="5.56079">
        <ele>1337</ele>
        <time>2015-11-29T09:47:24.000Z</time>
      </trkpt>
      <trkpt lat="45.22005" lon="5.56084">
        <ele>1337</ele>
        <time>2015-11-29T09:47:25.000Z</time>
      </trkpt>
      <trkpt lat="45.2201" lon="5.56088">
        <ele>1340</ele>
        <time>2015-11-29T09:47:28.000Z</time>
      </trkpt>
      <trkpt lat="45.22015" lon="5.56092">
        <ele>1339</ele>
        <time>2015-11-29T09:47:30.000Z</time>
      </trkpt>
      <trkpt lat="45.22052" lon="5.56117">
        <ele>1341</ele>
        <time>2015-11-29T09:47:35.000Z</time>
      </trkpt>
      <trkpt lat="45.22063" lon="5.56128">
        <ele>1339</ele>
        <time>2015-11-29T09:47:38.000Z</time>
      </trkpt>
      <trkpt lat="45.22063" lon="5.56128">
        <ele>1339</ele>
        <time>2015-11-29T09:47:40.000Z</time>
      </trkpt>
      <trkpt lat="45.22063" lon="5.56128">
        <ele>1339</ele>
        <time>2015-11-29T09:47:42.000Z</time>
      </trkpt>
      <trkpt lat="45.22063" lon="5.56128">
        <ele>1339</ele>
        <time>2015-11-29T09:47:44.000Z</time>
      </trkpt>
      <trkpt lat="45.22063" lon="5.56128">
        <ele>1339</ele>
        <time>2015-11-29T09:47:46.000Z</time>
      </trkpt>
      <trkpt lat="45.22087" lon="5.56173">
        <ele>1347</ele>
        <time>2015-11-29T09:47:56.000Z</time>
      </trkpt>
      <trkpt lat="45.22089" lon="5.56187">
        <ele>1349</ele>
        <time>2015-11-29T09:48:00.000Z</time>
      </trkpt>
      <trkpt lat="45.2209" lon="5.562">
        <ele>1349</ele>
        <time>2015-11-29T09:48:04.000Z</time>
      </trkpt>
      <trkpt lat="45.22076" lon="5.56248">
        <ele>1348</ele>
        <time>2015-11-29T09:48:09.000Z</time>
      </trkpt>
      <trkpt lat="45.22076" lon="5.56248">
        <ele>1348</ele>
        <time>2015-11-29T09:48:14.000Z</time>
      </trkpt>
      <trkpt lat="45.22076" lon="5.56248">
        <ele>1348</ele>
        <time>2015-11-29T09:48:16.000Z</time>
      </trkpt>
      <trkpt lat="45.22076" lon="5.56248">
        <ele>1348</ele>
        <time>2015-11-29T09:48:18.000Z</time>
      </trkpt>
      <trkpt lat="45.22089" lon="5.56298">
        <ele>1349</ele>
        <time>2015-11-29T09:48:22.000Z</time>
      </trkpt>
      <trkpt lat="45.22095" lon="5.56325">
        <ele>1349</ele>
        <time>2015-11-29T09:48:24.000Z</time>
      </trkpt>
      <trkpt lat="45.22099" lon="5.56338">
        <ele>1349</ele>
        <time>2015-11-29T09:48:27.000Z</time>
      </trkpt>
      <trkpt lat="45.22105" lon="5.56361">
        <ele>1353</ele>
        <time>2015-11-29T09:48:31.000Z</time>
      </trkpt>
      <trkpt lat="45.22105" lon="5.56361">
        <ele>1353</ele>
        <time>2015-11-29T09:48:33.000Z</time>
      </trkpt>
      <trkpt lat="45.22105" lon="5.56361">
        <ele>1353</ele>
        <time>2015-11-29T09:48:35.000Z</time>
      </trkpt>
      <trkpt lat="45.22131" lon="5.564">
        <ele>1356</ele>
        <time>2015-11-29T09:48:45.000Z</time>
      </trkpt>
      <trkpt lat="45.22136" lon="5.56427">
        <ele>1356</ele>
        <time>2015-11-29T09:48:49.000Z</time>
      </trkpt>
      <trkpt lat="45.22136" lon="5.56427">
        <ele>1356</ele>
        <time>2015-11-29T09:48:53.000Z</time>
      </trkpt>
      <trkpt lat="45.22136" lon="5.56427">
        <ele>1356</ele>
        <time>2015-11-29T09:48:54.000Z</time>
      </trkpt>
      <trkpt lat="45.22136" lon="5.56427">
        <ele>1356</ele>
        <time>2015-11-29T09:48:57.000Z</time>
      </trkpt>
      <trkpt lat="45.22136" lon="5.56427">
        <ele>1356</ele>
        <time>2015-11-29T09:48:59.000Z</time>
      </trkpt>
      <trkpt lat="45.22136" lon="5.56427">
        <ele>1356</ele>
        <time>2015-11-29T09:49:03.000Z</time>
      </trkpt>
      <trkpt lat="45.22136" lon="5.56427">
        <ele>1356</ele>
        <time>2015-11-29T09:49:09.000Z</time>
      </trkpt>
      <trkpt lat="45.22136" lon="5.56427">
        <ele>1356</ele>
        <time>2015-11-29T09:49:11.000Z</time>
      </trkpt>
      <trkpt lat="45.22131" lon="5.56461">
        <ele>1356</ele>
        <time>2015-11-29T09:49:31.000Z</time>
      </trkpt>
      <trkpt lat="45.22129" lon="5.5648">
        <ele>1356</ele>
        <time>2015-11-29T09:49:33.000Z</time>
      </trkpt>
      <trkpt lat="45.22128" lon="5.56492">
        <ele>1358</ele>
        <time>2015-11-29T09:49:35.000Z</time>
      </trkpt>
      <trkpt lat="45.22128" lon="5.565">
        <ele>1359</ele>
        <time>2015-11-29T09:49:37.000Z</time>
      </trkpt>
      <trkpt lat="45.22127" lon="5.56507">
        <ele>1360</ele>
        <time>2015-11-29T09:49:39.000Z</time>
      </trkpt>
      <trkpt lat="45.22127" lon="5.56507">
        <ele>1360</ele>
        <time>2015-11-29T09:49:43.000Z</time>
      </trkpt>
      <trkpt lat="45.22127" lon="5.56507">
        <ele>1360</ele>
        <time>2015-11-29T09:49:45.000Z</time>
      </trkpt>
      <trkpt lat="45.22127" lon="5.56507">
        <ele>1360</ele>
        <time>2015-11-29T09:49:47.000Z</time>
      </trkpt>
      <trkpt lat="45.22127" lon="5.56507">
        <ele>1360</ele>
        <time>2015-11-29T09:49:49.000Z</time>
      </trkpt>
      <trkpt lat="45.22127" lon="5.56507">
        <ele>1360</ele>
        <time>2015-11-29T09:49:51.000Z</time>
      </trkpt>
      <trkpt lat="45.22127" lon="5.56507">
        <ele>1360</ele>
        <time>2015-11-29T09:49:57.000Z</time>
      </trkpt>
      <trkpt lat="45.22127" lon="5.56507">
        <ele>1360</ele>
        <time>2015-11-29T09:49:59.000Z</time>
      </trkpt>
      <trkpt lat="45.22127" lon="5.56507">
        <ele>1360</ele>
        <time>2015-11-29T09:50:01.000Z</time>
      </trkpt>
      <trkpt lat="45.22128" lon="5.56575">
        <ele>1367</ele>
        <time>2015-11-29T09:50:11.000Z</time>
      </trkpt>
      <trkpt lat="45.22123" lon="5.56587">
        <ele>1364</ele>
        <time>2015-11-29T09:50:17.000Z</time>
      </trkpt>
      <trkpt lat="45.22113" lon="5.56596">
        <ele>1360</ele>
        <time>2015-11-29T09:50:23.000Z</time>
      </trkpt>
      <trkpt lat="45.22113" lon="5.56596">
        <ele>1360</ele>
        <time>2015-11-29T09:50:26.000Z</time>
      </trkpt>
      <trkpt lat="45.22113" lon="5.56596">
        <ele>1360</ele>
        <time>2015-11-29T09:50:29.000Z</time>
      </trkpt>
      <trkpt lat="45.22106" lon="5.56603">
        <ele>1360</ele>
        <time>2015-11-29T09:51:07.000Z</time>
      </trkpt>
      <trkpt lat="45.22095" lon="5.56602">
        <ele>1359</ele>
        <time>2015-11-29T09:51:10.000Z</time>
      </trkpt>
      <trkpt lat="45.22087" lon="5.56596">
        <ele>1358</ele>
        <time>2015-11-29T09:51:11.000Z</time>
      </trkpt>
      <trkpt lat="45.22081" lon="5.56587">
        <ele>1359</ele>
        <time>2015-11-29T09:51:14.000Z</time>
      </trkpt>
      <trkpt lat="45.22078" lon="5.56577">
        <ele>1358</ele>
        <time>2015-11-29T09:51:16.000Z</time>
      </trkpt>
      <trkpt lat="45.22073" lon="5.56556">
        <ele>1356</ele>
        <time>2015-11-29T09:51:18.000Z</time>
      </trkpt>
      <trkpt lat="45.2207" lon="5.5654">
        <ele>1359</ele>
        <time>2015-11-29T09:51:20.000Z</time>
      </trkpt>
      <trkpt lat="45.2207" lon="5.5654">
        <ele>1359</ele>
        <time>2015-11-29T09:51:22.000Z</time>
      </trkpt>
      <trkpt lat="45.22065" lon="5.56518">
        <ele>1356</ele>
        <time>2015-11-29T09:51:24.000Z</time>
      </trkpt>
      <trkpt lat="45.22065" lon="5.56518">
        <ele>1356</ele>
        <time>2015-11-29T09:51:26.000Z</time>
      </trkpt>
      <trkpt lat="45.22049" lon="5.5648">
        <ele>1352</ele>
        <time>2015-11-29T09:51:30.000Z</time>
      </trkpt>
      <trkpt lat="45.22043" lon="5.56464">
        <ele>1351</ele>
        <time>2015-11-29T09:51:32.000Z</time>
      </trkpt>
      <trkpt lat="45.22034" lon="5.56449">
        <ele>1350</ele>
        <time>2015-11-29T09:51:34.000Z</time>
      </trkpt>
      <trkpt lat="45.22024" lon="5.56435">
        <ele>1350</ele>
        <time>2015-11-29T09:51:36.000Z</time>
      </trkpt>
      <trkpt lat="45.22015" lon="5.56421">
        <ele>1350</ele>
        <time>2015-11-29T09:51:38.000Z</time>
      </trkpt>
      <trkpt lat="45.22005" lon="5.56404">
        <ele>1351</ele>
        <time>2015-11-29T09:51:40.000Z</time>
      </trkpt>
      <trkpt lat="45.21998" lon="5.56387">
        <ele>1352</ele>
        <time>2015-11-29T09:51:42.000Z</time>
      </trkpt>
      <trkpt lat="45.21992" lon="5.56365">
        <ele>1352</ele>
        <time>2015-11-29T09:51:44.000Z</time>
      </trkpt>
      <trkpt lat="45.21985" lon="5.56349">
        <ele>1350</ele>
        <time>2015-11-29T09:51:46.000Z</time>
      </trkpt>
      <trkpt lat="45.2198" lon="5.56333">
        <ele>1347</ele>
        <time>2015-11-29T09:51:48.000Z</time>
      </trkpt>
      <trkpt lat="45.21973" lon="5.56318">
        <ele>1346</ele>
        <time>2015-11-29T09:51:50.000Z</time>
      </trkpt>
      <trkpt lat="45.21963" lon="5.56301">
        <ele>1344</ele>
        <time>2015-11-29T09:51:52.000Z</time>
      </trkpt>
      <trkpt lat="45.21955" lon="5.56286">
        <ele>1343</ele>
        <time>2015-11-29T09:51:54.000Z</time>
      </trkpt>
      <trkpt lat="45.21946" lon="5.56274">
        <ele>1341</ele>
        <time>2015-11-29T09:51:56.000Z</time>
      </trkpt>
      <trkpt lat="45.21938" lon="5.56258">
        <ele>1341</ele>
        <time>2015-11-29T09:51:58.000Z</time>
      </trkpt>
      <trkpt lat="45.21931" lon="5.56243">
        <ele>1341</ele>
        <time>2015-11-29T09:52:00.000Z</time>
      </trkpt>
      <trkpt lat="45.21923" lon="5.56227">
        <ele>1343</ele>
        <time>2015-11-29T09:52:02.000Z</time>
      </trkpt>
      <trkpt lat="45.21915" lon="5.56212">
        <ele>1346</ele>
        <time>2015-11-29T09:52:04.000Z</time>
      </trkpt>
      <trkpt lat="45.21908" lon="5.56199">
        <ele>1344</ele>
        <time>2015-11-29T09:52:05.000Z</time>
      </trkpt>
      <trkpt lat="45.21901" lon="5.56188">
        <ele>1342</ele>
        <time>2015-11-29T09:52:08.000Z</time>
      </trkpt>
      <trkpt lat="45.21893" lon="5.56176">
        <ele>1341</ele>
        <time>2015-11-29T09:52:10.000Z</time>
      </trkpt>
      <trkpt lat="45.21886" lon="5.56164">
        <ele>1340</ele>
        <time>2015-11-29T09:52:12.000Z</time>
      </trkpt>
      <trkpt lat="45.2188" lon="5.56153">
        <ele>1338</ele>
        <time>2015-11-29T09:52:14.000Z</time>
      </trkpt>
      <trkpt lat="45.21866" lon="5.56132">
        <ele>1339</ele>
        <time>2015-11-29T09:52:18.000Z</time>
      </trkpt>
      <trkpt lat="45.21866" lon="5.56132">
        <ele>1339</ele>
        <time>2015-11-29T09:52:20.000Z</time>
      </trkpt>
      <trkpt lat="45.21866" lon="5.56132">
        <ele>1339</ele>
        <time>2015-11-29T09:52:22.000Z</time>
      </trkpt>
      <trkpt lat="45.21866" lon="5.56132">
        <ele>1339</ele>
        <time>2015-11-29T09:52:24.000Z</time>
      </trkpt>
      <trkpt lat="45.21866" lon="5.56132">
        <ele>1339</ele>
        <time>2015-11-29T09:52:25.000Z</time>
      </trkpt>
      <trkpt lat="45.21866" lon="5.56132">
        <ele>1339</ele>
        <time>2015-11-29T09:52:28.000Z</time>
      </trkpt>
      <trkpt lat="45.21866" lon="5.56132">
        <ele>1339</ele>
        <time>2015-11-29T09:52:30.000Z</time>
      </trkpt>
      <trkpt lat="45.21866" lon="5.56132">
        <ele>1339</ele>
        <time>2015-11-29T09:52:32.000Z</time>
      </trkpt>
      <trkpt lat="45.21866" lon="5.56132">
        <ele>1339</ele>
        <time>2015-11-29T09:52:34.000Z</time>
      </trkpt>
      <trkpt lat="45.21866" lon="5.56132">
        <ele>1339</ele>
        <time>2015-11-29T09:52:40.000Z</time>
      </trkpt>
      <trkpt lat="45.21866" lon="5.56132">
        <ele>1339</ele>
        <time>2015-11-29T09:52:42.000Z</time>
      </trkpt>
      <trkpt lat="45.21866" lon="5.56132">
        <ele>1339</ele>
        <time>2015-11-29T09:52:44.000Z</time>
      </trkpt>
      <trkpt lat="45.21866" lon="5.56132">
        <ele>1339</ele>
        <time>2015-11-29T09:52:46.000Z</time>
      </trkpt>
      <trkpt lat="45.21866" lon="5.56132">
        <ele>1339</ele>
        <time>2015-11-29T09:52:48.000Z</time>
      </trkpt>
      <trkpt lat="45.21866" lon="5.56132">
        <ele>1339</ele>
        <time>2015-11-29T09:52:50.000Z</time>
      </trkpt>
      <trkpt lat="45.21866" lon="5.56132">
        <ele>1339</ele>
        <time>2015-11-29T09:52:52.000Z</time>
      </trkpt>
      <trkpt lat="45.21866" lon="5.56132">
        <ele>1339</ele>
        <time>2015-11-29T09:52:54.000Z</time>
      </trkpt>
      <trkpt lat="45.21866" lon="5.56132">
        <ele>1339</ele>
        <time>2015-11-29T09:52:56.000Z</time>
      </trkpt>
      <trkpt lat="45.21866" lon="5.56132">
        <ele>1339</ele>
        <time>2015-11-29T09:52:58.000Z</time>
      </trkpt>
      <trkpt lat="45.21785" lon="5.56024">
        <ele>1337</ele>
        <time>2015-11-29T09:53:02.000Z</time>
      </trkpt>
      <trkpt lat="45.21772" lon="5.56028">
        <ele>1337</ele>
        <time>2015-11-29T09:53:08.000Z</time>
      </trkpt>
      <trkpt lat="45.21762" lon="5.56027">
        <ele>1337</ele>
        <time>2015-11-29T09:53:12.000Z</time>
      </trkpt>
      <trkpt lat="45.21762" lon="5.56027">
        <ele>1337</ele>
        <time>2015-11-29T09:53:14.000Z</time>
      </trkpt>
      <trkpt lat="45.21753" lon="5.56024">
        <ele>1336</ele>
        <time>2015-11-29T09:53:16.000Z</time>
      </trkpt>
      <trkpt lat="45.21753" lon="5.56024">
        <ele>1336</ele>
        <time>2015-11-29T09:53:22.000Z</time>
      </trkpt>
      <trkpt lat="45.21753" lon="5.56024">
        <ele>1336</ele>
        <time>2015-11-29T09:53:24.000Z</time>
      </trkpt>
      <trkpt lat="45.21753" lon="5.56024">
        <ele>1336</ele>
        <time>2015-11-29T09:53:26.000Z</time>
      </trkpt>
      <trkpt lat="45.21753" lon="5.56024">
        <ele>1336</ele>
        <time>2015-11-29T09:53:28.000Z</time>
      </trkpt>
      <trkpt lat="45.21753" lon="5.56024">
        <ele>1336</ele>
        <time>2015-11-29T09:53:30.000Z</time>
      </trkpt>
      <trkpt lat="45.21753" lon="5.56024">
        <ele>1336</ele>
        <time>2015-11-29T09:53:32.000Z</time>
      </trkpt>
      <trkpt lat="45.21733" lon="5.5602">
        <ele>1333</ele>
        <time>2015-11-29T09:53:36.000Z</time>
      </trkpt>
      <trkpt lat="45.2172" lon="5.56018">
        <ele>1334</ele>
        <time>2015-11-29T09:53:38.000Z</time>
      </trkpt>
      <trkpt lat="45.21712" lon="5.56018">
        <ele>1334</ele>
        <time>2015-11-29T09:53:40.000Z</time>
      </trkpt>
      <trkpt lat="45.21706" lon="5.56019">
        <ele>1335</ele>
        <time>2015-11-29T09:53:42.000Z</time>
      </trkpt>
      <trkpt lat="45.21706" lon="5.56019">
        <ele>1335</ele>
        <time>2015-11-29T09:53:44.000Z</time>
      </trkpt>
      <trkpt lat="45.21706" lon="5.56019">
        <ele>1335</ele>
        <time>2015-11-29T09:53:46.000Z</time>
      </trkpt>
      <trkpt lat="45.21706" lon="5.56019">
        <ele>1335</ele>
        <time>2015-11-29T09:53:48.000Z</time>
      </trkpt>
      <trkpt lat="45.21692" lon="5.56022">
        <ele>1338</ele>
        <time>2015-11-29T09:53:56.000Z</time>
      </trkpt>
      <trkpt lat="45.21683" lon="5.56023">
        <ele>1339</ele>
        <time>2015-11-29T09:53:58.000Z</time>
      </trkpt>
      <trkpt lat="45.21677" lon="5.56023">
        <ele>1339</ele>
        <time>2015-11-29T09:54:00.000Z</time>
      </trkpt>
      <trkpt lat="45.21671" lon="5.56023">
        <ele>1340</ele>
        <time>2015-11-29T09:54:02.000Z</time>
      </trkpt>
      <trkpt lat="45.21666" lon="5.56023">
        <ele>1340</ele>
        <time>2015-11-29T09:54:04.000Z</time>
      </trkpt>
      <trkpt lat="45.21656" lon="5.56022">
        <ele>1341</ele>
        <time>2015-11-29T09:54:06.000Z</time>
      </trkpt>
      <trkpt lat="45.21642" lon="5.56022">
        <ele>1341</ele>
        <time>2015-11-29T09:54:10.000Z</time>
      </trkpt>
      <trkpt lat="45.21625" lon="5.56022">
        <ele>1341</ele>
        <time>2015-11-29T09:54:14.000Z</time>
      </trkpt>
      <trkpt lat="45.21616" lon="5.56023">
        <ele>1341</ele>
        <time>2015-11-29T09:54:16.000Z</time>
      </trkpt>
      <trkpt lat="45.21605" lon="5.56025">
        <ele>1341</ele>
        <time>2015-11-29T09:54:18.000Z</time>
      </trkpt>
      <trkpt lat="45.21594" lon="5.56026">
        <ele>1341</ele>
        <time>2015-11-29T09:54:20.000Z</time>
      </trkpt>
      <trkpt lat="45.21584" lon="5.56029">
        <ele>1341</ele>
        <time>2015-11-29T09:54:22.000Z</time>
      </trkpt>
      <trkpt lat="45.21577" lon="5.56038">
        <ele>1338</ele>
        <time>2015-11-29T09:54:24.000Z</time>
      </trkpt>
      <trkpt lat="45.21569" lon="5.56049">
        <ele>1338</ele>
        <time>2015-11-29T09:54:26.000Z</time>
      </trkpt>
      <trkpt lat="45.21562" lon="5.5606">
        <ele>1337</ele>
        <time>2015-11-29T09:54:28.000Z</time>
      </trkpt>
      <trkpt lat="45.21556" lon="5.56071">
        <ele>1337</ele>
        <time>2015-11-29T09:54:30.000Z</time>
      </trkpt>
      <trkpt lat="45.21556" lon="5.56071">
        <ele>1337</ele>
        <time>2015-11-29T09:54:32.000Z</time>
      </trkpt>
      <trkpt lat="45.21556" lon="5.56071">
        <ele>1337</ele>
        <time>2015-11-29T09:54:34.000Z</time>
      </trkpt>
      <trkpt lat="45.21556" lon="5.56071">
        <ele>1337</ele>
        <time>2015-11-29T09:54:36.000Z</time>
      </trkpt>
      <trkpt lat="45.21556" lon="5.56071">
        <ele>1337</ele>
        <time>2015-11-29T09:54:38.000Z</time>
      </trkpt>
      <trkpt lat="45.21556" lon="5.56071">
        <ele>1337</ele>
        <time>2015-11-29T09:54:40.000Z</time>
      </trkpt>
      <trkpt lat="45.21556" lon="5.56071">
        <ele>1337</ele>
        <time>2015-11-29T09:54:42.000Z</time>
      </trkpt>
      <trkpt lat="45.21556" lon="5.56071">
        <ele>1337</ele>
        <time>2015-11-29T09:54:44.000Z</time>
      </trkpt>
      <trkpt lat="45.21556" lon="5.56071">
        <ele>1337</ele>
        <time>2015-11-29T09:54:46.000Z</time>
      </trkpt>
      <trkpt lat="45.21556" lon="5.56071">
        <ele>1337</ele>
        <time>2015-11-29T09:54:48.000Z</time>
      </trkpt>
      <trkpt lat="45.21556" lon="5.56071">
        <ele>1337</ele>
        <time>2015-11-29T09:54:50.000Z</time>
      </trkpt>
      <trkpt lat="45.21556" lon="5.56071">
        <ele>1337</ele>
        <time>2015-11-29T09:54:52.000Z</time>
      </trkpt>
      <trkpt lat="45.21556" lon="5.56071">
        <ele>1337</ele>
        <time>2015-11-29T09:54:54.000Z</time>
      </trkpt>
      <trkpt lat="45.21556" lon="5.56071">
        <ele>1337</ele>
        <time>2015-11-29T09:55:04.000Z</time>
      </trkpt>
      <trkpt lat="45.21593" lon="5.56131">
        <ele>1340</ele>
        <time>2015-11-29T09:55:14.000Z</time>
      </trkpt>
      <trkpt lat="45.21605" lon="5.56121">
        <ele>1337</ele>
        <time>2015-11-29T09:55:20.000Z</time>
      </trkpt>
      <trkpt lat="45.21617" lon="5.56118">
        <ele>1339</ele>
        <time>2015-11-29T09:55:24.000Z</time>
      </trkpt>
      <trkpt lat="45.21617" lon="5.56118">
        <ele>1339</ele>
        <time>2015-11-29T09:55:28.000Z</time>
      </trkpt>
      <trkpt lat="45.21617" lon="5.56118">
        <ele>1339</ele>
        <time>2015-11-29T09:55:30.000Z</time>
      </trkpt>
      <trkpt lat="45.21617" lon="5.56118">
        <ele>1339</ele>
        <time>2015-11-29T09:55:32.000Z</time>
      </trkpt>
      <trkpt lat="45.21632" lon="5.56111">
        <ele>1343</ele>
        <time>2015-11-29T09:55:36.000Z</time>
      </trkpt>
      <trkpt lat="45.21642" lon="5.56104">
        <ele>1344</ele>
        <time>2015-11-29T09:55:38.000Z</time>
      </trkpt>
      <trkpt lat="45.2165" lon="5.56097">
        <ele>1344</ele>
        <time>2015-11-29T09:55:40.000Z</time>
      </trkpt>
      <trkpt lat="45.21658" lon="5.5609">
        <ele>1346</ele>
        <time>2015-11-29T09:55:42.000Z</time>
      </trkpt>
      <trkpt lat="45.21665" lon="5.56085">
        <ele>1345</ele>
        <time>2015-11-29T09:55:44.000Z</time>
      </trkpt>
      <trkpt lat="45.21679" lon="5.56074">
        <ele>1345</ele>
        <time>2015-11-29T09:55:46.000Z</time>
      </trkpt>
      <trkpt lat="45.21679" lon="5.56074">
        <ele>1345</ele>
        <time>2015-11-29T09:55:48.000Z</time>
      </trkpt>
      <trkpt lat="45.21679" lon="5.56074">
        <ele>1345</ele>
        <time>2015-11-29T09:55:50.000Z</time>
      </trkpt>
      <trkpt lat="45.21679" lon="5.56074">
        <ele>1345</ele>
        <time>2015-11-29T09:55:52.000Z</time>
      </trkpt>
      <trkpt lat="45.21679" lon="5.56074">
        <ele>1345</ele>
        <time>2015-11-29T09:55:54.000Z</time>
      </trkpt>
      <trkpt lat="45.21679" lon="5.56074">
        <ele>1345</ele>
        <time>2015-11-29T09:56:00.000Z</time>
      </trkpt>
      <trkpt lat="45.21679" lon="5.56074">
        <ele>1345</ele>
        <time>2015-11-29T09:56:02.000Z</time>
      </trkpt>
      <trkpt lat="45.21679" lon="5.56074">
        <ele>1345</ele>
        <time>2015-11-29T09:56:04.000Z</time>
      </trkpt>
      <trkpt lat="45.21679" lon="5.56074">
        <ele>1345</ele>
        <time>2015-11-29T09:56:06.000Z</time>
      </trkpt>
      <trkpt lat="45.21679" lon="5.56074">
        <ele>1345</ele>
        <time>2015-11-29T09:56:08.000Z</time>
      </trkpt>
      <trkpt lat="45.21679" lon="5.56074">
        <ele>1345</ele>
        <time>2015-11-29T09:56:10.000Z</time>
      </trkpt>
      <trkpt lat="45.21679" lon="5.56074">
        <ele>1345</ele>
        <time>2015-11-29T09:56:12.000Z</time>
      </trkpt>
      <trkpt lat="45.21709" lon="5.56067">
        <ele>1345</ele>
        <time>2015-11-29T09:56:14.000Z</time>
      </trkpt>
      <trkpt lat="45.21696" lon="5.56063">
        <ele>1345</ele>
        <time>2015-11-29T09:56:18.000Z</time>
      </trkpt>
      <trkpt lat="45.21696" lon="5.56063">
        <ele>1345</ele>
        <time>2015-11-29T09:56:24.000Z</time>
      </trkpt>
      <trkpt lat="45.21709" lon="5.56069">
        <ele>1343</ele>
        <time>2015-11-29T09:56:32.000Z</time>
      </trkpt>
      <trkpt lat="45.21721" lon="5.56069">
        <ele>1341</ele>
        <time>2015-11-29T09:56:36.000Z</time>
      </trkpt>
      <trkpt lat="45.21731" lon="5.56071">
        <ele>1336</ele>
        <time>2015-11-29T09:56:40.000Z</time>
      </trkpt>
      <trkpt lat="45.21768" lon="5.56092">
        <ele>1335</ele>
        <time>2015-11-29T09:56:46.000Z</time>
      </trkpt>
      <trkpt lat="45.2178" lon="5.56108">
        <ele>1336</ele>
        <time>2015-11-29T09:56:49.000Z</time>
      </trkpt>
      <trkpt lat="45.21788" lon="5.56119">
        <ele>1337</ele>
        <time>2015-11-29T09:56:51.000Z</time>
      </trkpt>
      <trkpt lat="45.21788" lon="5.56119">
        <ele>1337</ele>
        <time>2015-11-29T09:56:53.000Z</time>
      </trkpt>
      <trkpt lat="45.21788" lon="5.56119">
        <ele>1337</ele>
        <time>2015-11-29T09:56:55.000Z</time>
      </trkpt>
      <trkpt lat="45.21788" lon="5.56119">
        <ele>1337</ele>
        <time>2015-11-29T09:56:57.000Z</time>
      </trkpt>
      <trkpt lat="45.21788" lon="5.56119">
        <ele>1337</ele>
        <time>2015-11-29T09:56:59.000Z</time>
      </trkpt>
      <trkpt lat="45.2183" lon="5.56165">
        <ele>1339</ele>
        <time>2015-11-29T09:57:05.000Z</time>
      </trkpt>
      <trkpt lat="45.21836" lon="5.56171">
        <ele>1335</ele>
        <time>2015-11-29T09:57:09.000Z</time>
      </trkpt>
      <trkpt lat="45.21842" lon="5.56177">
        <ele>1336</ele>
        <time>2015-11-29T09:57:11.000Z</time>
      </trkpt>
      <trkpt lat="45.21842" lon="5.56177">
        <ele>1336</ele>
        <time>2015-11-29T09:57:13.000Z</time>
      </trkpt>
      <trkpt lat="45.21842" lon="5.56177">
        <ele>1336</ele>
        <time>2015-11-29T09:57:15.000Z</time>
      </trkpt>
      <trkpt lat="45.21842" lon="5.56177">
        <ele>1336</ele>
        <time>2015-11-29T09:57:19.000Z</time>
      </trkpt>
      <trkpt lat="45.21842" lon="5.56177">
        <ele>1336</ele>
        <time>2015-11-29T09:57:21.000Z</time>
      </trkpt>
      <trkpt lat="45.21842" lon="5.56177">
        <ele>1336</ele>
        <time>2015-11-29T09:57:23.000Z</time>
      </trkpt>
      <trkpt lat="45.21842" lon="5.56177">
        <ele>1336</ele>
        <time>2015-11-29T09:57:25.000Z</time>
      </trkpt>
      <trkpt lat="45.21842" lon="5.56177">
        <ele>1336</ele>
        <time>2015-11-29T09:57:27.000Z</time>
      </trkpt>
      <trkpt lat="45.2186" lon="5.56198">
        <ele>1341</ele>
        <time>2015-11-29T09:57:33.000Z</time>
      </trkpt>
      <trkpt lat="45.21866" lon="5.56207">
        <ele>1340</ele>
        <time>2015-11-29T09:57:35.000Z</time>
      </trkpt>
      <trkpt lat="45.21866" lon="5.56207">
        <ele>1340</ele>
        <time>2015-11-29T09:57:39.000Z</time>
      </trkpt>
      <trkpt lat="45.21859" lon="5.56205">
        <ele>1339</ele>
        <time>2015-11-29T09:57:43.000Z</time>
      </trkpt>
      <trkpt lat="45.21852" lon="5.56203">
        <ele>1338</ele>
        <time>2015-11-29T09:57:45.000Z</time>
      </trkpt>
      <trkpt lat="45.21846" lon="5.562">
        <ele>1338</ele>
        <time>2015-11-29T09:57:47.000Z</time>
      </trkpt>
      <trkpt lat="45.2184" lon="5.56197">
        <ele>1337</ele>
        <time>2015-11-29T09:57:49.000Z</time>
      </trkpt>
      <trkpt lat="45.2184" lon="5.56197">
        <ele>1337</ele>
        <time>2015-11-29T09:57:51.000Z</time>
      </trkpt>
      <trkpt lat="45.2184" lon="5.56197">
        <ele>1337</ele>
        <time>2015-11-29T09:57:53.000Z</time>
      </trkpt>
      <trkpt lat="45.2184" lon="5.56197">
        <ele>1337</ele>
        <time>2015-11-29T09:57:55.000Z</time>
      </trkpt>
      <trkpt lat="45.21825" lon="5.56186">
        <ele>1340</ele>
        <time>2015-11-29T09:58:01.000Z</time>
      </trkpt>
      <trkpt lat="45.21816" lon="5.56179">
        <ele>1341</ele>
        <time>2015-11-29T09:58:03.000Z</time>
      </trkpt>
      <trkpt lat="45.2181" lon="5.56174">
        <ele>1339</ele>
        <time>2015-11-29T09:58:05.000Z</time>
      </trkpt>
      <trkpt lat="45.21802" lon="5.56168">
        <ele>1342</ele>
        <time>2015-11-29T09:58:09.000Z</time>
      </trkpt>
      <trkpt lat="45.21796" lon="5.56164">
        <ele>1342</ele>
        <time>2015-11-29T09:58:11.000Z</time>
      </trkpt>
      <trkpt lat="45.21791" lon="5.56159">
        <ele>1343</ele>
        <time>2015-11-29T09:58:13.000Z</time>
      </trkpt>
      <trkpt lat="45.21786" lon="5.56155">
        <ele>1340</ele>
        <time>2015-11-29T09:58:15.000Z</time>
      </trkpt>
      <trkpt lat="45.21781" lon="5.56151">
        <ele>1338</ele>
        <time>2015-11-29T09:58:17.000Z</time>
      </trkpt>
      <trkpt lat="45.21772" lon="5.56142">
        <ele>1338</ele>
        <time>2015-11-29T09:58:19.000Z</time>
      </trkpt>
      <trkpt lat="45.21772" lon="5.56142">
        <ele>1338</ele>
        <time>2015-11-29T09:58:21.000Z</time>
      </trkpt>
      <trkpt lat="45.21772" lon="5.56142">
        <ele>1338</ele>
        <time>2015-11-29T09:58:23.000Z</time>
      </trkpt>
      <trkpt lat="45.21772" lon="5.56142">
        <ele>1338</ele>
        <time>2015-11-29T09:58:25.000Z</time>
      </trkpt>
      <trkpt lat="45.21772" lon="5.56142">
        <ele>1338</ele>
        <time>2015-11-29T09:58:27.000Z</time>
      </trkpt>
      <trkpt lat="45.21748" lon="5.56116">
        <ele>1338</ele>
        <time>2015-11-29T09:58:33.000Z</time>
      </trkpt>
      <trkpt lat="45.21739" lon="5.56112">
        <ele>1339</ele>
        <time>2015-11-29T09:58:37.000Z</time>
      </trkpt>
      <trkpt lat="45.21727" lon="5.56109">
        <ele>1339</ele>
        <time>2015-11-29T09:58:41.000Z</time>
      </trkpt>
      <trkpt lat="45.21714" lon="5.56111">
        <ele>1339</ele>
        <time>2015-11-29T09:58:45.000Z</time>
      </trkpt>
      <trkpt lat="45.21702" lon="5.56116">
        <ele>1338</ele>
        <time>2015-11-29T09:58:49.000Z</time>
      </trkpt>
      <trkpt lat="45.21702" lon="5.56116">
        <ele>1338</ele>
        <time>2015-11-29T09:58:51.000Z</time>
      </trkpt>
      <trkpt lat="45.21692" lon="5.56126">
        <ele>1337</ele>
        <time>2015-11-29T09:58:53.000Z</time>
      </trkpt>
      <trkpt lat="45.21692" lon="5.56126">
        <ele>1337</ele>
        <time>2015-11-29T09:58:57.000Z</time>
      </trkpt>
      <trkpt lat="45.21692" lon="5.56126">
        <ele>1337</ele>
        <time>2015-11-29T09:58:59.000Z</time>
      </trkpt>
      <trkpt lat="45.21692" lon="5.56126">
        <ele>1337</ele>
        <time>2015-11-29T09:59:01.000Z</time>
      </trkpt>
      <trkpt lat="45.21692" lon="5.56126">
        <ele>1337</ele>
        <time>2015-11-29T09:59:03.000Z</time>
      </trkpt>
      <trkpt lat="45.21692" lon="5.56126">
        <ele>1337</ele>
        <time>2015-11-29T09:59:05.000Z</time>
      </trkpt>
      <trkpt lat="45.21692" lon="5.56126">
        <ele>1337</ele>
        <time>2015-11-29T09:59:07.000Z</time>
      </trkpt>
      <trkpt lat="45.21665" lon="5.56139">
        <ele>1342</ele>
        <time>2015-11-29T09:59:09.000Z</time>
      </trkpt>
      <trkpt lat="45.2165" lon="5.56141">
        <ele>1343</ele>
        <time>2015-11-29T09:59:13.000Z</time>
      </trkpt>
      <trkpt lat="45.21641" lon="5.56141">
        <ele>1343</ele>
        <time>2015-11-29T09:59:15.000Z</time>
      </trkpt>
      <trkpt lat="45.21625" lon="5.56148">
        <ele>1342</ele>
        <time>2015-11-29T09:59:19.000Z</time>
      </trkpt>
      <trkpt lat="45.2162" lon="5.56159">
        <ele>1339</ele>
        <time>2015-11-29T09:59:21.000Z</time>
      </trkpt>
      <trkpt lat="45.2162" lon="5.56159">
        <ele>1339</ele>
        <time>2015-11-29T09:59:25.000Z</time>
      </trkpt>
      <trkpt lat="45.2162" lon="5.56159">
        <ele>1339</ele>
        <time>2015-11-29T09:59:27.000Z</time>
      </trkpt>
      <trkpt lat="45.2162" lon="5.56159">
        <ele>1339</ele>
        <time>2015-11-29T09:59:29.000Z</time>
      </trkpt>
      <trkpt lat="45.2162" lon="5.56159">
        <ele>1339</ele>
        <time>2015-11-29T09:59:31.000Z</time>
      </trkpt>
      <trkpt lat="45.2162" lon="5.56159">
        <ele>1339</ele>
        <time>2015-11-29T09:59:33.000Z</time>
      </trkpt>
      <trkpt lat="45.2162" lon="5.56159">
        <ele>1339</ele>
        <time>2015-11-29T09:59:35.000Z</time>
      </trkpt>
      <trkpt lat="45.2162" lon="5.56159">
        <ele>1339</ele>
        <time>2015-11-29T09:59:41.000Z</time>
      </trkpt>
      <trkpt lat="45.21642" lon="5.5618">
        <ele>1350</ele>
        <time>2015-11-29T09:59:45.000Z</time>
      </trkpt>
      <trkpt lat="45.21655" lon="5.56191">
        <ele>1351</ele>
        <time>2015-11-29T09:59:47.000Z</time>
      </trkpt>
      <trkpt lat="45.21663" lon="5.56195">
        <ele>1350</ele>
        <time>2015-11-29T09:59:49.000Z</time>
      </trkpt>
      <trkpt lat="45.21663" lon="5.56195">
        <ele>1350</ele>
        <time>2015-11-29T09:59:51.000Z</time>
      </trkpt>
      <trkpt lat="45.21663" lon="5.56195">
        <ele>1350</ele>
        <time>2015-11-29T09:59:53.000Z</time>
      </trkpt>
      <trkpt lat="45.21663" lon="5.56195">
        <ele>1350</ele>
        <time>2015-11-29T09:59:55.000Z</time>
      </trkpt>
      <trkpt lat="45.21675" lon="5.56191">
        <ele>1348</ele>
        <time>2015-11-29T10:00:01.000Z</time>
      </trkpt>
      <trkpt lat="45.21684" lon="5.56188">
        <ele>1348</ele>
        <time>2015-11-29T10:00:03.000Z</time>
      </trkpt>
      <trkpt lat="45.21689" lon="5.56185">
        <ele>1349</ele>
        <time>2015-11-29T10:00:05.000Z</time>
      </trkpt>
      <trkpt lat="45.21693" lon="5.56182">
        <ele>1350</ele>
        <time>2015-11-29T10:00:07.000Z</time>
      </trkpt>
      <trkpt lat="45.21698" lon="5.56179">
        <ele>1353</ele>
        <time>2015-11-29T10:00:11.000Z</time>
      </trkpt>
      <trkpt lat="45.21703" lon="5.56178">
        <ele>1353</ele>
        <time>2015-11-29T10:00:15.000Z</time>
      </trkpt>
      <trkpt lat="45.21703" lon="5.56178">
        <ele>1353</ele>
        <time>2015-11-29T10:00:17.000Z</time>
      </trkpt>
      <trkpt lat="45.21703" lon="5.56178">
        <ele>1353</ele>
        <time>2015-11-29T10:00:19.000Z</time>
      </trkpt>
      <trkpt lat="45.21703" lon="5.56178">
        <ele>1353</ele>
        <time>2015-11-29T10:00:21.000Z</time>
      </trkpt>
      <trkpt lat="45.21715" lon="5.5618">
        <ele>1350</ele>
        <time>2015-11-29T10:00:29.000Z</time>
      </trkpt>
      <trkpt lat="45.21722" lon="5.56182">
        <ele>1349</ele>
        <time>2015-11-29T10:00:31.000Z</time>
      </trkpt>
      <trkpt lat="45.21726" lon="5.56185">
        <ele>1350</ele>
        <time>2015-11-29T10:00:33.000Z</time>
      </trkpt>
      <trkpt lat="45.21731" lon="5.5619">
        <ele>1350</ele>
        <time>2015-11-29T10:00:37.000Z</time>
      </trkpt>
      <trkpt lat="45.21735" lon="5.56196">
        <ele>1350</ele>
        <time>2015-11-29T10:00:39.000Z</time>
      </trkpt>
      <trkpt lat="45.21737" lon="5.56203">
        <ele>1349</ele>
        <time>2015-11-29T10:00:41.000Z</time>
      </trkpt>
      <trkpt lat="45.21738" lon="5.5621">
        <ele>1348</ele>
        <time>2015-11-29T10:00:43.000Z</time>
      </trkpt>
      <trkpt lat="45.2174" lon="5.56217">
        <ele>1347</ele>
        <time>2015-11-29T10:00:45.000Z</time>
      </trkpt>
      <trkpt lat="45.21744" lon="5.56231">
        <ele>1347</ele>
        <time>2015-11-29T10:00:47.000Z</time>
      </trkpt>
      <trkpt lat="45.2175" lon="5.56253">
        <ele>1351</ele>
        <time>2015-11-29T10:00:51.000Z</time>
      </trkpt>
      <trkpt lat="45.21754" lon="5.56271">
        <ele>1351</ele>
        <time>2015-11-29T10:00:53.000Z</time>
      </trkpt>
      <trkpt lat="45.21759" lon="5.56289">
        <ele>1349</ele>
        <time>2015-11-29T10:00:57.000Z</time>
      </trkpt>
      <trkpt lat="45.21759" lon="5.56289">
        <ele>1349</ele>
        <time>2015-11-29T10:00:59.000Z</time>
      </trkpt>
      <trkpt lat="45.21759" lon="5.56289">
        <ele>1349</ele>
        <time>2015-11-29T10:01:01.000Z</time>
      </trkpt>
      <trkpt lat="45.21759" lon="5.56289">
        <ele>1349</ele>
        <time>2015-11-29T10:01:03.000Z</time>
      </trkpt>
      <trkpt lat="45.21759" lon="5.56289">
        <ele>1349</ele>
        <time>2015-11-29T10:01:05.000Z</time>
      </trkpt>
      <trkpt lat="45.21747" lon="5.56326">
        <ele>1351</ele>
        <time>2015-11-29T10:01:09.000Z</time>
      </trkpt>
      <trkpt lat="45.2173" lon="5.56317">
        <ele>1347</ele>
        <time>2015-11-29T10:01:13.000Z</time>
      </trkpt>
      <trkpt lat="45.21722" lon="5.5631">
        <ele>1346</ele>
        <time>2015-11-29T10:01:15.000Z</time>
      </trkpt>
      <trkpt lat="45.21704" lon="5.56294">
        <ele>1346</ele>
        <time>2015-11-29T10:01:18.000Z</time>
      </trkpt>
      <trkpt lat="45.21694" lon="5.56287">
        <ele>1345</ele>
        <time>2015-11-29T10:01:20.000Z</time>
      </trkpt>
      <trkpt lat="45.21686" lon="5.56278">
        <ele>1344</ele>
        <time>2015-11-29T10:01:22.000Z</time>
      </trkpt>
      <trkpt lat="45.21678" lon="5.56267">
        <ele>1343</ele>
        <time>2015-11-29T10:01:24.000Z</time>
      </trkpt>
      <trkpt lat="45.21672" lon="5.56257">
        <ele>1343</ele>
        <time>2015-11-29T10:01:26.000Z</time>
      </trkpt>
      <trkpt lat="45.21663" lon="5.56249">
        <ele>1342</ele>
        <time>2015-11-29T10:01:28.000Z</time>
      </trkpt>
      <trkpt lat="45.21663" lon="5.56249">
        <ele>1342</ele>
        <time>2015-11-29T10:01:31.000Z</time>
      </trkpt>
      <trkpt lat="45.21632" lon="5.56232">
        <ele>1339</ele>
        <time>2015-11-29T10:01:35.000Z</time>
      </trkpt>
      <trkpt lat="45.21632" lon="5.56232">
        <ele>1339</ele>
        <time>2015-11-29T10:01:37.000Z</time>
      </trkpt>
      <trkpt lat="45.21632" lon="5.56232">
        <ele>1339</ele>
        <time>2015-11-29T10:01:39.000Z</time>
      </trkpt>
      <trkpt lat="45.21632" lon="5.56232">
        <ele>1339</ele>
        <time>2015-11-29T10:01:41.000Z</time>
      </trkpt>
      <trkpt lat="45.21632" lon="5.56232">
        <ele>1339</ele>
        <time>2015-11-29T10:01:43.000Z</time>
      </trkpt>
      <trkpt lat="45.2158" lon="5.56197">
        <ele>1342</ele>
        <time>2015-11-29T10:01:47.000Z</time>
      </trkpt>
      <trkpt lat="45.21569" lon="5.56193">
        <ele>1342</ele>
        <time>2015-11-29T10:01:49.000Z</time>
      </trkpt>
      <trkpt lat="45.21559" lon="5.5619">
        <ele>1341</ele>
        <time>2015-11-29T10:01:51.000Z</time>
      </trkpt>
      <trkpt lat="45.21559" lon="5.5619">
        <ele>1341</ele>
        <time>2015-11-29T10:01:53.000Z</time>
      </trkpt>
      <trkpt lat="45.21559" lon="5.5619">
        <ele>1341</ele>
        <time>2015-11-29T10:01:55.000Z</time>
      </trkpt>
      <trkpt lat="45.21559" lon="5.5619">
        <ele>1341</ele>
        <time>2015-11-29T10:01:57.000Z</time>
      </trkpt>
      <trkpt lat="45.21559" lon="5.5619">
        <ele>1341</ele>
        <time>2015-11-29T10:01:59.000Z</time>
      </trkpt>
      <trkpt lat="45.21559" lon="5.5619">
        <ele>1341</ele>
        <time>2015-11-29T10:02:01.000Z</time>
      </trkpt>
      <trkpt lat="45.21559" lon="5.5619">
        <ele>1341</ele>
        <time>2015-11-29T10:02:03.000Z</time>
      </trkpt>
      <trkpt lat="45.21559" lon="5.5619">
        <ele>1341</ele>
        <time>2015-11-29T10:02:05.000Z</time>
      </trkpt>
      <trkpt lat="45.21559" lon="5.5619">
        <ele>1341</ele>
        <time>2015-11-29T10:02:07.000Z</time>
      </trkpt>
      <trkpt lat="45.21559" lon="5.5619">
        <ele>1341</ele>
        <time>2015-11-29T10:02:09.000Z</time>
      </trkpt>
      <trkpt lat="45.21559" lon="5.5619">
        <ele>1341</ele>
        <time>2015-11-29T10:02:11.000Z</time>
      </trkpt>
      <trkpt lat="45.21479" lon="5.56123">
        <ele>1341</ele>
        <time>2015-11-29T10:02:17.000Z</time>
      </trkpt>
      <trkpt lat="45.21479" lon="5.56123">
        <ele>1341</ele>
        <time>2015-11-29T10:02:19.000Z</time>
      </trkpt>
      <trkpt lat="45.21479" lon="5.56123">
        <ele>1341</ele>
        <time>2015-11-29T10:02:21.000Z</time>
      </trkpt>
      <trkpt lat="45.21479" lon="5.56123">
        <ele>1341</ele>
        <time>2015-11-29T10:02:23.000Z</time>
      </trkpt>
      <trkpt lat="45.21479" lon="5.56123">
        <ele>1341</ele>
        <time>2015-11-29T10:02:25.000Z</time>
      </trkpt>
      <trkpt lat="45.21474" lon="5.56135">
        <ele>1339</ele>
        <time>2015-11-29T10:02:45.000Z</time>
      </trkpt>
      <trkpt lat="45.2147" lon="5.56144">
        <ele>1338</ele>
        <time>2015-11-29T10:02:47.000Z</time>
      </trkpt>
      <trkpt lat="45.21467" lon="5.56152">
        <ele>1338</ele>
        <time>2015-11-29T10:02:49.000Z</time>
      </trkpt>
      <trkpt lat="45.21465" lon="5.56161">
        <ele>1338</ele>
        <time>2015-11-29T10:02:51.000Z</time>
      </trkpt>
      <trkpt lat="45.21462" lon="5.56174">
        <ele>1337</ele>
        <time>2015-11-29T10:02:54.000Z</time>
      </trkpt>
      <trkpt lat="45.21459" lon="5.56198">
        <ele>1337</ele>
        <time>2015-11-29T10:02:56.000Z</time>
      </trkpt>
      <trkpt lat="45.21458" lon="5.56219">
        <ele>1336</ele>
        <time>2015-11-29T10:03:00.000Z</time>
      </trkpt>
      <trkpt lat="45.21458" lon="5.56219">
        <ele>1336</ele>
        <time>2015-11-29T10:03:04.000Z</time>
      </trkpt>
      <trkpt lat="45.21458" lon="5.56219">
        <ele>1336</ele>
        <time>2015-11-29T10:03:06.000Z</time>
      </trkpt>
      <trkpt lat="45.21458" lon="5.56219">
        <ele>1336</ele>
        <time>2015-11-29T10:03:08.000Z</time>
      </trkpt>
      <trkpt lat="45.21458" lon="5.56219">
        <ele>1336</ele>
        <time>2015-11-29T10:03:10.000Z</time>
      </trkpt>
      <trkpt lat="45.21458" lon="5.56219">
        <ele>1336</ele>
        <time>2015-11-29T10:03:12.000Z</time>
      </trkpt>
      <trkpt lat="45.21464" lon="5.56278">
        <ele>1345</ele>
        <time>2015-11-29T10:03:20.000Z</time>
      </trkpt>
      <trkpt lat="45.21464" lon="5.56296">
        <ele>1346</ele>
        <time>2015-11-29T10:03:26.000Z</time>
      </trkpt>
      <trkpt lat="45.21464" lon="5.56313">
        <ele>1346</ele>
        <time>2015-11-29T10:03:32.000Z</time>
      </trkpt>
      <trkpt lat="45.21464" lon="5.56313">
        <ele>1346</ele>
        <time>2015-11-29T10:03:36.000Z</time>
      </trkpt>
      <trkpt lat="45.21464" lon="5.56313">
        <ele>1346</ele>
        <time>2015-11-29T10:03:38.000Z</time>
      </trkpt>
      <trkpt lat="45.21464" lon="5.56313">
        <ele>1346</ele>
        <time>2015-11-29T10:03:40.000Z</time>
      </trkpt>
      <trkpt lat="45.21461" lon="5.56344">
        <ele>1345</ele>
        <time>2015-11-29T10:03:44.000Z</time>
      </trkpt>
      <trkpt lat="45.21458" lon="5.5636">
        <ele>1345</ele>
        <time>2015-11-29T10:03:50.000Z</time>
      </trkpt>
      <trkpt lat="45.21458" lon="5.5636">
        <ele>1345</ele>
        <time>2015-11-29T10:03:54.000Z</time>
      </trkpt>
      <trkpt lat="45.21458" lon="5.5636">
        <ele>1345</ele>
        <time>2015-11-29T10:03:56.000Z</time>
      </trkpt>
      <trkpt lat="45.21458" lon="5.5636">
        <ele>1345</ele>
        <time>2015-11-29T10:03:58.000Z</time>
      </trkpt>
      <trkpt lat="45.21458" lon="5.5636">
        <ele>1345</ele>
        <time>2015-11-29T10:04:00.000Z</time>
      </trkpt>
      <trkpt lat="45.2145" lon="5.56378">
        <ele>1349</ele>
        <time>2015-11-29T10:04:10.000Z</time>
      </trkpt>
      <trkpt lat="45.21446" lon="5.56389">
        <ele>1348</ele>
        <time>2015-11-29T10:04:12.000Z</time>
      </trkpt>
      <trkpt lat="45.21442" lon="5.56396">
        <ele>1348</ele>
        <time>2015-11-29T10:04:14.000Z</time>
      </trkpt>
      <trkpt lat="45.2144" lon="5.56402">
        <ele>1349</ele>
        <time>2015-11-29T10:04:16.000Z</time>
      </trkpt>
      <trkpt lat="45.2144" lon="5.56402">
        <ele>1349</ele>
        <time>2015-11-29T10:04:18.000Z</time>
      </trkpt>
      <trkpt lat="45.2144" lon="5.56402">
        <ele>1349</ele>
        <time>2015-11-29T10:04:20.000Z</time>
      </trkpt>
      <trkpt lat="45.2144" lon="5.56402">
        <ele>1349</ele>
        <time>2015-11-29T10:04:22.000Z</time>
      </trkpt>
      <trkpt lat="45.21437" lon="5.56411">
        <ele>1348</ele>
        <time>2015-11-29T10:04:24.000Z</time>
      </trkpt>
      <trkpt lat="45.21434" lon="5.56419">
        <ele>1348</ele>
        <time>2015-11-29T10:04:26.000Z</time>
      </trkpt>
      <trkpt lat="45.21433" lon="5.56426">
        <ele>1348</ele>
        <time>2015-11-29T10:04:28.000Z</time>
      </trkpt>
      <trkpt lat="45.21431" lon="5.56435">
        <ele>1347</ele>
        <time>2015-11-29T10:04:32.000Z</time>
      </trkpt>
      <trkpt lat="45.2143" lon="5.56441">
        <ele>1347</ele>
        <time>2015-11-29T10:04:34.000Z</time>
      </trkpt>
      <trkpt lat="45.2143" lon="5.56441">
        <ele>1347</ele>
        <time>2015-11-29T10:04:36.000Z</time>
      </trkpt>
      <trkpt lat="45.2143" lon="5.56441">
        <ele>1347</ele>
        <time>2015-11-29T10:04:38.000Z</time>
      </trkpt>
      <trkpt lat="45.2143" lon="5.56441">
        <ele>1347</ele>
        <time>2015-11-29T10:04:40.000Z</time>
      </trkpt>
      <trkpt lat="45.2143" lon="5.56441">
        <ele>1347</ele>
        <time>2015-11-29T10:04:42.000Z</time>
      </trkpt>
      <trkpt lat="45.21428" lon="5.56463">
        <ele>1352</ele>
        <time>2015-11-29T10:04:52.000Z</time>
      </trkpt>
      <trkpt lat="45.21426" lon="5.56475">
        <ele>1352</ele>
        <time>2015-11-29T10:04:54.000Z</time>
      </trkpt>
      <trkpt lat="45.21426" lon="5.56483">
        <ele>1355</ele>
        <time>2015-11-29T10:04:56.000Z</time>
      </trkpt>
      <trkpt lat="45.21427" lon="5.56492">
        <ele>1356</ele>
        <time>2015-11-29T10:05:00.000Z</time>
      </trkpt>
      <trkpt lat="45.21428" lon="5.565">
        <ele>1358</ele>
        <time>2015-11-29T10:05:02.000Z</time>
      </trkpt>
      <trkpt lat="45.2143" lon="5.56507">
        <ele>1358</ele>
        <time>2015-11-29T10:05:04.000Z</time>
      </trkpt>
      <trkpt lat="45.21432" lon="5.56513">
        <ele>1360</ele>
        <time>2015-11-29T10:05:06.000Z</time>
      </trkpt>
      <trkpt lat="45.21435" lon="5.56519">
        <ele>1365</ele>
        <time>2015-11-29T10:05:08.000Z</time>
      </trkpt>
      <trkpt lat="45.21435" lon="5.56519">
        <ele>1365</ele>
        <time>2015-11-29T10:05:10.000Z</time>
      </trkpt>
      <trkpt lat="45.21435" lon="5.56519">
        <ele>1365</ele>
        <time>2015-11-29T10:05:12.000Z</time>
      </trkpt>
      <trkpt lat="45.21435" lon="5.56519">
        <ele>1365</ele>
        <time>2015-11-29T10:05:22.000Z</time>
      </trkpt>
      <trkpt lat="45.21435" lon="5.56519">
        <ele>1365</ele>
        <time>2015-11-29T10:05:28.000Z</time>
      </trkpt>
      <trkpt lat="45.21432" lon="5.56562">
        <ele>1363</ele>
        <time>2015-11-29T10:05:44.000Z</time>
      </trkpt>
      <trkpt lat="45.21425" lon="5.56571">
        <ele>1362</ele>
        <time>2015-11-29T10:05:48.000Z</time>
      </trkpt>
      <trkpt lat="45.21416" lon="5.56583">
        <ele>1361</ele>
        <time>2015-11-29T10:05:52.000Z</time>
      </trkpt>
      <trkpt lat="45.21409" lon="5.56592">
        <ele>1360</ele>
        <time>2015-11-29T10:05:54.000Z</time>
      </trkpt>
      <trkpt lat="45.21401" lon="5.56599">
        <ele>1359</ele>
        <time>2015-11-29T10:05:56.000Z</time>
      </trkpt>
      <trkpt lat="45.21391" lon="5.56604">
        <ele>1359</ele>
        <time>2015-11-29T10:05:58.000Z</time>
      </trkpt>
      <trkpt lat="45.21381" lon="5.56606">
        <ele>1359</ele>
        <time>2015-11-29T10:06:00.000Z</time>
      </trkpt>
      <trkpt lat="45.21371" lon="5.56605">
        <ele>1357</ele>
        <time>2015-11-29T10:06:02.000Z</time>
      </trkpt>
      <trkpt lat="45.21361" lon="5.56602">
        <ele>1356</ele>
        <time>2015-11-29T10:06:04.000Z</time>
      </trkpt>
      <trkpt lat="45.21361" lon="5.56602">
        <ele>1356</ele>
        <time>2015-11-29T10:06:06.000Z</time>
      </trkpt>
      <trkpt lat="45.21361" lon="5.56602">
        <ele>1356</ele>
        <time>2015-11-29T10:06:08.000Z</time>
      </trkpt>
      <trkpt lat="45.21335" lon="5.5658">
        <ele>1354</ele>
        <time>2015-11-29T10:06:10.000Z</time>
      </trkpt>
      <trkpt lat="45.21324" lon="5.56572">
        <ele>1354</ele>
        <time>2015-11-29T10:06:12.000Z</time>
      </trkpt>
      <trkpt lat="45.21309" lon="5.56565">
        <ele>1353</ele>
        <time>2015-11-29T10:06:14.000Z</time>
      </trkpt>
      <trkpt lat="45.21297" lon="5.56562">
        <ele>1353</ele>
        <time>2015-11-29T10:06:16.000Z</time>
      </trkpt>
      <trkpt lat="45.21286" lon="5.56558">
        <ele>1352</ele>
        <time>2015-11-29T10:06:18.000Z</time>
      </trkpt>
      <trkpt lat="45.21286" lon="5.56558">
        <ele>1352</ele>
        <time>2015-11-29T10:06:20.000Z</time>
      </trkpt>
      <trkpt lat="45.21286" lon="5.56558">
        <ele>1352</ele>
        <time>2015-11-29T10:06:22.000Z</time>
      </trkpt>
      <trkpt lat="45.21286" lon="5.56558">
        <ele>1352</ele>
        <time>2015-11-29T10:06:24.000Z</time>
      </trkpt>
      <trkpt lat="45.21241" lon="5.56519">
        <ele>1345</ele>
        <time>2015-11-29T10:06:28.000Z</time>
      </trkpt>
      <trkpt lat="45.2123" lon="5.56502">
        <ele>1345</ele>
        <time>2015-11-29T10:06:30.000Z</time>
      </trkpt>
      <trkpt lat="45.21222" lon="5.56484">
        <ele>1345</ele>
        <time>2015-11-29T10:06:32.000Z</time>
      </trkpt>
      <trkpt lat="45.21216" lon="5.5647">
        <ele>1344</ele>
        <time>2015-11-29T10:06:34.000Z</time>
      </trkpt>
      <trkpt lat="45.21216" lon="5.5647">
        <ele>1344</ele>
        <time>2015-11-29T10:06:36.000Z</time>
      </trkpt>
      <trkpt lat="45.21216" lon="5.5647">
        <ele>1344</ele>
        <time>2015-11-29T10:06:38.000Z</time>
      </trkpt>
      <trkpt lat="45.21216" lon="5.5647">
        <ele>1344</ele>
        <time>2015-11-29T10:06:40.000Z</time>
      </trkpt>
      <trkpt lat="45.21216" lon="5.5647">
        <ele>1344</ele>
        <time>2015-11-29T10:06:42.000Z</time>
      </trkpt>
      <trkpt lat="45.21216" lon="5.5647">
        <ele>1344</ele>
        <time>2015-11-29T10:06:44.000Z</time>
      </trkpt>
      <trkpt lat="45.21216" lon="5.56446">
        <ele>1347</ele>
        <time>2015-11-29T10:07:28.000Z</time>
      </trkpt>
      <trkpt lat="45.21217" lon="5.56432">
        <ele>1347</ele>
        <time>2015-11-29T10:07:30.000Z</time>
      </trkpt>
      <trkpt lat="45.21218" lon="5.56423">
        <ele>1348</ele>
        <time>2015-11-29T10:07:32.000Z</time>
      </trkpt>
      <trkpt lat="45.21218" lon="5.56423">
        <ele>1348</ele>
        <time>2015-11-29T10:07:34.000Z</time>
      </trkpt>
      <trkpt lat="45.21218" lon="5.56423">
        <ele>1348</ele>
        <time>2015-11-29T10:07:36.000Z</time>
      </trkpt>
      <trkpt lat="45.21218" lon="5.56423">
        <ele>1348</ele>
        <time>2015-11-29T10:07:38.000Z</time>
      </trkpt>
      <trkpt lat="45.21222" lon="5.56409">
        <ele>1348</ele>
        <time>2015-11-29T10:07:44.000Z</time>
      </trkpt>
      <trkpt lat="45.21225" lon="5.564">
        <ele>1348</ele>
        <time>2015-11-29T10:07:46.000Z</time>
      </trkpt>
      <trkpt lat="45.21228" lon="5.56395">
        <ele>1348</ele>
        <time>2015-11-29T10:07:50.000Z</time>
      </trkpt>
      <trkpt lat="45.21231" lon="5.56389">
        <ele>1351</ele>
        <time>2015-11-29T10:07:54.000Z</time>
      </trkpt>
      <trkpt lat="45.21234" lon="5.56383">
        <ele>1350</ele>
        <time>2015-11-29T10:07:56.000Z</time>
      </trkpt>
      <trkpt lat="45.21236" lon="5.56376">
        <ele>1353</ele>
        <time>2015-11-29T10:07:58.000Z</time>
      </trkpt>
      <trkpt lat="45.21236" lon="5.56368">
        <ele>1354</ele>
        <time>2015-11-29T10:08:00.000Z</time>
      </trkpt>
      <trkpt lat="45.21236" lon="5.56361">
        <ele>1353</ele>
        <time>2015-11-29T10:08:02.000Z</time>
      </trkpt>
      <trkpt lat="45.21235" lon="5.56347">
        <ele>1353</ele>
        <time>2015-11-29T10:08:04.000Z</time>
      </trkpt>
      <trkpt lat="45.21235" lon="5.56347">
        <ele>1353</ele>
        <time>2015-11-29T10:08:06.000Z</time>
      </trkpt>
      <trkpt lat="45.21225" lon="5.56326">
        <ele>1357</ele>
        <time>2015-11-29T10:08:10.000Z</time>
      </trkpt>
      <trkpt lat="45.21217" lon="5.56313">
        <ele>1356</ele>
        <time>2015-11-29T10:08:14.000Z</time>
      </trkpt>
      <trkpt lat="45.21217" lon="5.56313">
        <ele>1356</ele>
        <time>2015-11-29T10:08:16.000Z</time>
      </trkpt>
      <trkpt lat="45.21217" lon="5.56313">
        <ele>1356</ele>
        <time>2015-11-29T10:08:18.000Z</time>
      </trkpt>
      <trkpt lat="45.21228" lon="5.56331">
        <ele>1351</ele>
        <time>2015-11-29T10:08:26.000Z</time>
      </trkpt>
      <trkpt lat="45.21228" lon="5.56331">
        <ele>1351</ele>
        <time>2015-11-29T10:08:30.000Z</time>
      </trkpt>
      <trkpt lat="45.21228" lon="5.56331">
        <ele>1351</ele>
        <time>2015-11-29T10:08:32.000Z</time>
      </trkpt>
      <trkpt lat="45.21217" lon="5.56318">
        <ele>1351</ele>
        <time>2015-11-29T10:08:52.000Z</time>
      </trkpt>
      <trkpt lat="45.21207" lon="5.56305">
        <ele>1356</ele>
        <time>2015-11-29T10:08:56.000Z</time>
      </trkpt>
      <trkpt lat="45.21207" lon="5.56305">
        <ele>1356</ele>
        <time>2015-11-29T10:08:58.000Z</time>
      </trkpt>
      <trkpt lat="45.21207" lon="5.56305">
        <ele>1356</ele>
        <time>2015-11-29T10:09:00.000Z</time>
      </trkpt>
      <trkpt lat="45.21207" lon="5.56305">
        <ele>1356</ele>
        <time>2015-11-29T10:09:02.000Z</time>
      </trkpt>
      <trkpt lat="45.21207" lon="5.56305">
        <ele>1356</ele>
        <time>2015-11-29T10:09:04.000Z</time>
      </trkpt>
      <trkpt lat="45.21207" lon="5.56305">
        <ele>1356</ele>
        <time>2015-11-29T10:09:06.000Z</time>
      </trkpt>
      <trkpt lat="45.21207" lon="5.56305">
        <ele>1356</ele>
        <time>2015-11-29T10:09:08.000Z</time>
      </trkpt>
      <trkpt lat="45.21209" lon="5.56271">
        <ele>1360</ele>
        <time>2015-11-29T10:09:14.000Z</time>
      </trkpt>
      <trkpt lat="45.21211" lon="5.56265">
        <ele>1362</ele>
        <time>2015-11-29T10:09:18.000Z</time>
      </trkpt>
      <trkpt lat="45.21215" lon="5.5626">
        <ele>1361</ele>
        <time>2015-11-29T10:09:20.000Z</time>
      </trkpt>
      <trkpt lat="45.21219" lon="5.56254">
        <ele>1361</ele>
        <time>2015-11-29T10:09:22.000Z</time>
      </trkpt>
      <trkpt lat="45.21225" lon="5.56248">
        <ele>1358</ele>
        <time>2015-11-29T10:09:24.000Z</time>
      </trkpt>
      <trkpt lat="45.21247" lon="5.56229">
        <ele>1358</ele>
        <time>2015-11-29T10:09:29.000Z</time>
      </trkpt>
      <trkpt lat="45.21279" lon="5.56189">
        <ele>1355</ele>
        <time>2015-11-29T10:09:31.000Z</time>
      </trkpt>
      <trkpt lat="45.21285" lon="5.56163">
        <ele>1354</ele>
        <time>2015-11-29T10:09:33.000Z</time>
      </trkpt>
      <trkpt lat="45.21296" lon="5.56146">
        <ele>1354</ele>
        <time>2015-11-29T10:09:35.000Z</time>
      </trkpt>
      <trkpt lat="45.21305" lon="5.56129">
        <ele>1353</ele>
        <time>2015-11-29T10:09:37.000Z</time>
      </trkpt>
      <trkpt lat="45.21313" lon="5.56115">
        <ele>1354</ele>
        <time>2015-11-29T10:09:39.000Z</time>
      </trkpt>
      <trkpt lat="45.21313" lon="5.56115">
        <ele>1354</ele>
        <time>2015-11-29T10:09:41.000Z</time>
      </trkpt>
      <trkpt lat="45.21313" lon="5.56115">
        <ele>1354</ele>
        <time>2015-11-29T10:09:43.000Z</time>
      </trkpt>
      <trkpt lat="45.21313" lon="5.56115">
        <ele>1354</ele>
        <time>2015-11-29T10:09:45.000Z</time>
      </trkpt>
      <trkpt lat="45.21313" lon="5.56115">
        <ele>1354</ele>
        <time>2015-11-29T10:09:47.000Z</time>
      </trkpt>
      <trkpt lat="45.21313" lon="5.56115">
        <ele>1354</ele>
        <time>2015-11-29T10:09:49.000Z</time>
      </trkpt>
      <trkpt lat="45.21313" lon="5.56115">
        <ele>1354</ele>
        <time>2015-11-29T10:09:51.000Z</time>
      </trkpt>
      <trkpt lat="45.21313" lon="5.56115">
        <ele>1354</ele>
        <time>2015-11-29T10:09:53.000Z</time>
      </trkpt>
      <trkpt lat="45.21313" lon="5.56115">
        <ele>1354</ele>
        <time>2015-11-29T10:09:55.000Z</time>
      </trkpt>
      <trkpt lat="45.21313" lon="5.56115">
        <ele>1354</ele>
        <time>2015-11-29T10:09:57.000Z</time>
      </trkpt>
      <trkpt lat="45.21313" lon="5.56115">
        <ele>1354</ele>
        <time>2015-11-29T10:09:59.000Z</time>
      </trkpt>
      <trkpt lat="45.21313" lon="5.56115">
        <ele>1354</ele>
        <time>2015-11-29T10:10:01.000Z</time>
      </trkpt>
      <trkpt lat="45.21313" lon="5.56115">
        <ele>1354</ele>
        <time>2015-11-29T10:10:03.000Z</time>
      </trkpt>
      <trkpt lat="45.21313" lon="5.56115">
        <ele>1354</ele>
        <time>2015-11-29T10:10:05.000Z</time>
      </trkpt>
      <trkpt lat="45.21313" lon="5.56115">
        <ele>1354</ele>
        <time>2015-11-29T10:10:07.000Z</time>
      </trkpt>
      <trkpt lat="45.21313" lon="5.56115">
        <ele>1354</ele>
        <time>2015-11-29T10:10:09.000Z</time>
      </trkpt>
      <trkpt lat="45.21313" lon="5.56115">
        <ele>1354</ele>
        <time>2015-11-29T10:10:11.000Z</time>
      </trkpt>
      <trkpt lat="45.21313" lon="5.56115">
        <ele>1354</ele>
        <time>2015-11-29T10:10:13.000Z</time>
      </trkpt>
      <trkpt lat="45.21344" lon="5.56063">
        <ele>1344</ele>
        <time>2015-11-29T10:12:22.000Z</time>
      </trkpt>
      <trkpt lat="45.21361" lon="5.56036">
        <ele>1344</ele>
        <time>2015-11-29T10:12:24.000Z</time>
      </trkpt>
      <trkpt lat="45.21371" lon="5.5602">
        <ele>1343</ele>
        <time>2015-11-29T10:12:26.000Z</time>
      </trkpt>
      <trkpt lat="45.21378" lon="5.5601">
        <ele>1343</ele>
        <time>2015-11-29T10:12:28.000Z</time>
      </trkpt>
      <trkpt lat="45.21383" lon="5.56004">
        <ele>1343</ele>
        <time>2015-11-29T10:12:30.000Z</time>
      </trkpt>
      <trkpt lat="45.21383" lon="5.56004">
        <ele>1343</ele>
        <time>2015-11-29T10:12:32.000Z</time>
      </trkpt>
      <trkpt lat="45.21383" lon="5.56004">
        <ele>1343</ele>
        <time>2015-11-29T10:12:34.000Z</time>
      </trkpt>
      <trkpt lat="45.21396" lon="5.56002">
        <ele>1341</ele>
        <time>2015-11-29T10:13:48.000Z</time>
      </trkpt>
      <trkpt lat="45.21404" lon="5.56001">
        <ele>1341</ele>
        <time>2015-11-29T10:13:50.000Z</time>
      </trkpt>
      <trkpt lat="45.2141" lon="5.56001">
        <ele>1341</ele>
        <time>2015-11-29T10:13:52.000Z</time>
      </trkpt>
      <trkpt lat="45.21415" lon="5.56001">
        <ele>1341</ele>
        <time>2015-11-29T10:13:54.000Z</time>
      </trkpt>
      <trkpt lat="45.2142" lon="5.56">
        <ele>1341</ele>
        <time>2015-11-29T10:13:56.000Z</time>
      </trkpt>
      <trkpt lat="45.21431" lon="5.56">
        <ele>1341</ele>
        <time>2015-11-29T10:13:58.000Z</time>
      </trkpt>
      <trkpt lat="45.21441" lon="5.55999">
        <ele>1342</ele>
        <time>2015-11-29T10:14:02.000Z</time>
      </trkpt>
      <trkpt lat="45.2145" lon="5.55998">
        <ele>1343</ele>
        <time>2015-11-29T10:14:06.000Z</time>
      </trkpt>
      <trkpt lat="45.2146" lon="5.55998">
        <ele>1344</ele>
        <time>2015-11-29T10:14:10.000Z</time>
      </trkpt>
      <trkpt lat="45.21471" lon="5.55998">
        <ele>1344</ele>
        <time>2015-11-29T10:14:14.000Z</time>
      </trkpt>
      <trkpt lat="45.21483" lon="5.55998">
        <ele>1345</ele>
        <time>2015-11-29T10:14:18.000Z</time>
      </trkpt>
      <trkpt lat="45.21495" lon="5.55997">
        <ele>1345</ele>
        <time>2015-11-29T10:14:22.000Z</time>
      </trkpt>
      <trkpt lat="45.21506" lon="5.55996">
        <ele>1346</ele>
        <time>2015-11-29T10:14:26.000Z</time>
      </trkpt>
      <trkpt lat="45.21506" lon="5.55996">
        <ele>1346</ele>
        <time>2015-11-29T10:14:28.000Z</time>
      </trkpt>
      <trkpt lat="45.21506" lon="5.55996">
        <ele>1346</ele>
        <time>2015-11-29T10:14:30.000Z</time>
      </trkpt>
      <trkpt lat="45.21506" lon="5.55996">
        <ele>1346</ele>
        <time>2015-11-29T10:14:32.000Z</time>
      </trkpt>
      <trkpt lat="45.21506" lon="5.55996">
        <ele>1346</ele>
        <time>2015-11-29T10:14:34.000Z</time>
      </trkpt>
      <trkpt lat="45.21506" lon="5.55996">
        <ele>1346</ele>
        <time>2015-11-29T10:14:40.000Z</time>
      </trkpt>
      <trkpt lat="45.21506" lon="5.55996">
        <ele>1346</ele>
        <time>2015-11-29T10:14:42.000Z</time>
      </trkpt>
      <trkpt lat="45.21506" lon="5.55996">
        <ele>1346</ele>
        <time>2015-11-29T10:14:44.000Z</time>
      </trkpt>
      <trkpt lat="45.21506" lon="5.55996">
        <ele>1346</ele>
        <time>2015-11-29T10:14:46.000Z</time>
      </trkpt>
      <trkpt lat="45.21553" lon="5.55989">
        <ele>1345</ele>
        <time>2015-11-29T10:14:50.000Z</time>
      </trkpt>
      <trkpt lat="45.21563" lon="5.55991">
        <ele>1345</ele>
        <time>2015-11-29T10:14:54.000Z</time>
      </trkpt>
      <trkpt lat="45.21572" lon="5.55994">
        <ele>1346</ele>
        <time>2015-11-29T10:14:58.000Z</time>
      </trkpt>
      <trkpt lat="45.21581" lon="5.55992">
        <ele>1345</ele>
        <time>2015-11-29T10:15:02.000Z</time>
      </trkpt>
      <trkpt lat="45.21585" lon="5.55979">
        <ele>1344</ele>
        <time>2015-11-29T10:15:06.000Z</time>
      </trkpt>
      <trkpt lat="45.21583" lon="5.55964">
        <ele>1343</ele>
        <time>2015-11-29T10:15:10.000Z</time>
      </trkpt>
      <trkpt lat="45.21578" lon="5.5595">
        <ele>1344</ele>
        <time>2015-11-29T10:15:14.000Z</time>
      </trkpt>
      <trkpt lat="45.21578" lon="5.5595">
        <ele>1344</ele>
        <time>2015-11-29T10:15:18.000Z</time>
      </trkpt>
      <trkpt lat="45.21578" lon="5.5595">
        <ele>1344</ele>
        <time>2015-11-29T10:15:20.000Z</time>
      </trkpt>
      <trkpt lat="45.21578" lon="5.5595">
        <ele>1344</ele>
        <time>2015-11-29T10:15:22.000Z</time>
      </trkpt>
      <trkpt lat="45.21578" lon="5.5595">
        <ele>1344</ele>
        <time>2015-11-29T10:15:24.000Z</time>
      </trkpt>
      <trkpt lat="45.21578" lon="5.5595">
        <ele>1344</ele>
        <time>2015-11-29T10:15:26.000Z</time>
      </trkpt>
      <trkpt lat="45.21571" lon="5.55928">
        <ele>1347</ele>
        <time>2015-11-29T10:15:30.000Z</time>
      </trkpt>
      <trkpt lat="45.21567" lon="5.55913">
        <ele>1347</ele>
        <time>2015-11-29T10:15:32.000Z</time>
      </trkpt>
      <trkpt lat="45.21564" lon="5.55903">
        <ele>1347</ele>
        <time>2015-11-29T10:15:34.000Z</time>
      </trkpt>
      <trkpt lat="45.21563" lon="5.55895">
        <ele>1347</ele>
        <time>2015-11-29T10:15:36.000Z</time>
      </trkpt>
      <trkpt lat="45.21563" lon="5.55895">
        <ele>1347</ele>
        <time>2015-11-29T10:15:38.000Z</time>
      </trkpt>
      <trkpt lat="45.21563" lon="5.55895">
        <ele>1347</ele>
        <time>2015-11-29T10:15:40.000Z</time>
      </trkpt>
      <trkpt lat="45.21563" lon="5.55895">
        <ele>1347</ele>
        <time>2015-11-29T10:15:42.000Z</time>
      </trkpt>
      <trkpt lat="45.21563" lon="5.55895">
        <ele>1347</ele>
        <time>2015-11-29T10:15:46.000Z</time>
      </trkpt>
      <trkpt lat="45.21563" lon="5.55895">
        <ele>1347</ele>
        <time>2015-11-29T10:15:48.000Z</time>
      </trkpt>
      <trkpt lat="45.21563" lon="5.55895">
        <ele>1347</ele>
        <time>2015-11-29T10:15:50.000Z</time>
      </trkpt>
      <trkpt lat="45.21563" lon="5.55895">
        <ele>1347</ele>
        <time>2015-11-29T10:15:52.000Z</time>
      </trkpt>
      <trkpt lat="45.21563" lon="5.55895">
        <ele>1347</ele>
        <time>2015-11-29T10:15:54.000Z</time>
      </trkpt>
      <trkpt lat="45.21563" lon="5.55895">
        <ele>1347</ele>
        <time>2015-11-29T10:15:56.000Z</time>
      </trkpt>
      <trkpt lat="45.21563" lon="5.55895">
        <ele>1347</ele>
        <time>2015-11-29T10:16:00.000Z</time>
      </trkpt>
      <trkpt lat="45.21563" lon="5.55895">
        <ele>1347</ele>
        <time>2015-11-29T10:16:02.000Z</time>
      </trkpt>
      <trkpt lat="45.21563" lon="5.55895">
        <ele>1347</ele>
        <time>2015-11-29T10:16:04.000Z</time>
      </trkpt>
      <trkpt lat="45.21563" lon="5.55895">
        <ele>1347</ele>
        <time>2015-11-29T10:16:06.000Z</time>
      </trkpt>
      <trkpt lat="45.21563" lon="5.55895">
        <ele>1347</ele>
        <time>2015-11-29T10:16:08.000Z</time>
      </trkpt>
      <trkpt lat="45.21563" lon="5.55895">
        <ele>1347</ele>
        <time>2015-11-29T10:16:10.000Z</time>
      </trkpt>
      <trkpt lat="45.21564" lon="5.55851">
        <ele>1354</ele>
        <time>2015-11-29T10:16:16.000Z</time>
      </trkpt>
      <trkpt lat="45.21565" lon="5.55827">
        <ele>1356</ele>
        <time>2015-11-29T10:16:18.000Z</time>
      </trkpt>
      <trkpt lat="45.21567" lon="5.55812">
        <ele>1355</ele>
        <time>2015-11-29T10:16:20.000Z</time>
      </trkpt>
      <trkpt lat="45.21569" lon="5.55803">
        <ele>1356</ele>
        <time>2015-11-29T10:16:22.000Z</time>
      </trkpt>
      <trkpt lat="45.21571" lon="5.55797">
        <ele>1355</ele>
        <time>2015-11-29T10:16:24.000Z</time>
      </trkpt>
      <trkpt lat="45.21577" lon="5.55788">
        <ele>1355</ele>
        <time>2015-11-29T10:16:28.000Z</time>
      </trkpt>
      <trkpt lat="45.21577" lon="5.55788">
        <ele>1355</ele>
        <time>2015-11-29T10:16:30.000Z</time>
      </trkpt>
      <trkpt lat="45.21589" lon="5.55786">
        <ele>1357</ele>
        <time>2015-11-29T10:16:36.000Z</time>
      </trkpt>
      <trkpt lat="45.21601" lon="5.55794">
        <ele>1356</ele>
        <time>2015-11-29T10:16:42.000Z</time>
      </trkpt>
      <trkpt lat="45.21617" lon="5.55813">
        <ele>1351</ele>
        <time>2015-11-29T10:16:47.000Z</time>
      </trkpt>
      <trkpt lat="45.21624" lon="5.55824">
        <ele>1351</ele>
        <time>2015-11-29T10:16:49.000Z</time>
      </trkpt>
      <trkpt lat="45.21633" lon="5.55833">
        <ele>1351</ele>
        <time>2015-11-29T10:16:51.000Z</time>
      </trkpt>
      <trkpt lat="45.21633" lon="5.55833">
        <ele>1351</ele>
        <time>2015-11-29T10:16:53.000Z</time>
      </trkpt>
      <trkpt lat="45.21633" lon="5.55833">
        <ele>1351</ele>
        <time>2015-11-29T10:16:55.000Z</time>
      </trkpt>
      <trkpt lat="45.21633" lon="5.55833">
        <ele>1351</ele>
        <time>2015-11-29T10:16:57.000Z</time>
      </trkpt>
      <trkpt lat="45.21633" lon="5.55833">
        <ele>1351</ele>
        <time>2015-11-29T10:16:59.000Z</time>
      </trkpt>
      <trkpt lat="45.21633" lon="5.55833">
        <ele>1351</ele>
        <time>2015-11-29T10:17:01.000Z</time>
      </trkpt>
      <trkpt lat="45.21633" lon="5.55833">
        <ele>1351</ele>
        <time>2015-11-29T10:17:03.000Z</time>
      </trkpt>
      <trkpt lat="45.21633" lon="5.55833">
        <ele>1351</ele>
        <time>2015-11-29T10:17:05.000Z</time>
      </trkpt>
      <trkpt lat="45.21678" lon="5.55799">
        <ele>1355</ele>
        <time>2015-11-29T10:17:13.000Z</time>
      </trkpt>
      <trkpt lat="45.21686" lon="5.55779">
        <ele>1358</ele>
        <time>2015-11-29T10:17:17.000Z</time>
      </trkpt>
      <trkpt lat="45.21686" lon="5.55779">
        <ele>1358</ele>
        <time>2015-11-29T10:17:19.000Z</time>
      </trkpt>
      <trkpt lat="45.21692" lon="5.55761">
        <ele>1351</ele>
        <time>2015-11-29T10:17:21.000Z</time>
      </trkpt>
      <trkpt lat="45.21692" lon="5.55761">
        <ele>1351</ele>
        <time>2015-11-29T10:17:23.000Z</time>
      </trkpt>
      <trkpt lat="45.21692" lon="5.55761">
        <ele>1351</ele>
        <time>2015-11-29T10:17:25.000Z</time>
      </trkpt>
      <trkpt lat="45.21692" lon="5.55761">
        <ele>1351</ele>
        <time>2015-11-29T10:17:27.000Z</time>
      </trkpt>
      <trkpt lat="45.2169" lon="5.5571">
        <ele>1347</ele>
        <time>2015-11-29T10:17:31.000Z</time>
      </trkpt>
      <trkpt lat="45.21688" lon="5.5569">
        <ele>1346</ele>
        <time>2015-11-29T10:17:35.000Z</time>
      </trkpt>
      <trkpt lat="45.21688" lon="5.5569">
        <ele>1346</ele>
        <time>2015-11-29T10:17:37.000Z</time>
      </trkpt>
      <trkpt lat="45.21688" lon="5.5569">
        <ele>1346</ele>
        <time>2015-11-29T10:17:43.000Z</time>
      </trkpt>
      <trkpt lat="45.21688" lon="5.5569">
        <ele>1346</ele>
        <time>2015-11-29T10:17:45.000Z</time>
      </trkpt>
      <trkpt lat="45.21688" lon="5.5569">
        <ele>1346</ele>
        <time>2015-11-29T10:17:47.000Z</time>
      </trkpt>
      <trkpt lat="45.21688" lon="5.5569">
        <ele>1346</ele>
        <time>2015-11-29T10:17:49.000Z</time>
      </trkpt>
      <trkpt lat="45.21688" lon="5.5569">
        <ele>1346</ele>
        <time>2015-11-29T10:17:51.000Z</time>
      </trkpt>
      <trkpt lat="45.21688" lon="5.5569">
        <ele>1346</ele>
        <time>2015-11-29T10:17:53.000Z</time>
      </trkpt>
      <trkpt lat="45.21695" lon="5.55656">
        <ele>1359</ele>
        <time>2015-11-29T10:18:01.000Z</time>
      </trkpt>
      <trkpt lat="45.217" lon="5.55638">
        <ele>1360</ele>
        <time>2015-11-29T10:18:03.000Z</time>
      </trkpt>
      <trkpt lat="45.21705" lon="5.55629">
        <ele>1361</ele>
        <time>2015-11-29T10:18:05.000Z</time>
      </trkpt>
      <trkpt lat="45.21711" lon="5.55625">
        <ele>1361</ele>
        <time>2015-11-29T10:18:07.000Z</time>
      </trkpt>
      <trkpt lat="45.21716" lon="5.55624">
        <ele>1361</ele>
        <time>2015-11-29T10:18:09.000Z</time>
      </trkpt>
      <trkpt lat="45.21727" lon="5.55631">
        <ele>1361</ele>
        <time>2015-11-29T10:18:13.000Z</time>
      </trkpt>
      <trkpt lat="45.21738" lon="5.55641">
        <ele>1361</ele>
        <time>2015-11-29T10:18:19.000Z</time>
      </trkpt>
      <trkpt lat="45.21747" lon="5.55651">
        <ele>1362</ele>
        <time>2015-11-29T10:18:23.000Z</time>
      </trkpt>
      <trkpt lat="45.21758" lon="5.55667">
        <ele>1361</ele>
        <time>2015-11-29T10:18:27.000Z</time>
      </trkpt>
      <trkpt lat="45.21766" lon="5.55684">
        <ele>1363</ele>
        <time>2015-11-29T10:18:31.000Z</time>
      </trkpt>
      <trkpt lat="45.21784" lon="5.5573">
        <ele>1361</ele>
        <time>2015-11-29T10:18:37.000Z</time>
      </trkpt>
      <trkpt lat="45.21798" lon="5.55743">
        <ele>1360</ele>
        <time>2015-11-29T10:18:39.000Z</time>
      </trkpt>
      <trkpt lat="45.21807" lon="5.55761">
        <ele>1358</ele>
        <time>2015-11-29T10:18:41.000Z</time>
      </trkpt>
      <trkpt lat="45.21822" lon="5.55772">
        <ele>1359</ele>
        <time>2015-11-29T10:18:43.000Z</time>
      </trkpt>
      <trkpt lat="45.21834" lon="5.55779">
        <ele>1356</ele>
        <time>2015-11-29T10:18:45.000Z</time>
      </trkpt>
      <trkpt lat="45.21845" lon="5.55792">
        <ele>1355</ele>
        <time>2015-11-29T10:18:48.000Z</time>
      </trkpt>
      <trkpt lat="45.21856" lon="5.55796">
        <ele>1355</ele>
        <time>2015-11-29T10:18:50.000Z</time>
      </trkpt>
      <trkpt lat="45.21856" lon="5.55796">
        <ele>1355</ele>
        <time>2015-11-29T10:18:52.000Z</time>
      </trkpt>
      <trkpt lat="45.21856" lon="5.55796">
        <ele>1355</ele>
        <time>2015-11-29T10:18:54.000Z</time>
      </trkpt>
      <trkpt lat="45.21856" lon="5.55796">
        <ele>1355</ele>
        <time>2015-11-29T10:18:56.000Z</time>
      </trkpt>
      <trkpt lat="45.21856" lon="5.55796">
        <ele>1355</ele>
        <time>2015-11-29T10:18:58.000Z</time>
      </trkpt>
      <trkpt lat="45.21856" lon="5.55796">
        <ele>1355</ele>
        <time>2015-11-29T10:19:00.000Z</time>
      </trkpt>
      <trkpt lat="45.21856" lon="5.55796">
        <ele>1355</ele>
        <time>2015-11-29T10:19:02.000Z</time>
      </trkpt>
      <trkpt lat="45.21856" lon="5.55796">
        <ele>1355</ele>
        <time>2015-11-29T10:19:04.000Z</time>
      </trkpt>
      <trkpt lat="45.21885" lon="5.55794">
        <ele>1359</ele>
        <time>2015-11-29T10:19:08.000Z</time>
      </trkpt>
      <trkpt lat="45.21896" lon="5.55803">
        <ele>1361</ele>
        <time>2015-11-29T10:19:16.000Z</time>
      </trkpt>
      <trkpt lat="45.21906" lon="5.55815">
        <ele>1362</ele>
        <time>2015-11-29T10:19:20.000Z</time>
      </trkpt>
      <trkpt lat="45.21917" lon="5.55829">
        <ele>1356</ele>
        <time>2015-11-29T10:19:24.000Z</time>
      </trkpt>
      <trkpt lat="45.21927" lon="5.55851">
        <ele>1356</ele>
        <time>2015-11-29T10:19:28.000Z</time>
      </trkpt>
      <trkpt lat="45.21937" lon="5.5587">
        <ele>1359</ele>
        <time>2015-11-29T10:19:32.000Z</time>
      </trkpt>
      <trkpt lat="45.21937" lon="5.5587">
        <ele>1359</ele>
        <time>2015-11-29T10:19:34.000Z</time>
      </trkpt>
      <trkpt lat="45.21937" lon="5.5587">
        <ele>1359</ele>
        <time>2015-11-29T10:19:36.000Z</time>
      </trkpt>
      <trkpt lat="45.21937" lon="5.5587">
        <ele>1359</ele>
        <time>2015-11-29T10:19:38.000Z</time>
      </trkpt>
      <trkpt lat="45.21966" lon="5.55917">
        <ele>1355</ele>
        <time>2015-11-29T10:19:42.000Z</time>
      </trkpt>
      <trkpt lat="45.21973" lon="5.55929">
        <ele>1354</ele>
        <time>2015-11-29T10:19:44.000Z</time>
      </trkpt>
      <trkpt lat="45.2198" lon="5.55943">
        <ele>1353</ele>
        <time>2015-11-29T10:19:46.000Z</time>
      </trkpt>
      <trkpt lat="45.21989" lon="5.5596">
        <ele>1354</ele>
        <time>2015-11-29T10:19:48.000Z</time>
      </trkpt>
      <trkpt lat="45.22001" lon="5.55974">
        <ele>1355</ele>
        <time>2015-11-29T10:19:50.000Z</time>
      </trkpt>
      <trkpt lat="45.2201" lon="5.55984">
        <ele>1356</ele>
        <time>2015-11-29T10:19:52.000Z</time>
      </trkpt>
      <trkpt lat="45.2202" lon="5.5599">
        <ele>1357</ele>
        <time>2015-11-29T10:19:54.000Z</time>
      </trkpt>
      <trkpt lat="45.2202" lon="5.5599">
        <ele>1357</ele>
        <time>2015-11-29T10:19:56.000Z</time>
      </trkpt>
      <trkpt lat="45.2202" lon="5.5599">
        <ele>1357</ele>
        <time>2015-11-29T10:19:58.000Z</time>
      </trkpt>
      <trkpt lat="45.2202" lon="5.5599">
        <ele>1357</ele>
        <time>2015-11-29T10:20:00.000Z</time>
      </trkpt>
      <trkpt lat="45.2202" lon="5.5599">
        <ele>1357</ele>
        <time>2015-11-29T10:20:02.000Z</time>
      </trkpt>
      <trkpt lat="45.2202" lon="5.5599">
        <ele>1357</ele>
        <time>2015-11-29T10:20:04.000Z</time>
      </trkpt>
      <trkpt lat="45.2202" lon="5.5599">
        <ele>1357</ele>
        <time>2015-11-29T10:20:06.000Z</time>
      </trkpt>
      <trkpt lat="45.2202" lon="5.5599">
        <ele>1357</ele>
        <time>2015-11-29T10:20:10.000Z</time>
      </trkpt>
      <trkpt lat="45.22037" lon="5.55992">
        <ele>1355</ele>
        <time>2015-11-29T10:20:14.000Z</time>
      </trkpt>
      <trkpt lat="45.22044" lon="5.55993">
        <ele>1355</ele>
        <time>2015-11-29T10:20:16.000Z</time>
      </trkpt>
      <trkpt lat="45.22039" lon="5.55991">
        <ele>1352</ele>
        <time>2015-11-29T10:20:22.000Z</time>
      </trkpt>
      <trkpt lat="45.22034" lon="5.55989">
        <ele>1354</ele>
        <time>2015-11-29T10:20:24.000Z</time>
      </trkpt>
      <trkpt lat="45.22028" lon="5.55986">
        <ele>1354</ele>
        <time>2015-11-29T10:20:26.000Z</time>
      </trkpt>
      <trkpt lat="45.22021" lon="5.55983">
        <ele>1353</ele>
        <time>2015-11-29T10:20:28.000Z</time>
      </trkpt>
      <trkpt lat="45.22016" lon="5.55979">
        <ele>1354</ele>
        <time>2015-11-29T10:20:30.000Z</time>
      </trkpt>
      <trkpt lat="45.22006" lon="5.55971">
        <ele>1353</ele>
        <time>2015-11-29T10:20:32.000Z</time>
      </trkpt>
      <trkpt lat="45.22006" lon="5.55971">
        <ele>1353</ele>
        <time>2015-11-29T10:20:34.000Z</time>
      </trkpt>
      <trkpt lat="45.22006" lon="5.55971">
        <ele>1353</ele>
        <time>2015-11-29T10:20:36.000Z</time>
      </trkpt>
      <trkpt lat="45.22006" lon="5.55971">
        <ele>1353</ele>
        <time>2015-11-29T10:20:38.000Z</time>
      </trkpt>
      <trkpt lat="45.22006" lon="5.55971">
        <ele>1353</ele>
        <time>2015-11-29T10:20:40.000Z</time>
      </trkpt>
      <trkpt lat="45.22006" lon="5.55971">
        <ele>1353</ele>
        <time>2015-11-29T10:20:42.000Z</time>
      </trkpt>
      <trkpt lat="45.22006" lon="5.55971">
        <ele>1353</ele>
        <time>2015-11-29T10:20:50.000Z</time>
      </trkpt>
      <trkpt lat="45.22006" lon="5.55971">
        <ele>1353</ele>
        <time>2015-11-29T10:20:52.000Z</time>
      </trkpt>
      <trkpt lat="45.22006" lon="5.55971">
        <ele>1353</ele>
        <time>2015-11-29T10:20:54.000Z</time>
      </trkpt>
      <trkpt lat="45.22006" lon="5.55971">
        <ele>1353</ele>
        <time>2015-11-29T10:20:56.000Z</time>
      </trkpt>
      <trkpt lat="45.21974" lon="5.55917">
        <ele>1351</ele>
        <time>2015-11-29T10:21:02.000Z</time>
      </trkpt>
      <trkpt lat="45.21967" lon="5.55904">
        <ele>1349</ele>
        <time>2015-11-29T10:21:08.000Z</time>
      </trkpt>
      <trkpt lat="45.21975" lon="5.5592">
        <ele>1351</ele>
        <time>2015-11-29T10:21:20.000Z</time>
      </trkpt>
      <trkpt lat="45.21983" lon="5.55935">
        <ele>1351</ele>
        <time>2015-11-29T10:21:22.000Z</time>
      </trkpt>
      <trkpt lat="45.21991" lon="5.55947">
        <ele>1350</ele>
        <time>2015-11-29T10:21:24.000Z</time>
      </trkpt>
      <trkpt lat="45.21997" lon="5.5596">
        <ele>1349</ele>
        <time>2015-11-29T10:21:26.000Z</time>
      </trkpt>
      <trkpt lat="45.22006" lon="5.55971">
        <ele>1349</ele>
        <time>2015-11-29T10:21:28.000Z</time>
      </trkpt>
      <trkpt lat="45.22015" lon="5.5598">
        <ele>1348</ele>
        <time>2015-11-29T10:21:30.000Z</time>
      </trkpt>
      <trkpt lat="45.22027" lon="5.55986">
        <ele>1349</ele>
        <time>2015-11-29T10:21:32.000Z</time>
      </trkpt>
      <trkpt lat="45.2204" lon="5.55992">
        <ele>1352</ele>
        <time>2015-11-29T10:21:34.000Z</time>
      </trkpt>
      <trkpt lat="45.22051" lon="5.55992">
        <ele>1351</ele>
        <time>2015-11-29T10:21:36.000Z</time>
      </trkpt>
      <trkpt lat="45.22051" lon="5.55992">
        <ele>1351</ele>
        <time>2015-11-29T10:21:38.000Z</time>
      </trkpt>
      <trkpt lat="45.22051" lon="5.55992">
        <ele>1351</ele>
        <time>2015-11-29T10:21:40.000Z</time>
      </trkpt>
      <trkpt lat="45.22051" lon="5.55992">
        <ele>1351</ele>
        <time>2015-11-29T10:21:42.000Z</time>
      </trkpt>
      <trkpt lat="45.22051" lon="5.55992">
        <ele>1351</ele>
        <time>2015-11-29T10:21:44.000Z</time>
      </trkpt>
      <trkpt lat="45.22051" lon="5.55992">
        <ele>1351</ele>
        <time>2015-11-29T10:21:46.000Z</time>
      </trkpt>
      <trkpt lat="45.22051" lon="5.55992">
        <ele>1351</ele>
        <time>2015-11-29T10:21:48.000Z</time>
      </trkpt>
      <trkpt lat="45.22076" lon="5.55992">
        <ele>1351</ele>
        <time>2015-11-29T10:22:00.000Z</time>
      </trkpt>
      <trkpt lat="45.22091" lon="5.55992">
        <ele>1351</ele>
        <time>2015-11-29T10:22:02.000Z</time>
      </trkpt>
      <trkpt lat="45.22102" lon="5.55992">
        <ele>1352</ele>
        <time>2015-11-29T10:22:04.000Z</time>
      </trkpt>
      <trkpt lat="45.2211" lon="5.55992">
        <ele>1353</ele>
        <time>2015-11-29T10:22:06.000Z</time>
      </trkpt>
      <trkpt lat="45.22116" lon="5.55993">
        <ele>1354</ele>
        <time>2015-11-29T10:22:08.000Z</time>
      </trkpt>
      <trkpt lat="45.22127" lon="5.55998">
        <ele>1355</ele>
        <time>2015-11-29T10:22:10.000Z</time>
      </trkpt>
      <trkpt lat="45.22127" lon="5.55998">
        <ele>1355</ele>
        <time>2015-11-29T10:22:12.000Z</time>
      </trkpt>
      <trkpt lat="45.22127" lon="5.55998">
        <ele>1355</ele>
        <time>2015-11-29T10:22:14.000Z</time>
      </trkpt>
      <trkpt lat="45.22143" lon="5.5602">
        <ele>1358</ele>
        <time>2015-11-29T10:22:24.000Z</time>
      </trkpt>
      <trkpt lat="45.22143" lon="5.5602">
        <ele>1358</ele>
        <time>2015-11-29T10:22:26.000Z</time>
      </trkpt>
      <trkpt lat="45.22155" lon="5.56035">
        <ele>1362</ele>
        <time>2015-11-29T10:22:36.000Z</time>
      </trkpt>
      <trkpt lat="45.22162" lon="5.56044">
        <ele>1365</ele>
        <time>2015-11-29T10:22:44.000Z</time>
      </trkpt>
      <trkpt lat="45.22162" lon="5.56044">
        <ele>1365</ele>
        <time>2015-11-29T10:22:48.000Z</time>
      </trkpt>
      <trkpt lat="45.22162" lon="5.56044">
        <ele>1365</ele>
        <time>2015-11-29T10:22:50.000Z</time>
      </trkpt>
      <trkpt lat="45.22162" lon="5.56044">
        <ele>1365</ele>
        <time>2015-11-29T10:22:52.000Z</time>
      </trkpt>
      <trkpt lat="45.22162" lon="5.56044">
        <ele>1365</ele>
        <time>2015-11-29T10:22:54.000Z</time>
      </trkpt>
      <trkpt lat="45.22162" lon="5.56044">
        <ele>1365</ele>
        <time>2015-11-29T10:23:03.000Z</time>
      </trkpt>
      <trkpt lat="45.22162" lon="5.56044">
        <ele>1365</ele>
        <time>2015-11-29T10:23:05.000Z</time>
      </trkpt>
      <trkpt lat="45.22162" lon="5.56044">
        <ele>1365</ele>
        <time>2015-11-29T10:23:07.000Z</time>
      </trkpt>
      <trkpt lat="45.22162" lon="5.56044">
        <ele>1365</ele>
        <time>2015-11-29T10:23:09.000Z</time>
      </trkpt>
      <trkpt lat="45.22197" lon="5.56032">
        <ele>1367</ele>
        <time>2015-11-29T10:23:13.000Z</time>
      </trkpt>
      <trkpt lat="45.22204" lon="5.56023">
        <ele>1366</ele>
        <time>2015-11-29T10:23:17.000Z</time>
      </trkpt>
      <trkpt lat="45.22211" lon="5.56014">
        <ele>1367</ele>
        <time>2015-11-29T10:23:21.000Z</time>
      </trkpt>
      <trkpt lat="45.22215" lon="5.56008">
        <ele>1367</ele>
        <time>2015-11-29T10:23:25.000Z</time>
      </trkpt>
      <trkpt lat="45.22219" lon="5.56003">
        <ele>1367</ele>
        <time>2015-11-29T10:23:27.000Z</time>
      </trkpt>
      <trkpt lat="45.22223" lon="5.55997">
        <ele>1365</ele>
        <time>2015-11-29T10:23:29.000Z</time>
      </trkpt>
      <trkpt lat="45.22227" lon="5.55991">
        <ele>1365</ele>
        <time>2015-11-29T10:23:31.000Z</time>
      </trkpt>
      <trkpt lat="45.22232" lon="5.55985">
        <ele>1364</ele>
        <time>2015-11-29T10:23:33.000Z</time>
      </trkpt>
      <trkpt lat="45.22243" lon="5.55976">
        <ele>1363</ele>
        <time>2015-11-29T10:23:35.000Z</time>
      </trkpt>
      <trkpt lat="45.22255" lon="5.55974">
        <ele>1362</ele>
        <time>2015-11-29T10:23:39.000Z</time>
      </trkpt>
      <trkpt lat="45.22255" lon="5.55974">
        <ele>1362</ele>
        <time>2015-11-29T10:23:41.000Z</time>
      </trkpt>
      <trkpt lat="45.22255" lon="5.55974">
        <ele>1362</ele>
        <time>2015-11-29T10:23:43.000Z</time>
      </trkpt>
      <trkpt lat="45.22255" lon="5.55974">
        <ele>1362</ele>
        <time>2015-11-29T10:23:45.000Z</time>
      </trkpt>
      <trkpt lat="45.22245" lon="5.55972">
        <ele>1363</ele>
        <time>2015-11-29T10:23:51.000Z</time>
      </trkpt>
      <trkpt lat="45.22236" lon="5.55972">
        <ele>1360</ele>
        <time>2015-11-29T10:23:55.000Z</time>
      </trkpt>
      <trkpt lat="45.22229" lon="5.5598">
        <ele>1358</ele>
        <time>2015-11-29T10:23:59.000Z</time>
      </trkpt>
      <trkpt lat="45.22229" lon="5.5598">
        <ele>1358</ele>
        <time>2015-11-29T10:24:03.000Z</time>
      </trkpt>
      <trkpt lat="45.22229" lon="5.5598">
        <ele>1358</ele>
        <time>2015-11-29T10:24:05.000Z</time>
      </trkpt>
      <trkpt lat="45.22239" lon="5.55976">
        <ele>1362</ele>
        <time>2015-11-29T10:24:11.000Z</time>
      </trkpt>
      <trkpt lat="45.22252" lon="5.5597">
        <ele>1361</ele>
        <time>2015-11-29T10:24:15.000Z</time>
      </trkpt>
      <trkpt lat="45.22263" lon="5.55974">
        <ele>1363</ele>
        <time>2015-11-29T10:24:19.000Z</time>
      </trkpt>
      <trkpt lat="45.22263" lon="5.55974">
        <ele>1363</ele>
        <time>2015-11-29T10:24:21.000Z</time>
      </trkpt>
      <trkpt lat="45.22263" lon="5.55974">
        <ele>1363</ele>
        <time>2015-11-29T10:24:23.000Z</time>
      </trkpt>
      <trkpt lat="45.22263" lon="5.55974">
        <ele>1363</ele>
        <time>2015-11-29T10:24:25.000Z</time>
      </trkpt>
      <trkpt lat="45.22263" lon="5.55974">
        <ele>1363</ele>
        <time>2015-11-29T10:24:27.000Z</time>
      </trkpt>
      <trkpt lat="45.22263" lon="5.55974">
        <ele>1363</ele>
        <time>2015-11-29T10:24:33.000Z</time>
      </trkpt>
      <trkpt lat="45.22263" lon="5.55974">
        <ele>1363</ele>
        <time>2015-11-29T10:24:35.000Z</time>
      </trkpt>
      <trkpt lat="45.22263" lon="5.55974">
        <ele>1363</ele>
        <time>2015-11-29T10:24:37.000Z</time>
      </trkpt>
      <trkpt lat="45.223" lon="5.56008">
        <ele>1368</ele>
        <time>2015-11-29T10:24:41.000Z</time>
      </trkpt>
      <trkpt lat="45.2231" lon="5.56005">
        <ele>1366</ele>
        <time>2015-11-29T10:24:45.000Z</time>
      </trkpt>
      <trkpt lat="45.2232" lon="5.55997">
        <ele>1363</ele>
        <time>2015-11-29T10:24:49.000Z</time>
      </trkpt>
      <trkpt lat="45.22331" lon="5.55983">
        <ele>1364</ele>
        <time>2015-11-29T10:24:53.000Z</time>
      </trkpt>
      <trkpt lat="45.2234" lon="5.55966">
        <ele>1364</ele>
        <time>2015-11-29T10:24:57.000Z</time>
      </trkpt>
      <trkpt lat="45.22345" lon="5.55958">
        <ele>1363</ele>
        <time>2015-11-29T10:25:01.000Z</time>
      </trkpt>
      <trkpt lat="45.22348" lon="5.55951">
        <ele>1364</ele>
        <time>2015-11-29T10:25:03.000Z</time>
      </trkpt>
      <trkpt lat="45.22348" lon="5.55951">
        <ele>1364</ele>
        <time>2015-11-29T10:25:05.000Z</time>
      </trkpt>
      <trkpt lat="45.22348" lon="5.55951">
        <ele>1364</ele>
        <time>2015-11-29T10:25:07.000Z</time>
      </trkpt>
      <trkpt lat="45.22348" lon="5.55951">
        <ele>1364</ele>
        <time>2015-11-29T10:25:09.000Z</time>
      </trkpt>
      <trkpt lat="45.22348" lon="5.55951">
        <ele>1364</ele>
        <time>2015-11-29T10:25:11.000Z</time>
      </trkpt>
      <trkpt lat="45.22348" lon="5.55951">
        <ele>1364</ele>
        <time>2015-11-29T10:25:13.000Z</time>
      </trkpt>
      <trkpt lat="45.22348" lon="5.55951">
        <ele>1364</ele>
        <time>2015-11-29T10:25:15.000Z</time>
      </trkpt>
      <trkpt lat="45.22348" lon="5.55951">
        <ele>1364</ele>
        <time>2015-11-29T10:25:17.000Z</time>
      </trkpt>
      <trkpt lat="45.22348" lon="5.55951">
        <ele>1364</ele>
        <time>2015-11-29T10:25:19.000Z</time>
      </trkpt>
      <trkpt lat="45.22348" lon="5.55951">
        <ele>1364</ele>
        <time>2015-11-29T10:25:21.000Z</time>
      </trkpt>
      <trkpt lat="45.22348" lon="5.55951">
        <ele>1364</ele>
        <time>2015-11-29T10:25:23.000Z</time>
      </trkpt>
      <trkpt lat="45.22348" lon="5.55951">
        <ele>1364</ele>
        <time>2015-11-29T10:25:25.000Z</time>
      </trkpt>
      <trkpt lat="45.22379" lon="5.5594">
        <ele>1372</ele>
        <time>2015-11-29T10:25:31.000Z</time>
      </trkpt>
      <trkpt lat="45.22396" lon="5.55933">
        <ele>1371</ele>
        <time>2015-11-29T10:25:33.000Z</time>
      </trkpt>
      <trkpt lat="45.22406" lon="5.55928">
        <ele>1372</ele>
        <time>2015-11-29T10:25:35.000Z</time>
      </trkpt>
      <trkpt lat="45.22413" lon="5.55924">
        <ele>1374</ele>
        <time>2015-11-29T10:25:37.000Z</time>
      </trkpt>
      <trkpt lat="45.22419" lon="5.55921">
        <ele>1374</ele>
        <time>2015-11-29T10:25:39.000Z</time>
      </trkpt>
      <trkpt lat="45.2243" lon="5.55914">
        <ele>1376</ele>
        <time>2015-11-29T10:25:41.000Z</time>
      </trkpt>
      <trkpt lat="45.2244" lon="5.5591">
        <ele>1377</ele>
        <time>2015-11-29T10:25:45.000Z</time>
      </trkpt>
      <trkpt lat="45.22449" lon="5.55906">
        <ele>1377</ele>
        <time>2015-11-29T10:25:49.000Z</time>
      </trkpt>
      <trkpt lat="45.22449" lon="5.55906">
        <ele>1377</ele>
        <time>2015-11-29T10:25:51.000Z</time>
      </trkpt>
      <trkpt lat="45.22449" lon="5.55906">
        <ele>1377</ele>
        <time>2015-11-29T10:25:53.000Z</time>
      </trkpt>
      <trkpt lat="45.22449" lon="5.55906">
        <ele>1377</ele>
        <time>2015-11-29T10:25:59.000Z</time>
      </trkpt>
      <trkpt lat="45.22449" lon="5.55906">
        <ele>1377</ele>
        <time>2015-11-29T10:26:01.000Z</time>
      </trkpt>
      <trkpt lat="45.22449" lon="5.55906">
        <ele>1377</ele>
        <time>2015-11-29T10:26:03.000Z</time>
      </trkpt>
      <trkpt lat="45.22459" lon="5.55929">
        <ele>1378</ele>
        <time>2015-11-29T10:28:55.000Z</time>
      </trkpt>
      <trkpt lat="45.22464" lon="5.55942">
        <ele>1378</ele>
        <time>2015-11-29T10:28:57.000Z</time>
      </trkpt>
      <trkpt lat="45.22464" lon="5.55942">
        <ele>1378</ele>
        <time>2015-11-29T10:28:59.000Z</time>
      </trkpt>
      <trkpt lat="45.22463" lon="5.55964">
        <ele>1384</ele>
        <time>2015-11-29T10:29:09.000Z</time>
      </trkpt>
      <trkpt lat="45.22462" lon="5.55978">
        <ele>1382</ele>
        <time>2015-11-29T10:29:11.000Z</time>
      </trkpt>
      <trkpt lat="45.22461" lon="5.55991">
        <ele>1384</ele>
        <time>2015-11-29T10:29:13.000Z</time>
      </trkpt>
      <trkpt lat="45.2246" lon="5.56004">
        <ele>1385</ele>
        <time>2015-11-29T10:29:15.000Z</time>
      </trkpt>
      <trkpt lat="45.22458" lon="5.5602">
        <ele>1385</ele>
        <time>2015-11-29T10:29:17.000Z</time>
      </trkpt>
      <trkpt lat="45.22453" lon="5.56047">
        <ele>1386</ele>
        <time>2015-11-29T10:29:19.000Z</time>
      </trkpt>
      <trkpt lat="45.22453" lon="5.56047">
        <ele>1386</ele>
        <time>2015-11-29T10:29:21.000Z</time>
      </trkpt>
      <trkpt lat="45.22453" lon="5.56047">
        <ele>1386</ele>
        <time>2015-11-29T10:29:23.000Z</time>
      </trkpt>
      <trkpt lat="45.22453" lon="5.56047">
        <ele>1386</ele>
        <time>2015-11-29T10:29:25.000Z</time>
      </trkpt>
      <trkpt lat="45.22453" lon="5.56047">
        <ele>1386</ele>
        <time>2015-11-29T10:29:27.000Z</time>
      </trkpt>
      <trkpt lat="45.22453" lon="5.56047">
        <ele>1386</ele>
        <time>2015-11-29T10:29:29.000Z</time>
      </trkpt>
      <trkpt lat="45.22453" lon="5.56047">
        <ele>1386</ele>
        <time>2015-11-29T10:29:31.000Z</time>
      </trkpt>
      <trkpt lat="45.22453" lon="5.56047">
        <ele>1386</ele>
        <time>2015-11-29T10:29:33.000Z</time>
      </trkpt>
      <trkpt lat="45.22453" lon="5.56047">
        <ele>1386</ele>
        <time>2015-11-29T10:29:35.000Z</time>
      </trkpt>
      <trkpt lat="45.22453" lon="5.56047">
        <ele>1386</ele>
        <time>2015-11-29T10:29:37.000Z</time>
      </trkpt>
      <trkpt lat="45.22453" lon="5.56047">
        <ele>1386</ele>
        <time>2015-11-29T10:29:39.000Z</time>
      </trkpt>
      <trkpt lat="45.22453" lon="5.56047">
        <ele>1386</ele>
        <time>2015-11-29T10:29:41.000Z</time>
      </trkpt>
      <trkpt lat="45.22453" lon="5.56047">
        <ele>1386</ele>
        <time>2015-11-29T10:29:43.000Z</time>
      </trkpt>
      <trkpt lat="45.22461" lon="5.56132">
        <ele>1383</ele>
        <time>2015-11-29T10:29:47.000Z</time>
      </trkpt>
      <trkpt lat="45.22458" lon="5.56148">
        <ele>1377</ele>
        <time>2015-11-29T10:29:51.000Z</time>
      </trkpt>
      <trkpt lat="45.22451" lon="5.56169">
        <ele>1376</ele>
        <time>2015-11-29T10:29:55.000Z</time>
      </trkpt>
      <trkpt lat="45.22445" lon="5.56195">
        <ele>1377</ele>
        <time>2015-11-29T10:29:58.000Z</time>
      </trkpt>
      <trkpt lat="45.22438" lon="5.56216">
        <ele>1379</ele>
        <time>2015-11-29T10:30:02.000Z</time>
      </trkpt>
      <trkpt lat="45.22438" lon="5.56216">
        <ele>1379</ele>
        <time>2015-11-29T10:30:04.000Z</time>
      </trkpt>
      <trkpt lat="45.22438" lon="5.56216">
        <ele>1379</ele>
        <time>2015-11-29T10:30:06.000Z</time>
      </trkpt>
      <trkpt lat="45.22421" lon="5.56248">
        <ele>1375</ele>
        <time>2015-11-29T10:30:08.000Z</time>
      </trkpt>
      <trkpt lat="45.22416" lon="5.56261">
        <ele>1377</ele>
        <time>2015-11-29T10:30:10.000Z</time>
      </trkpt>
      <trkpt lat="45.22408" lon="5.56281">
        <ele>1379</ele>
        <time>2015-11-29T10:30:12.000Z</time>
      </trkpt>
      <trkpt lat="45.22398" lon="5.56293">
        <ele>1379</ele>
        <time>2015-11-29T10:30:14.000Z</time>
      </trkpt>
      <trkpt lat="45.22388" lon="5.56305">
        <ele>1379</ele>
        <time>2015-11-29T10:30:16.000Z</time>
      </trkpt>
      <trkpt lat="45.22382" lon="5.56323">
        <ele>1379</ele>
        <time>2015-11-29T10:30:18.000Z</time>
      </trkpt>
      <trkpt lat="45.22382" lon="5.56323">
        <ele>1379</ele>
        <time>2015-11-29T10:30:21.000Z</time>
      </trkpt>
      <trkpt lat="45.22382" lon="5.56323">
        <ele>1379</ele>
        <time>2015-11-29T10:30:23.000Z</time>
      </trkpt>
      <trkpt lat="45.22382" lon="5.56323">
        <ele>1379</ele>
        <time>2015-11-29T10:30:25.000Z</time>
      </trkpt>
      <trkpt lat="45.22362" lon="5.56383">
        <ele>1381</ele>
        <time>2015-11-29T10:30:29.000Z</time>
      </trkpt>
      <trkpt lat="45.22356" lon="5.56395">
        <ele>1383</ele>
        <time>2015-11-29T10:30:31.000Z</time>
      </trkpt>
      <trkpt lat="45.22356" lon="5.56395">
        <ele>1383</ele>
        <time>2015-11-29T10:30:33.000Z</time>
      </trkpt>
      <trkpt lat="45.22356" lon="5.56395">
        <ele>1383</ele>
        <time>2015-11-29T10:30:35.000Z</time>
      </trkpt>
      <trkpt lat="45.22356" lon="5.56395">
        <ele>1383</ele>
        <time>2015-11-29T10:30:41.000Z</time>
      </trkpt>
      <trkpt lat="45.22356" lon="5.56395">
        <ele>1383</ele>
        <time>2015-11-29T10:30:43.000Z</time>
      </trkpt>
      <trkpt lat="45.22356" lon="5.56395">
        <ele>1383</ele>
        <time>2015-11-29T10:30:45.000Z</time>
      </trkpt>
      <trkpt lat="45.22356" lon="5.56395">
        <ele>1383</ele>
        <time>2015-11-29T10:30:47.000Z</time>
      </trkpt>
      <trkpt lat="45.2236" lon="5.56434">
        <ele>1382</ele>
        <time>2015-11-29T10:30:53.000Z</time>
      </trkpt>
      <trkpt lat="45.2236" lon="5.56434">
        <ele>1382</ele>
        <time>2015-11-29T10:30:55.000Z</time>
      </trkpt>
      <trkpt lat="45.2236" lon="5.56434">
        <ele>1382</ele>
        <time>2015-11-29T10:30:57.000Z</time>
      </trkpt>
      <trkpt lat="45.22361" lon="5.56461">
        <ele>1383</ele>
        <time>2015-11-29T10:30:59.000Z</time>
      </trkpt>
      <trkpt lat="45.22362" lon="5.5648">
        <ele>1384</ele>
        <time>2015-11-29T10:31:01.000Z</time>
      </trkpt>
      <trkpt lat="45.22361" lon="5.56496">
        <ele>1384</ele>
        <time>2015-11-29T10:31:03.000Z</time>
      </trkpt>
      <trkpt lat="45.22361" lon="5.56509">
        <ele>1383</ele>
        <time>2015-11-29T10:31:05.000Z</time>
      </trkpt>
      <trkpt lat="45.22361" lon="5.56521">
        <ele>1382</ele>
        <time>2015-11-29T10:31:07.000Z</time>
      </trkpt>
      <trkpt lat="45.22361" lon="5.56541">
        <ele>1385</ele>
        <time>2015-11-29T10:31:09.000Z</time>
      </trkpt>
      <trkpt lat="45.22361" lon="5.56541">
        <ele>1385</ele>
        <time>2015-11-29T10:31:11.000Z</time>
      </trkpt>
      <trkpt lat="45.22361" lon="5.56541">
        <ele>1385</ele>
        <time>2015-11-29T10:31:13.000Z</time>
      </trkpt>
      <trkpt lat="45.22357" lon="5.56594">
        <ele>1386</ele>
        <time>2015-11-29T10:31:21.000Z</time>
      </trkpt>
      <trkpt lat="45.22357" lon="5.56594">
        <ele>1386</ele>
        <time>2015-11-29T10:31:23.000Z</time>
      </trkpt>
      <trkpt lat="45.22357" lon="5.56594">
        <ele>1386</ele>
        <time>2015-11-29T10:31:25.000Z</time>
      </trkpt>
      <trkpt lat="45.22357" lon="5.56594">
        <ele>1386</ele>
        <time>2015-11-29T10:31:27.000Z</time>
      </trkpt>
      <trkpt lat="45.22357" lon="5.56594">
        <ele>1386</ele>
        <time>2015-11-29T10:31:29.000Z</time>
      </trkpt>
      <trkpt lat="45.22357" lon="5.56594">
        <ele>1386</ele>
        <time>2015-11-29T10:31:31.000Z</time>
      </trkpt>
      <trkpt lat="45.22357" lon="5.56594">
        <ele>1386</ele>
        <time>2015-11-29T10:31:33.000Z</time>
      </trkpt>
      <trkpt lat="45.22357" lon="5.56594">
        <ele>1386</ele>
        <time>2015-11-29T10:31:35.000Z</time>
      </trkpt>
      <trkpt lat="45.22357" lon="5.56594">
        <ele>1386</ele>
        <time>2015-11-29T10:31:37.000Z</time>
      </trkpt>
      <trkpt lat="45.22367" lon="5.56641">
        <ele>1389</ele>
        <time>2015-11-29T10:31:45.000Z</time>
      </trkpt>
      <trkpt lat="45.22372" lon="5.56656">
        <ele>1390</ele>
        <time>2015-11-29T10:31:51.000Z</time>
      </trkpt>
      <trkpt lat="45.22377" lon="5.56669">
        <ele>1392</ele>
        <time>2015-11-29T10:31:55.000Z</time>
      </trkpt>
      <trkpt lat="45.2238" lon="5.56687">
        <ele>1395</ele>
        <time>2015-11-29T10:31:59.000Z</time>
      </trkpt>
      <trkpt lat="45.22381" lon="5.56704">
        <ele>1393</ele>
        <time>2015-11-29T10:32:03.000Z</time>
      </trkpt>
      <trkpt lat="45.22381" lon="5.56704">
        <ele>1393</ele>
        <time>2015-11-29T10:32:05.000Z</time>
      </trkpt>
      <trkpt lat="45.22381" lon="5.56704">
        <ele>1393</ele>
        <time>2015-11-29T10:32:07.000Z</time>
      </trkpt>
      <trkpt lat="45.22386" lon="5.56741">
        <ele>1389</ele>
        <time>2015-11-29T10:32:19.000Z</time>
      </trkpt>
      <trkpt lat="45.2239" lon="5.56747">
        <ele>1385</ele>
        <time>2015-11-29T10:32:25.000Z</time>
      </trkpt>
      <trkpt lat="45.22394" lon="5.56752">
        <ele>1385</ele>
        <time>2015-11-29T10:32:27.000Z</time>
      </trkpt>
      <trkpt lat="45.22397" lon="5.56758">
        <ele>1386</ele>
        <time>2015-11-29T10:32:29.000Z</time>
      </trkpt>
      <trkpt lat="45.22399" lon="5.56764">
        <ele>1387</ele>
        <time>2015-11-29T10:32:31.000Z</time>
      </trkpt>
      <trkpt lat="45.22401" lon="5.5677">
        <ele>1392</ele>
        <time>2015-11-29T10:32:33.000Z</time>
      </trkpt>
      <trkpt lat="45.22405" lon="5.56782">
        <ele>1393</ele>
        <time>2015-11-29T10:32:35.000Z</time>
      </trkpt>
      <trkpt lat="45.2241" lon="5.56795">
        <ele>1393</ele>
        <time>2015-11-29T10:32:39.000Z</time>
      </trkpt>
      <trkpt lat="45.2241" lon="5.56795">
        <ele>1393</ele>
        <time>2015-11-29T10:32:41.000Z</time>
      </trkpt>
      <trkpt lat="45.2241" lon="5.56795">
        <ele>1393</ele>
        <time>2015-11-29T10:32:43.000Z</time>
      </trkpt>
      <trkpt lat="45.2241" lon="5.56795">
        <ele>1393</ele>
        <time>2015-11-29T10:32:45.000Z</time>
      </trkpt>
      <trkpt lat="45.2241" lon="5.56795">
        <ele>1393</ele>
        <time>2015-11-29T10:32:47.000Z</time>
      </trkpt>
      <trkpt lat="45.22422" lon="5.56824">
        <ele>1399</ele>
        <time>2015-11-29T10:32:55.000Z</time>
      </trkpt>
      <trkpt lat="45.22427" lon="5.56838">
        <ele>1400</ele>
        <time>2015-11-29T10:33:01.000Z</time>
      </trkpt>
      <trkpt lat="45.22427" lon="5.56838">
        <ele>1400</ele>
        <time>2015-11-29T10:33:03.000Z</time>
      </trkpt>
      <trkpt lat="45.22427" lon="5.56838">
        <ele>1400</ele>
        <time>2015-11-29T10:33:05.000Z</time>
      </trkpt>
      <trkpt lat="45.22419" lon="5.56817">
        <ele>1398</ele>
        <time>2015-11-29T10:33:19.000Z</time>
      </trkpt>
      <trkpt lat="45.22405" lon="5.56785">
        <ele>1395</ele>
        <time>2015-11-29T10:33:24.000Z</time>
      </trkpt>
      <trkpt lat="45.224" lon="5.56768">
        <ele>1393</ele>
        <time>2015-11-29T10:33:27.000Z</time>
      </trkpt>
      <trkpt lat="45.224" lon="5.56768">
        <ele>1393</ele>
        <time>2015-11-29T10:33:29.000Z</time>
      </trkpt>
      <trkpt lat="45.224" lon="5.56768">
        <ele>1393</ele>
        <time>2015-11-29T10:33:31.000Z</time>
      </trkpt>
      <trkpt lat="45.224" lon="5.56768">
        <ele>1393</ele>
        <time>2015-11-29T10:33:34.000Z</time>
      </trkpt>
      <trkpt lat="45.22409" lon="5.56793">
        <ele>1393</ele>
        <time>2015-11-29T10:33:40.000Z</time>
      </trkpt>
      <trkpt lat="45.22409" lon="5.56793">
        <ele>1393</ele>
        <time>2015-11-29T10:33:42.000Z</time>
      </trkpt>
      <trkpt lat="45.22409" lon="5.56793">
        <ele>1393</ele>
        <time>2015-11-29T10:33:44.000Z</time>
      </trkpt>
      <trkpt lat="45.22409" lon="5.56793">
        <ele>1393</ele>
        <time>2015-11-29T10:33:46.000Z</time>
      </trkpt>
      <trkpt lat="45.22409" lon="5.56793">
        <ele>1393</ele>
        <time>2015-11-29T10:33:48.000Z</time>
      </trkpt>
      <trkpt lat="45.22416" lon="5.56811">
        <ele>1401</ele>
        <time>2015-11-29T10:33:54.000Z</time>
      </trkpt>
      <trkpt lat="45.2242" lon="5.56823">
        <ele>1401</ele>
        <time>2015-11-29T10:33:56.000Z</time>
      </trkpt>
      <trkpt lat="45.22423" lon="5.56832">
        <ele>1402</ele>
        <time>2015-11-29T10:33:58.000Z</time>
      </trkpt>
      <trkpt lat="45.22425" lon="5.5684">
        <ele>1400</ele>
        <time>2015-11-29T10:34:00.000Z</time>
      </trkpt>
      <trkpt lat="45.22428" lon="5.56848">
        <ele>1400</ele>
        <time>2015-11-29T10:34:02.000Z</time>
      </trkpt>
      <trkpt lat="45.2243" lon="5.56867">
        <ele>1398</ele>
        <time>2015-11-29T10:34:04.000Z</time>
      </trkpt>
      <trkpt lat="45.22436" lon="5.56895">
        <ele>1397</ele>
        <time>2015-11-29T10:34:08.000Z</time>
      </trkpt>
      <trkpt lat="45.22436" lon="5.56895">
        <ele>1397</ele>
        <time>2015-11-29T10:34:11.000Z</time>
      </trkpt>
      <trkpt lat="45.22436" lon="5.56895">
        <ele>1397</ele>
        <time>2015-11-29T10:34:13.000Z</time>
      </trkpt>
      <trkpt lat="45.22436" lon="5.56895">
        <ele>1397</ele>
        <time>2015-11-29T10:34:15.000Z</time>
      </trkpt>
      <trkpt lat="45.22436" lon="5.56895">
        <ele>1397</ele>
        <time>2015-11-29T10:34:17.000Z</time>
      </trkpt>
      <trkpt lat="45.22436" lon="5.56895">
        <ele>1397</ele>
        <time>2015-11-29T10:34:19.000Z</time>
      </trkpt>
      <trkpt lat="45.22436" lon="5.56895">
        <ele>1397</ele>
        <time>2015-11-29T10:34:21.000Z</time>
      </trkpt>
      <trkpt lat="45.22436" lon="5.56895">
        <ele>1397</ele>
        <time>2015-11-29T10:34:23.000Z</time>
      </trkpt>
      <trkpt lat="45.22436" lon="5.56941">
        <ele>1401</ele>
        <time>2015-11-29T10:34:27.000Z</time>
      </trkpt>
      <trkpt lat="45.22429" lon="5.56951">
        <ele>1404</ele>
        <time>2015-11-29T10:34:33.000Z</time>
      </trkpt>
      <trkpt lat="45.22429" lon="5.56951">
        <ele>1404</ele>
        <time>2015-11-29T10:34:39.000Z</time>
      </trkpt>
      <trkpt lat="45.22429" lon="5.56951">
        <ele>1404</ele>
        <time>2015-11-29T10:34:41.000Z</time>
      </trkpt>
      <trkpt lat="45.22429" lon="5.56951">
        <ele>1404</ele>
        <time>2015-11-29T10:34:43.000Z</time>
      </trkpt>
      <trkpt lat="45.22429" lon="5.56951">
        <ele>1404</ele>
        <time>2015-11-29T10:34:45.000Z</time>
      </trkpt>
      <trkpt lat="45.22419" lon="5.56969">
        <ele>1409</ele>
        <time>2015-11-29T10:35:55.000Z</time>
      </trkpt>
      <trkpt lat="45.22402" lon="5.56976">
        <ele>1407</ele>
        <time>2015-11-29T10:35:58.000Z</time>
      </trkpt>
      <trkpt lat="45.22388" lon="5.56974">
        <ele>1408</ele>
        <time>2015-11-29T10:36:00.000Z</time>
      </trkpt>
      <trkpt lat="45.22376" lon="5.56963">
        <ele>1408</ele>
        <time>2015-11-29T10:36:02.000Z</time>
      </trkpt>
      <trkpt lat="45.22367" lon="5.56948">
        <ele>1409</ele>
        <time>2015-11-29T10:36:04.000Z</time>
      </trkpt>
      <trkpt lat="45.22354" lon="5.56909">
        <ele>1408</ele>
        <time>2015-11-29T10:36:06.000Z</time>
      </trkpt>
      <trkpt lat="45.22351" lon="5.56883">
        <ele>1406</ele>
        <time>2015-11-29T10:36:09.000Z</time>
      </trkpt>
      <trkpt lat="45.22346" lon="5.5687">
        <ele>1405</ele>
        <time>2015-11-29T10:36:11.000Z</time>
      </trkpt>
      <trkpt lat="45.22346" lon="5.5687">
        <ele>1405</ele>
        <time>2015-11-29T10:36:13.000Z</time>
      </trkpt>
      <trkpt lat="45.22346" lon="5.5687">
        <ele>1405</ele>
        <time>2015-11-29T10:36:15.000Z</time>
      </trkpt>
      <trkpt lat="45.22346" lon="5.5687">
        <ele>1405</ele>
        <time>2015-11-29T10:36:17.000Z</time>
      </trkpt>
      <trkpt lat="45.22322" lon="5.56802">
        <ele>1400</ele>
        <time>2015-11-29T10:36:21.000Z</time>
      </trkpt>
      <trkpt lat="45.22314" lon="5.56789">
        <ele>1399</ele>
        <time>2015-11-29T10:36:23.000Z</time>
      </trkpt>
      <trkpt lat="45.223" lon="5.56775">
        <ele>1399</ele>
        <time>2015-11-29T10:36:25.000Z</time>
      </trkpt>
      <trkpt lat="45.22286" lon="5.56763">
        <ele>1396</ele>
        <time>2015-11-29T10:36:27.000Z</time>
      </trkpt>
      <trkpt lat="45.22253" lon="5.56757">
        <ele>1394</ele>
        <time>2015-11-29T10:36:30.000Z</time>
      </trkpt>
      <trkpt lat="45.22234" lon="5.56772">
        <ele>1388</ele>
        <time>2015-11-29T10:36:33.000Z</time>
      </trkpt>
      <trkpt lat="45.22234" lon="5.56772">
        <ele>1388</ele>
        <time>2015-11-29T10:36:37.000Z</time>
      </trkpt>
      <trkpt lat="45.22234" lon="5.56772">
        <ele>1388</ele>
        <time>2015-11-29T10:36:43.000Z</time>
      </trkpt>
      <trkpt lat="45.22234" lon="5.56772">
        <ele>1388</ele>
        <time>2015-11-29T10:36:45.000Z</time>
      </trkpt>
      <trkpt lat="45.22234" lon="5.56772">
        <ele>1388</ele>
        <time>2015-11-29T10:36:47.000Z</time>
      </trkpt>
      <trkpt lat="45.22186" lon="5.56801">
        <ele>1386</ele>
        <time>2015-11-29T10:36:55.000Z</time>
      </trkpt>
      <trkpt lat="45.22182" lon="5.56815">
        <ele>1381</ele>
        <time>2015-11-29T10:36:59.000Z</time>
      </trkpt>
      <trkpt lat="45.2218" lon="5.56838">
        <ele>1375</ele>
        <time>2015-11-29T10:37:03.000Z</time>
      </trkpt>
      <trkpt lat="45.22176" lon="5.5686">
        <ele>1372</ele>
        <time>2015-11-29T10:37:07.000Z</time>
      </trkpt>
      <trkpt lat="45.22173" lon="5.56873">
        <ele>1373</ele>
        <time>2015-11-29T10:37:09.000Z</time>
      </trkpt>
      <trkpt lat="45.22171" lon="5.56885">
        <ele>1372</ele>
        <time>2015-11-29T10:37:11.000Z</time>
      </trkpt>
      <trkpt lat="45.22167" lon="5.56897">
        <ele>1372</ele>
        <time>2015-11-29T10:37:13.000Z</time>
      </trkpt>
      <trkpt lat="45.22167" lon="5.56897">
        <ele>1372</ele>
        <time>2015-11-29T10:37:18.000Z</time>
      </trkpt>
      <trkpt lat="45.22167" lon="5.56897">
        <ele>1372</ele>
        <time>2015-11-29T10:37:20.000Z</time>
      </trkpt>
      <trkpt lat="45.22167" lon="5.56897">
        <ele>1372</ele>
        <time>2015-11-29T10:37:24.000Z</time>
      </trkpt>
      <trkpt lat="45.22143" lon="5.56913">
        <ele>1372</ele>
        <time>2015-11-29T10:37:30.000Z</time>
      </trkpt>
      <trkpt lat="45.22131" lon="5.56915">
        <ele>1374</ele>
        <time>2015-11-29T10:37:36.000Z</time>
      </trkpt>
      <trkpt lat="45.22119" lon="5.5692">
        <ele>1375</ele>
        <time>2015-11-29T10:37:42.000Z</time>
      </trkpt>
      <trkpt lat="45.22108" lon="5.5692">
        <ele>1378</ele>
        <time>2015-11-29T10:37:46.000Z</time>
      </trkpt>
      <trkpt lat="45.22095" lon="5.56916">
        <ele>1386</ele>
        <time>2015-11-29T10:37:50.000Z</time>
      </trkpt>
      <trkpt lat="45.22089" lon="5.56914">
        <ele>1384</ele>
        <time>2015-11-29T10:37:54.000Z</time>
      </trkpt>
      <trkpt lat="45.22083" lon="5.56912">
        <ele>1384</ele>
        <time>2015-11-29T10:37:56.000Z</time>
      </trkpt>
      <trkpt lat="45.22075" lon="5.56908">
        <ele>1384</ele>
        <time>2015-11-29T10:37:58.000Z</time>
      </trkpt>
      <trkpt lat="45.22066" lon="5.56903">
        <ele>1384</ele>
        <time>2015-11-29T10:38:00.000Z</time>
      </trkpt>
      <trkpt lat="45.22056" lon="5.56894">
        <ele>1387</ele>
        <time>2015-11-29T10:38:02.000Z</time>
      </trkpt>
      <trkpt lat="45.22033" lon="5.56879">
        <ele>1387</ele>
        <time>2015-11-29T10:38:05.000Z</time>
      </trkpt>
      <trkpt lat="45.22033" lon="5.56879">
        <ele>1387</ele>
        <time>2015-11-29T10:38:07.000Z</time>
      </trkpt>
      <trkpt lat="45.22033" lon="5.56879">
        <ele>1387</ele>
        <time>2015-11-29T10:38:09.000Z</time>
      </trkpt>
      <trkpt lat="45.21997" lon="5.56861">
        <ele>1387</ele>
        <time>2015-11-29T10:38:13.000Z</time>
      </trkpt>
      <trkpt lat="45.2198" lon="5.56852">
        <ele>1388</ele>
        <time>2015-11-29T10:38:17.000Z</time>
      </trkpt>
      <trkpt lat="45.2198" lon="5.56852">
        <ele>1388</ele>
        <time>2015-11-29T10:38:19.000Z</time>
      </trkpt>
      <trkpt lat="45.2198" lon="5.56852">
        <ele>1388</ele>
        <time>2015-11-29T10:38:21.000Z</time>
      </trkpt>
      <trkpt lat="45.2198" lon="5.56852">
        <ele>1388</ele>
        <time>2015-11-29T10:38:23.000Z</time>
      </trkpt>
      <trkpt lat="45.2198" lon="5.56852">
        <ele>1388</ele>
        <time>2015-11-29T10:38:25.000Z</time>
      </trkpt>
      <trkpt lat="45.2198" lon="5.56852">
        <ele>1388</ele>
        <time>2015-11-29T10:38:27.000Z</time>
      </trkpt>
      <trkpt lat="45.21987" lon="5.56862">
        <ele>1383</ele>
        <time>2015-11-29T10:38:46.000Z</time>
      </trkpt>
      <trkpt lat="45.21987" lon="5.56862">
        <ele>1383</ele>
        <time>2015-11-29T10:38:48.000Z</time>
      </trkpt>
      <trkpt lat="45.21987" lon="5.56862">
        <ele>1383</ele>
        <time>2015-11-29T10:38:50.000Z</time>
      </trkpt>
      <trkpt lat="45.21977" lon="5.5686">
        <ele>1379</ele>
        <time>2015-11-29T10:38:56.000Z</time>
      </trkpt>
      <trkpt lat="45.21966" lon="5.56854">
        <ele>1378</ele>
        <time>2015-11-29T10:39:00.000Z</time>
      </trkpt>
      <trkpt lat="45.21951" lon="5.56849">
        <ele>1383</ele>
        <time>2015-11-29T10:39:04.000Z</time>
      </trkpt>
      <trkpt lat="45.21941" lon="5.56844">
        <ele>1385</ele>
        <time>2015-11-29T10:39:08.000Z</time>
      </trkpt>
      <trkpt lat="45.21941" lon="5.56844">
        <ele>1385</ele>
        <time>2015-11-29T10:39:10.000Z</time>
      </trkpt>
      <trkpt lat="45.21941" lon="5.56844">
        <ele>1385</ele>
        <time>2015-11-29T10:39:12.000Z</time>
      </trkpt>
      <trkpt lat="45.21919" lon="5.56828">
        <ele>1386</ele>
        <time>2015-11-29T10:39:16.000Z</time>
      </trkpt>
      <trkpt lat="45.21907" lon="5.56824">
        <ele>1386</ele>
        <time>2015-11-29T10:39:20.000Z</time>
      </trkpt>
      <trkpt lat="45.21907" lon="5.56824">
        <ele>1386</ele>
        <time>2015-11-29T10:39:22.000Z</time>
      </trkpt>
      <trkpt lat="45.21907" lon="5.56824">
        <ele>1386</ele>
        <time>2015-11-29T10:39:24.000Z</time>
      </trkpt>
      <trkpt lat="45.21907" lon="5.56824">
        <ele>1386</ele>
        <time>2015-11-29T10:39:26.000Z</time>
      </trkpt>
      <trkpt lat="45.21907" lon="5.56824">
        <ele>1386</ele>
        <time>2015-11-29T10:39:28.000Z</time>
      </trkpt>
      <trkpt lat="45.21907" lon="5.56824">
        <ele>1386</ele>
        <time>2015-11-29T10:39:30.000Z</time>
      </trkpt>
      <trkpt lat="45.21907" lon="5.56824">
        <ele>1386</ele>
        <time>2015-11-29T10:39:32.000Z</time>
      </trkpt>
      <trkpt lat="45.21907" lon="5.56824">
        <ele>1386</ele>
        <time>2015-11-29T10:39:34.000Z</time>
      </trkpt>
      <trkpt lat="45.21907" lon="5.56824">
        <ele>1386</ele>
        <time>2015-11-29T10:39:36.000Z</time>
      </trkpt>
      <trkpt lat="45.21892" lon="5.56815">
        <ele>1388</ele>
        <time>2015-11-29T10:41:11.000Z</time>
      </trkpt>
      <trkpt lat="45.21883" lon="5.56808">
        <ele>1388</ele>
        <time>2015-11-29T10:41:13.000Z</time>
      </trkpt>
      <trkpt lat="45.21877" lon="5.56803">
        <ele>1385</ele>
        <time>2015-11-29T10:41:15.000Z</time>
      </trkpt>
      <trkpt lat="45.21872" lon="5.56799">
        <ele>1384</ele>
        <time>2015-11-29T10:41:17.000Z</time>
      </trkpt>
      <trkpt lat="45.21867" lon="5.56793">
        <ele>1383</ele>
        <time>2015-11-29T10:41:19.000Z</time>
      </trkpt>
      <trkpt lat="45.21861" lon="5.5678">
        <ele>1383</ele>
        <time>2015-11-29T10:41:21.000Z</time>
      </trkpt>
      <trkpt lat="45.21855" lon="5.56764">
        <ele>1385</ele>
        <time>2015-11-29T10:41:25.000Z</time>
      </trkpt>
      <trkpt lat="45.21849" lon="5.5675">
        <ele>1384</ele>
        <time>2015-11-29T10:41:29.000Z</time>
      </trkpt>
      <trkpt lat="45.21846" lon="5.56731">
        <ele>1386</ele>
        <time>2015-11-29T10:41:33.000Z</time>
      </trkpt>
      <trkpt lat="45.21846" lon="5.56718">
        <ele>1387</ele>
        <time>2015-11-29T10:41:35.000Z</time>
      </trkpt>
      <trkpt lat="45.21848" lon="5.56686">
        <ele>1386</ele>
        <time>2015-11-29T10:41:38.000Z</time>
      </trkpt>
      <trkpt lat="45.21848" lon="5.56665">
        <ele>1386</ele>
        <time>2015-11-29T10:41:40.000Z</time>
      </trkpt>
      <trkpt lat="45.21849" lon="5.56644">
        <ele>1387</ele>
        <time>2015-11-29T10:41:42.000Z</time>
      </trkpt>
      <trkpt lat="45.21849" lon="5.56626">
        <ele>1386</ele>
        <time>2015-11-29T10:41:44.000Z</time>
      </trkpt>
      <trkpt lat="45.21843" lon="5.56613">
        <ele>1386</ele>
        <time>2015-11-29T10:41:46.000Z</time>
      </trkpt>
      <trkpt lat="45.21843" lon="5.56613">
        <ele>1386</ele>
        <time>2015-11-29T10:41:48.000Z</time>
      </trkpt>
      <trkpt lat="45.21843" lon="5.56613">
        <ele>1386</ele>
        <time>2015-11-29T10:41:50.000Z</time>
      </trkpt>
      <trkpt lat="45.21843" lon="5.56613">
        <ele>1386</ele>
        <time>2015-11-29T10:41:52.000Z</time>
      </trkpt>
      <trkpt lat="45.21843" lon="5.56613">
        <ele>1386</ele>
        <time>2015-11-29T10:41:54.000Z</time>
      </trkpt>
      <trkpt lat="45.21843" lon="5.56613">
        <ele>1386</ele>
        <time>2015-11-29T10:41:56.000Z</time>
      </trkpt>
      <trkpt lat="45.21843" lon="5.56613">
        <ele>1386</ele>
        <time>2015-11-29T10:41:58.000Z</time>
      </trkpt>
      <trkpt lat="45.21843" lon="5.56613">
        <ele>1386</ele>
        <time>2015-11-29T10:42:00.000Z</time>
      </trkpt>
      <trkpt lat="45.21843" lon="5.56613">
        <ele>1386</ele>
        <time>2015-11-29T10:42:02.000Z</time>
      </trkpt>
      <trkpt lat="45.21843" lon="5.56613">
        <ele>1386</ele>
        <time>2015-11-29T10:42:04.000Z</time>
      </trkpt>
      <trkpt lat="45.21843" lon="5.56613">
        <ele>1386</ele>
        <time>2015-11-29T10:42:06.000Z</time>
      </trkpt>
      <trkpt lat="45.21788" lon="5.56569">
        <ele>1388</ele>
        <time>2015-11-29T10:42:10.000Z</time>
      </trkpt>
      <trkpt lat="45.21779" lon="5.56562">
        <ele>1389</ele>
        <time>2015-11-29T10:42:12.000Z</time>
      </trkpt>
      <trkpt lat="45.21762" lon="5.56541">
        <ele>1386</ele>
        <time>2015-11-29T10:42:15.000Z</time>
      </trkpt>
      <trkpt lat="45.21754" lon="5.56528">
        <ele>1385</ele>
        <time>2015-11-29T10:42:17.000Z</time>
      </trkpt>
      <trkpt lat="45.21719" lon="5.56493">
        <ele>1384</ele>
        <time>2015-11-29T10:42:21.000Z</time>
      </trkpt>
      <trkpt lat="45.21694" lon="5.56478">
        <ele>1376</ele>
        <time>2015-11-29T10:42:26.000Z</time>
      </trkpt>
      <trkpt lat="45.21682" lon="5.56467">
        <ele>1376</ele>
        <time>2015-11-29T10:42:28.000Z</time>
      </trkpt>
      <trkpt lat="45.21669" lon="5.56457">
        <ele>1375</ele>
        <time>2015-11-29T10:42:30.000Z</time>
      </trkpt>
      <trkpt lat="45.21659" lon="5.56451">
        <ele>1377</ele>
        <time>2015-11-29T10:42:32.000Z</time>
      </trkpt>
      <trkpt lat="45.21659" lon="5.56451">
        <ele>1377</ele>
        <time>2015-11-29T10:42:34.000Z</time>
      </trkpt>
      <trkpt lat="45.21659" lon="5.56451">
        <ele>1377</ele>
        <time>2015-11-29T10:42:36.000Z</time>
      </trkpt>
      <trkpt lat="45.21659" lon="5.56451">
        <ele>1377</ele>
        <time>2015-11-29T10:42:38.000Z</time>
      </trkpt>
      <trkpt lat="45.21659" lon="5.56451">
        <ele>1377</ele>
        <time>2015-11-29T10:42:40.000Z</time>
      </trkpt>
      <trkpt lat="45.21659" lon="5.56451">
        <ele>1377</ele>
        <time>2015-11-29T10:42:42.000Z</time>
      </trkpt>
      <trkpt lat="45.21629" lon="5.56455">
        <ele>1369</ele>
        <time>2015-11-29T10:42:48.000Z</time>
      </trkpt>
      <trkpt lat="45.21629" lon="5.56455">
        <ele>1369</ele>
        <time>2015-11-29T10:42:50.000Z</time>
      </trkpt>
      <trkpt lat="45.21619" lon="5.56456">
        <ele>1369</ele>
        <time>2015-11-29T10:42:54.000Z</time>
      </trkpt>
      <trkpt lat="45.21605" lon="5.56456">
        <ele>1369</ele>
        <time>2015-11-29T10:43:00.000Z</time>
      </trkpt>
      <trkpt lat="45.21597" lon="5.56464">
        <ele>1367</ele>
        <time>2015-11-29T10:43:04.000Z</time>
      </trkpt>
      <trkpt lat="45.21594" lon="5.56478">
        <ele>1369</ele>
        <time>2015-11-29T10:43:08.000Z</time>
      </trkpt>
      <trkpt lat="45.21594" lon="5.56478">
        <ele>1369</ele>
        <time>2015-11-29T10:43:12.000Z</time>
      </trkpt>
      <trkpt lat="45.21594" lon="5.56478">
        <ele>1369</ele>
        <time>2015-11-29T10:43:14.000Z</time>
      </trkpt>
      <trkpt lat="45.21594" lon="5.56478">
        <ele>1369</ele>
        <time>2015-11-29T10:43:16.000Z</time>
      </trkpt>
      <trkpt lat="45.21594" lon="5.56478">
        <ele>1369</ele>
        <time>2015-11-29T10:43:18.000Z</time>
      </trkpt>
      <trkpt lat="45.21594" lon="5.56478">
        <ele>1369</ele>
        <time>2015-11-29T10:43:20.000Z</time>
      </trkpt>
      <trkpt lat="45.21594" lon="5.56478">
        <ele>1369</ele>
        <time>2015-11-29T10:43:24.000Z</time>
      </trkpt>
      <trkpt lat="45.21594" lon="5.56478">
        <ele>1369</ele>
        <time>2015-11-29T10:43:26.000Z</time>
      </trkpt>
      <trkpt lat="45.21585" lon="5.56503">
        <ele>1374</ele>
        <time>2015-11-29T10:44:35.000Z</time>
      </trkpt>
      <trkpt lat="45.21568" lon="5.56523">
        <ele>1374</ele>
        <time>2015-11-29T10:44:39.000Z</time>
      </trkpt>
      <trkpt lat="45.21553" lon="5.5654">
        <ele>1375</ele>
        <time>2015-11-29T10:44:41.000Z</time>
      </trkpt>
      <trkpt lat="45.21553" lon="5.5654">
        <ele>1375</ele>
        <time>2015-11-29T10:44:45.000Z</time>
      </trkpt>
      <trkpt lat="45.21553" lon="5.5654">
        <ele>1375</ele>
        <time>2015-11-29T10:44:48.000Z</time>
      </trkpt>
      <trkpt lat="45.21553" lon="5.5654">
        <ele>1375</ele>
        <time>2015-11-29T10:44:50.000Z</time>
      </trkpt>
      <trkpt lat="45.21553" lon="5.5654">
        <ele>1375</ele>
        <time>2015-11-29T10:44:52.000Z</time>
      </trkpt>
      <trkpt lat="45.21553" lon="5.5654">
        <ele>1375</ele>
        <time>2015-11-29T10:44:54.000Z</time>
      </trkpt>
      <trkpt lat="45.21553" lon="5.5654">
        <ele>1375</ele>
        <time>2015-11-29T10:44:56.000Z</time>
      </trkpt>
      <trkpt lat="45.21553" lon="5.5654">
        <ele>1375</ele>
        <time>2015-11-29T10:44:58.000Z</time>
      </trkpt>
      <trkpt lat="45.21553" lon="5.5654">
        <ele>1375</ele>
        <time>2015-11-29T10:45:00.000Z</time>
      </trkpt>
      <trkpt lat="45.21553" lon="5.5654">
        <ele>1375</ele>
        <time>2015-11-29T10:45:02.000Z</time>
      </trkpt>
      <trkpt lat="45.21553" lon="5.5654">
        <ele>1375</ele>
        <time>2015-11-29T10:45:08.000Z</time>
      </trkpt>
      <trkpt lat="45.21553" lon="5.5654">
        <ele>1375</ele>
        <time>2015-11-29T10:45:10.000Z</time>
      </trkpt>
      <trkpt lat="45.21517" lon="5.56597">
        <ele>1372</ele>
        <time>2015-11-29T10:45:28.000Z</time>
      </trkpt>
      <trkpt lat="45.2149" lon="5.56627">
        <ele>1371</ele>
        <time>2015-11-29T10:45:30.000Z</time>
      </trkpt>
      <trkpt lat="45.21466" lon="5.56642">
        <ele>1370</ele>
        <time>2015-11-29T10:45:32.000Z</time>
      </trkpt>
      <trkpt lat="45.21445" lon="5.5665">
        <ele>1369</ele>
        <time>2015-11-29T10:45:34.000Z</time>
      </trkpt>
      <trkpt lat="45.21445" lon="5.5665">
        <ele>1369</ele>
        <time>2015-11-29T10:45:38.000Z</time>
      </trkpt>
      <trkpt lat="45.21445" lon="5.5665">
        <ele>1369</ele>
        <time>2015-11-29T10:45:40.000Z</time>
      </trkpt>
      <trkpt lat="45.21445" lon="5.5665">
        <ele>1369</ele>
        <time>2015-11-29T10:45:42.000Z</time>
      </trkpt>
      <trkpt lat="45.21445" lon="5.5665">
        <ele>1369</ele>
        <time>2015-11-29T10:45:44.000Z</time>
      </trkpt>
      <trkpt lat="45.21445" lon="5.5665">
        <ele>1369</ele>
        <time>2015-11-29T10:45:46.000Z</time>
      </trkpt>
      <trkpt lat="45.21445" lon="5.5665">
        <ele>1369</ele>
        <time>2015-11-29T10:45:48.000Z</time>
      </trkpt>
      <trkpt lat="45.21406" lon="5.56663">
        <ele>1364</ele>
        <time>2015-11-29T10:45:54.000Z</time>
      </trkpt>
      <trkpt lat="45.21384" lon="5.56674">
        <ele>1363</ele>
        <time>2015-11-29T10:45:56.000Z</time>
      </trkpt>
      <trkpt lat="45.2137" lon="5.56684">
        <ele>1364</ele>
        <time>2015-11-29T10:45:58.000Z</time>
      </trkpt>
      <trkpt lat="45.2136" lon="5.56691">
        <ele>1364</ele>
        <time>2015-11-29T10:46:00.000Z</time>
      </trkpt>
      <trkpt lat="45.21352" lon="5.56695">
        <ele>1366</ele>
        <time>2015-11-29T10:46:02.000Z</time>
      </trkpt>
      <trkpt lat="45.21352" lon="5.56695">
        <ele>1366</ele>
        <time>2015-11-29T10:46:04.000Z</time>
      </trkpt>
      <trkpt lat="45.21352" lon="5.56695">
        <ele>1366</ele>
        <time>2015-11-29T10:46:06.000Z</time>
      </trkpt>
      <trkpt lat="45.21352" lon="5.56695">
        <ele>1366</ele>
        <time>2015-11-29T10:46:08.000Z</time>
      </trkpt>
      <trkpt lat="45.21352" lon="5.56695">
        <ele>1366</ele>
        <time>2015-11-29T10:46:10.000Z</time>
      </trkpt>
      <trkpt lat="45.21352" lon="5.56695">
        <ele>1366</ele>
        <time>2015-11-29T10:46:12.000Z</time>
      </trkpt>
      <trkpt lat="45.21352" lon="5.56695">
        <ele>1366</ele>
        <time>2015-11-29T10:46:14.000Z</time>
      </trkpt>
      <trkpt lat="45.2132" lon="5.56674">
        <ele>1368</ele>
        <time>2015-11-29T10:46:46.000Z</time>
      </trkpt>
      <trkpt lat="45.21311" lon="5.56648">
        <ele>1363</ele>
        <time>2015-11-29T10:46:49.000Z</time>
      </trkpt>
      <trkpt lat="45.21306" lon="5.5663">
        <ele>1364</ele>
        <time>2015-11-29T10:46:51.000Z</time>
      </trkpt>
      <trkpt lat="45.21293" lon="5.56614">
        <ele>1364</ele>
        <time>2015-11-29T10:46:53.000Z</time>
      </trkpt>
      <trkpt lat="45.2128" lon="5.56597">
        <ele>1364</ele>
        <time>2015-11-29T10:46:55.000Z</time>
      </trkpt>
      <trkpt lat="45.2127" lon="5.56582">
        <ele>1366</ele>
        <time>2015-11-29T10:46:57.000Z</time>
      </trkpt>
      <trkpt lat="45.2126" lon="5.5657">
        <ele>1365</ele>
        <time>2015-11-29T10:46:59.000Z</time>
      </trkpt>
      <trkpt lat="45.21251" lon="5.56557">
        <ele>1365</ele>
        <time>2015-11-29T10:47:01.000Z</time>
      </trkpt>
      <trkpt lat="45.2124" lon="5.56543">
        <ele>1365</ele>
        <time>2015-11-29T10:47:03.000Z</time>
      </trkpt>
      <trkpt lat="45.21235" lon="5.56529">
        <ele>1364</ele>
        <time>2015-11-29T10:47:05.000Z</time>
      </trkpt>
      <trkpt lat="45.21184" lon="5.56472">
        <ele>1359</ele>
        <time>2015-11-29T10:47:11.000Z</time>
      </trkpt>
      <trkpt lat="45.21184" lon="5.56472">
        <ele>1359</ele>
        <time>2015-11-29T10:47:19.000Z</time>
      </trkpt>
      <trkpt lat="45.21184" lon="5.56472">
        <ele>1359</ele>
        <time>2015-11-29T10:47:23.000Z</time>
      </trkpt>
      <trkpt lat="45.21184" lon="5.56472">
        <ele>1359</ele>
        <time>2015-11-29T10:47:25.000Z</time>
      </trkpt>
      <trkpt lat="45.21184" lon="5.56472">
        <ele>1359</ele>
        <time>2015-11-29T10:47:27.000Z</time>
      </trkpt>
      <trkpt lat="45.21184" lon="5.56472">
        <ele>1359</ele>
        <time>2015-11-29T10:47:29.000Z</time>
      </trkpt>
      <trkpt lat="45.21203" lon="5.56446">
        <ele>1362</ele>
        <time>2015-11-29T10:47:39.000Z</time>
      </trkpt>
      <trkpt lat="45.21214" lon="5.5643">
        <ele>1361</ele>
        <time>2015-11-29T10:47:41.000Z</time>
      </trkpt>
      <trkpt lat="45.21219" lon="5.56421">
        <ele>1361</ele>
        <time>2015-11-29T10:47:43.000Z</time>
      </trkpt>
      <trkpt lat="45.21222" lon="5.56414">
        <ele>1363</ele>
        <time>2015-11-29T10:47:45.000Z</time>
      </trkpt>
      <trkpt lat="45.21223" lon="5.56405">
        <ele>1362</ele>
        <time>2015-11-29T10:47:49.000Z</time>
      </trkpt>
      <trkpt lat="45.21224" lon="5.56399">
        <ele>1362</ele>
        <time>2015-11-29T10:47:51.000Z</time>
      </trkpt>
      <trkpt lat="45.21224" lon="5.56399">
        <ele>1362</ele>
        <time>2015-11-29T10:47:55.000Z</time>
      </trkpt>
      <trkpt lat="45.21224" lon="5.56399">
        <ele>1362</ele>
        <time>2015-11-29T10:47:57.000Z</time>
      </trkpt>
      <trkpt lat="45.21224" lon="5.56399">
        <ele>1362</ele>
        <time>2015-11-29T10:47:59.000Z</time>
      </trkpt>
      <trkpt lat="45.21224" lon="5.56399">
        <ele>1362</ele>
        <time>2015-11-29T10:48:01.000Z</time>
      </trkpt>
      <trkpt lat="45.21224" lon="5.56399">
        <ele>1362</ele>
        <time>2015-11-29T10:48:03.000Z</time>
      </trkpt>
      <trkpt lat="45.21224" lon="5.56399">
        <ele>1362</ele>
        <time>2015-11-29T10:48:05.000Z</time>
      </trkpt>
      <trkpt lat="45.21233" lon="5.56382">
        <ele>1364</ele>
        <time>2015-11-29T10:48:09.000Z</time>
      </trkpt>
      <trkpt lat="45.21239" lon="5.56371">
        <ele>1362</ele>
        <time>2015-11-29T10:48:11.000Z</time>
      </trkpt>
      <trkpt lat="45.21244" lon="5.56364">
        <ele>1363</ele>
        <time>2015-11-29T10:48:13.000Z</time>
      </trkpt>
      <trkpt lat="45.21244" lon="5.56364">
        <ele>1363</ele>
        <time>2015-11-29T10:48:15.000Z</time>
      </trkpt>
      <trkpt lat="45.21244" lon="5.56364">
        <ele>1363</ele>
        <time>2015-11-29T10:48:17.000Z</time>
      </trkpt>
      <trkpt lat="45.21254" lon="5.56356">
        <ele>1360</ele>
        <time>2015-11-29T10:48:27.000Z</time>
      </trkpt>
      <trkpt lat="45.21261" lon="5.56351">
        <ele>1361</ele>
        <time>2015-11-29T10:48:29.000Z</time>
      </trkpt>
      <trkpt lat="45.21266" lon="5.56347">
        <ele>1360</ele>
        <time>2015-11-29T10:48:31.000Z</time>
      </trkpt>
      <trkpt lat="45.2127" lon="5.5634">
        <ele>1363</ele>
        <time>2015-11-29T10:48:35.000Z</time>
      </trkpt>
      <trkpt lat="45.21274" lon="5.56333">
        <ele>1361</ele>
        <time>2015-11-29T10:48:37.000Z</time>
      </trkpt>
      <trkpt lat="45.21277" lon="5.56328">
        <ele>1362</ele>
        <time>2015-11-29T10:48:39.000Z</time>
      </trkpt>
      <trkpt lat="45.21281" lon="5.56323">
        <ele>1361</ele>
        <time>2015-11-29T10:48:41.000Z</time>
      </trkpt>
      <trkpt lat="45.21286" lon="5.56319">
        <ele>1361</ele>
        <time>2015-11-29T10:48:43.000Z</time>
      </trkpt>
      <trkpt lat="45.21295" lon="5.56311">
        <ele>1361</ele>
        <time>2015-11-29T10:48:45.000Z</time>
      </trkpt>
      <trkpt lat="45.21295" lon="5.56311">
        <ele>1361</ele>
        <time>2015-11-29T10:48:47.000Z</time>
      </trkpt>
      <trkpt lat="45.21295" lon="5.56311">
        <ele>1361</ele>
        <time>2015-11-29T10:48:49.000Z</time>
      </trkpt>
      <trkpt lat="45.21295" lon="5.56311">
        <ele>1361</ele>
        <time>2015-11-29T10:48:51.000Z</time>
      </trkpt>
      <trkpt lat="45.21295" lon="5.56311">
        <ele>1361</ele>
        <time>2015-11-29T10:48:53.000Z</time>
      </trkpt>
      <trkpt lat="45.21307" lon="5.56308">
        <ele>1365</ele>
        <time>2015-11-29T10:52:05.000Z</time>
      </trkpt>
      <trkpt lat="45.21316" lon="5.56305">
        <ele>1366</ele>
        <time>2015-11-29T10:52:07.000Z</time>
      </trkpt>
      <trkpt lat="45.21324" lon="5.563">
        <ele>1366</ele>
        <time>2015-11-29T10:52:09.000Z</time>
      </trkpt>
      <trkpt lat="45.21333" lon="5.56295">
        <ele>1364</ele>
        <time>2015-11-29T10:52:11.000Z</time>
      </trkpt>
      <trkpt lat="45.21341" lon="5.5629">
        <ele>1360</ele>
        <time>2015-11-29T10:52:13.000Z</time>
      </trkpt>
      <trkpt lat="45.21358" lon="5.5628">
        <ele>1359</ele>
        <time>2015-11-29T10:52:15.000Z</time>
      </trkpt>
      <trkpt lat="45.21367" lon="5.56276">
        <ele>1357</ele>
        <time>2015-11-29T10:52:17.000Z</time>
      </trkpt>
      <trkpt lat="45.21378" lon="5.56269">
        <ele>1357</ele>
        <time>2015-11-29T10:52:19.000Z</time>
      </trkpt>
      <trkpt lat="45.21389" lon="5.56262">
        <ele>1354</ele>
        <time>2015-11-29T10:52:21.000Z</time>
      </trkpt>
      <trkpt lat="45.21401" lon="5.56248">
        <ele>1352</ele>
        <time>2015-11-29T10:52:23.000Z</time>
      </trkpt>
      <trkpt lat="45.21413" lon="5.56232">
        <ele>1353</ele>
        <time>2015-11-29T10:52:25.000Z</time>
      </trkpt>
      <trkpt lat="45.21424" lon="5.56208">
        <ele>1352</ele>
        <time>2015-11-29T10:52:27.000Z</time>
      </trkpt>
      <trkpt lat="45.21431" lon="5.56187">
        <ele>1352</ele>
        <time>2015-11-29T10:52:29.000Z</time>
      </trkpt>
      <trkpt lat="45.21434" lon="5.5617">
        <ele>1350</ele>
        <time>2015-11-29T10:52:31.000Z</time>
      </trkpt>
      <trkpt lat="45.21437" lon="5.56156">
        <ele>1348</ele>
        <time>2015-11-29T10:52:33.000Z</time>
      </trkpt>
      <trkpt lat="45.21437" lon="5.56156">
        <ele>1348</ele>
        <time>2015-11-29T10:52:35.000Z</time>
      </trkpt>
      <trkpt lat="45.21437" lon="5.56156">
        <ele>1348</ele>
        <time>2015-11-29T10:52:37.000Z</time>
      </trkpt>
      <trkpt lat="45.21437" lon="5.56156">
        <ele>1348</ele>
        <time>2015-11-29T10:52:39.000Z</time>
      </trkpt>
      <trkpt lat="45.21437" lon="5.56156">
        <ele>1348</ele>
        <time>2015-11-29T10:52:41.000Z</time>
      </trkpt>
      <trkpt lat="45.21439" lon="5.56093">
        <ele>1342</ele>
        <time>2015-11-29T10:52:45.000Z</time>
      </trkpt>
      <trkpt lat="45.21426" lon="5.56076">
        <ele>1343</ele>
        <time>2015-11-29T10:52:49.000Z</time>
      </trkpt>
      <trkpt lat="45.21426" lon="5.56076">
        <ele>1343</ele>
        <time>2015-11-29T10:52:51.000Z</time>
      </trkpt>
      <trkpt lat="45.21426" lon="5.56076">
        <ele>1343</ele>
        <time>2015-11-29T10:52:53.000Z</time>
      </trkpt>
      <trkpt lat="45.21426" lon="5.56076">
        <ele>1343</ele>
        <time>2015-11-29T10:52:55.000Z</time>
      </trkpt>
      <trkpt lat="45.21426" lon="5.56076">
        <ele>1343</ele>
        <time>2015-11-29T10:52:57.000Z</time>
      </trkpt>
      <trkpt lat="45.21426" lon="5.56076">
        <ele>1343</ele>
        <time>2015-11-29T10:53:05.000Z</time>
      </trkpt>
      <trkpt lat="45.21426" lon="5.56076">
        <ele>1343</ele>
        <time>2015-11-29T10:53:07.000Z</time>
      </trkpt>
      <trkpt lat="45.21426" lon="5.56076">
        <ele>1343</ele>
        <time>2015-11-29T10:53:09.000Z</time>
      </trkpt>
      <trkpt lat="45.21426" lon="5.56076">
        <ele>1343</ele>
        <time>2015-11-29T10:53:11.000Z</time>
      </trkpt>
      <trkpt lat="45.21426" lon="5.56076">
        <ele>1343</ele>
        <time>2015-11-29T10:53:13.000Z</time>
      </trkpt>
      <trkpt lat="45.21426" lon="5.56076">
        <ele>1343</ele>
        <time>2015-11-29T10:53:15.000Z</time>
      </trkpt>
      <trkpt lat="45.21426" lon="5.56076">
        <ele>1343</ele>
        <time>2015-11-29T10:53:17.000Z</time>
      </trkpt>
      <trkpt lat="45.21406" lon="5.5604">
        <ele>1341</ele>
        <time>2015-11-29T10:58:17.000Z</time>
      </trkpt>
      <trkpt lat="45.21398" lon="5.56022">
        <ele>1341</ele>
        <time>2015-11-29T10:58:19.000Z</time>
      </trkpt>
      <trkpt lat="45.21397" lon="5.56012">
        <ele>1341</ele>
        <time>2015-11-29T10:58:21.000Z</time>
      </trkpt>
      <trkpt lat="45.21399" lon="5.56006">
        <ele>1342</ele>
        <time>2015-11-29T10:58:23.000Z</time>
      </trkpt>
      <trkpt lat="45.21402" lon="5.56002">
        <ele>1342</ele>
        <time>2015-11-29T10:58:25.000Z</time>
      </trkpt>
      <trkpt lat="45.21411" lon="5.55997">
        <ele>1342</ele>
        <time>2015-11-29T10:58:27.000Z</time>
      </trkpt>
      <trkpt lat="45.21423" lon="5.55995">
        <ele>1343</ele>
        <time>2015-11-29T10:58:31.000Z</time>
      </trkpt>
      <trkpt lat="45.21437" lon="5.55994">
        <ele>1343</ele>
        <time>2015-11-29T10:58:35.000Z</time>
      </trkpt>
      <trkpt lat="45.21451" lon="5.55994">
        <ele>1343</ele>
        <time>2015-11-29T10:58:39.000Z</time>
      </trkpt>
      <trkpt lat="45.21466" lon="5.55994">
        <ele>1342</ele>
        <time>2015-11-29T10:58:43.000Z</time>
      </trkpt>
      <trkpt lat="45.2148" lon="5.55992">
        <ele>1340</ele>
        <time>2015-11-29T10:58:47.000Z</time>
      </trkpt>
      <trkpt lat="45.21494" lon="5.55992">
        <ele>1340</ele>
        <time>2015-11-29T10:58:51.000Z</time>
      </trkpt>
      <trkpt lat="45.21507" lon="5.55991">
        <ele>1340</ele>
        <time>2015-11-29T10:58:55.000Z</time>
      </trkpt>
      <trkpt lat="45.21521" lon="5.55989">
        <ele>1340</ele>
        <time>2015-11-29T10:58:59.000Z</time>
      </trkpt>
      <trkpt lat="45.21534" lon="5.55987">
        <ele>1340</ele>
        <time>2015-11-29T10:59:03.000Z</time>
      </trkpt>
      <trkpt lat="45.21547" lon="5.55983">
        <ele>1341</ele>
        <time>2015-11-29T10:59:07.000Z</time>
      </trkpt>
      <trkpt lat="45.2156" lon="5.5598">
        <ele>1342</ele>
        <time>2015-11-29T10:59:11.000Z</time>
      </trkpt>
      <trkpt lat="45.2156" lon="5.5598">
        <ele>1342</ele>
        <time>2015-11-29T10:59:13.000Z</time>
      </trkpt>
      <trkpt lat="45.2156" lon="5.5598">
        <ele>1342</ele>
        <time>2015-11-29T10:59:15.000Z</time>
      </trkpt>
      <trkpt lat="45.2156" lon="5.5598">
        <ele>1342</ele>
        <time>2015-11-29T10:59:17.000Z</time>
      </trkpt>
      <trkpt lat="45.2156" lon="5.5598">
        <ele>1342</ele>
        <time>2015-11-29T10:59:19.000Z</time>
      </trkpt>
      <trkpt lat="45.2156" lon="5.5598">
        <ele>1342</ele>
        <time>2015-11-29T10:59:21.000Z</time>
      </trkpt>
      <trkpt lat="45.2156" lon="5.5598">
        <ele>1342</ele>
        <time>2015-11-29T10:59:27.000Z</time>
      </trkpt>
      <trkpt lat="45.2156" lon="5.5598">
        <ele>1342</ele>
        <time>2015-11-29T10:59:29.000Z</time>
      </trkpt>
      <trkpt lat="45.2156" lon="5.5598">
        <ele>1342</ele>
        <time>2015-11-29T10:59:31.000Z</time>
      </trkpt>
      <trkpt lat="45.2159" lon="5.55972">
        <ele>1341</ele>
        <time>2015-11-29T10:59:33.000Z</time>
      </trkpt>
      <trkpt lat="45.21605" lon="5.55964">
        <ele>1343</ele>
        <time>2015-11-29T10:59:37.000Z</time>
      </trkpt>
      <trkpt lat="45.21605" lon="5.55964">
        <ele>1343</ele>
        <time>2015-11-29T10:59:39.000Z</time>
      </trkpt>
      <trkpt lat="45.21614" lon="5.55959">
        <ele>1346</ele>
        <time>2015-11-29T10:59:41.000Z</time>
      </trkpt>
      <trkpt lat="45.21614" lon="5.55959">
        <ele>1346</ele>
        <time>2015-11-29T10:59:43.000Z</time>
      </trkpt>
      <trkpt lat="45.21614" lon="5.55959">
        <ele>1346</ele>
        <time>2015-11-29T10:59:45.000Z</time>
      </trkpt>
      <trkpt lat="45.21614" lon="5.55959">
        <ele>1346</ele>
        <time>2015-11-29T10:59:47.000Z</time>
      </trkpt>
      <trkpt lat="45.21638" lon="5.55941">
        <ele>1348</ele>
        <time>2015-11-29T10:59:53.000Z</time>
      </trkpt>
      <trkpt lat="45.21647" lon="5.55933">
        <ele>1347</ele>
        <time>2015-11-29T10:59:57.000Z</time>
      </trkpt>
      <trkpt lat="45.21652" lon="5.5593">
        <ele>1347</ele>
        <time>2015-11-29T11:00:01.000Z</time>
      </trkpt>
      <trkpt lat="45.21658" lon="5.55926">
        <ele>1350</ele>
        <time>2015-11-29T11:00:03.000Z</time>
      </trkpt>
      <trkpt lat="45.21663" lon="5.55921">
        <ele>1350</ele>
        <time>2015-11-29T11:00:05.000Z</time>
      </trkpt>
      <trkpt lat="45.21668" lon="5.55915">
        <ele>1350</ele>
        <time>2015-11-29T11:00:07.000Z</time>
      </trkpt>
      <trkpt lat="45.21672" lon="5.55908">
        <ele>1350</ele>
        <time>2015-11-29T11:00:09.000Z</time>
      </trkpt>
      <trkpt lat="45.21679" lon="5.55895">
        <ele>1351</ele>
        <time>2015-11-29T11:00:11.000Z</time>
      </trkpt>
      <trkpt lat="45.21679" lon="5.55895">
        <ele>1351</ele>
        <time>2015-11-29T11:00:13.000Z</time>
      </trkpt>
      <trkpt lat="45.21679" lon="5.55895">
        <ele>1351</ele>
        <time>2015-11-29T11:00:15.000Z</time>
      </trkpt>
      <trkpt lat="45.21679" lon="5.55895">
        <ele>1351</ele>
        <time>2015-11-29T11:00:17.000Z</time>
      </trkpt>
      <trkpt lat="45.21694" lon="5.55853">
        <ele>1343</ele>
        <time>2015-11-29T11:00:23.000Z</time>
      </trkpt>
      <trkpt lat="45.21698" lon="5.55834">
        <ele>1340</ele>
        <time>2015-11-29T11:00:27.000Z</time>
      </trkpt>
      <trkpt lat="45.21707" lon="5.55817">
        <ele>1338</ele>
        <time>2015-11-29T11:00:31.000Z</time>
      </trkpt>
      <trkpt lat="45.21746" lon="5.55821">
        <ele>1343</ele>
        <time>2015-11-29T11:00:37.000Z</time>
      </trkpt>
      <trkpt lat="45.21746" lon="5.55821">
        <ele>1343</ele>
        <time>2015-11-29T11:00:41.000Z</time>
      </trkpt>
      <trkpt lat="45.21778" lon="5.55855">
        <ele>1352</ele>
        <time>2015-11-29T11:00:48.000Z</time>
      </trkpt>
      <trkpt lat="45.21778" lon="5.55855">
        <ele>1352</ele>
        <time>2015-11-29T11:00:52.000Z</time>
      </trkpt>
      <trkpt lat="45.21778" lon="5.55855">
        <ele>1352</ele>
        <time>2015-11-29T11:00:54.000Z</time>
      </trkpt>
      <trkpt lat="45.21778" lon="5.55855">
        <ele>1352</ele>
        <time>2015-11-29T11:00:56.000Z</time>
      </trkpt>
      <trkpt lat="45.21778" lon="5.55855">
        <ele>1352</ele>
        <time>2015-11-29T11:00:58.000Z</time>
      </trkpt>
      <trkpt lat="45.21778" lon="5.55855">
        <ele>1352</ele>
        <time>2015-11-29T11:01:00.000Z</time>
      </trkpt>
      <trkpt lat="45.21778" lon="5.55855">
        <ele>1352</ele>
        <time>2015-11-29T11:01:02.000Z</time>
      </trkpt>
      <trkpt lat="45.21811" lon="5.55869">
        <ele>1358</ele>
        <time>2015-11-29T11:01:10.000Z</time>
      </trkpt>
      <trkpt lat="45.21826" lon="5.55877">
        <ele>1353</ele>
        <time>2015-11-29T11:01:14.000Z</time>
      </trkpt>
      <trkpt lat="45.21836" lon="5.55883">
        <ele>1353</ele>
        <time>2015-11-29T11:01:16.000Z</time>
      </trkpt>
      <trkpt lat="45.21847" lon="5.55895">
        <ele>1351</ele>
        <time>2015-11-29T11:01:20.000Z</time>
      </trkpt>
      <trkpt lat="45.21847" lon="5.55895">
        <ele>1351</ele>
        <time>2015-11-29T11:01:22.000Z</time>
      </trkpt>
      <trkpt lat="45.21847" lon="5.55895">
        <ele>1351</ele>
        <time>2015-11-29T11:01:24.000Z</time>
      </trkpt>
      <trkpt lat="45.21869" lon="5.55926">
        <ele>1342</ele>
        <time>2015-11-29T11:01:28.000Z</time>
      </trkpt>
      <trkpt lat="45.21874" lon="5.55937">
        <ele>1340</ele>
        <time>2015-11-29T11:01:30.000Z</time>
      </trkpt>
      <trkpt lat="45.21889" lon="5.5595">
        <ele>1335</ele>
        <time>2015-11-29T11:01:34.000Z</time>
      </trkpt>
      <trkpt lat="45.21901" lon="5.55967">
        <ele>1333</ele>
        <time>2015-11-29T11:01:38.000Z</time>
      </trkpt>
      <trkpt lat="45.21901" lon="5.55967">
        <ele>1333</ele>
        <time>2015-11-29T11:01:40.000Z</time>
      </trkpt>
      <trkpt lat="45.21901" lon="5.55967">
        <ele>1333</ele>
        <time>2015-11-29T11:01:42.000Z</time>
      </trkpt>
      <trkpt lat="45.21901" lon="5.55967">
        <ele>1333</ele>
        <time>2015-11-29T11:01:44.000Z</time>
      </trkpt>
      <trkpt lat="45.21901" lon="5.55967">
        <ele>1333</ele>
        <time>2015-11-29T11:01:46.000Z</time>
      </trkpt>
      <trkpt lat="45.21901" lon="5.55967">
        <ele>1333</ele>
        <time>2015-11-29T11:01:48.000Z</time>
      </trkpt>
      <trkpt lat="45.21901" lon="5.55967">
        <ele>1333</ele>
        <time>2015-11-29T11:01:50.000Z</time>
      </trkpt>
      <trkpt lat="45.21901" lon="5.55967">
        <ele>1333</ele>
        <time>2015-11-29T11:01:52.000Z</time>
      </trkpt>
      <trkpt lat="45.21901" lon="5.55967">
        <ele>1333</ele>
        <time>2015-11-29T11:01:54.000Z</time>
      </trkpt>
      <trkpt lat="45.21921" lon="5.56002">
        <ele>1348</ele>
        <time>2015-11-29T11:02:00.000Z</time>
      </trkpt>
      <trkpt lat="45.21933" lon="5.5602">
        <ele>1348</ele>
        <time>2015-11-29T11:02:02.000Z</time>
      </trkpt>
      <trkpt lat="45.21941" lon="5.56031">
        <ele>1348</ele>
        <time>2015-11-29T11:02:04.000Z</time>
      </trkpt>
      <trkpt lat="45.21947" lon="5.56037">
        <ele>1348</ele>
        <time>2015-11-29T11:02:06.000Z</time>
      </trkpt>
      <trkpt lat="45.21947" lon="5.56037">
        <ele>1348</ele>
        <time>2015-11-29T11:02:08.000Z</time>
      </trkpt>
      <trkpt lat="45.21947" lon="5.56037">
        <ele>1348</ele>
        <time>2015-11-29T11:02:10.000Z</time>
      </trkpt>
      <trkpt lat="45.21947" lon="5.56037">
        <ele>1348</ele>
        <time>2015-11-29T11:02:12.000Z</time>
      </trkpt>
      <trkpt lat="45.21947" lon="5.56037">
        <ele>1348</ele>
        <time>2015-11-29T11:02:14.000Z</time>
      </trkpt>
      <trkpt lat="45.21947" lon="5.56037">
        <ele>1348</ele>
        <time>2015-11-29T11:02:16.000Z</time>
      </trkpt>
      <trkpt lat="45.21947" lon="5.56037">
        <ele>1348</ele>
        <time>2015-11-29T11:02:18.000Z</time>
      </trkpt>
      <trkpt lat="45.21965" lon="5.56049">
        <ele>1347</ele>
        <time>2015-11-29T11:02:24.000Z</time>
      </trkpt>
      <trkpt lat="45.21976" lon="5.56055">
        <ele>1347</ele>
        <time>2015-11-29T11:02:26.000Z</time>
      </trkpt>
      <trkpt lat="45.21982" lon="5.56057">
        <ele>1348</ele>
        <time>2015-11-29T11:02:28.000Z</time>
      </trkpt>
      <trkpt lat="45.21982" lon="5.56057">
        <ele>1348</ele>
        <time>2015-11-29T11:02:30.000Z</time>
      </trkpt>
      <trkpt lat="45.21982" lon="5.56057">
        <ele>1348</ele>
        <time>2015-11-29T11:02:40.000Z</time>
      </trkpt>
      <trkpt lat="45.21982" lon="5.56057">
        <ele>1348</ele>
        <time>2015-11-29T11:02:42.000Z</time>
      </trkpt>
      <trkpt lat="45.21982" lon="5.56057">
        <ele>1348</ele>
        <time>2015-11-29T11:02:44.000Z</time>
      </trkpt>
      <trkpt lat="45.21982" lon="5.56057">
        <ele>1348</ele>
        <time>2015-11-29T11:02:54.000Z</time>
      </trkpt>
      <trkpt lat="45.21986" lon="5.56062">
        <ele>1349</ele>
        <time>2015-11-29T11:02:56.000Z</time>
      </trkpt>
      <trkpt lat="45.2199" lon="5.56066">
        <ele>1349</ele>
        <time>2015-11-29T11:02:58.000Z</time>
      </trkpt>
      <trkpt lat="45.21994" lon="5.5607">
        <ele>1348</ele>
        <time>2015-11-29T11:03:00.000Z</time>
      </trkpt>
      <trkpt lat="45.21998" lon="5.56076">
        <ele>1346</ele>
        <time>2015-11-29T11:03:02.000Z</time>
      </trkpt>
      <trkpt lat="45.22001" lon="5.56081">
        <ele>1344</ele>
        <time>2015-11-29T11:03:04.000Z</time>
      </trkpt>
      <trkpt lat="45.22013" lon="5.56088">
        <ele>1343</ele>
        <time>2015-11-29T11:03:08.000Z</time>
      </trkpt>
      <trkpt lat="45.22013" lon="5.56088">
        <ele>1343</ele>
        <time>2015-11-29T11:03:10.000Z</time>
      </trkpt>
      <trkpt lat="45.22013" lon="5.56088">
        <ele>1343</ele>
        <time>2015-11-29T11:03:12.000Z</time>
      </trkpt>
      <trkpt lat="45.22013" lon="5.56088">
        <ele>1343</ele>
        <time>2015-11-29T11:03:14.000Z</time>
      </trkpt>
      <trkpt lat="45.22037" lon="5.56109">
        <ele>1316</ele>
        <time>2015-11-29T11:03:20.000Z</time>
      </trkpt>
      <trkpt lat="45.22047" lon="5.56121">
        <ele>1317</ele>
        <time>2015-11-29T11:03:24.000Z</time>
      </trkpt>
      <trkpt lat="45.22047" lon="5.56121">
        <ele>1317</ele>
        <time>2015-11-29T11:03:26.000Z</time>
      </trkpt>
      <trkpt lat="45.22047" lon="5.56121">
        <ele>1317</ele>
        <time>2015-11-29T11:03:28.000Z</time>
      </trkpt>
      <trkpt lat="45.22047" lon="5.56121">
        <ele>1317</ele>
        <time>2015-11-29T11:03:30.000Z</time>
      </trkpt>
      <trkpt lat="45.22088" lon="5.56173">
        <ele>1336</ele>
        <time>2015-11-29T11:03:40.000Z</time>
      </trkpt>
      <trkpt lat="45.22088" lon="5.56173">
        <ele>1336</ele>
        <time>2015-11-29T11:03:44.000Z</time>
      </trkpt>
      <trkpt lat="45.22088" lon="5.56173">
        <ele>1336</ele>
        <time>2015-11-29T11:03:46.000Z</time>
      </trkpt>
      <trkpt lat="45.22088" lon="5.56173">
        <ele>1336</ele>
        <time>2015-11-29T11:03:48.000Z</time>
      </trkpt>
      <trkpt lat="45.22088" lon="5.56173">
        <ele>1336</ele>
        <time>2015-11-29T11:03:50.000Z</time>
      </trkpt>
      <trkpt lat="45.22088" lon="5.56173">
        <ele>1336</ele>
        <time>2015-11-29T11:03:52.000Z</time>
      </trkpt>
      <trkpt lat="45.22099" lon="5.56203">
        <ele>1324</ele>
        <time>2015-11-29T11:03:56.000Z</time>
      </trkpt>
      <trkpt lat="45.221" lon="5.56222">
        <ele>1321</ele>
        <time>2015-11-29T11:04:00.000Z</time>
      </trkpt>
      <trkpt lat="45.22101" lon="5.56244">
        <ele>1319</ele>
        <time>2015-11-29T11:04:04.000Z</time>
      </trkpt>
      <trkpt lat="45.22105" lon="5.56278">
        <ele>1318</ele>
        <time>2015-11-29T11:04:08.000Z</time>
      </trkpt>
      <trkpt lat="45.22108" lon="5.56306">
        <ele>1324</ele>
        <time>2015-11-29T11:04:12.000Z</time>
      </trkpt>
      <trkpt lat="45.22108" lon="5.56306">
        <ele>1324</ele>
        <time>2015-11-29T11:04:14.000Z</time>
      </trkpt>
      <trkpt lat="45.22108" lon="5.56306">
        <ele>1324</ele>
        <time>2015-11-29T11:04:16.000Z</time>
      </trkpt>
      <trkpt lat="45.22108" lon="5.56306">
        <ele>1324</ele>
        <time>2015-11-29T11:04:18.000Z</time>
      </trkpt>
      <trkpt lat="45.22108" lon="5.56306">
        <ele>1324</ele>
        <time>2015-11-29T11:04:20.000Z</time>
      </trkpt>
      <trkpt lat="45.22108" lon="5.56306">
        <ele>1324</ele>
        <time>2015-11-29T11:04:22.000Z</time>
      </trkpt>
      <trkpt lat="45.22108" lon="5.56306">
        <ele>1324</ele>
        <time>2015-11-29T11:04:24.000Z</time>
      </trkpt>
      <trkpt lat="45.22108" lon="5.56306">
        <ele>1324</ele>
        <time>2015-11-29T11:04:30.000Z</time>
      </trkpt>
      <trkpt lat="45.22108" lon="5.56306">
        <ele>1324</ele>
        <time>2015-11-29T11:04:32.000Z</time>
      </trkpt>
      <trkpt lat="45.22124" lon="5.56346">
        <ele>1340</ele>
        <time>2015-11-29T11:04:36.000Z</time>
      </trkpt>
      <trkpt lat="45.22124" lon="5.56346">
        <ele>1340</ele>
        <time>2015-11-29T11:04:38.000Z</time>
      </trkpt>
      <trkpt lat="45.22124" lon="5.56346">
        <ele>1340</ele>
        <time>2015-11-29T11:04:40.000Z</time>
      </trkpt>
      <trkpt lat="45.22124" lon="5.56346">
        <ele>1340</ele>
        <time>2015-11-29T11:04:44.000Z</time>
      </trkpt>
      <trkpt lat="45.22129" lon="5.56387">
        <ele>1351</ele>
        <time>2015-11-29T11:04:50.000Z</time>
      </trkpt>
      <trkpt lat="45.2213" lon="5.56409">
        <ele>1353</ele>
        <time>2015-11-29T11:04:52.000Z</time>
      </trkpt>
      <trkpt lat="45.2213" lon="5.56409">
        <ele>1353</ele>
        <time>2015-11-29T11:04:54.000Z</time>
      </trkpt>
      <trkpt lat="45.2213" lon="5.56426">
        <ele>1357</ele>
        <time>2015-11-29T11:04:58.000Z</time>
      </trkpt>
      <trkpt lat="45.2213" lon="5.56426">
        <ele>1357</ele>
        <time>2015-11-29T11:05:00.000Z</time>
      </trkpt>
      <trkpt lat="45.2213" lon="5.56426">
        <ele>1357</ele>
        <time>2015-11-29T11:05:02.000Z</time>
      </trkpt>
      <trkpt lat="45.2213" lon="5.56426">
        <ele>1357</ele>
        <time>2015-11-29T11:05:04.000Z</time>
      </trkpt>
      <trkpt lat="45.2213" lon="5.56426">
        <ele>1357</ele>
        <time>2015-11-29T11:05:06.000Z</time>
      </trkpt>
      <trkpt lat="45.2213" lon="5.56426">
        <ele>1357</ele>
        <time>2015-11-29T11:05:08.000Z</time>
      </trkpt>
      <trkpt lat="45.22132" lon="5.56451">
        <ele>1360</ele>
        <time>2015-11-29T11:05:24.000Z</time>
      </trkpt>
      <trkpt lat="45.22134" lon="5.56465">
        <ele>1357</ele>
        <time>2015-11-29T11:05:26.000Z</time>
      </trkpt>
      <trkpt lat="45.22134" lon="5.56465">
        <ele>1357</ele>
        <time>2015-11-29T11:05:28.000Z</time>
      </trkpt>
      <trkpt lat="45.22134" lon="5.56465">
        <ele>1357</ele>
        <time>2015-11-29T11:05:30.000Z</time>
      </trkpt>
      <trkpt lat="45.22136" lon="5.56489">
        <ele>1347</ele>
        <time>2015-11-29T11:05:46.000Z</time>
      </trkpt>
      <trkpt lat="45.22136" lon="5.56489">
        <ele>1347</ele>
        <time>2015-11-29T11:05:48.000Z</time>
      </trkpt>
      <trkpt lat="45.22137" lon="5.56508">
        <ele>1350</ele>
        <time>2015-11-29T11:05:50.000Z</time>
      </trkpt>
      <trkpt lat="45.22138" lon="5.56518">
        <ele>1352</ele>
        <time>2015-11-29T11:05:52.000Z</time>
      </trkpt>
      <trkpt lat="45.22138" lon="5.56518">
        <ele>1352</ele>
        <time>2015-11-29T11:05:54.000Z</time>
      </trkpt>
      <trkpt lat="45.22138" lon="5.56518">
        <ele>1352</ele>
        <time>2015-11-29T11:05:56.000Z</time>
      </trkpt>
      <trkpt lat="45.22138" lon="5.56518">
        <ele>1352</ele>
        <time>2015-11-29T11:06:00.000Z</time>
      </trkpt>
      <trkpt lat="45.22138" lon="5.56518">
        <ele>1352</ele>
        <time>2015-11-29T11:06:02.000Z</time>
      </trkpt>
      <trkpt lat="45.22136" lon="5.56538">
        <ele>1356</ele>
        <time>2015-11-29T11:06:10.000Z</time>
      </trkpt>
      <trkpt lat="45.22134" lon="5.56549">
        <ele>1355</ele>
        <time>2015-11-29T11:06:12.000Z</time>
      </trkpt>
      <trkpt lat="45.22131" lon="5.56556">
        <ele>1355</ele>
        <time>2015-11-29T11:06:14.000Z</time>
      </trkpt>
      <trkpt lat="45.22131" lon="5.56556">
        <ele>1355</ele>
        <time>2015-11-29T11:06:16.000Z</time>
      </trkpt>
      <trkpt lat="45.22131" lon="5.56556">
        <ele>1355</ele>
        <time>2015-11-29T11:06:18.000Z</time>
      </trkpt>
      <trkpt lat="45.22116" lon="5.56581">
        <ele>1362</ele>
        <time>2015-11-29T11:09:26.000Z</time>
      </trkpt>
      <trkpt lat="45.22107" lon="5.56591">
        <ele>1362</ele>
        <time>2015-11-29T11:09:28.000Z</time>
      </trkpt>
      <trkpt lat="45.221" lon="5.56593">
        <ele>1367</ele>
        <time>2015-11-29T11:09:30.000Z</time>
      </trkpt>
      <trkpt lat="45.22095" lon="5.56591">
        <ele>1368</ele>
        <time>2015-11-29T11:09:32.000Z</time>
      </trkpt>
      <trkpt lat="45.2209" lon="5.56587">
        <ele>1364</ele>
        <time>2015-11-29T11:09:34.000Z</time>
      </trkpt>
      <trkpt lat="45.2209" lon="5.56587">
        <ele>1364</ele>
        <time>2015-11-29T11:09:36.000Z</time>
      </trkpt>
      <trkpt lat="45.2209" lon="5.56587">
        <ele>1364</ele>
        <time>2015-11-29T11:09:38.000Z</time>
      </trkpt>
      <trkpt lat="45.2209" lon="5.56587">
        <ele>1364</ele>
        <time>2015-11-29T11:09:40.000Z</time>
      </trkpt>
      <trkpt lat="45.2209" lon="5.56587">
        <ele>1364</ele>
        <time>2015-11-29T11:09:42.000Z</time>
      </trkpt>
      <trkpt lat="45.22078" lon="5.56556">
        <ele>1364</ele>
        <time>2015-11-29T11:09:44.000Z</time>
      </trkpt>
      <trkpt lat="45.22075" lon="5.56531">
        <ele>1364</ele>
        <time>2015-11-29T11:09:50.000Z</time>
      </trkpt>
      <trkpt lat="45.22012" lon="5.56404">
        <ele>1365</ele>
        <time>2015-11-29T11:09:59.000Z</time>
      </trkpt>
      <trkpt lat="45.21994" lon="5.5638">
        <ele>1361</ele>
        <time>2015-11-29T11:10:01.000Z</time>
      </trkpt>
      <trkpt lat="45.21983" lon="5.56346">
        <ele>1361</ele>
        <time>2015-11-29T11:10:03.000Z</time>
      </trkpt>
      <trkpt lat="45.21983" lon="5.56346">
        <ele>1361</ele>
        <time>2015-11-29T11:10:09.000Z</time>
      </trkpt>
      <trkpt lat="45.21943" lon="5.56276">
        <ele>1361</ele>
        <time>2015-11-29T11:10:13.000Z</time>
      </trkpt>
      <trkpt lat="45.21936" lon="5.56264">
        <ele>1361</ele>
        <time>2015-11-29T11:10:15.000Z</time>
      </trkpt>
      <trkpt lat="45.21923" lon="5.5625">
        <ele>1356</ele>
        <time>2015-11-29T11:10:17.000Z</time>
      </trkpt>
      <trkpt lat="45.21915" lon="5.56227">
        <ele>1356</ele>
        <time>2015-11-29T11:10:19.000Z</time>
      </trkpt>
      <trkpt lat="45.21905" lon="5.56204">
        <ele>1347</ele>
        <time>2015-11-29T11:10:23.000Z</time>
      </trkpt>
      <trkpt lat="45.21905" lon="5.56204">
        <ele>1347</ele>
        <time>2015-11-29T11:10:25.000Z</time>
      </trkpt>
      <trkpt lat="45.2189" lon="5.56176">
        <ele>1346</ele>
        <time>2015-11-29T11:10:27.000Z</time>
      </trkpt>
      <trkpt lat="45.2189" lon="5.56176">
        <ele>1346</ele>
        <time>2015-11-29T11:10:29.000Z</time>
      </trkpt>
      <trkpt lat="45.2189" lon="5.56176">
        <ele>1346</ele>
        <time>2015-11-29T11:10:31.000Z</time>
      </trkpt>
      <trkpt lat="45.2189" lon="5.56176">
        <ele>1346</ele>
        <time>2015-11-29T11:10:33.000Z</time>
      </trkpt>
      <trkpt lat="45.2189" lon="5.56176">
        <ele>1346</ele>
        <time>2015-11-29T11:10:39.000Z</time>
      </trkpt>
      <trkpt lat="45.2189" lon="5.56176">
        <ele>1346</ele>
        <time>2015-11-29T11:10:41.000Z</time>
      </trkpt>
      <trkpt lat="45.2189" lon="5.56176">
        <ele>1346</ele>
        <time>2015-11-29T11:10:43.000Z</time>
      </trkpt>
      <trkpt lat="45.2189" lon="5.56176">
        <ele>1346</ele>
        <time>2015-11-29T11:10:45.000Z</time>
      </trkpt>
      <trkpt lat="45.2189" lon="5.56176">
        <ele>1346</ele>
        <time>2015-11-29T11:10:47.000Z</time>
      </trkpt>
      <trkpt lat="45.2189" lon="5.56176">
        <ele>1346</ele>
        <time>2015-11-29T11:10:49.000Z</time>
      </trkpt>
      <trkpt lat="45.2189" lon="5.56176">
        <ele>1346</ele>
        <time>2015-11-29T11:10:57.000Z</time>
      </trkpt>
      <trkpt lat="45.2189" lon="5.56176">
        <ele>1346</ele>
        <time>2015-11-29T11:10:59.000Z</time>
      </trkpt>
      <trkpt lat="45.2189" lon="5.56176">
        <ele>1346</ele>
        <time>2015-11-29T11:11:01.000Z</time>
      </trkpt>
      <trkpt lat="45.21827" lon="5.56104">
        <ele>1337</ele>
        <time>2015-11-29T11:11:11.000Z</time>
      </trkpt>
      <trkpt lat="45.21791" lon="5.56067">
        <ele>1338</ele>
        <time>2015-11-29T11:11:13.000Z</time>
      </trkpt>
      <trkpt lat="45.21791" lon="5.56067">
        <ele>1338</ele>
        <time>2015-11-29T11:11:15.000Z</time>
      </trkpt>
      <trkpt lat="45.21791" lon="5.56067">
        <ele>1338</ele>
        <time>2015-11-29T11:11:17.000Z</time>
      </trkpt>
      <trkpt lat="45.21791" lon="5.56067">
        <ele>1338</ele>
        <time>2015-11-29T11:11:19.000Z</time>
      </trkpt>
      <trkpt lat="45.21791" lon="5.56067">
        <ele>1338</ele>
        <time>2015-11-29T11:11:21.000Z</time>
      </trkpt>
      <trkpt lat="45.21791" lon="5.56067">
        <ele>1338</ele>
        <time>2015-11-29T11:11:23.000Z</time>
      </trkpt>
      <trkpt lat="45.21791" lon="5.56067">
        <ele>1338</ele>
        <time>2015-11-29T11:11:25.000Z</time>
      </trkpt>
      <trkpt lat="45.21791" lon="5.56067">
        <ele>1338</ele>
        <time>2015-11-29T11:11:27.000Z</time>
      </trkpt>
      <trkpt lat="45.21791" lon="5.56067">
        <ele>1338</ele>
        <time>2015-11-29T11:11:31.000Z</time>
      </trkpt>
      <trkpt lat="45.21791" lon="5.56067">
        <ele>1338</ele>
        <time>2015-11-29T11:11:33.000Z</time>
      </trkpt>
      <trkpt lat="45.21791" lon="5.56067">
        <ele>1338</ele>
        <time>2015-11-29T11:11:35.000Z</time>
      </trkpt>
      <trkpt lat="45.21791" lon="5.56067">
        <ele>1338</ele>
        <time>2015-11-29T11:11:37.000Z</time>
      </trkpt>
      <trkpt lat="45.21742" lon="5.56048">
        <ele>1325</ele>
        <time>2015-11-29T11:11:47.000Z</time>
      </trkpt>
      <trkpt lat="45.21715" lon="5.56039">
        <ele>1323</ele>
        <time>2015-11-29T11:11:49.000Z</time>
      </trkpt>
      <trkpt lat="45.21699" lon="5.56035">
        <ele>1326</ele>
        <time>2015-11-29T11:11:51.000Z</time>
      </trkpt>
      <trkpt lat="45.21688" lon="5.56033">
        <ele>1327</ele>
        <time>2015-11-29T11:11:53.000Z</time>
      </trkpt>
      <trkpt lat="45.21679" lon="5.56032">
        <ele>1326</ele>
        <time>2015-11-29T11:11:55.000Z</time>
      </trkpt>
      <trkpt lat="45.21664" lon="5.5603">
        <ele>1329</ele>
        <time>2015-11-29T11:11:57.000Z</time>
      </trkpt>
      <trkpt lat="45.21653" lon="5.56029">
        <ele>1334</ele>
        <time>2015-11-29T11:11:59.000Z</time>
      </trkpt>
      <trkpt lat="45.21631" lon="5.56026">
        <ele>1338</ele>
        <time>2015-11-29T11:12:02.000Z</time>
      </trkpt>
      <trkpt lat="45.21621" lon="5.56027">
        <ele>1338</ele>
        <time>2015-11-29T11:12:04.000Z</time>
      </trkpt>
      <trkpt lat="45.21609" lon="5.56028">
        <ele>1340</ele>
        <time>2015-11-29T11:12:06.000Z</time>
      </trkpt>
      <trkpt lat="45.21597" lon="5.56031">
        <ele>1341</ele>
        <time>2015-11-29T11:12:08.000Z</time>
      </trkpt>
      <trkpt lat="45.21586" lon="5.56033">
        <ele>1342</ele>
        <time>2015-11-29T11:12:10.000Z</time>
      </trkpt>
      <trkpt lat="45.2158" lon="5.56044">
        <ele>1337</ele>
        <time>2015-11-29T11:12:12.000Z</time>
      </trkpt>
      <trkpt lat="45.21573" lon="5.56055">
        <ele>1334</ele>
        <time>2015-11-29T11:12:14.000Z</time>
      </trkpt>
      <trkpt lat="45.21569" lon="5.56069">
        <ele>1329</ele>
        <time>2015-11-29T11:12:16.000Z</time>
      </trkpt>
      <trkpt lat="45.21569" lon="5.56069">
        <ele>1329</ele>
        <time>2015-11-29T11:12:18.000Z</time>
      </trkpt>
      <trkpt lat="45.21569" lon="5.56069">
        <ele>1329</ele>
        <time>2015-11-29T11:12:20.000Z</time>
      </trkpt>
      <trkpt lat="45.21569" lon="5.56069">
        <ele>1329</ele>
        <time>2015-11-29T11:12:22.000Z</time>
      </trkpt>
      <trkpt lat="45.21569" lon="5.56069">
        <ele>1329</ele>
        <time>2015-11-29T11:12:24.000Z</time>
      </trkpt>
      <trkpt lat="45.21569" lon="5.56069">
        <ele>1329</ele>
        <time>2015-11-29T11:12:26.000Z</time>
      </trkpt>
      <trkpt lat="45.21569" lon="5.56069">
        <ele>1329</ele>
        <time>2015-11-29T11:12:28.000Z</time>
      </trkpt>
      <trkpt lat="45.21569" lon="5.56069">
        <ele>1329</ele>
        <time>2015-11-29T11:12:30.000Z</time>
      </trkpt>
      <trkpt lat="45.21569" lon="5.56069">
        <ele>1329</ele>
        <time>2015-11-29T11:12:32.000Z</time>
      </trkpt>
      <trkpt lat="45.21549" lon="5.56142">
        <ele>1329</ele>
        <time>2015-11-29T11:13:08.000Z</time>
      </trkpt>
      <trkpt lat="45.21556" lon="5.56154">
        <ele>1333</ele>
        <time>2015-11-29T11:13:12.000Z</time>
      </trkpt>
      <trkpt lat="45.21556" lon="5.56154">
        <ele>1333</ele>
        <time>2015-11-29T11:13:14.000Z</time>
      </trkpt>
      <trkpt lat="45.21566" lon="5.56157">
        <ele>1338</ele>
        <time>2015-11-29T11:13:16.000Z</time>
      </trkpt>
      <trkpt lat="45.21566" lon="5.56157">
        <ele>1338</ele>
        <time>2015-11-29T11:13:18.000Z</time>
      </trkpt>
      <trkpt lat="45.21566" lon="5.56157">
        <ele>1338</ele>
        <time>2015-11-29T11:13:20.000Z</time>
      </trkpt>
      <trkpt lat="45.21566" lon="5.56157">
        <ele>1338</ele>
        <time>2015-11-29T11:13:22.000Z</time>
      </trkpt>
      <trkpt lat="45.21566" lon="5.56157">
        <ele>1338</ele>
        <time>2015-11-29T11:13:24.000Z</time>
      </trkpt>
      <trkpt lat="45.21566" lon="5.56157">
        <ele>1338</ele>
        <time>2015-11-29T11:13:26.000Z</time>
      </trkpt>
      <trkpt lat="45.21566" lon="5.56157">
        <ele>1338</ele>
        <time>2015-11-29T11:13:30.000Z</time>
      </trkpt>
      <trkpt lat="45.2158" lon="5.56149">
        <ele>1339</ele>
        <time>2015-11-29T11:13:34.000Z</time>
      </trkpt>
      <trkpt lat="45.21588" lon="5.56142">
        <ele>1339</ele>
        <time>2015-11-29T11:13:36.000Z</time>
      </trkpt>
      <trkpt lat="45.21594" lon="5.56138">
        <ele>1335</ele>
        <time>2015-11-29T11:13:38.000Z</time>
      </trkpt>
      <trkpt lat="45.21598" lon="5.56134">
        <ele>1334</ele>
        <time>2015-11-29T11:13:40.000Z</time>
      </trkpt>
      <trkpt lat="45.21602" lon="5.56132">
        <ele>1333</ele>
        <time>2015-11-29T11:13:42.000Z</time>
      </trkpt>
      <trkpt lat="45.21602" lon="5.56132">
        <ele>1333</ele>
        <time>2015-11-29T11:13:46.000Z</time>
      </trkpt>
      <trkpt lat="45.21602" lon="5.56132">
        <ele>1333</ele>
        <time>2015-11-29T11:13:48.000Z</time>
      </trkpt>
      <trkpt lat="45.21602" lon="5.56132">
        <ele>1333</ele>
        <time>2015-11-29T11:13:50.000Z</time>
      </trkpt>
      <trkpt lat="45.21633" lon="5.56119">
        <ele>1328</ele>
        <time>2015-11-29T11:13:54.000Z</time>
      </trkpt>
      <trkpt lat="45.21645" lon="5.56103">
        <ele>1328</ele>
        <time>2015-11-29T11:13:58.000Z</time>
      </trkpt>
      <trkpt lat="45.21654" lon="5.56097">
        <ele>1328</ele>
        <time>2015-11-29T11:14:00.000Z</time>
      </trkpt>
      <trkpt lat="45.21663" lon="5.56091">
        <ele>1328</ele>
        <time>2015-11-29T11:14:02.000Z</time>
      </trkpt>
      <trkpt lat="45.21672" lon="5.56084">
        <ele>1331</ele>
        <time>2015-11-29T11:14:04.000Z</time>
      </trkpt>
      <trkpt lat="45.2168" lon="5.56078">
        <ele>1334</ele>
        <time>2015-11-29T11:14:06.000Z</time>
      </trkpt>
      <trkpt lat="45.2169" lon="5.56075">
        <ele>1336</ele>
        <time>2015-11-29T11:14:08.000Z</time>
      </trkpt>
      <trkpt lat="45.2169" lon="5.56075">
        <ele>1336</ele>
        <time>2015-11-29T11:14:10.000Z</time>
      </trkpt>
      <trkpt lat="45.2169" lon="5.56075">
        <ele>1336</ele>
        <time>2015-11-29T11:14:12.000Z</time>
      </trkpt>
      <trkpt lat="45.2169" lon="5.56075">
        <ele>1336</ele>
        <time>2015-11-29T11:14:14.000Z</time>
      </trkpt>
      <trkpt lat="45.2169" lon="5.56075">
        <ele>1336</ele>
        <time>2015-11-29T11:14:16.000Z</time>
      </trkpt>
      <trkpt lat="45.21734" lon="5.56063">
        <ele>1335</ele>
        <time>2015-11-29T11:14:24.000Z</time>
      </trkpt>
      <trkpt lat="45.21745" lon="5.56065">
        <ele>1331</ele>
        <time>2015-11-29T11:14:26.000Z</time>
      </trkpt>
      <trkpt lat="45.21778" lon="5.56093">
        <ele>1333</ele>
        <time>2015-11-29T11:14:30.000Z</time>
      </trkpt>
      <trkpt lat="45.21792" lon="5.56116">
        <ele>1337</ele>
        <time>2015-11-29T11:14:34.000Z</time>
      </trkpt>
      <trkpt lat="45.21792" lon="5.56116">
        <ele>1337</ele>
        <time>2015-11-29T11:14:36.000Z</time>
      </trkpt>
      <trkpt lat="45.21792" lon="5.56116">
        <ele>1337</ele>
        <time>2015-11-29T11:14:38.000Z</time>
      </trkpt>
      <trkpt lat="45.21792" lon="5.56116">
        <ele>1337</ele>
        <time>2015-11-29T11:14:46.000Z</time>
      </trkpt>
      <trkpt lat="45.21792" lon="5.56116">
        <ele>1337</ele>
        <time>2015-11-29T11:14:48.000Z</time>
      </trkpt>
      <trkpt lat="45.21792" lon="5.56116">
        <ele>1337</ele>
        <time>2015-11-29T11:14:50.000Z</time>
      </trkpt>
      <trkpt lat="45.21792" lon="5.56116">
        <ele>1337</ele>
        <time>2015-11-29T11:14:54.000Z</time>
      </trkpt>
      <trkpt lat="45.21792" lon="5.56116">
        <ele>1337</ele>
        <time>2015-11-29T11:14:56.000Z</time>
      </trkpt>
      <trkpt lat="45.21792" lon="5.56116">
        <ele>1337</ele>
        <time>2015-11-29T11:14:58.000Z</time>
      </trkpt>
      <trkpt lat="45.21792" lon="5.56116">
        <ele>1337</ele>
        <time>2015-11-29T11:15:06.000Z</time>
      </trkpt>
      <trkpt lat="45.21792" lon="5.56116">
        <ele>1337</ele>
        <time>2015-11-29T11:15:08.000Z</time>
      </trkpt>
      <trkpt lat="45.21792" lon="5.56116">
        <ele>1337</ele>
        <time>2015-11-29T11:15:10.000Z</time>
      </trkpt>
      <trkpt lat="45.21792" lon="5.56116">
        <ele>1337</ele>
        <time>2015-11-29T11:15:12.000Z</time>
      </trkpt>
      <trkpt lat="45.21792" lon="5.56116">
        <ele>1337</ele>
        <time>2015-11-29T11:15:14.000Z</time>
      </trkpt>
      <trkpt lat="45.21837" lon="5.56163">
        <ele>1341</ele>
        <time>2015-11-29T11:15:18.000Z</time>
      </trkpt>
      <trkpt lat="45.21856" lon="5.56184">
        <ele>1342</ele>
        <time>2015-11-29T11:15:20.000Z</time>
      </trkpt>
      <trkpt lat="45.21863" lon="5.56193">
        <ele>1341</ele>
        <time>2015-11-29T11:15:22.000Z</time>
      </trkpt>
      <trkpt lat="45.21857" lon="5.56194">
        <ele>1338</ele>
        <time>2015-11-29T11:15:28.000Z</time>
      </trkpt>
      <trkpt lat="45.21851" lon="5.56193">
        <ele>1336</ele>
        <time>2015-11-29T11:15:30.000Z</time>
      </trkpt>
      <trkpt lat="45.21851" lon="5.56193">
        <ele>1336</ele>
        <time>2015-11-29T11:15:32.000Z</time>
      </trkpt>
      <trkpt lat="45.21851" lon="5.56193">
        <ele>1336</ele>
        <time>2015-11-29T11:15:34.000Z</time>
      </trkpt>
      <trkpt lat="45.21851" lon="5.56193">
        <ele>1336</ele>
        <time>2015-11-29T11:15:36.000Z</time>
      </trkpt>
      <trkpt lat="45.21836" lon="5.56189">
        <ele>1344</ele>
        <time>2015-11-29T11:15:42.000Z</time>
      </trkpt>
      <trkpt lat="45.21827" lon="5.56185">
        <ele>1345</ele>
        <time>2015-11-29T11:15:44.000Z</time>
      </trkpt>
      <trkpt lat="45.2182" lon="5.56183">
        <ele>1345</ele>
        <time>2015-11-29T11:15:46.000Z</time>
      </trkpt>
      <trkpt lat="45.21815" lon="5.56181">
        <ele>1341</ele>
        <time>2015-11-29T11:15:48.000Z</time>
      </trkpt>
      <trkpt lat="45.21815" lon="5.56181">
        <ele>1341</ele>
        <time>2015-11-29T11:15:50.000Z</time>
      </trkpt>
      <trkpt lat="45.21806" lon="5.56177">
        <ele>1343</ele>
        <time>2015-11-29T11:15:54.000Z</time>
      </trkpt>
      <trkpt lat="45.21799" lon="5.56172">
        <ele>1345</ele>
        <time>2015-11-29T11:15:56.000Z</time>
      </trkpt>
      <trkpt lat="45.21792" lon="5.56167">
        <ele>1346</ele>
        <time>2015-11-29T11:15:58.000Z</time>
      </trkpt>
      <trkpt lat="45.21785" lon="5.56161">
        <ele>1346</ele>
        <time>2015-11-29T11:16:00.000Z</time>
      </trkpt>
      <trkpt lat="45.2178" lon="5.56155">
        <ele>1346</ele>
        <time>2015-11-29T11:16:02.000Z</time>
      </trkpt>
      <trkpt lat="45.21773" lon="5.56146">
        <ele>1347</ele>
        <time>2015-11-29T11:16:04.000Z</time>
      </trkpt>
      <trkpt lat="45.21773" lon="5.56146">
        <ele>1347</ele>
        <time>2015-11-29T11:16:06.000Z</time>
      </trkpt>
      <trkpt lat="45.21749" lon="5.56126">
        <ele>1343</ele>
        <time>2015-11-29T11:16:14.000Z</time>
      </trkpt>
      <trkpt lat="45.21739" lon="5.5612">
        <ele>1343</ele>
        <time>2015-11-29T11:16:18.000Z</time>
      </trkpt>
      <trkpt lat="45.21739" lon="5.5612">
        <ele>1343</ele>
        <time>2015-11-29T11:16:20.000Z</time>
      </trkpt>
      <trkpt lat="45.21739" lon="5.5612">
        <ele>1343</ele>
        <time>2015-11-29T11:16:22.000Z</time>
      </trkpt>
      <trkpt lat="45.21739" lon="5.5612">
        <ele>1343</ele>
        <time>2015-11-29T11:16:24.000Z</time>
      </trkpt>
      <trkpt lat="45.21739" lon="5.5612">
        <ele>1343</ele>
        <time>2015-11-29T11:16:26.000Z</time>
      </trkpt>
      <trkpt lat="45.21716" lon="5.56128">
        <ele>1341</ele>
        <time>2015-11-29T11:16:30.000Z</time>
      </trkpt>
      <trkpt lat="45.21703" lon="5.56126">
        <ele>1344</ele>
        <time>2015-11-29T11:16:34.000Z</time>
      </trkpt>
      <trkpt lat="45.21688" lon="5.56131">
        <ele>1343</ele>
        <time>2015-11-29T11:16:38.000Z</time>
      </trkpt>
      <trkpt lat="45.21673" lon="5.5613">
        <ele>1346</ele>
        <time>2015-11-29T11:16:42.000Z</time>
      </trkpt>
      <trkpt lat="45.2166" lon="5.56128">
        <ele>1343</ele>
        <time>2015-11-29T11:16:46.000Z</time>
      </trkpt>
      <trkpt lat="45.2166" lon="5.56128">
        <ele>1343</ele>
        <time>2015-11-29T11:16:48.000Z</time>
      </trkpt>
      <trkpt lat="45.2166" lon="5.56128">
        <ele>1343</ele>
        <time>2015-11-29T11:16:50.000Z</time>
      </trkpt>
      <trkpt lat="45.21637" lon="5.56161">
        <ele>1349</ele>
        <time>2015-11-29T11:16:58.000Z</time>
      </trkpt>
      <trkpt lat="45.21639" lon="5.56181">
        <ele>1341</ele>
        <time>2015-11-29T11:17:02.000Z</time>
      </trkpt>
      <trkpt lat="45.21639" lon="5.56181">
        <ele>1341</ele>
        <time>2015-11-29T11:17:06.000Z</time>
      </trkpt>
      <trkpt lat="45.21639" lon="5.56181">
        <ele>1341</ele>
        <time>2015-11-29T11:17:08.000Z</time>
      </trkpt>
      <trkpt lat="45.21639" lon="5.56181">
        <ele>1341</ele>
        <time>2015-11-29T11:17:10.000Z</time>
      </trkpt>
      <trkpt lat="45.21639" lon="5.56181">
        <ele>1341</ele>
        <time>2015-11-29T11:17:12.000Z</time>
      </trkpt>
      <trkpt lat="45.21671" lon="5.56196">
        <ele>1347</ele>
        <time>2015-11-29T11:17:20.000Z</time>
      </trkpt>
      <trkpt lat="45.21679" lon="5.56186">
        <ele>1353</ele>
        <time>2015-11-29T11:17:24.000Z</time>
      </trkpt>
      <trkpt lat="45.21685" lon="5.56182">
        <ele>1356</ele>
        <time>2015-11-29T11:17:28.000Z</time>
      </trkpt>
      <trkpt lat="45.2169" lon="5.56178">
        <ele>1356</ele>
        <time>2015-11-29T11:17:30.000Z</time>
      </trkpt>
      <trkpt lat="45.21695" lon="5.56175">
        <ele>1353</ele>
        <time>2015-11-29T11:17:32.000Z</time>
      </trkpt>
      <trkpt lat="45.217" lon="5.56173">
        <ele>1355</ele>
        <time>2015-11-29T11:17:34.000Z</time>
      </trkpt>
      <trkpt lat="45.21705" lon="5.56171">
        <ele>1356</ele>
        <time>2015-11-29T11:17:36.000Z</time>
      </trkpt>
      <trkpt lat="45.21716" lon="5.56171">
        <ele>1354</ele>
        <time>2015-11-29T11:17:38.000Z</time>
      </trkpt>
      <trkpt lat="45.21716" lon="5.56171">
        <ele>1354</ele>
        <time>2015-11-29T11:17:40.000Z</time>
      </trkpt>
      <trkpt lat="45.21716" lon="5.56171">
        <ele>1354</ele>
        <time>2015-11-29T11:17:42.000Z</time>
      </trkpt>
      <trkpt lat="45.21736" lon="5.56191">
        <ele>1351</ele>
        <time>2015-11-29T11:17:48.000Z</time>
      </trkpt>
      <trkpt lat="45.21747" lon="5.56199">
        <ele>1348</ele>
        <time>2015-11-29T11:17:52.000Z</time>
      </trkpt>
      <trkpt lat="45.21758" lon="5.5621">
        <ele>1348</ele>
        <time>2015-11-29T11:17:56.000Z</time>
      </trkpt>
      <trkpt lat="45.21766" lon="5.56218">
        <ele>1347</ele>
        <time>2015-11-29T11:18:00.000Z</time>
      </trkpt>
      <trkpt lat="45.21766" lon="5.56218">
        <ele>1347</ele>
        <time>2015-11-29T11:18:02.000Z</time>
      </trkpt>
      <trkpt lat="45.21766" lon="5.56218">
        <ele>1347</ele>
        <time>2015-11-29T11:18:04.000Z</time>
      </trkpt>
      <trkpt lat="45.21766" lon="5.56218">
        <ele>1347</ele>
        <time>2015-11-29T11:18:10.000Z</time>
      </trkpt>
      <trkpt lat="45.21777" lon="5.56266">
        <ele>1339</ele>
        <time>2015-11-29T11:18:14.000Z</time>
      </trkpt>
      <trkpt lat="45.21765" lon="5.56282">
        <ele>1338</ele>
        <time>2015-11-29T11:18:18.000Z</time>
      </trkpt>
      <trkpt lat="45.21749" lon="5.56284">
        <ele>1342</ele>
        <time>2015-11-29T11:18:22.000Z</time>
      </trkpt>
      <trkpt lat="45.21737" lon="5.56273">
        <ele>1340</ele>
        <time>2015-11-29T11:18:26.000Z</time>
      </trkpt>
      <trkpt lat="45.21719" lon="5.56264">
        <ele>1343</ele>
        <time>2015-11-29T11:18:30.000Z</time>
      </trkpt>
      <trkpt lat="45.21695" lon="5.56253">
        <ele>1344</ele>
        <time>2015-11-29T11:18:33.000Z</time>
      </trkpt>
      <trkpt lat="45.21695" lon="5.56253">
        <ele>1344</ele>
        <time>2015-11-29T11:18:38.000Z</time>
      </trkpt>
      <trkpt lat="45.21695" lon="5.56253">
        <ele>1344</ele>
        <time>2015-11-29T11:18:46.000Z</time>
      </trkpt>
      <trkpt lat="45.21695" lon="5.56253">
        <ele>1344</ele>
        <time>2015-11-29T11:18:48.000Z</time>
      </trkpt>
      <trkpt lat="45.21695" lon="5.56253">
        <ele>1344</ele>
        <time>2015-11-29T11:18:52.000Z</time>
      </trkpt>
      <trkpt lat="45.21695" lon="5.56253">
        <ele>1344</ele>
        <time>2015-11-29T11:18:54.000Z</time>
      </trkpt>
      <trkpt lat="45.21645" lon="5.56233">
        <ele>1333</ele>
        <time>2015-11-29T11:18:56.000Z</time>
      </trkpt>
      <trkpt lat="45.21634" lon="5.56223">
        <ele>1328</ele>
        <time>2015-11-29T11:19:00.000Z</time>
      </trkpt>
      <trkpt lat="45.21624" lon="5.56213">
        <ele>1322</ele>
        <time>2015-11-29T11:19:04.000Z</time>
      </trkpt>
      <trkpt lat="45.21609" lon="5.56206">
        <ele>1320</ele>
        <time>2015-11-29T11:19:08.000Z</time>
      </trkpt>
      <trkpt lat="45.21601" lon="5.56202">
        <ele>1320</ele>
        <time>2015-11-29T11:19:12.000Z</time>
      </trkpt>
      <trkpt lat="45.21592" lon="5.56199">
        <ele>1320</ele>
        <time>2015-11-29T11:19:14.000Z</time>
      </trkpt>
      <trkpt lat="45.21584" lon="5.56196">
        <ele>1320</ele>
        <time>2015-11-29T11:19:16.000Z</time>
      </trkpt>
      <trkpt lat="45.21575" lon="5.56194">
        <ele>1320</ele>
        <time>2015-11-29T11:19:18.000Z</time>
      </trkpt>
      <trkpt lat="45.21567" lon="5.56192">
        <ele>1322</ele>
        <time>2015-11-29T11:19:20.000Z</time>
      </trkpt>
      <trkpt lat="45.21551" lon="5.56186">
        <ele>1322</ele>
        <time>2015-11-29T11:19:22.000Z</time>
      </trkpt>
      <trkpt lat="45.21551" lon="5.56186">
        <ele>1322</ele>
        <time>2015-11-29T11:19:26.000Z</time>
      </trkpt>
      <trkpt lat="45.21551" lon="5.56186">
        <ele>1322</ele>
        <time>2015-11-29T11:19:28.000Z</time>
      </trkpt>
      <trkpt lat="45.21551" lon="5.56186">
        <ele>1322</ele>
        <time>2015-11-29T11:19:30.000Z</time>
      </trkpt>
      <trkpt lat="45.21551" lon="5.56186">
        <ele>1322</ele>
        <time>2015-11-29T11:19:32.000Z</time>
      </trkpt>
      <trkpt lat="45.21551" lon="5.56186">
        <ele>1322</ele>
        <time>2015-11-29T11:19:34.000Z</time>
      </trkpt>
      <trkpt lat="45.21551" lon="5.56186">
        <ele>1322</ele>
        <time>2015-11-29T11:19:36.000Z</time>
      </trkpt>
      <trkpt lat="45.21551" lon="5.56186">
        <ele>1322</ele>
        <time>2015-11-29T11:19:38.000Z</time>
      </trkpt>
      <trkpt lat="45.21551" lon="5.56186">
        <ele>1322</ele>
        <time>2015-11-29T11:19:40.000Z</time>
      </trkpt>
      <trkpt lat="45.21489" lon="5.56128">
        <ele>1339</ele>
        <time>2015-11-29T11:19:46.000Z</time>
      </trkpt>
      <trkpt lat="45.21479" lon="5.56124">
        <ele>1340</ele>
        <time>2015-11-29T11:19:50.000Z</time>
      </trkpt>
      <trkpt lat="45.21479" lon="5.56124">
        <ele>1340</ele>
        <time>2015-11-29T11:19:52.000Z</time>
      </trkpt>
      <trkpt lat="45.21479" lon="5.56124">
        <ele>1340</ele>
        <time>2015-11-29T11:19:54.000Z</time>
      </trkpt>
      <trkpt lat="45.21479" lon="5.56124">
        <ele>1340</ele>
        <time>2015-11-29T11:19:56.000Z</time>
      </trkpt>
      <trkpt lat="45.21479" lon="5.56124">
        <ele>1340</ele>
        <time>2015-11-29T11:19:58.000Z</time>
      </trkpt>
      <trkpt lat="45.21475" lon="5.56137">
        <ele>1339</ele>
        <time>2015-11-29T11:22:40.000Z</time>
      </trkpt>
      <trkpt lat="45.21472" lon="5.56147">
        <ele>1339</ele>
        <time>2015-11-29T11:22:42.000Z</time>
      </trkpt>
      <trkpt lat="45.21469" lon="5.56157">
        <ele>1338</ele>
        <time>2015-11-29T11:22:44.000Z</time>
      </trkpt>
      <trkpt lat="45.21467" lon="5.56166">
        <ele>1338</ele>
        <time>2015-11-29T11:22:46.000Z</time>
      </trkpt>
      <trkpt lat="45.21465" lon="5.56175">
        <ele>1336</ele>
        <time>2015-11-29T11:22:48.000Z</time>
      </trkpt>
      <trkpt lat="45.21463" lon="5.56194">
        <ele>1336</ele>
        <time>2015-11-29T11:22:50.000Z</time>
      </trkpt>
      <trkpt lat="45.21463" lon="5.56213">
        <ele>1337</ele>
        <time>2015-11-29T11:22:54.000Z</time>
      </trkpt>
      <trkpt lat="45.21463" lon="5.56213">
        <ele>1337</ele>
        <time>2015-11-29T11:22:58.000Z</time>
      </trkpt>
      <trkpt lat="45.21463" lon="5.56213">
        <ele>1337</ele>
        <time>2015-11-29T11:23:00.000Z</time>
      </trkpt>
      <trkpt lat="45.21463" lon="5.56213">
        <ele>1337</ele>
        <time>2015-11-29T11:23:02.000Z</time>
      </trkpt>
      <trkpt lat="45.21463" lon="5.56213">
        <ele>1337</ele>
        <time>2015-11-29T11:23:04.000Z</time>
      </trkpt>
      <trkpt lat="45.21463" lon="5.56213">
        <ele>1337</ele>
        <time>2015-11-29T11:23:06.000Z</time>
      </trkpt>
      <trkpt lat="45.21463" lon="5.56213">
        <ele>1337</ele>
        <time>2015-11-29T11:23:08.000Z</time>
      </trkpt>
      <trkpt lat="45.21463" lon="5.56213">
        <ele>1337</ele>
        <time>2015-11-29T11:23:10.000Z</time>
      </trkpt>
      <trkpt lat="45.21463" lon="5.56213">
        <ele>1337</ele>
        <time>2015-11-29T11:23:12.000Z</time>
      </trkpt>
      <trkpt lat="45.21471" lon="5.56286">
        <ele>1342</ele>
        <time>2015-11-29T11:23:18.000Z</time>
      </trkpt>
      <trkpt lat="45.21472" lon="5.56303">
        <ele>1341</ele>
        <time>2015-11-29T11:23:24.000Z</time>
      </trkpt>
      <trkpt lat="45.21472" lon="5.56303">
        <ele>1341</ele>
        <time>2015-11-29T11:23:26.000Z</time>
      </trkpt>
      <trkpt lat="45.21472" lon="5.56303">
        <ele>1341</ele>
        <time>2015-11-29T11:23:28.000Z</time>
      </trkpt>
      <trkpt lat="45.21472" lon="5.56303">
        <ele>1341</ele>
        <time>2015-11-29T11:23:30.000Z</time>
      </trkpt>
      <trkpt lat="45.21472" lon="5.56303">
        <ele>1341</ele>
        <time>2015-11-29T11:23:32.000Z</time>
      </trkpt>
      <trkpt lat="45.21468" lon="5.5634">
        <ele>1350</ele>
        <time>2015-11-29T11:23:42.000Z</time>
      </trkpt>
      <trkpt lat="45.21464" lon="5.56355">
        <ele>1348</ele>
        <time>2015-11-29T11:23:46.000Z</time>
      </trkpt>
      <trkpt lat="45.21464" lon="5.56355">
        <ele>1348</ele>
        <time>2015-11-29T11:23:48.000Z</time>
      </trkpt>
      <trkpt lat="45.21464" lon="5.56355">
        <ele>1348</ele>
        <time>2015-11-29T11:23:50.000Z</time>
      </trkpt>
      <trkpt lat="45.21464" lon="5.56355">
        <ele>1348</ele>
        <time>2015-11-29T11:23:52.000Z</time>
      </trkpt>
      <trkpt lat="45.21456" lon="5.56367">
        <ele>1339</ele>
        <time>2015-11-29T11:24:02.000Z</time>
      </trkpt>
      <trkpt lat="45.21451" lon="5.56375">
        <ele>1339</ele>
        <time>2015-11-29T11:24:04.000Z</time>
      </trkpt>
      <trkpt lat="45.21447" lon="5.5638">
        <ele>1340</ele>
        <time>2015-11-29T11:24:06.000Z</time>
      </trkpt>
      <trkpt lat="45.21447" lon="5.5638">
        <ele>1340</ele>
        <time>2015-11-29T11:24:08.000Z</time>
      </trkpt>
      <trkpt lat="45.21447" lon="5.5638">
        <ele>1340</ele>
        <time>2015-11-29T11:24:10.000Z</time>
      </trkpt>
      <trkpt lat="45.21442" lon="5.56396">
        <ele>1348</ele>
        <time>2015-11-29T11:24:26.000Z</time>
      </trkpt>
      <trkpt lat="45.2144" lon="5.56407">
        <ele>1349</ele>
        <time>2015-11-29T11:24:28.000Z</time>
      </trkpt>
      <trkpt lat="45.21437" lon="5.56416">
        <ele>1349</ele>
        <time>2015-11-29T11:24:30.000Z</time>
      </trkpt>
      <trkpt lat="45.21436" lon="5.56424">
        <ele>1352</ele>
        <time>2015-11-29T11:24:32.000Z</time>
      </trkpt>
      <trkpt lat="45.21435" lon="5.56432">
        <ele>1355</ele>
        <time>2015-11-29T11:24:34.000Z</time>
      </trkpt>
      <trkpt lat="45.21435" lon="5.56446">
        <ele>1355</ele>
        <time>2015-11-29T11:24:36.000Z</time>
      </trkpt>
      <trkpt lat="45.21435" lon="5.56446">
        <ele>1355</ele>
        <time>2015-11-29T11:24:38.000Z</time>
      </trkpt>
      <trkpt lat="45.21435" lon="5.56446">
        <ele>1355</ele>
        <time>2015-11-29T11:24:40.000Z</time>
      </trkpt>
      <trkpt lat="45.21435" lon="5.56446">
        <ele>1355</ele>
        <time>2015-11-29T11:24:42.000Z</time>
      </trkpt>
      <trkpt lat="45.21435" lon="5.56446">
        <ele>1355</ele>
        <time>2015-11-29T11:24:44.000Z</time>
      </trkpt>
      <trkpt lat="45.21435" lon="5.56446">
        <ele>1355</ele>
        <time>2015-11-29T11:24:46.000Z</time>
      </trkpt>
      <trkpt lat="45.21437" lon="5.56487">
        <ele>1360</ele>
        <time>2015-11-29T11:24:56.000Z</time>
      </trkpt>
      <trkpt lat="45.21437" lon="5.56502">
        <ele>1359</ele>
        <time>2015-11-29T11:25:02.000Z</time>
      </trkpt>
      <trkpt lat="45.21436" lon="5.56514">
        <ele>1360</ele>
        <time>2015-11-29T11:25:06.000Z</time>
      </trkpt>
      <trkpt lat="45.21436" lon="5.56514">
        <ele>1360</ele>
        <time>2015-11-29T11:25:08.000Z</time>
      </trkpt>
      <trkpt lat="45.21436" lon="5.56514">
        <ele>1360</ele>
        <time>2015-11-29T11:25:10.000Z</time>
      </trkpt>
      <trkpt lat="45.21436" lon="5.56514">
        <ele>1360</ele>
        <time>2015-11-29T11:25:12.000Z</time>
      </trkpt>
      <trkpt lat="45.21436" lon="5.56514">
        <ele>1360</ele>
        <time>2015-11-29T11:25:14.000Z</time>
      </trkpt>
      <trkpt lat="45.21436" lon="5.56514">
        <ele>1360</ele>
        <time>2015-11-29T11:25:16.000Z</time>
      </trkpt>
      <trkpt lat="45.21436" lon="5.56514">
        <ele>1360</ele>
        <time>2015-11-29T11:25:18.000Z</time>
      </trkpt>
      <trkpt lat="45.21436" lon="5.56514">
        <ele>1360</ele>
        <time>2015-11-29T11:25:20.000Z</time>
      </trkpt>
      <trkpt lat="45.21436" lon="5.56514">
        <ele>1360</ele>
        <time>2015-11-29T11:25:22.000Z</time>
      </trkpt>
      <trkpt lat="45.21433" lon="5.56543">
        <ele>1365</ele>
        <time>2015-11-29T11:25:54.000Z</time>
      </trkpt>
      <trkpt lat="45.21429" lon="5.56557">
        <ele>1363</ele>
        <time>2015-11-29T11:25:56.000Z</time>
      </trkpt>
      <trkpt lat="45.21425" lon="5.56565">
        <ele>1361</ele>
        <time>2015-11-29T11:25:58.000Z</time>
      </trkpt>
      <trkpt lat="45.21421" lon="5.56569">
        <ele>1363</ele>
        <time>2015-11-29T11:26:00.000Z</time>
      </trkpt>
      <trkpt lat="45.21415" lon="5.56572">
        <ele>1363</ele>
        <time>2015-11-29T11:26:04.000Z</time>
      </trkpt>
      <trkpt lat="45.21408" lon="5.56576">
        <ele>1363</ele>
        <time>2015-11-29T11:26:06.000Z</time>
      </trkpt>
      <trkpt lat="45.21402" lon="5.56583">
        <ele>1361</ele>
        <time>2015-11-29T11:26:08.000Z</time>
      </trkpt>
      <trkpt lat="45.21398" lon="5.5659">
        <ele>1362</ele>
        <time>2015-11-29T11:26:10.000Z</time>
      </trkpt>
      <trkpt lat="45.21395" lon="5.56598">
        <ele>1359</ele>
        <time>2015-11-29T11:26:12.000Z</time>
      </trkpt>
      <trkpt lat="45.21395" lon="5.56598">
        <ele>1359</ele>
        <time>2015-11-29T11:26:14.000Z</time>
      </trkpt>
      <trkpt lat="45.21395" lon="5.56598">
        <ele>1359</ele>
        <time>2015-11-29T11:26:16.000Z</time>
      </trkpt>
      <trkpt lat="45.2139" lon="5.56639">
        <ele>1353</ele>
        <time>2015-11-29T11:26:22.000Z</time>
      </trkpt>
      <trkpt lat="45.21387" lon="5.56652">
        <ele>1349</ele>
        <time>2015-11-29T11:26:26.000Z</time>
      </trkpt>
      <trkpt lat="45.21387" lon="5.56652">
        <ele>1349</ele>
        <time>2015-11-29T11:26:28.000Z</time>
      </trkpt>
      <trkpt lat="45.21387" lon="5.56652">
        <ele>1349</ele>
        <time>2015-11-29T11:26:30.000Z</time>
      </trkpt>
      <trkpt lat="45.21387" lon="5.56652">
        <ele>1349</ele>
        <time>2015-11-29T11:26:32.000Z</time>
      </trkpt>
      <trkpt lat="45.2137" lon="5.56659">
        <ele>1347</ele>
        <time>2015-11-29T11:26:34.000Z</time>
      </trkpt>
      <trkpt lat="45.21361" lon="5.56668">
        <ele>1349</ele>
        <time>2015-11-29T11:26:38.000Z</time>
      </trkpt>
      <trkpt lat="45.21361" lon="5.56668">
        <ele>1349</ele>
        <time>2015-11-29T11:26:40.000Z</time>
      </trkpt>
      <trkpt lat="45.21361" lon="5.56668">
        <ele>1349</ele>
        <time>2015-11-29T11:26:42.000Z</time>
      </trkpt>
      <trkpt lat="45.21361" lon="5.56668">
        <ele>1349</ele>
        <time>2015-11-29T11:26:44.000Z</time>
      </trkpt>
      <trkpt lat="45.21361" lon="5.56668">
        <ele>1349</ele>
        <time>2015-11-29T11:26:46.000Z</time>
      </trkpt>
      <trkpt lat="45.21342" lon="5.56677">
        <ele>1353</ele>
        <time>2015-11-29T11:26:54.000Z</time>
      </trkpt>
      <trkpt lat="45.21332" lon="5.56668">
        <ele>1353</ele>
        <time>2015-11-29T11:27:00.000Z</time>
      </trkpt>
      <trkpt lat="45.21323" lon="5.5666">
        <ele>1355</ele>
        <time>2015-11-29T11:27:04.000Z</time>
      </trkpt>
      <trkpt lat="45.21275" lon="5.56609">
        <ele>1354</ele>
        <time>2015-11-29T11:27:11.000Z</time>
      </trkpt>
      <trkpt lat="45.21262" lon="5.56595">
        <ele>1352</ele>
        <time>2015-11-29T11:27:13.000Z</time>
      </trkpt>
      <trkpt lat="45.21248" lon="5.5658">
        <ele>1352</ele>
        <time>2015-11-29T11:27:15.000Z</time>
      </trkpt>
      <trkpt lat="45.21233" lon="5.56566">
        <ele>1350</ele>
        <time>2015-11-29T11:27:17.000Z</time>
      </trkpt>
      <trkpt lat="45.21186" lon="5.56504">
        <ele>1355</ele>
        <time>2015-11-29T11:27:22.000Z</time>
      </trkpt>
      <trkpt lat="45.21186" lon="5.56504">
        <ele>1355</ele>
        <time>2015-11-29T11:27:30.000Z</time>
      </trkpt>
      <trkpt lat="45.21186" lon="5.56504">
        <ele>1355</ele>
        <time>2015-11-29T11:27:32.000Z</time>
      </trkpt>
      <trkpt lat="45.21186" lon="5.56504">
        <ele>1355</ele>
        <time>2015-11-29T11:27:34.000Z</time>
      </trkpt>
      <trkpt lat="45.21186" lon="5.56504">
        <ele>1355</ele>
        <time>2015-11-29T11:27:36.000Z</time>
      </trkpt>
      <trkpt lat="45.21186" lon="5.56504">
        <ele>1355</ele>
        <time>2015-11-29T11:27:38.000Z</time>
      </trkpt>
      <trkpt lat="45.21194" lon="5.56475">
        <ele>1349</ele>
        <time>2015-11-29T11:27:58.000Z</time>
      </trkpt>
      <trkpt lat="45.21199" lon="5.5646">
        <ele>1354</ele>
        <time>2015-11-29T11:28:00.000Z</time>
      </trkpt>
      <trkpt lat="45.21204" lon="5.56451">
        <ele>1355</ele>
        <time>2015-11-29T11:28:02.000Z</time>
      </trkpt>
      <trkpt lat="45.21204" lon="5.56451">
        <ele>1355</ele>
        <time>2015-11-29T11:28:04.000Z</time>
      </trkpt>
      <trkpt lat="45.21204" lon="5.56451">
        <ele>1355</ele>
        <time>2015-11-29T11:28:06.000Z</time>
      </trkpt>
      <trkpt lat="45.21204" lon="5.56451">
        <ele>1355</ele>
        <time>2015-11-29T11:28:08.000Z</time>
      </trkpt>
      <trkpt lat="45.21204" lon="5.56451">
        <ele>1355</ele>
        <time>2015-11-29T11:28:10.000Z</time>
      </trkpt>
      <trkpt lat="45.21212" lon="5.5644">
        <ele>1361</ele>
        <time>2015-11-29T11:28:14.000Z</time>
      </trkpt>
      <trkpt lat="45.21217" lon="5.56432">
        <ele>1361</ele>
        <time>2015-11-29T11:28:16.000Z</time>
      </trkpt>
      <trkpt lat="45.2122" lon="5.56426">
        <ele>1362</ele>
        <time>2015-11-29T11:28:18.000Z</time>
      </trkpt>
      <trkpt lat="45.21222" lon="5.5642">
        <ele>1362</ele>
        <time>2015-11-29T11:28:22.000Z</time>
      </trkpt>
      <trkpt lat="45.21222" lon="5.5642">
        <ele>1362</ele>
        <time>2015-11-29T11:28:24.000Z</time>
      </trkpt>
      <trkpt lat="45.21222" lon="5.5642">
        <ele>1362</ele>
        <time>2015-11-29T11:28:26.000Z</time>
      </trkpt>
      <trkpt lat="45.21222" lon="5.5642">
        <ele>1362</ele>
        <time>2015-11-29T11:28:28.000Z</time>
      </trkpt>
      <trkpt lat="45.21227" lon="5.56405">
        <ele>1358</ele>
        <time>2015-11-29T11:28:38.000Z</time>
      </trkpt>
      <trkpt lat="45.21231" lon="5.56396">
        <ele>1358</ele>
        <time>2015-11-29T11:28:40.000Z</time>
      </trkpt>
      <trkpt lat="45.21234" lon="5.5639">
        <ele>1359</ele>
        <time>2015-11-29T11:28:42.000Z</time>
      </trkpt>
      <trkpt lat="45.21238" lon="5.56385">
        <ele>1367</ele>
        <time>2015-11-29T11:28:44.000Z</time>
      </trkpt>
      <trkpt lat="45.21242" lon="5.56379">
        <ele>1365</ele>
        <time>2015-11-29T11:28:48.000Z</time>
      </trkpt>
      <trkpt lat="45.21247" lon="5.56375">
        <ele>1366</ele>
        <time>2015-11-29T11:28:50.000Z</time>
      </trkpt>
      <trkpt lat="45.21247" lon="5.56375">
        <ele>1366</ele>
        <time>2015-11-29T11:28:54.000Z</time>
      </trkpt>
      <trkpt lat="45.21247" lon="5.56375">
        <ele>1366</ele>
        <time>2015-11-29T11:28:56.000Z</time>
      </trkpt>
      <trkpt lat="45.21247" lon="5.56375">
        <ele>1366</ele>
        <time>2015-11-29T11:28:58.000Z</time>
      </trkpt>
      <trkpt lat="45.21247" lon="5.56375">
        <ele>1366</ele>
        <time>2015-11-29T11:29:00.000Z</time>
      </trkpt>
      <trkpt lat="45.21256" lon="5.5636">
        <ele>1367</ele>
        <time>2015-11-29T11:29:10.000Z</time>
      </trkpt>
      <trkpt lat="45.21262" lon="5.56351">
        <ele>1368</ele>
        <time>2015-11-29T11:29:12.000Z</time>
      </trkpt>
      <trkpt lat="45.21267" lon="5.56346">
        <ele>1368</ele>
        <time>2015-11-29T11:29:14.000Z</time>
      </trkpt>
      <trkpt lat="45.21273" lon="5.56341">
        <ele>1366</ele>
        <time>2015-11-29T11:29:16.000Z</time>
      </trkpt>
      <trkpt lat="45.21279" lon="5.56336">
        <ele>1368</ele>
        <time>2015-11-29T11:29:18.000Z</time>
      </trkpt>
      <trkpt lat="45.21289" lon="5.5633">
        <ele>1367</ele>
        <time>2015-11-29T11:29:20.000Z</time>
      </trkpt>
      <trkpt lat="45.21298" lon="5.56327">
        <ele>1369</ele>
        <time>2015-11-29T11:29:24.000Z</time>
      </trkpt>
      <trkpt lat="45.21298" lon="5.56327">
        <ele>1369</ele>
        <time>2015-11-29T11:29:26.000Z</time>
      </trkpt>
      <trkpt lat="45.21298" lon="5.56327">
        <ele>1369</ele>
        <time>2015-11-29T11:29:30.000Z</time>
      </trkpt>
      <trkpt lat="45.21298" lon="5.56327">
        <ele>1369</ele>
        <time>2015-11-29T11:29:32.000Z</time>
      </trkpt>
      <trkpt lat="45.21298" lon="5.56327">
        <ele>1369</ele>
        <time>2015-11-29T11:29:34.000Z</time>
      </trkpt>
      <trkpt lat="45.21327" lon="5.56297">
        <ele>1370</ele>
        <time>2015-11-29T11:30:22.000Z</time>
      </trkpt>
      <trkpt lat="45.21327" lon="5.56297">
        <ele>1370</ele>
        <time>2015-11-29T11:30:24.000Z</time>
      </trkpt>
      <trkpt lat="45.21332" lon="5.56296">
        <ele>1354</ele>
        <time>2015-11-29T11:30:26.000Z</time>
      </trkpt>
      <trkpt lat="45.21332" lon="5.56296">
        <ele>1354</ele>
        <time>2015-11-29T11:30:28.000Z</time>
      </trkpt>
      <trkpt lat="45.21332" lon="5.56296">
        <ele>1354</ele>
        <time>2015-11-29T11:30:30.000Z</time>
      </trkpt>
      <trkpt lat="45.21347" lon="5.56284">
        <ele>1348</ele>
        <time>2015-11-29T11:30:34.000Z</time>
      </trkpt>
      <trkpt lat="45.21377" lon="5.56255">
        <ele>1349</ele>
        <time>2015-11-29T11:30:39.000Z</time>
      </trkpt>
      <trkpt lat="45.21398" lon="5.56227">
        <ele>1347</ele>
        <time>2015-11-29T11:30:41.000Z</time>
      </trkpt>
      <trkpt lat="45.21398" lon="5.56227">
        <ele>1347</ele>
        <time>2015-11-29T11:30:47.000Z</time>
      </trkpt>
      <trkpt lat="45.21398" lon="5.56227">
        <ele>1347</ele>
        <time>2015-11-29T11:30:49.000Z</time>
      </trkpt>
      <trkpt lat="45.21398" lon="5.56227">
        <ele>1347</ele>
        <time>2015-11-29T11:30:51.000Z</time>
      </trkpt>
      <trkpt lat="45.21398" lon="5.56227">
        <ele>1347</ele>
        <time>2015-11-29T11:30:53.000Z</time>
      </trkpt>
      <trkpt lat="45.21398" lon="5.56227">
        <ele>1347</ele>
        <time>2015-11-29T11:30:55.000Z</time>
      </trkpt>
      <trkpt lat="45.2142" lon="5.56167">
        <ele>1345</ele>
        <time>2015-11-29T11:30:59.000Z</time>
      </trkpt>
      <trkpt lat="45.21431" lon="5.56132">
        <ele>1344</ele>
        <time>2015-11-29T11:31:01.000Z</time>
      </trkpt>
      <trkpt lat="45.21434" lon="5.5611">
        <ele>1343</ele>
        <time>2015-11-29T11:31:03.000Z</time>
      </trkpt>
      <trkpt lat="45.21431" lon="5.56095">
        <ele>1342</ele>
        <time>2015-11-29T11:31:05.000Z</time>
      </trkpt>
      <trkpt lat="45.21425" lon="5.56085">
        <ele>1342</ele>
        <time>2015-11-29T11:31:07.000Z</time>
      </trkpt>
      <trkpt lat="45.21412" lon="5.56071">
        <ele>1345</ele>
        <time>2015-11-29T11:31:09.000Z</time>
      </trkpt>
      <trkpt lat="45.21398" lon="5.56066">
        <ele>1343</ele>
        <time>2015-11-29T11:31:13.000Z</time>
      </trkpt>
      <trkpt lat="45.21383" lon="5.5606">
        <ele>1341</ele>
        <time>2015-11-29T11:31:17.000Z</time>
      </trkpt>
      <trkpt lat="45.21383" lon="5.5606">
        <ele>1341</ele>
        <time>2015-11-29T11:31:21.000Z</time>
      </trkpt>
      <trkpt lat="45.21383" lon="5.5606">
        <ele>1341</ele>
        <time>2015-11-29T11:31:23.000Z</time>
      </trkpt>
      <trkpt lat="45.21383" lon="5.5606">
        <ele>1341</ele>
        <time>2015-11-29T11:31:25.000Z</time>
      </trkpt>
      <trkpt lat="45.21383" lon="5.5606">
        <ele>1341</ele>
        <time>2015-11-29T11:31:27.000Z</time>
      </trkpt>
      <trkpt lat="45.21383" lon="5.5606">
        <ele>1341</ele>
        <time>2015-11-29T11:31:29.000Z</time>
      </trkpt>
      <trkpt lat="45.21383" lon="5.5606">
        <ele>1341</ele>
        <time>2015-11-29T11:31:31.000Z</time>
      </trkpt>
      <trkpt lat="45.21383" lon="5.5606">
        <ele>1341</ele>
        <time>2015-11-29T11:31:33.000Z</time>
      </trkpt>
      <trkpt lat="45.21383" lon="5.5606">
        <ele>1341</ele>
        <time>2015-11-29T11:31:35.000Z</time>
      </trkpt>
      <trkpt lat="45.21383" lon="5.5606">
        <ele>1341</ele>
        <time>2015-11-29T11:31:37.000Z</time>
      </trkpt>
      <trkpt lat="45.21364" lon="5.56054">
        <ele>1339</ele>
        <time>2015-11-29T11:32:29.000Z</time>
      </trkpt>
      <trkpt lat="45.21351" lon="5.56052">
        <ele>1339</ele>
        <time>2015-11-29T11:32:31.000Z</time>
      </trkpt>
      <trkpt lat="45.21342" lon="5.56051">
        <ele>1338</ele>
        <time>2015-11-29T11:32:33.000Z</time>
      </trkpt>
      <trkpt lat="45.21336" lon="5.56051">
        <ele>1338</ele>
        <time>2015-11-29T11:32:35.000Z</time>
      </trkpt>
      <trkpt lat="45.21336" lon="5.56051">
        <ele>1338</ele>
        <time>2015-11-29T11:32:37.000Z</time>
      </trkpt>
      <trkpt lat="45.21336" lon="5.56051">
        <ele>1338</ele>
        <time>2015-11-29T11:32:39.000Z</time>
      </trkpt>
      <trkpt lat="45.2132" lon="5.56049">
        <ele>1341</ele>
        <time>2015-11-29T11:32:43.000Z</time>
      </trkpt>
      <trkpt lat="45.21307" lon="5.56046">
        <ele>1342</ele>
        <time>2015-11-29T11:32:45.000Z</time>
      </trkpt>
      <trkpt lat="45.21296" lon="5.56042">
        <ele>1344</ele>
        <time>2015-11-29T11:32:47.000Z</time>
      </trkpt>
      <trkpt lat="45.21285" lon="5.56038">
        <ele>1344</ele>
        <time>2015-11-29T11:32:49.000Z</time>
      </trkpt>
      <trkpt lat="45.21277" lon="5.56034">
        <ele>1344</ele>
        <time>2015-11-29T11:32:51.000Z</time>
      </trkpt>
      <trkpt lat="45.21277" lon="5.56034">
        <ele>1344</ele>
        <time>2015-11-29T11:32:53.000Z</time>
      </trkpt>
      <trkpt lat="45.21277" lon="5.56034">
        <ele>1344</ele>
        <time>2015-11-29T11:32:55.000Z</time>
      </trkpt>
      <trkpt lat="45.21244" lon="5.55996">
        <ele>1346</ele>
        <time>2015-11-29T11:32:59.000Z</time>
      </trkpt>
      <trkpt lat="45.21228" lon="5.55984">
        <ele>1340</ele>
        <time>2015-11-29T11:33:03.000Z</time>
      </trkpt>
      <trkpt lat="45.21228" lon="5.55984">
        <ele>1340</ele>
        <time>2015-11-29T11:33:05.000Z</time>
      </trkpt>
      <trkpt lat="45.21228" lon="5.55984">
        <ele>1340</ele>
        <time>2015-11-29T11:33:07.000Z</time>
      </trkpt>
      <trkpt lat="45.21228" lon="5.55984">
        <ele>1340</ele>
        <time>2015-11-29T11:33:09.000Z</time>
      </trkpt>
      <trkpt lat="45.21228" lon="5.55984">
        <ele>1340</ele>
        <time>2015-11-29T11:33:11.000Z</time>
      </trkpt>
      <trkpt lat="45.21228" lon="5.55984">
        <ele>1340</ele>
        <time>2015-11-29T11:33:13.000Z</time>
      </trkpt>
      <trkpt lat="45.21228" lon="5.55984">
        <ele>1340</ele>
        <time>2015-11-29T11:33:15.000Z</time>
      </trkpt>
      <trkpt lat="45.21228" lon="5.55984">
        <ele>1340</ele>
        <time>2015-11-29T11:33:17.000Z</time>
      </trkpt>
      <trkpt lat="45.21228" lon="5.55984">
        <ele>1340</ele>
        <time>2015-11-29T11:33:19.000Z</time>
      </trkpt>
      <trkpt lat="45.2115" lon="5.55948">
        <ele>1336</ele>
        <time>2015-11-29T11:33:25.000Z</time>
      </trkpt>
      <trkpt lat="45.21141" lon="5.55941">
        <ele>1335</ele>
        <time>2015-11-29T11:33:27.000Z</time>
      </trkpt>
      <trkpt lat="45.21128" lon="5.55933">
        <ele>1328</ele>
        <time>2015-11-29T11:33:31.000Z</time>
      </trkpt>
      <trkpt lat="45.21128" lon="5.55933">
        <ele>1328</ele>
        <time>2015-11-29T11:33:33.000Z</time>
      </trkpt>
      <trkpt lat="45.21105" lon="5.55915">
        <ele>1323</ele>
        <time>2015-11-29T11:33:37.000Z</time>
      </trkpt>
      <trkpt lat="45.21091" lon="5.55904">
        <ele>1317</ele>
        <time>2015-11-29T11:33:41.000Z</time>
      </trkpt>
      <trkpt lat="45.21091" lon="5.55904">
        <ele>1317</ele>
        <time>2015-11-29T11:33:43.000Z</time>
      </trkpt>
      <trkpt lat="45.21091" lon="5.55904">
        <ele>1317</ele>
        <time>2015-11-29T11:33:45.000Z</time>
      </trkpt>
      <trkpt lat="45.21091" lon="5.55904">
        <ele>1317</ele>
        <time>2015-11-29T11:33:47.000Z</time>
      </trkpt>
      <trkpt lat="45.21091" lon="5.55904">
        <ele>1317</ele>
        <time>2015-11-29T11:33:49.000Z</time>
      </trkpt>
      <trkpt lat="45.21091" lon="5.55904">
        <ele>1317</ele>
        <time>2015-11-29T11:33:51.000Z</time>
      </trkpt>
      <trkpt lat="45.21091" lon="5.55904">
        <ele>1317</ele>
        <time>2015-11-29T11:33:53.000Z</time>
      </trkpt>
      <trkpt lat="45.21091" lon="5.55904">
        <ele>1317</ele>
        <time>2015-11-29T11:33:55.000Z</time>
      </trkpt>
      <trkpt lat="45.21091" lon="5.55904">
        <ele>1317</ele>
        <time>2015-11-29T11:33:57.000Z</time>
      </trkpt>
      <trkpt lat="45.21091" lon="5.55904">
        <ele>1317</ele>
        <time>2015-11-29T11:33:59.000Z</time>
      </trkpt>
      <trkpt lat="45.21048" lon="5.55911">
        <ele>1311</ele>
        <time>2015-11-29T11:34:03.000Z</time>
      </trkpt>
      <trkpt lat="45.21031" lon="5.55914">
        <ele>1309</ele>
        <time>2015-11-29T11:34:07.000Z</time>
      </trkpt>
      <trkpt lat="45.21023" lon="5.55912">
        <ele>1307</ele>
        <time>2015-11-29T11:34:11.000Z</time>
      </trkpt>
      <trkpt lat="45.21016" lon="5.55909">
        <ele>1306</ele>
        <time>2015-11-29T11:34:13.000Z</time>
      </trkpt>
      <trkpt lat="45.21008" lon="5.55905">
        <ele>1309</ele>
        <time>2015-11-29T11:34:15.000Z</time>
      </trkpt>
      <trkpt lat="45.21001" lon="5.55901">
        <ele>1311</ele>
        <time>2015-11-29T11:34:17.000Z</time>
      </trkpt>
      <trkpt lat="45.20969" lon="5.55887">
        <ele>1316</ele>
        <time>2015-11-29T11:34:23.000Z</time>
      </trkpt>
      <trkpt lat="45.20916" lon="5.55868">
        <ele>1318</ele>
        <time>2015-11-29T11:34:26.000Z</time>
      </trkpt>
      <trkpt lat="45.20903" lon="5.55865">
        <ele>1318</ele>
        <time>2015-11-29T11:34:28.000Z</time>
      </trkpt>
      <trkpt lat="45.20887" lon="5.55863">
        <ele>1319</ele>
        <time>2015-11-29T11:34:30.000Z</time>
      </trkpt>
      <trkpt lat="45.20874" lon="5.55864">
        <ele>1319</ele>
        <time>2015-11-29T11:34:32.000Z</time>
      </trkpt>
      <trkpt lat="45.20861" lon="5.55867">
        <ele>1320</ele>
        <time>2015-11-29T11:34:34.000Z</time>
      </trkpt>
      <trkpt lat="45.20847" lon="5.55866">
        <ele>1319</ele>
        <time>2015-11-29T11:34:36.000Z</time>
      </trkpt>
      <trkpt lat="45.20831" lon="5.55865">
        <ele>1320</ele>
        <time>2015-11-29T11:34:38.000Z</time>
      </trkpt>
      <trkpt lat="45.20813" lon="5.55866">
        <ele>1324</ele>
        <time>2015-11-29T11:34:40.000Z</time>
      </trkpt>
      <trkpt lat="45.20794" lon="5.55861">
        <ele>1328</ele>
        <time>2015-11-29T11:34:42.000Z</time>
      </trkpt>
      <trkpt lat="45.20773" lon="5.55856">
        <ele>1328</ele>
        <time>2015-11-29T11:34:46.000Z</time>
      </trkpt>
      <trkpt lat="45.20773" lon="5.55856">
        <ele>1328</ele>
        <time>2015-11-29T11:34:48.000Z</time>
      </trkpt>
      <trkpt lat="45.20773" lon="5.55856">
        <ele>1328</ele>
        <time>2015-11-29T11:34:50.000Z</time>
      </trkpt>
      <trkpt lat="45.20773" lon="5.55856">
        <ele>1328</ele>
        <time>2015-11-29T11:34:57.000Z</time>
      </trkpt>
      <trkpt lat="45.20773" lon="5.55856">
        <ele>1328</ele>
        <time>2015-11-29T11:34:59.000Z</time>
      </trkpt>
      <trkpt lat="45.20773" lon="5.55856">
        <ele>1328</ele>
        <time>2015-11-29T11:35:01.000Z</time>
      </trkpt>
      <trkpt lat="45.20688" lon="5.55871">
        <ele>1330</ele>
        <time>2015-11-29T11:35:09.000Z</time>
      </trkpt>
      <trkpt lat="45.20688" lon="5.55871">
        <ele>1330</ele>
        <time>2015-11-29T11:35:11.000Z</time>
      </trkpt>
      <trkpt lat="45.20688" lon="5.55871">
        <ele>1330</ele>
        <time>2015-11-29T11:35:13.000Z</time>
      </trkpt>
      <trkpt lat="45.20688" lon="5.55871">
        <ele>1330</ele>
        <time>2015-11-29T11:35:15.000Z</time>
      </trkpt>
      <trkpt lat="45.20666" lon="5.55893">
        <ele>1326</ele>
        <time>2015-11-29T11:35:19.000Z</time>
      </trkpt>
      <trkpt lat="45.20658" lon="5.55911">
        <ele>1323</ele>
        <time>2015-11-29T11:35:23.000Z</time>
      </trkpt>
      <trkpt lat="45.20647" lon="5.55926">
        <ele>1323</ele>
        <time>2015-11-29T11:35:27.000Z</time>
      </trkpt>
      <trkpt lat="45.20647" lon="5.55926">
        <ele>1323</ele>
        <time>2015-11-29T11:35:29.000Z</time>
      </trkpt>
      <trkpt lat="45.20647" lon="5.55926">
        <ele>1323</ele>
        <time>2015-11-29T11:35:31.000Z</time>
      </trkpt>
      <trkpt lat="45.20647" lon="5.55926">
        <ele>1323</ele>
        <time>2015-11-29T11:35:33.000Z</time>
      </trkpt>
      <trkpt lat="45.20647" lon="5.55926">
        <ele>1323</ele>
        <time>2015-11-29T11:35:35.000Z</time>
      </trkpt>
      <trkpt lat="45.20612" lon="5.55945">
        <ele>1314</ele>
        <time>2015-11-29T11:35:39.000Z</time>
      </trkpt>
      <trkpt lat="45.20598" lon="5.55944">
        <ele>1313</ele>
        <time>2015-11-29T11:35:43.000Z</time>
      </trkpt>
      <trkpt lat="45.20589" lon="5.55946">
        <ele>1312</ele>
        <time>2015-11-29T11:35:45.000Z</time>
      </trkpt>
      <trkpt lat="45.2058" lon="5.55948">
        <ele>1313</ele>
        <time>2015-11-29T11:35:47.000Z</time>
      </trkpt>
      <trkpt lat="45.2057" lon="5.55949">
        <ele>1313</ele>
        <time>2015-11-29T11:35:49.000Z</time>
      </trkpt>
      <trkpt lat="45.20555" lon="5.55945">
        <ele>1317</ele>
        <time>2015-11-29T11:35:53.000Z</time>
      </trkpt>
      <trkpt lat="45.20555" lon="5.55945">
        <ele>1317</ele>
        <time>2015-11-29T11:35:55.000Z</time>
      </trkpt>
      <trkpt lat="45.20555" lon="5.55945">
        <ele>1317</ele>
        <time>2015-11-29T11:35:57.000Z</time>
      </trkpt>
      <trkpt lat="45.20509" lon="5.55933">
        <ele>1313</ele>
        <time>2015-11-29T11:36:03.000Z</time>
      </trkpt>
      <trkpt lat="45.205" lon="5.55927">
        <ele>1313</ele>
        <time>2015-11-29T11:36:05.000Z</time>
      </trkpt>
      <trkpt lat="45.20483" lon="5.55924">
        <ele>1306</ele>
        <time>2015-11-29T11:36:09.000Z</time>
      </trkpt>
      <trkpt lat="45.20467" lon="5.55922">
        <ele>1303</ele>
        <time>2015-11-29T11:36:13.000Z</time>
      </trkpt>
      <trkpt lat="45.20467" lon="5.55922">
        <ele>1303</ele>
        <time>2015-11-29T11:36:17.000Z</time>
      </trkpt>
      <trkpt lat="45.20452" lon="5.55923">
        <ele>1296</ele>
        <time>2015-11-29T11:36:19.000Z</time>
      </trkpt>
      <trkpt lat="45.20441" lon="5.55924">
        <ele>1295</ele>
        <time>2015-11-29T11:36:21.000Z</time>
      </trkpt>
      <trkpt lat="45.20432" lon="5.55926">
        <ele>1292</ele>
        <time>2015-11-29T11:36:23.000Z</time>
      </trkpt>
      <trkpt lat="45.20423" lon="5.55928">
        <ele>1287</ele>
        <time>2015-11-29T11:36:25.000Z</time>
      </trkpt>
      <trkpt lat="45.20414" lon="5.55935">
        <ele>1288</ele>
        <time>2015-11-29T11:36:27.000Z</time>
      </trkpt>
      <trkpt lat="45.20396" lon="5.55942">
        <ele>1284</ele>
        <time>2015-11-29T11:36:29.000Z</time>
      </trkpt>
      <trkpt lat="45.20396" lon="5.55942">
        <ele>1284</ele>
        <time>2015-11-29T11:36:31.000Z</time>
      </trkpt>
      <trkpt lat="45.20396" lon="5.55942">
        <ele>1284</ele>
        <time>2015-11-29T11:36:33.000Z</time>
      </trkpt>
      <trkpt lat="45.20352" lon="5.55951">
        <ele>1281</ele>
        <time>2015-11-29T11:36:37.000Z</time>
      </trkpt>
      <trkpt lat="45.20352" lon="5.55951">
        <ele>1281</ele>
        <time>2015-11-29T11:36:39.000Z</time>
      </trkpt>
      <trkpt lat="45.20352" lon="5.55951">
        <ele>1281</ele>
        <time>2015-11-29T11:36:41.000Z</time>
      </trkpt>
      <trkpt lat="45.20352" lon="5.55951">
        <ele>1281</ele>
        <time>2015-11-29T11:36:43.000Z</time>
      </trkpt>
      <trkpt lat="45.20352" lon="5.55951">
        <ele>1281</ele>
        <time>2015-11-29T11:36:45.000Z</time>
      </trkpt>
      <trkpt lat="45.20275" lon="5.55932">
        <ele>1285</ele>
        <time>2015-11-29T11:36:51.000Z</time>
      </trkpt>
      <trkpt lat="45.20255" lon="5.55938">
        <ele>1286</ele>
        <time>2015-11-29T11:36:53.000Z</time>
      </trkpt>
      <trkpt lat="45.20238" lon="5.55922">
        <ele>1289</ele>
        <time>2015-11-29T11:36:56.000Z</time>
      </trkpt>
      <trkpt lat="45.20238" lon="5.55922">
        <ele>1289</ele>
        <time>2015-11-29T11:36:58.000Z</time>
      </trkpt>
      <trkpt lat="45.20238" lon="5.55922">
        <ele>1289</ele>
        <time>2015-11-29T11:37:00.000Z</time>
      </trkpt>
      <trkpt lat="45.20238" lon="5.55922">
        <ele>1289</ele>
        <time>2015-11-29T11:37:04.000Z</time>
      </trkpt>
      <trkpt lat="45.20238" lon="5.55922">
        <ele>1289</ele>
        <time>2015-11-29T11:37:06.000Z</time>
      </trkpt>
      <trkpt lat="45.20156" lon="5.55938">
        <ele>1290</ele>
        <time>2015-11-29T11:37:11.000Z</time>
      </trkpt>
      <trkpt lat="45.20156" lon="5.55938">
        <ele>1290</ele>
        <time>2015-11-29T11:37:16.000Z</time>
      </trkpt>
      <trkpt lat="45.20156" lon="5.55938">
        <ele>1290</ele>
        <time>2015-11-29T11:37:19.000Z</time>
      </trkpt>
      <trkpt lat="45.201" lon="5.55933">
        <ele>1286</ele>
        <time>2015-11-29T11:37:25.000Z</time>
      </trkpt>
      <trkpt lat="45.20085" lon="5.55926">
        <ele>1290</ele>
        <time>2015-11-29T11:37:29.000Z</time>
      </trkpt>
      <trkpt lat="45.20085" lon="5.55926">
        <ele>1290</ele>
        <time>2015-11-29T11:37:31.000Z</time>
      </trkpt>
      <trkpt lat="45.20067" lon="5.55922">
        <ele>1286</ele>
        <time>2015-11-29T11:37:33.000Z</time>
      </trkpt>
      <trkpt lat="45.2005" lon="5.55914">
        <ele>1285</ele>
        <time>2015-11-29T11:37:37.000Z</time>
      </trkpt>
      <trkpt lat="45.20034" lon="5.55903">
        <ele>1287</ele>
        <time>2015-11-29T11:37:41.000Z</time>
      </trkpt>
      <trkpt lat="45.20034" lon="5.55903">
        <ele>1287</ele>
        <time>2015-11-29T11:37:43.000Z</time>
      </trkpt>
      <trkpt lat="45.20034" lon="5.55903">
        <ele>1287</ele>
        <time>2015-11-29T11:37:45.000Z</time>
      </trkpt>
      <trkpt lat="45.20034" lon="5.55903">
        <ele>1287</ele>
        <time>2015-11-29T11:37:47.000Z</time>
      </trkpt>
      <trkpt lat="45.19999" lon="5.55869">
        <ele>1283</ele>
        <time>2015-11-29T11:37:51.000Z</time>
      </trkpt>
      <trkpt lat="45.19964" lon="5.55839">
        <ele>1285</ele>
        <time>2015-11-29T11:37:55.000Z</time>
      </trkpt>
      <trkpt lat="45.19964" lon="5.55839">
        <ele>1285</ele>
        <time>2015-11-29T11:38:00.000Z</time>
      </trkpt>
      <trkpt lat="45.1992" lon="5.5583">
        <ele>1275</ele>
        <time>2015-11-29T11:38:03.000Z</time>
      </trkpt>
      <trkpt lat="45.19904" lon="5.55828">
        <ele>1275</ele>
        <time>2015-11-29T11:38:06.000Z</time>
      </trkpt>
      <trkpt lat="45.19904" lon="5.55828">
        <ele>1275</ele>
        <time>2015-11-29T11:38:08.000Z</time>
      </trkpt>
      <trkpt lat="45.19904" lon="5.55828">
        <ele>1275</ele>
        <time>2015-11-29T11:38:10.000Z</time>
      </trkpt>
      <trkpt lat="45.19873" lon="5.55833">
        <ele>1275</ele>
        <time>2015-11-29T11:38:19.000Z</time>
      </trkpt>
      <trkpt lat="45.1985" lon="5.5584">
        <ele>1277</ele>
        <time>2015-11-29T11:38:21.000Z</time>
      </trkpt>
      <trkpt lat="45.19832" lon="5.55842">
        <ele>1276</ele>
        <time>2015-11-29T11:38:23.000Z</time>
      </trkpt>
      <trkpt lat="45.19815" lon="5.55849">
        <ele>1279</ele>
        <time>2015-11-29T11:38:25.000Z</time>
      </trkpt>
      <trkpt lat="45.198" lon="5.55844">
        <ele>1281</ele>
        <time>2015-11-29T11:38:27.000Z</time>
      </trkpt>
      <trkpt lat="45.198" lon="5.55844">
        <ele>1281</ele>
        <time>2015-11-29T11:38:31.000Z</time>
      </trkpt>
      <trkpt lat="45.198" lon="5.55844">
        <ele>1281</ele>
        <time>2015-11-29T11:38:33.000Z</time>
      </trkpt>
      <trkpt lat="45.19743" lon="5.55808">
        <ele>1278</ele>
        <time>2015-11-29T11:38:35.000Z</time>
      </trkpt>
      <trkpt lat="45.1973" lon="5.55803">
        <ele>1277</ele>
        <time>2015-11-29T11:38:37.000Z</time>
      </trkpt>
      <trkpt lat="45.19719" lon="5.558">
        <ele>1276</ele>
        <time>2015-11-29T11:38:39.000Z</time>
      </trkpt>
      <trkpt lat="45.19711" lon="5.55791">
        <ele>1275</ele>
        <time>2015-11-29T11:38:41.000Z</time>
      </trkpt>
      <trkpt lat="45.19711" lon="5.55791">
        <ele>1275</ele>
        <time>2015-11-29T11:38:43.000Z</time>
      </trkpt>
      <trkpt lat="45.19676" lon="5.55783">
        <ele>1273</ele>
        <time>2015-11-29T11:38:46.000Z</time>
      </trkpt>
      <trkpt lat="45.19661" lon="5.55785">
        <ele>1274</ele>
        <time>2015-11-29T11:38:48.000Z</time>
      </trkpt>
      <trkpt lat="45.19647" lon="5.55787">
        <ele>1275</ele>
        <time>2015-11-29T11:38:50.000Z</time>
      </trkpt>
      <trkpt lat="45.19634" lon="5.55786">
        <ele>1274</ele>
        <time>2015-11-29T11:38:52.000Z</time>
      </trkpt>
      <trkpt lat="45.19623" lon="5.55783">
        <ele>1274</ele>
        <time>2015-11-29T11:38:54.000Z</time>
      </trkpt>
      <trkpt lat="45.19611" lon="5.55781">
        <ele>1274</ele>
        <time>2015-11-29T11:38:56.000Z</time>
      </trkpt>
      <trkpt lat="45.19597" lon="5.55783">
        <ele>1273</ele>
        <time>2015-11-29T11:38:58.000Z</time>
      </trkpt>
      <trkpt lat="45.19585" lon="5.55784">
        <ele>1270</ele>
        <time>2015-11-29T11:39:00.000Z</time>
      </trkpt>
      <trkpt lat="45.19574" lon="5.55782">
        <ele>1269</ele>
        <time>2015-11-29T11:39:02.000Z</time>
      </trkpt>
      <trkpt lat="45.19574" lon="5.55782">
        <ele>1269</ele>
        <time>2015-11-29T11:39:04.000Z</time>
      </trkpt>
      <trkpt lat="45.19574" lon="5.55782">
        <ele>1269</ele>
        <time>2015-11-29T11:39:08.000Z</time>
      </trkpt>
      <trkpt lat="45.19574" lon="5.55782">
        <ele>1269</ele>
        <time>2015-11-29T11:39:10.000Z</time>
      </trkpt>
      <trkpt lat="45.19574" lon="5.55782">
        <ele>1269</ele>
        <time>2015-11-29T11:39:14.000Z</time>
      </trkpt>
      <trkpt lat="45.19532" lon="5.55725">
        <ele>1249</ele>
        <time>2015-11-29T11:39:18.000Z</time>
      </trkpt>
      <trkpt lat="45.19532" lon="5.55725">
        <ele>1249</ele>
        <time>2015-11-29T11:39:23.000Z</time>
      </trkpt>
      <trkpt lat="45.19532" lon="5.55725">
        <ele>1249</ele>
        <time>2015-11-29T11:39:25.000Z</time>
      </trkpt>
      <trkpt lat="45.19532" lon="5.55725">
        <ele>1249</ele>
        <time>2015-11-29T11:39:27.000Z</time>
      </trkpt>
      <trkpt lat="45.19532" lon="5.55725">
        <ele>1249</ele>
        <time>2015-11-29T11:39:29.000Z</time>
      </trkpt>
      <trkpt lat="45.19532" lon="5.55725">
        <ele>1249</ele>
        <time>2015-11-29T11:39:31.000Z</time>
      </trkpt>
      <trkpt lat="45.19532" lon="5.55725">
        <ele>1249</ele>
        <time>2015-11-29T11:39:33.000Z</time>
      </trkpt>
      <trkpt lat="45.19486" lon="5.55682">
        <ele>1242</ele>
        <time>2015-11-29T11:39:39.000Z</time>
      </trkpt>
      <trkpt lat="45.19477" lon="5.55675">
        <ele>1238</ele>
        <time>2015-11-29T11:39:43.000Z</time>
      </trkpt>
      <trkpt lat="45.19477" lon="5.55675">
        <ele>1238</ele>
        <time>2015-11-29T11:39:45.000Z</time>
      </trkpt>
      <trkpt lat="45.19464" lon="5.55658">
        <ele>1241</ele>
        <time>2015-11-29T11:39:47.000Z</time>
      </trkpt>
      <trkpt lat="45.19456" lon="5.55647">
        <ele>1241</ele>
        <time>2015-11-29T11:39:49.000Z</time>
      </trkpt>
      <trkpt lat="45.19445" lon="5.55635">
        <ele>1241</ele>
        <time>2015-11-29T11:39:51.000Z</time>
      </trkpt>
      <trkpt lat="45.19436" lon="5.55627">
        <ele>1241</ele>
        <time>2015-11-29T11:39:53.000Z</time>
      </trkpt>
      <trkpt lat="45.19436" lon="5.55627">
        <ele>1241</ele>
        <time>2015-11-29T11:39:55.000Z</time>
      </trkpt>
      <trkpt lat="45.19436" lon="5.55627">
        <ele>1241</ele>
        <time>2015-11-29T11:39:57.000Z</time>
      </trkpt>
      <trkpt lat="45.19436" lon="5.55627">
        <ele>1241</ele>
        <time>2015-11-29T11:39:59.000Z</time>
      </trkpt>
      <trkpt lat="45.19436" lon="5.55627">
        <ele>1241</ele>
        <time>2015-11-29T11:40:01.000Z</time>
      </trkpt>
      <trkpt lat="45.19436" lon="5.55627">
        <ele>1241</ele>
        <time>2015-11-29T11:40:03.000Z</time>
      </trkpt>
      <trkpt lat="45.19436" lon="5.55627">
        <ele>1241</ele>
        <time>2015-11-29T11:40:05.000Z</time>
      </trkpt>
      <trkpt lat="45.19436" lon="5.55627">
        <ele>1241</ele>
        <time>2015-11-29T11:40:07.000Z</time>
      </trkpt>
      <trkpt lat="45.19436" lon="5.55627">
        <ele>1241</ele>
        <time>2015-11-29T11:40:09.000Z</time>
      </trkpt>
      <trkpt lat="45.19436" lon="5.55627">
        <ele>1241</ele>
        <time>2015-11-29T11:40:11.000Z</time>
      </trkpt>
      <trkpt lat="45.19436" lon="5.55627">
        <ele>1241</ele>
        <time>2015-11-29T11:40:13.000Z</time>
      </trkpt>
      <trkpt lat="45.19436" lon="5.55627">
        <ele>1241</ele>
        <time>2015-11-29T11:40:15.000Z</time>
      </trkpt>
      <trkpt lat="45.19436" lon="5.55627">
        <ele>1241</ele>
        <time>2015-11-29T11:41:33.000Z</time>
      </trkpt>
    </trkseg>
  </trk>
</gpx>